<?xml version="1.0" encoding="UTF-8"?>
<gpx version="1.0" creator="GPSBabel - http://www.gpsbabel.org" xmlns="http://www.topografix.com/GPX/1/0">
  <time>2020-02-23T02:33:42.471Z</time>
  <bounds minlat="17.016044910" minlon="-96.418805440" maxlat="17.043844010" maxlon="-96.355573580"/>
  <trk>
    <name>Piedra Tenate Drivein.PatMemo.2020-01-21</name>
    <trkseg>
      <trkpt lat="17.018580110" lon="-96.418805440">
        <ele>1807.600</ele>
        <time>2020-01-21T15:50:51Z</time>
      </trkpt>
      <trkpt lat="17.018563740" lon="-96.418760070">
        <ele>1803.600</ele>
        <time>2020-01-21T15:50:52Z</time>
      </trkpt>
      <trkpt lat="17.018546480" lon="-96.418726270">
        <ele>1802.600</ele>
        <time>2020-01-21T15:50:53Z</time>
      </trkpt>
      <trkpt lat="17.018513970" lon="-96.418661120">
        <ele>1796.400</ele>
        <time>2020-01-21T15:50:55Z</time>
      </trkpt>
      <trkpt lat="17.018481080" lon="-96.418591130">
        <ele>1795.800</ele>
        <time>2020-01-21T15:50:57Z</time>
      </trkpt>
      <trkpt lat="17.018460660" lon="-96.418552400">
        <ele>1794.800</ele>
        <time>2020-01-21T15:50:58Z</time>
      </trkpt>
      <trkpt lat="17.018444850" lon="-96.418514220">
        <ele>1793.700</ele>
        <time>2020-01-21T15:50:59Z</time>
      </trkpt>
      <trkpt lat="17.018427430" lon="-96.418477560">
        <ele>1792.600</ele>
        <time>2020-01-21T15:51:00Z</time>
      </trkpt>
      <trkpt lat="17.018408720" lon="-96.418438470">
        <ele>1793.300</ele>
        <time>2020-01-21T15:51:01Z</time>
      </trkpt>
      <trkpt lat="17.018387180" lon="-96.418396750">
        <ele>1792.200</ele>
        <time>2020-01-21T15:51:02Z</time>
      </trkpt>
      <trkpt lat="17.018364860" lon="-96.418355440">
        <ele>1792.500</ele>
        <time>2020-01-21T15:51:03Z</time>
      </trkpt>
      <trkpt lat="17.018336470" lon="-96.418315170">
        <ele>1792.900</ele>
        <time>2020-01-21T15:51:04Z</time>
      </trkpt>
      <trkpt lat="17.018302670" lon="-96.418275430">
        <ele>1793.300</ele>
        <time>2020-01-21T15:51:05Z</time>
      </trkpt>
      <trkpt lat="17.018271120" lon="-96.418230900">
        <ele>1793.400</ele>
        <time>2020-01-21T15:51:06Z</time>
      </trkpt>
      <trkpt lat="17.018236040" lon="-96.418192840">
        <ele>1794.100</ele>
        <time>2020-01-21T15:51:07Z</time>
      </trkpt>
      <trkpt lat="17.018198330" lon="-96.418159680">
        <ele>1794.500</ele>
        <time>2020-01-21T15:51:08Z</time>
      </trkpt>
      <trkpt lat="17.018158560" lon="-96.418129140">
        <ele>1793.400</ele>
        <time>2020-01-21T15:51:09Z</time>
      </trkpt>
      <trkpt lat="17.018125410" lon="-96.418091110">
        <ele>1793.200</ele>
        <time>2020-01-21T15:51:10Z</time>
      </trkpt>
      <trkpt lat="17.018081980" lon="-96.418059010">
        <ele>1793.800</ele>
        <time>2020-01-21T15:51:11Z</time>
      </trkpt>
      <trkpt lat="17.018042960" lon="-96.418021090">
        <ele>1793.500</ele>
        <time>2020-01-21T15:51:12Z</time>
      </trkpt>
      <trkpt lat="17.017998910" lon="-96.417987770">
        <ele>1794.900</ele>
        <time>2020-01-21T15:51:13Z</time>
      </trkpt>
      <trkpt lat="17.017962750" lon="-96.417947980">
        <ele>1796.400</ele>
        <time>2020-01-21T15:51:14Z</time>
      </trkpt>
      <trkpt lat="17.017927410" lon="-96.417916980">
        <ele>1797.200</ele>
        <time>2020-01-21T15:51:15Z</time>
      </trkpt>
      <trkpt lat="17.017893300" lon="-96.417883150">
        <ele>1798.400</ele>
        <time>2020-01-21T15:51:16Z</time>
      </trkpt>
      <trkpt lat="17.017863820" lon="-96.417852990">
        <ele>1798.300</ele>
        <time>2020-01-21T15:51:17Z</time>
      </trkpt>
      <trkpt lat="17.017828630" lon="-96.417821610">
        <ele>1797.800</ele>
        <time>2020-01-21T15:51:18Z</time>
      </trkpt>
      <trkpt lat="17.017790220" lon="-96.417788890">
        <ele>1798.000</ele>
        <time>2020-01-21T15:51:19Z</time>
      </trkpt>
      <trkpt lat="17.017752460" lon="-96.417755340">
        <ele>1799.600</ele>
        <time>2020-01-21T15:51:20Z</time>
      </trkpt>
      <trkpt lat="17.017709190" lon="-96.417718250">
        <ele>1799.900</ele>
        <time>2020-01-21T15:51:21Z</time>
      </trkpt>
      <trkpt lat="17.017667310" lon="-96.417679980">
        <ele>1800.500</ele>
        <time>2020-01-21T15:51:22Z</time>
      </trkpt>
      <trkpt lat="17.017624210" lon="-96.417644520">
        <ele>1800.600</ele>
        <time>2020-01-21T15:51:23Z</time>
      </trkpt>
      <trkpt lat="17.017582650" lon="-96.417615910">
        <ele>1801.500</ele>
        <time>2020-01-21T15:51:24Z</time>
      </trkpt>
      <trkpt lat="17.017540910" lon="-96.417592480">
        <ele>1801.900</ele>
        <time>2020-01-21T15:51:25Z</time>
      </trkpt>
      <trkpt lat="17.017508660" lon="-96.417567550">
        <ele>1803.300</ele>
        <time>2020-01-21T15:51:26Z</time>
      </trkpt>
      <trkpt lat="17.017484730" lon="-96.417533830">
        <ele>1803.500</ele>
        <time>2020-01-21T15:51:27Z</time>
      </trkpt>
      <trkpt lat="17.017458430" lon="-96.417500550">
        <ele>1803.500</ele>
        <time>2020-01-21T15:51:28Z</time>
      </trkpt>
      <trkpt lat="17.017420740" lon="-96.417443570">
        <ele>1804.700</ele>
        <time>2020-01-21T15:51:30Z</time>
      </trkpt>
      <trkpt lat="17.017378800" lon="-96.417389260">
        <ele>1805.000</ele>
        <time>2020-01-21T15:51:32Z</time>
      </trkpt>
      <trkpt lat="17.017343280" lon="-96.417322220">
        <ele>1804.500</ele>
        <time>2020-01-21T15:51:34Z</time>
      </trkpt>
      <trkpt lat="17.017328080" lon="-96.417284320">
        <ele>1804.900</ele>
        <time>2020-01-21T15:51:35Z</time>
      </trkpt>
      <trkpt lat="17.017313460" lon="-96.417248080">
        <ele>1804.900</ele>
        <time>2020-01-21T15:51:36Z</time>
      </trkpt>
      <trkpt lat="17.017287890" lon="-96.417182840">
        <ele>1805.700</ele>
        <time>2020-01-21T15:51:38Z</time>
      </trkpt>
      <trkpt lat="17.017266520" lon="-96.417116670">
        <ele>1806.400</ele>
        <time>2020-01-21T15:51:40Z</time>
      </trkpt>
      <trkpt lat="17.017236180" lon="-96.417055320">
        <ele>1804.800</ele>
        <time>2020-01-21T15:51:42Z</time>
      </trkpt>
      <trkpt lat="17.017216140" lon="-96.417021540">
        <ele>1805.300</ele>
        <time>2020-01-21T15:51:43Z</time>
      </trkpt>
      <trkpt lat="17.017195570" lon="-96.416983080">
        <ele>1805.600</ele>
        <time>2020-01-21T15:51:44Z</time>
      </trkpt>
      <trkpt lat="17.017159190" lon="-96.416942680">
        <ele>1805.900</ele>
        <time>2020-01-21T15:51:45Z</time>
      </trkpt>
      <trkpt lat="17.017138090" lon="-96.416903570">
        <ele>1806.400</ele>
        <time>2020-01-21T15:51:46Z</time>
      </trkpt>
      <trkpt lat="17.017120110" lon="-96.416860330">
        <ele>1806.800</ele>
        <time>2020-01-21T15:51:47Z</time>
      </trkpt>
      <trkpt lat="17.017105120" lon="-96.416818840">
        <ele>1807.100</ele>
        <time>2020-01-21T15:51:48Z</time>
      </trkpt>
      <trkpt lat="17.017092380" lon="-96.416778660">
        <ele>1807.400</ele>
        <time>2020-01-21T15:51:49Z</time>
      </trkpt>
      <trkpt lat="17.017103750" lon="-96.416712060">
        <ele>1808.300</ele>
        <time>2020-01-21T15:51:51Z</time>
      </trkpt>
      <trkpt lat="17.017126330" lon="-96.416650500">
        <ele>1809.600</ele>
        <time>2020-01-21T15:51:53Z</time>
      </trkpt>
      <trkpt lat="17.017160750" lon="-96.416585730">
        <ele>1809.600</ele>
        <time>2020-01-21T15:51:55Z</time>
      </trkpt>
      <trkpt lat="17.017178760" lon="-96.416548830">
        <ele>1809.000</ele>
        <time>2020-01-21T15:51:56Z</time>
      </trkpt>
      <trkpt lat="17.017196060" lon="-96.416504310">
        <ele>1808.100</ele>
        <time>2020-01-21T15:51:57Z</time>
      </trkpt>
      <trkpt lat="17.017210400" lon="-96.416458880">
        <ele>1807.400</ele>
        <time>2020-01-21T15:51:58Z</time>
      </trkpt>
      <trkpt lat="17.017217280" lon="-96.416415920">
        <ele>1807.500</ele>
        <time>2020-01-21T15:51:59Z</time>
      </trkpt>
      <trkpt lat="17.017221250" lon="-96.416370970">
        <ele>1807.700</ele>
        <time>2020-01-21T15:52:00Z</time>
      </trkpt>
      <trkpt lat="17.017219600" lon="-96.416325650">
        <ele>1808.700</ele>
        <time>2020-01-21T15:52:01Z</time>
      </trkpt>
      <trkpt lat="17.017216190" lon="-96.416281410">
        <ele>1809.100</ele>
        <time>2020-01-21T15:52:02Z</time>
      </trkpt>
      <trkpt lat="17.017212310" lon="-96.416241120">
        <ele>1809.400</ele>
        <time>2020-01-21T15:52:03Z</time>
      </trkpt>
      <trkpt lat="17.017213020" lon="-96.416180290">
        <ele>1809.700</ele>
        <time>2020-01-21T15:52:05Z</time>
      </trkpt>
      <trkpt lat="17.017236840" lon="-96.416134660">
        <ele>1811.200</ele>
        <time>2020-01-21T15:52:07Z</time>
      </trkpt>
      <trkpt lat="17.017276990" lon="-96.416114670">
        <ele>1812.300</ele>
        <time>2020-01-21T15:52:10Z</time>
      </trkpt>
      <trkpt lat="17.017320730" lon="-96.416104640">
        <ele>1812.700</ele>
        <time>2020-01-21T15:52:12Z</time>
      </trkpt>
      <trkpt lat="17.017382790" lon="-96.416088970">
        <ele>1814.100</ele>
        <time>2020-01-21T15:52:14Z</time>
      </trkpt>
      <trkpt lat="17.017447100" lon="-96.416065090">
        <ele>1815.800</ele>
        <time>2020-01-21T15:52:16Z</time>
      </trkpt>
      <trkpt lat="17.017482070" lon="-96.416050650">
        <ele>1816.000</ele>
        <time>2020-01-21T15:52:17Z</time>
      </trkpt>
      <trkpt lat="17.017520000" lon="-96.416035280">
        <ele>1816.400</ele>
        <time>2020-01-21T15:52:18Z</time>
      </trkpt>
      <trkpt lat="17.017556300" lon="-96.416019110">
        <ele>1817.400</ele>
        <time>2020-01-21T15:52:19Z</time>
      </trkpt>
      <trkpt lat="17.017590670" lon="-96.416004270">
        <ele>1818.100</ele>
        <time>2020-01-21T15:52:20Z</time>
      </trkpt>
      <trkpt lat="17.017647220" lon="-96.415973570">
        <ele>1821.000</ele>
        <time>2020-01-21T15:52:22Z</time>
      </trkpt>
      <trkpt lat="17.017679880" lon="-96.415913680">
        <ele>1822.200</ele>
        <time>2020-01-21T15:52:24Z</time>
      </trkpt>
      <trkpt lat="17.017685420" lon="-96.415874910">
        <ele>1822.200</ele>
        <time>2020-01-21T15:52:25Z</time>
      </trkpt>
      <trkpt lat="17.017688080" lon="-96.415832720">
        <ele>1822.500</ele>
        <time>2020-01-21T15:52:26Z</time>
      </trkpt>
      <trkpt lat="17.017689510" lon="-96.415789730">
        <ele>1822.500</ele>
        <time>2020-01-21T15:52:27Z</time>
      </trkpt>
      <trkpt lat="17.017688780" lon="-96.415748700">
        <ele>1823.200</ele>
        <time>2020-01-21T15:52:28Z</time>
      </trkpt>
      <trkpt lat="17.017683990" lon="-96.415710690">
        <ele>1823.700</ele>
        <time>2020-01-21T15:52:29Z</time>
      </trkpt>
      <trkpt lat="17.017677460" lon="-96.415670680">
        <ele>1825.100</ele>
        <time>2020-01-21T15:52:30Z</time>
      </trkpt>
      <trkpt lat="17.017668600" lon="-96.415625780">
        <ele>1825.900</ele>
        <time>2020-01-21T15:52:31Z</time>
      </trkpt>
      <trkpt lat="17.017657250" lon="-96.415579610">
        <ele>1827.300</ele>
        <time>2020-01-21T15:52:32Z</time>
      </trkpt>
      <trkpt lat="17.017640290" lon="-96.415530310">
        <ele>1828.300</ele>
        <time>2020-01-21T15:52:33Z</time>
      </trkpt>
      <trkpt lat="17.017628350" lon="-96.415483450">
        <ele>1829.100</ele>
        <time>2020-01-21T15:52:34Z</time>
      </trkpt>
      <trkpt lat="17.017618120" lon="-96.415427230">
        <ele>1830.200</ele>
        <time>2020-01-21T15:52:35Z</time>
      </trkpt>
      <trkpt lat="17.017608050" lon="-96.415379610">
        <ele>1831.300</ele>
        <time>2020-01-21T15:52:36Z</time>
      </trkpt>
      <trkpt lat="17.017598550" lon="-96.415336880">
        <ele>1831.900</ele>
        <time>2020-01-21T15:52:37Z</time>
      </trkpt>
      <trkpt lat="17.017589720" lon="-96.415284640">
        <ele>1833.500</ele>
        <time>2020-01-21T15:52:38Z</time>
      </trkpt>
      <trkpt lat="17.017582540" lon="-96.415242230">
        <ele>1834.000</ele>
        <time>2020-01-21T15:52:39Z</time>
      </trkpt>
      <trkpt lat="17.017568380" lon="-96.415173830">
        <ele>1835.300</ele>
        <time>2020-01-21T15:52:41Z</time>
      </trkpt>
      <trkpt lat="17.017562620" lon="-96.415133110">
        <ele>1836.300</ele>
        <time>2020-01-21T15:52:43Z</time>
      </trkpt>
      <trkpt lat="17.017558830" lon="-96.415090970">
        <ele>1836.500</ele>
        <time>2020-01-21T15:52:45Z</time>
      </trkpt>
      <trkpt lat="17.017569210" lon="-96.415033370">
        <ele>1837.000</ele>
        <time>2020-01-21T15:52:47Z</time>
      </trkpt>
      <trkpt lat="17.017607010" lon="-96.414968790">
        <ele>1838.100</ele>
        <time>2020-01-21T15:52:49Z</time>
      </trkpt>
      <trkpt lat="17.017633760" lon="-96.414935610">
        <ele>1839.000</ele>
        <time>2020-01-21T15:52:50Z</time>
      </trkpt>
      <trkpt lat="17.017663940" lon="-96.414902030">
        <ele>1840.200</ele>
        <time>2020-01-21T15:52:51Z</time>
      </trkpt>
      <trkpt lat="17.017694730" lon="-96.414871370">
        <ele>1840.500</ele>
        <time>2020-01-21T15:52:52Z</time>
      </trkpt>
      <trkpt lat="17.017728790" lon="-96.414842090">
        <ele>1840.800</ele>
        <time>2020-01-21T15:52:53Z</time>
      </trkpt>
      <trkpt lat="17.017763270" lon="-96.414815170">
        <ele>1841.500</ele>
        <time>2020-01-21T15:52:54Z</time>
      </trkpt>
      <trkpt lat="17.017798900" lon="-96.414788080">
        <ele>1842.100</ele>
        <time>2020-01-21T15:52:55Z</time>
      </trkpt>
      <trkpt lat="17.017833290" lon="-96.414759740">
        <ele>1842.500</ele>
        <time>2020-01-21T15:52:56Z</time>
      </trkpt>
      <trkpt lat="17.017864970" lon="-96.414729210">
        <ele>1843.100</ele>
        <time>2020-01-21T15:52:57Z</time>
      </trkpt>
      <trkpt lat="17.017894510" lon="-96.414694880">
        <ele>1844.700</ele>
        <time>2020-01-21T15:52:58Z</time>
      </trkpt>
      <trkpt lat="17.017921600" lon="-96.414660370">
        <ele>1845.700</ele>
        <time>2020-01-21T15:52:59Z</time>
      </trkpt>
      <trkpt lat="17.017948550" lon="-96.414620750">
        <ele>1846.900</ele>
        <time>2020-01-21T15:53:00Z</time>
      </trkpt>
      <trkpt lat="17.017973200" lon="-96.414583140">
        <ele>1847.200</ele>
        <time>2020-01-21T15:53:01Z</time>
      </trkpt>
      <trkpt lat="17.017997290" lon="-96.414546270">
        <ele>1847.300</ele>
        <time>2020-01-21T15:53:02Z</time>
      </trkpt>
      <trkpt lat="17.018024290" lon="-96.414507890">
        <ele>1848.700</ele>
        <time>2020-01-21T15:53:03Z</time>
      </trkpt>
      <trkpt lat="17.018049450" lon="-96.414470200">
        <ele>1849.400</ele>
        <time>2020-01-21T15:53:04Z</time>
      </trkpt>
      <trkpt lat="17.018073510" lon="-96.414425300">
        <ele>1850.200</ele>
        <time>2020-01-21T15:53:05Z</time>
      </trkpt>
      <trkpt lat="17.018096800" lon="-96.414384470">
        <ele>1851.500</ele>
        <time>2020-01-21T15:53:06Z</time>
      </trkpt>
      <trkpt lat="17.018121870" lon="-96.414347490">
        <ele>1851.900</ele>
        <time>2020-01-21T15:53:07Z</time>
      </trkpt>
      <trkpt lat="17.018144960" lon="-96.414304050">
        <ele>1853.000</ele>
        <time>2020-01-21T15:53:08Z</time>
      </trkpt>
      <trkpt lat="17.018167640" lon="-96.414267870">
        <ele>1853.700</ele>
        <time>2020-01-21T15:53:09Z</time>
      </trkpt>
      <trkpt lat="17.018192770" lon="-96.414234920">
        <ele>1854.400</ele>
        <time>2020-01-21T15:53:10Z</time>
      </trkpt>
      <trkpt lat="17.018220830" lon="-96.414199790">
        <ele>1855.500</ele>
        <time>2020-01-21T15:53:11Z</time>
      </trkpt>
      <trkpt lat="17.018249090" lon="-96.414164410">
        <ele>1856.500</ele>
        <time>2020-01-21T15:53:12Z</time>
      </trkpt>
      <trkpt lat="17.018276450" lon="-96.414128550">
        <ele>1856.900</ele>
        <time>2020-01-21T15:53:13Z</time>
      </trkpt>
      <trkpt lat="17.018307560" lon="-96.414087760">
        <ele>1858.500</ele>
        <time>2020-01-21T15:53:14Z</time>
      </trkpt>
      <trkpt lat="17.018337780" lon="-96.414049110">
        <ele>1859.300</ele>
        <time>2020-01-21T15:53:15Z</time>
      </trkpt>
      <trkpt lat="17.018367610" lon="-96.414009160">
        <ele>1861.900</ele>
        <time>2020-01-21T15:53:16Z</time>
      </trkpt>
      <trkpt lat="17.018396020" lon="-96.413968680">
        <ele>1862.600</ele>
        <time>2020-01-21T15:53:17Z</time>
      </trkpt>
      <trkpt lat="17.018422900" lon="-96.413938590">
        <ele>1862.700</ele>
        <time>2020-01-21T15:53:18Z</time>
      </trkpt>
      <trkpt lat="17.018454380" lon="-96.413901210">
        <ele>1864.300</ele>
        <time>2020-01-21T15:53:19Z</time>
      </trkpt>
      <trkpt lat="17.018483250" lon="-96.413865910">
        <ele>1865.500</ele>
        <time>2020-01-21T15:53:20Z</time>
      </trkpt>
      <trkpt lat="17.018511520" lon="-96.413831800">
        <ele>1867.100</ele>
        <time>2020-01-21T15:53:21Z</time>
      </trkpt>
      <trkpt lat="17.018536820" lon="-96.413800900">
        <ele>1868.100</ele>
        <time>2020-01-21T15:53:22Z</time>
      </trkpt>
      <trkpt lat="17.018558320" lon="-96.413769650">
        <ele>1869.400</ele>
        <time>2020-01-21T15:53:23Z</time>
      </trkpt>
      <trkpt lat="17.018588180" lon="-96.413712160">
        <ele>1869.700</ele>
        <time>2020-01-21T15:53:25Z</time>
      </trkpt>
      <trkpt lat="17.018609630" lon="-96.413664230">
        <ele>1870.800</ele>
        <time>2020-01-21T15:53:27Z</time>
      </trkpt>
      <trkpt lat="17.018635380" lon="-96.413603730">
        <ele>1871.500</ele>
        <time>2020-01-21T15:53:29Z</time>
      </trkpt>
      <trkpt lat="17.018651520" lon="-96.413565240">
        <ele>1872.100</ele>
        <time>2020-01-21T15:53:30Z</time>
      </trkpt>
      <trkpt lat="17.018668540" lon="-96.413521450">
        <ele>1872.500</ele>
        <time>2020-01-21T15:53:31Z</time>
      </trkpt>
      <trkpt lat="17.018686030" lon="-96.413472190">
        <ele>1873.400</ele>
        <time>2020-01-21T15:53:32Z</time>
      </trkpt>
      <trkpt lat="17.018706580" lon="-96.413426910">
        <ele>1874.600</ele>
        <time>2020-01-21T15:53:33Z</time>
      </trkpt>
      <trkpt lat="17.018727080" lon="-96.413383960">
        <ele>1875.400</ele>
        <time>2020-01-21T15:53:34Z</time>
      </trkpt>
      <trkpt lat="17.018746830" lon="-96.413343010">
        <ele>1876.400</ele>
        <time>2020-01-21T15:53:35Z</time>
      </trkpt>
      <trkpt lat="17.018760040" lon="-96.413291930">
        <ele>1877.700</ele>
        <time>2020-01-21T15:53:36Z</time>
      </trkpt>
      <trkpt lat="17.018775790" lon="-96.413246720">
        <ele>1878.200</ele>
        <time>2020-01-21T15:53:37Z</time>
      </trkpt>
      <trkpt lat="17.018790880" lon="-96.413200800">
        <ele>1878.800</ele>
        <time>2020-01-21T15:53:38Z</time>
      </trkpt>
      <trkpt lat="17.018804610" lon="-96.413156910">
        <ele>1879.200</ele>
        <time>2020-01-21T15:53:39Z</time>
      </trkpt>
      <trkpt lat="17.018810710" lon="-96.413111610">
        <ele>1879.900</ele>
        <time>2020-01-21T15:53:40Z</time>
      </trkpt>
      <trkpt lat="17.018801390" lon="-96.413066910">
        <ele>1879.800</ele>
        <time>2020-01-21T15:53:41Z</time>
      </trkpt>
      <trkpt lat="17.018787890" lon="-96.413020760">
        <ele>1881.200</ele>
        <time>2020-01-21T15:53:42Z</time>
      </trkpt>
      <trkpt lat="17.018776050" lon="-96.412977280">
        <ele>1882.200</ele>
        <time>2020-01-21T15:53:43Z</time>
      </trkpt>
      <trkpt lat="17.018764350" lon="-96.412933580">
        <ele>1883.000</ele>
        <time>2020-01-21T15:53:44Z</time>
      </trkpt>
      <trkpt lat="17.018756310" lon="-96.412893700">
        <ele>1883.800</ele>
        <time>2020-01-21T15:53:45Z</time>
      </trkpt>
      <trkpt lat="17.018740670" lon="-96.412827790">
        <ele>1885.500</ele>
        <time>2020-01-21T15:53:47Z</time>
      </trkpt>
      <trkpt lat="17.018716970" lon="-96.412767880">
        <ele>1886.700</ele>
        <time>2020-01-21T15:53:49Z</time>
      </trkpt>
      <trkpt lat="17.018701080" lon="-96.412718260">
        <ele>1886.800</ele>
        <time>2020-01-21T15:53:51Z</time>
      </trkpt>
      <trkpt lat="17.018687530" lon="-96.412678890">
        <ele>1886.500</ele>
        <time>2020-01-21T15:53:53Z</time>
      </trkpt>
      <trkpt lat="17.018659850" lon="-96.412616130">
        <ele>1887.400</ele>
        <time>2020-01-21T15:53:55Z</time>
      </trkpt>
      <trkpt lat="17.018641230" lon="-96.412574570">
        <ele>1888.500</ele>
        <time>2020-01-21T15:53:56Z</time>
      </trkpt>
      <trkpt lat="17.018621450" lon="-96.412531830">
        <ele>1857.000</ele>
        <time>2020-01-21T15:53:57Z</time>
      </trkpt>
      <trkpt lat="17.018603040" lon="-96.412482210">
        <ele>1869.300</ele>
        <time>2020-01-21T15:53:58Z</time>
      </trkpt>
      <trkpt lat="17.018581390" lon="-96.412437610">
        <ele>1875.800</ele>
        <time>2020-01-21T15:53:59Z</time>
      </trkpt>
      <trkpt lat="17.018564220" lon="-96.412393080">
        <ele>1880.400</ele>
        <time>2020-01-21T15:54:00Z</time>
      </trkpt>
      <trkpt lat="17.018545080" lon="-96.412350310">
        <ele>1883.200</ele>
        <time>2020-01-21T15:54:01Z</time>
      </trkpt>
      <trkpt lat="17.018533630" lon="-96.412300000">
        <ele>1886.000</ele>
        <time>2020-01-21T15:54:02Z</time>
      </trkpt>
      <trkpt lat="17.018523980" lon="-96.412252020">
        <ele>1887.900</ele>
        <time>2020-01-21T15:54:03Z</time>
      </trkpt>
      <trkpt lat="17.018515410" lon="-96.412211790">
        <ele>1888.700</ele>
        <time>2020-01-21T15:54:04Z</time>
      </trkpt>
      <trkpt lat="17.018511180" lon="-96.412169970">
        <ele>1890.200</ele>
        <time>2020-01-21T15:54:05Z</time>
      </trkpt>
      <trkpt lat="17.018519780" lon="-96.412105000">
        <ele>1892.600</ele>
        <time>2020-01-21T15:54:07Z</time>
      </trkpt>
      <trkpt lat="17.018520060" lon="-96.412044500">
        <ele>1893.900</ele>
        <time>2020-01-21T15:54:09Z</time>
      </trkpt>
      <trkpt lat="17.018525380" lon="-96.411970370">
        <ele>1895.200</ele>
        <time>2020-01-21T15:54:11Z</time>
      </trkpt>
      <trkpt lat="17.018528370" lon="-96.411925980">
        <ele>1895.400</ele>
        <time>2020-01-21T15:54:12Z</time>
      </trkpt>
      <trkpt lat="17.018527760" lon="-96.411878400">
        <ele>1897.100</ele>
        <time>2020-01-21T15:54:13Z</time>
      </trkpt>
      <trkpt lat="17.018522090" lon="-96.411827670">
        <ele>1899.400</ele>
        <time>2020-01-21T15:54:14Z</time>
      </trkpt>
      <trkpt lat="17.018507350" lon="-96.411783110">
        <ele>1899.800</ele>
        <time>2020-01-21T15:54:15Z</time>
      </trkpt>
      <trkpt lat="17.018498970" lon="-96.411734480">
        <ele>1900.800</ele>
        <time>2020-01-21T15:54:16Z</time>
      </trkpt>
      <trkpt lat="17.018488440" lon="-96.411681500">
        <ele>1901.800</ele>
        <time>2020-01-21T15:54:17Z</time>
      </trkpt>
      <trkpt lat="17.018471290" lon="-96.411632840">
        <ele>1902.800</ele>
        <time>2020-01-21T15:54:18Z</time>
      </trkpt>
      <trkpt lat="17.018453780" lon="-96.411590850">
        <ele>1903.000</ele>
        <time>2020-01-21T15:54:19Z</time>
      </trkpt>
      <trkpt lat="17.018429580" lon="-96.411544160">
        <ele>1904.100</ele>
        <time>2020-01-21T15:54:20Z</time>
      </trkpt>
      <trkpt lat="17.018414710" lon="-96.411504340">
        <ele>1904.400</ele>
        <time>2020-01-21T15:54:21Z</time>
      </trkpt>
      <trkpt lat="17.018401080" lon="-96.411464510">
        <ele>1905.800</ele>
        <time>2020-01-21T15:54:22Z</time>
      </trkpt>
      <trkpt lat="17.018387340" lon="-96.411424740">
        <ele>1905.700</ele>
        <time>2020-01-21T15:54:23Z</time>
      </trkpt>
      <trkpt lat="17.018370190" lon="-96.411384170">
        <ele>1906.500</ele>
        <time>2020-01-21T15:54:24Z</time>
      </trkpt>
      <trkpt lat="17.018354500" lon="-96.411342590">
        <ele>1907.200</ele>
        <time>2020-01-21T15:54:25Z</time>
      </trkpt>
      <trkpt lat="17.018339070" lon="-96.411299450">
        <ele>1907.900</ele>
        <time>2020-01-21T15:54:26Z</time>
      </trkpt>
      <trkpt lat="17.018324940" lon="-96.411256950">
        <ele>1907.800</ele>
        <time>2020-01-21T15:54:27Z</time>
      </trkpt>
      <trkpt lat="17.018310940" lon="-96.411215690">
        <ele>1908.100</ele>
        <time>2020-01-21T15:54:28Z</time>
      </trkpt>
      <trkpt lat="17.018296590" lon="-96.411176640">
        <ele>1908.600</ele>
        <time>2020-01-21T15:54:29Z</time>
      </trkpt>
      <trkpt lat="17.018281930" lon="-96.411138970">
        <ele>1909.200</ele>
        <time>2020-01-21T15:54:30Z</time>
      </trkpt>
      <trkpt lat="17.018267530" lon="-96.411102270">
        <ele>1909.400</ele>
        <time>2020-01-21T15:54:31Z</time>
      </trkpt>
      <trkpt lat="17.018251410" lon="-96.411065280">
        <ele>1909.600</ele>
        <time>2020-01-21T15:54:32Z</time>
      </trkpt>
      <trkpt lat="17.018236710" lon="-96.411030650">
        <ele>1909.900</ele>
        <time>2020-01-21T15:54:33Z</time>
      </trkpt>
      <trkpt lat="17.018208590" lon="-96.410964980">
        <ele>1910.300</ele>
        <time>2020-01-21T15:54:35Z</time>
      </trkpt>
      <trkpt lat="17.018181740" lon="-96.410892930">
        <ele>1910.600</ele>
        <time>2020-01-21T15:54:37Z</time>
      </trkpt>
      <trkpt lat="17.018168310" lon="-96.410853350">
        <ele>1910.800</ele>
        <time>2020-01-21T15:54:38Z</time>
      </trkpt>
      <trkpt lat="17.018156430" lon="-96.410813870">
        <ele>1910.700</ele>
        <time>2020-01-21T15:54:39Z</time>
      </trkpt>
      <trkpt lat="17.018146970" lon="-96.410775670">
        <ele>1911.100</ele>
        <time>2020-01-21T15:54:40Z</time>
      </trkpt>
      <trkpt lat="17.018138480" lon="-96.410737220">
        <ele>1911.600</ele>
        <time>2020-01-21T15:54:41Z</time>
      </trkpt>
      <trkpt lat="17.018130880" lon="-96.410697730">
        <ele>1911.800</ele>
        <time>2020-01-21T15:54:42Z</time>
      </trkpt>
      <trkpt lat="17.018121830" lon="-96.410658560">
        <ele>1912.100</ele>
        <time>2020-01-21T15:54:43Z</time>
      </trkpt>
      <trkpt lat="17.018108630" lon="-96.410618870">
        <ele>1912.600</ele>
        <time>2020-01-21T15:54:44Z</time>
      </trkpt>
      <trkpt lat="17.018093440" lon="-96.410578650">
        <ele>1913.000</ele>
        <time>2020-01-21T15:54:45Z</time>
      </trkpt>
      <trkpt lat="17.018076080" lon="-96.410536730">
        <ele>1912.800</ele>
        <time>2020-01-21T15:54:46Z</time>
      </trkpt>
      <trkpt lat="17.018054970" lon="-96.410495100">
        <ele>1913.000</ele>
        <time>2020-01-21T15:54:47Z</time>
      </trkpt>
      <trkpt lat="17.018030910" lon="-96.410454080">
        <ele>1913.300</ele>
        <time>2020-01-21T15:54:48Z</time>
      </trkpt>
      <trkpt lat="17.018005140" lon="-96.410415530">
        <ele>1913.200</ele>
        <time>2020-01-21T15:54:49Z</time>
      </trkpt>
      <trkpt lat="17.017975940" lon="-96.410379590">
        <ele>1913.400</ele>
        <time>2020-01-21T15:54:50Z</time>
      </trkpt>
      <trkpt lat="17.017944770" lon="-96.410345150">
        <ele>1912.500</ele>
        <time>2020-01-21T15:54:51Z</time>
      </trkpt>
      <trkpt lat="17.017913040" lon="-96.410317000">
        <ele>1911.700</ele>
        <time>2020-01-21T15:54:52Z</time>
      </trkpt>
      <trkpt lat="17.017873730" lon="-96.410283480">
        <ele>1911.500</ele>
        <time>2020-01-21T15:54:53Z</time>
      </trkpt>
      <trkpt lat="17.017835200" lon="-96.410249590">
        <ele>1911.900</ele>
        <time>2020-01-21T15:54:54Z</time>
      </trkpt>
      <trkpt lat="17.017792590" lon="-96.410218080">
        <ele>1911.700</ele>
        <time>2020-01-21T15:54:55Z</time>
      </trkpt>
      <trkpt lat="17.017751380" lon="-96.410183280">
        <ele>1911.600</ele>
        <time>2020-01-21T15:54:56Z</time>
      </trkpt>
      <trkpt lat="17.017714210" lon="-96.410149390">
        <ele>1911.400</ele>
        <time>2020-01-21T15:54:57Z</time>
      </trkpt>
      <trkpt lat="17.017677320" lon="-96.410113620">
        <ele>1911.300</ele>
        <time>2020-01-21T15:54:58Z</time>
      </trkpt>
      <trkpt lat="17.017634540" lon="-96.410078810">
        <ele>1911.500</ele>
        <time>2020-01-21T15:54:59Z</time>
      </trkpt>
      <trkpt lat="17.017594810" lon="-96.410047140">
        <ele>1911.300</ele>
        <time>2020-01-21T15:55:00Z</time>
      </trkpt>
      <trkpt lat="17.017559360" lon="-96.410021830">
        <ele>1911.600</ele>
        <time>2020-01-21T15:55:01Z</time>
      </trkpt>
      <trkpt lat="17.017525870" lon="-96.409996360">
        <ele>1912.300</ele>
        <time>2020-01-21T15:55:02Z</time>
      </trkpt>
      <trkpt lat="17.017490790" lon="-96.409968990">
        <ele>1912.300</ele>
        <time>2020-01-21T15:55:03Z</time>
      </trkpt>
      <trkpt lat="17.017453530" lon="-96.409944530">
        <ele>1912.900</ele>
        <time>2020-01-21T15:55:04Z</time>
      </trkpt>
      <trkpt lat="17.017412780" lon="-96.409921530">
        <ele>1913.000</ele>
        <time>2020-01-21T15:55:05Z</time>
      </trkpt>
      <trkpt lat="17.017372640" lon="-96.409891640">
        <ele>1914.400</ele>
        <time>2020-01-21T15:55:06Z</time>
      </trkpt>
      <trkpt lat="17.017325870" lon="-96.409869450">
        <ele>1915.100</ele>
        <time>2020-01-21T15:55:07Z</time>
      </trkpt>
      <trkpt lat="17.017277860" lon="-96.409841650">
        <ele>1915.700</ele>
        <time>2020-01-21T15:55:08Z</time>
      </trkpt>
      <trkpt lat="17.017225840" lon="-96.409811290">
        <ele>1915.800</ele>
        <time>2020-01-21T15:55:09Z</time>
      </trkpt>
      <trkpt lat="17.017184200" lon="-96.409777440">
        <ele>1917.200</ele>
        <time>2020-01-21T15:55:10Z</time>
      </trkpt>
      <trkpt lat="17.017143050" lon="-96.409744620">
        <ele>1917.900</ele>
        <time>2020-01-21T15:55:11Z</time>
      </trkpt>
      <trkpt lat="17.017104590" lon="-96.409705840">
        <ele>1918.700</ele>
        <time>2020-01-21T15:55:12Z</time>
      </trkpt>
      <trkpt lat="17.017070300" lon="-96.409667590">
        <ele>1919.600</ele>
        <time>2020-01-21T15:55:13Z</time>
      </trkpt>
      <trkpt lat="17.017036490" lon="-96.409630440">
        <ele>1920.400</ele>
        <time>2020-01-21T15:55:14Z</time>
      </trkpt>
      <trkpt lat="17.017004110" lon="-96.409593370">
        <ele>1920.800</ele>
        <time>2020-01-21T15:55:15Z</time>
      </trkpt>
      <trkpt lat="17.016968310" lon="-96.409558430">
        <ele>1921.500</ele>
        <time>2020-01-21T15:55:16Z</time>
      </trkpt>
      <trkpt lat="17.016934420" lon="-96.409521500">
        <ele>1921.700</ele>
        <time>2020-01-21T15:55:17Z</time>
      </trkpt>
      <trkpt lat="17.016894520" lon="-96.409484620">
        <ele>1922.400</ele>
        <time>2020-01-21T15:55:18Z</time>
      </trkpt>
      <trkpt lat="17.016852140" lon="-96.409445170">
        <ele>1922.900</ele>
        <time>2020-01-21T15:55:19Z</time>
      </trkpt>
      <trkpt lat="17.016808580" lon="-96.409411280">
        <ele>1924.500</ele>
        <time>2020-01-21T15:55:20Z</time>
      </trkpt>
      <trkpt lat="17.016770550" lon="-96.409370820">
        <ele>1924.300</ele>
        <time>2020-01-21T15:55:21Z</time>
      </trkpt>
      <trkpt lat="17.016736500" lon="-96.409336300">
        <ele>1925.000</ele>
        <time>2020-01-21T15:55:22Z</time>
      </trkpt>
      <trkpt lat="17.016694940" lon="-96.409299160">
        <ele>1926.200</ele>
        <time>2020-01-21T15:55:23Z</time>
      </trkpt>
      <trkpt lat="17.016656570" lon="-96.409262190">
        <ele>1926.600</ele>
        <time>2020-01-21T15:55:24Z</time>
      </trkpt>
      <trkpt lat="17.016620790" lon="-96.409223080">
        <ele>1926.700</ele>
        <time>2020-01-21T15:55:25Z</time>
      </trkpt>
      <trkpt lat="17.016589580" lon="-96.409190840">
        <ele>1926.500</ele>
        <time>2020-01-21T15:55:26Z</time>
      </trkpt>
      <trkpt lat="17.016562460" lon="-96.409151780">
        <ele>1926.800</ele>
        <time>2020-01-21T15:55:27Z</time>
      </trkpt>
      <trkpt lat="17.016535870" lon="-96.409111130">
        <ele>1927.500</ele>
        <time>2020-01-21T15:55:28Z</time>
      </trkpt>
      <trkpt lat="17.016522410" lon="-96.409066590">
        <ele>1928.200</ele>
        <time>2020-01-21T15:55:29Z</time>
      </trkpt>
      <trkpt lat="17.016515490" lon="-96.409018670">
        <ele>1929.000</ele>
        <time>2020-01-21T15:55:30Z</time>
      </trkpt>
      <trkpt lat="17.016520700" lon="-96.408969880">
        <ele>1930.200</ele>
        <time>2020-01-21T15:55:31Z</time>
      </trkpt>
      <trkpt lat="17.016531490" lon="-96.408916730">
        <ele>1931.100</ele>
        <time>2020-01-21T15:55:32Z</time>
      </trkpt>
      <trkpt lat="17.016547600" lon="-96.408861090">
        <ele>1934.300</ele>
        <time>2020-01-21T15:55:33Z</time>
      </trkpt>
      <trkpt lat="17.016556260" lon="-96.408810650">
        <ele>1935.400</ele>
        <time>2020-01-21T15:55:34Z</time>
      </trkpt>
      <trkpt lat="17.016562150" lon="-96.408756610">
        <ele>1936.300</ele>
        <time>2020-01-21T15:55:35Z</time>
      </trkpt>
      <trkpt lat="17.016570310" lon="-96.408700740">
        <ele>1937.300</ele>
        <time>2020-01-21T15:55:36Z</time>
      </trkpt>
      <trkpt lat="17.016576740" lon="-96.408644240">
        <ele>1938.100</ele>
        <time>2020-01-21T15:55:37Z</time>
      </trkpt>
      <trkpt lat="17.016582400" lon="-96.408590440">
        <ele>1938.500</ele>
        <time>2020-01-21T15:55:38Z</time>
      </trkpt>
      <trkpt lat="17.016596460" lon="-96.408533130">
        <ele>1939.300</ele>
        <time>2020-01-21T15:55:39Z</time>
      </trkpt>
      <trkpt lat="17.016609800" lon="-96.408479700">
        <ele>1939.700</ele>
        <time>2020-01-21T15:55:40Z</time>
      </trkpt>
      <trkpt lat="17.016625330" lon="-96.408426900">
        <ele>1940.300</ele>
        <time>2020-01-21T15:55:41Z</time>
      </trkpt>
      <trkpt lat="17.016638120" lon="-96.408377390">
        <ele>1941.000</ele>
        <time>2020-01-21T15:55:42Z</time>
      </trkpt>
      <trkpt lat="17.016654490" lon="-96.408326930">
        <ele>1941.200</ele>
        <time>2020-01-21T15:55:43Z</time>
      </trkpt>
      <trkpt lat="17.016654270" lon="-96.408274950">
        <ele>1941.700</ele>
        <time>2020-01-21T15:55:44Z</time>
      </trkpt>
      <trkpt lat="17.016652720" lon="-96.408226280">
        <ele>1940.900</ele>
        <time>2020-01-21T15:55:45Z</time>
      </trkpt>
      <trkpt lat="17.016647460" lon="-96.408176840">
        <ele>1941.800</ele>
        <time>2020-01-21T15:55:46Z</time>
      </trkpt>
      <trkpt lat="17.016639960" lon="-96.408125540">
        <ele>1942.300</ele>
        <time>2020-01-21T15:55:47Z</time>
      </trkpt>
      <trkpt lat="17.016633000" lon="-96.408072900">
        <ele>1942.300</ele>
        <time>2020-01-21T15:55:48Z</time>
      </trkpt>
      <trkpt lat="17.016634920" lon="-96.408020490">
        <ele>1942.700</ele>
        <time>2020-01-21T15:55:49Z</time>
      </trkpt>
      <trkpt lat="17.016634260" lon="-96.407963800">
        <ele>1943.500</ele>
        <time>2020-01-21T15:55:50Z</time>
      </trkpt>
      <trkpt lat="17.016635100" lon="-96.407911490">
        <ele>1943.800</ele>
        <time>2020-01-21T15:55:51Z</time>
      </trkpt>
      <trkpt lat="17.016632650" lon="-96.407859590">
        <ele>1943.600</ele>
        <time>2020-01-21T15:55:52Z</time>
      </trkpt>
      <trkpt lat="17.016635710" lon="-96.407802890">
        <ele>1943.600</ele>
        <time>2020-01-21T15:55:53Z</time>
      </trkpt>
      <trkpt lat="17.016637130" lon="-96.407745420">
        <ele>1943.700</ele>
        <time>2020-01-21T15:55:54Z</time>
      </trkpt>
      <trkpt lat="17.016622160" lon="-96.407691340">
        <ele>1944.400</ele>
        <time>2020-01-21T15:55:55Z</time>
      </trkpt>
      <trkpt lat="17.016620280" lon="-96.407644110">
        <ele>1945.200</ele>
        <time>2020-01-21T15:55:56Z</time>
      </trkpt>
      <trkpt lat="17.016621490" lon="-96.407587980">
        <ele>1945.400</ele>
        <time>2020-01-21T15:55:57Z</time>
      </trkpt>
      <trkpt lat="17.016633230" lon="-96.407531150">
        <ele>1945.500</ele>
        <time>2020-01-21T15:55:58Z</time>
      </trkpt>
      <trkpt lat="17.016653740" lon="-96.407483200">
        <ele>1945.600</ele>
        <time>2020-01-21T15:55:59Z</time>
      </trkpt>
      <trkpt lat="17.016683720" lon="-96.407435520">
        <ele>1945.900</ele>
        <time>2020-01-21T15:56:00Z</time>
      </trkpt>
      <trkpt lat="17.016723550" lon="-96.407385420">
        <ele>1945.700</ele>
        <time>2020-01-21T15:56:01Z</time>
      </trkpt>
      <trkpt lat="17.016762470" lon="-96.407343850">
        <ele>1946.000</ele>
        <time>2020-01-21T15:56:02Z</time>
      </trkpt>
      <trkpt lat="17.016811660" lon="-96.407303920">
        <ele>1946.300</ele>
        <time>2020-01-21T15:56:03Z</time>
      </trkpt>
      <trkpt lat="17.016861180" lon="-96.407266700">
        <ele>1946.200</ele>
        <time>2020-01-21T15:56:04Z</time>
      </trkpt>
      <trkpt lat="17.016914110" lon="-96.407230980">
        <ele>1945.800</ele>
        <time>2020-01-21T15:56:05Z</time>
      </trkpt>
      <trkpt lat="17.016959740" lon="-96.407194270">
        <ele>1945.600</ele>
        <time>2020-01-21T15:56:06Z</time>
      </trkpt>
      <trkpt lat="17.017005900" lon="-96.407161410">
        <ele>1944.800</ele>
        <time>2020-01-21T15:56:07Z</time>
      </trkpt>
      <trkpt lat="17.017040130" lon="-96.407129500">
        <ele>1945.800</ele>
        <time>2020-01-21T15:56:08Z</time>
      </trkpt>
      <trkpt lat="17.017088940" lon="-96.407086680">
        <ele>1945.200</ele>
        <time>2020-01-21T15:56:09Z</time>
      </trkpt>
      <trkpt lat="17.017126290" lon="-96.407042400">
        <ele>1945.400</ele>
        <time>2020-01-21T15:56:10Z</time>
      </trkpt>
      <trkpt lat="17.017149830" lon="-96.406985690">
        <ele>1945.600</ele>
        <time>2020-01-21T15:56:11Z</time>
      </trkpt>
      <trkpt lat="17.017159230" lon="-96.406927450">
        <ele>1946.500</ele>
        <time>2020-01-21T15:56:12Z</time>
      </trkpt>
      <trkpt lat="17.017160960" lon="-96.406861790">
        <ele>1947.400</ele>
        <time>2020-01-21T15:56:13Z</time>
      </trkpt>
      <trkpt lat="17.017158980" lon="-96.406796330">
        <ele>1947.700</ele>
        <time>2020-01-21T15:56:14Z</time>
      </trkpt>
      <trkpt lat="17.017152520" lon="-96.406736020">
        <ele>1948.300</ele>
        <time>2020-01-21T15:56:15Z</time>
      </trkpt>
      <trkpt lat="17.017141870" lon="-96.406681860">
        <ele>1948.600</ele>
        <time>2020-01-21T15:56:16Z</time>
      </trkpt>
      <trkpt lat="17.017131050" lon="-96.406626270">
        <ele>1948.700</ele>
        <time>2020-01-21T15:56:17Z</time>
      </trkpt>
      <trkpt lat="17.017122630" lon="-96.406566110">
        <ele>1948.500</ele>
        <time>2020-01-21T15:56:18Z</time>
      </trkpt>
      <trkpt lat="17.017118210" lon="-96.406509660">
        <ele>1950.200</ele>
        <time>2020-01-21T15:56:19Z</time>
      </trkpt>
      <trkpt lat="17.017121840" lon="-96.406447910">
        <ele>1950.400</ele>
        <time>2020-01-21T15:56:20Z</time>
      </trkpt>
      <trkpt lat="17.017122850" lon="-96.406379320">
        <ele>1951.300</ele>
        <time>2020-01-21T15:56:21Z</time>
      </trkpt>
      <trkpt lat="17.017129980" lon="-96.406322790">
        <ele>1952.400</ele>
        <time>2020-01-21T15:56:22Z</time>
      </trkpt>
      <trkpt lat="17.017134370" lon="-96.406262680">
        <ele>1952.600</ele>
        <time>2020-01-21T15:56:23Z</time>
      </trkpt>
      <trkpt lat="17.017138760" lon="-96.406203480">
        <ele>1952.900</ele>
        <time>2020-01-21T15:56:24Z</time>
      </trkpt>
      <trkpt lat="17.017140410" lon="-96.406146520">
        <ele>1953.300</ele>
        <time>2020-01-21T15:56:25Z</time>
      </trkpt>
      <trkpt lat="17.017142800" lon="-96.406079590">
        <ele>1952.900</ele>
        <time>2020-01-21T15:56:26Z</time>
      </trkpt>
      <trkpt lat="17.017140330" lon="-96.406017270">
        <ele>1954.100</ele>
        <time>2020-01-21T15:56:27Z</time>
      </trkpt>
      <trkpt lat="17.017140200" lon="-96.405950060">
        <ele>1955.300</ele>
        <time>2020-01-21T15:56:28Z</time>
      </trkpt>
      <trkpt lat="17.017133210" lon="-96.405881860">
        <ele>1955.500</ele>
        <time>2020-01-21T15:56:29Z</time>
      </trkpt>
      <trkpt lat="17.017124890" lon="-96.405816040">
        <ele>1956.000</ele>
        <time>2020-01-21T15:56:30Z</time>
      </trkpt>
      <trkpt lat="17.017116720" lon="-96.405749850">
        <ele>1956.700</ele>
        <time>2020-01-21T15:56:31Z</time>
      </trkpt>
      <trkpt lat="17.017107580" lon="-96.405683040">
        <ele>1956.600</ele>
        <time>2020-01-21T15:56:32Z</time>
      </trkpt>
      <trkpt lat="17.017099050" lon="-96.405617910">
        <ele>1956.600</ele>
        <time>2020-01-21T15:56:33Z</time>
      </trkpt>
      <trkpt lat="17.017090340" lon="-96.405553000">
        <ele>1956.600</ele>
        <time>2020-01-21T15:56:34Z</time>
      </trkpt>
      <trkpt lat="17.017082140" lon="-96.405490000">
        <ele>1956.700</ele>
        <time>2020-01-21T15:56:35Z</time>
      </trkpt>
      <trkpt lat="17.017087340" lon="-96.405428220">
        <ele>1956.900</ele>
        <time>2020-01-21T15:56:36Z</time>
      </trkpt>
      <trkpt lat="17.017087430" lon="-96.405374290">
        <ele>1957.600</ele>
        <time>2020-01-21T15:56:37Z</time>
      </trkpt>
      <trkpt lat="17.017085410" lon="-96.405320590">
        <ele>1957.400</ele>
        <time>2020-01-21T15:56:38Z</time>
      </trkpt>
      <trkpt lat="17.017076300" lon="-96.405275970">
        <ele>1958.200</ele>
        <time>2020-01-21T15:56:39Z</time>
      </trkpt>
      <trkpt lat="17.017079560" lon="-96.405320590">
        <ele>1956.600</ele>
        <time>2020-01-21T15:56:48Z</time>
      </trkpt>
      <trkpt lat="17.017081170" lon="-96.405358610">
        <ele>1957.100</ele>
        <time>2020-01-21T15:56:49Z</time>
      </trkpt>
      <trkpt lat="17.017084000" lon="-96.405411850">
        <ele>1957.800</ele>
        <time>2020-01-21T15:56:51Z</time>
      </trkpt>
      <trkpt lat="17.017085580" lon="-96.405453650">
        <ele>1959.200</ele>
        <time>2020-01-21T15:56:53Z</time>
      </trkpt>
      <trkpt lat="17.017088620" lon="-96.405494850">
        <ele>1959.700</ele>
        <time>2020-01-21T15:56:55Z</time>
      </trkpt>
      <trkpt lat="17.017093850" lon="-96.405538040">
        <ele>1959.900</ele>
        <time>2020-01-21T15:56:57Z</time>
      </trkpt>
      <trkpt lat="17.017100130" lon="-96.405577480">
        <ele>1959.800</ele>
        <time>2020-01-21T15:56:59Z</time>
      </trkpt>
      <trkpt lat="17.017112300" lon="-96.405614180">
        <ele>1959.200</ele>
        <time>2020-01-21T15:57:02Z</time>
      </trkpt>
      <trkpt lat="17.017120060" lon="-96.405653960">
        <ele>1959.400</ele>
        <time>2020-01-21T15:57:08Z</time>
      </trkpt>
      <trkpt lat="17.017111940" lon="-96.405592200">
        <ele>1960.500</ele>
        <time>2020-01-21T15:57:13Z</time>
      </trkpt>
      <trkpt lat="17.017103620" lon="-96.405522480">
        <ele>1960.800</ele>
        <time>2020-01-21T15:57:14Z</time>
      </trkpt>
      <trkpt lat="17.017104920" lon="-96.405414270">
        <ele>1961.800</ele>
        <time>2020-01-21T15:57:15Z</time>
      </trkpt>
      <trkpt lat="17.017106760" lon="-96.405367170">
        <ele>1962.300</ele>
        <time>2020-01-21T15:57:16Z</time>
      </trkpt>
      <trkpt lat="17.017102890" lon="-96.405326100">
        <ele>1962.800</ele>
        <time>2020-01-21T15:57:17Z</time>
      </trkpt>
      <trkpt lat="17.017102290" lon="-96.405277800">
        <ele>1963.500</ele>
        <time>2020-01-21T15:57:18Z</time>
      </trkpt>
      <trkpt lat="17.017095500" lon="-96.405235340">
        <ele>1963.900</ele>
        <time>2020-01-21T15:57:19Z</time>
      </trkpt>
      <trkpt lat="17.017084460" lon="-96.405198250">
        <ele>1964.700</ele>
        <time>2020-01-21T15:57:20Z</time>
      </trkpt>
      <trkpt lat="17.017068470" lon="-96.405158600">
        <ele>1965.200</ele>
        <time>2020-01-21T15:57:21Z</time>
      </trkpt>
      <trkpt lat="17.017048080" lon="-96.405122300">
        <ele>1966.000</ele>
        <time>2020-01-21T15:57:22Z</time>
      </trkpt>
      <trkpt lat="17.017024140" lon="-96.405089570">
        <ele>1966.100</ele>
        <time>2020-01-21T15:57:23Z</time>
      </trkpt>
      <trkpt lat="17.016997570" lon="-96.405061230">
        <ele>1965.600</ele>
        <time>2020-01-21T15:57:24Z</time>
      </trkpt>
      <trkpt lat="17.016965620" lon="-96.405035610">
        <ele>1965.800</ele>
        <time>2020-01-21T15:57:25Z</time>
      </trkpt>
      <trkpt lat="17.016930120" lon="-96.405009760">
        <ele>1965.600</ele>
        <time>2020-01-21T15:57:26Z</time>
      </trkpt>
      <trkpt lat="17.016894200" lon="-96.404983440">
        <ele>1965.200</ele>
        <time>2020-01-21T15:57:27Z</time>
      </trkpt>
      <trkpt lat="17.016861290" lon="-96.404955020">
        <ele>1965.300</ele>
        <time>2020-01-21T15:57:28Z</time>
      </trkpt>
      <trkpt lat="17.016827430" lon="-96.404923890">
        <ele>1965.700</ele>
        <time>2020-01-21T15:57:29Z</time>
      </trkpt>
      <trkpt lat="17.016795800" lon="-96.404889750">
        <ele>1965.900</ele>
        <time>2020-01-21T15:57:30Z</time>
      </trkpt>
      <trkpt lat="17.016770950" lon="-96.404852210">
        <ele>1965.200</ele>
        <time>2020-01-21T15:57:31Z</time>
      </trkpt>
      <trkpt lat="17.016742050" lon="-96.404813120">
        <ele>1965.600</ele>
        <time>2020-01-21T15:57:32Z</time>
      </trkpt>
      <trkpt lat="17.016715860" lon="-96.404771310">
        <ele>1965.500</ele>
        <time>2020-01-21T15:57:33Z</time>
      </trkpt>
      <trkpt lat="17.016693020" lon="-96.404733960">
        <ele>1964.800</ele>
        <time>2020-01-21T15:57:34Z</time>
      </trkpt>
      <trkpt lat="17.016675130" lon="-96.404686190">
        <ele>1965.700</ele>
        <time>2020-01-21T15:57:35Z</time>
      </trkpt>
      <trkpt lat="17.016656610" lon="-96.404641890">
        <ele>1966.200</ele>
        <time>2020-01-21T15:57:36Z</time>
      </trkpt>
      <trkpt lat="17.016641840" lon="-96.404593420">
        <ele>1966.600</ele>
        <time>2020-01-21T15:57:37Z</time>
      </trkpt>
      <trkpt lat="17.016627320" lon="-96.404547600">
        <ele>1966.700</ele>
        <time>2020-01-21T15:57:38Z</time>
      </trkpt>
      <trkpt lat="17.016617050" lon="-96.404502050">
        <ele>1966.900</ele>
        <time>2020-01-21T15:57:39Z</time>
      </trkpt>
      <trkpt lat="17.016605420" lon="-96.404454640">
        <ele>1967.300</ele>
        <time>2020-01-21T15:57:40Z</time>
      </trkpt>
      <trkpt lat="17.016599780" lon="-96.404406800">
        <ele>1967.700</ele>
        <time>2020-01-21T15:57:41Z</time>
      </trkpt>
      <trkpt lat="17.016589630" lon="-96.404358640">
        <ele>1968.000</ele>
        <time>2020-01-21T15:57:42Z</time>
      </trkpt>
      <trkpt lat="17.016575710" lon="-96.404309310">
        <ele>1968.200</ele>
        <time>2020-01-21T15:57:43Z</time>
      </trkpt>
      <trkpt lat="17.016561410" lon="-96.404261870">
        <ele>1968.300</ele>
        <time>2020-01-21T15:57:44Z</time>
      </trkpt>
      <trkpt lat="17.016543930" lon="-96.404210220">
        <ele>1968.400</ele>
        <time>2020-01-21T15:57:45Z</time>
      </trkpt>
      <trkpt lat="17.016528770" lon="-96.404157400">
        <ele>1968.100</ele>
        <time>2020-01-21T15:57:46Z</time>
      </trkpt>
      <trkpt lat="17.016516800" lon="-96.404101670">
        <ele>1968.200</ele>
        <time>2020-01-21T15:57:47Z</time>
      </trkpt>
      <trkpt lat="17.016502650" lon="-96.404038830">
        <ele>1968.000</ele>
        <time>2020-01-21T15:57:48Z</time>
      </trkpt>
      <trkpt lat="17.016486440" lon="-96.403980560">
        <ele>1967.300</ele>
        <time>2020-01-21T15:57:49Z</time>
      </trkpt>
      <trkpt lat="17.016471970" lon="-96.403916210">
        <ele>1967.300</ele>
        <time>2020-01-21T15:57:50Z</time>
      </trkpt>
      <trkpt lat="17.016461980" lon="-96.403859600">
        <ele>1968.300</ele>
        <time>2020-01-21T15:57:51Z</time>
      </trkpt>
      <trkpt lat="17.016440850" lon="-96.403805990">
        <ele>1968.900</ele>
        <time>2020-01-21T15:57:52Z</time>
      </trkpt>
      <trkpt lat="17.016442150" lon="-96.403746270">
        <ele>1969.200</ele>
        <time>2020-01-21T15:57:53Z</time>
      </trkpt>
      <trkpt lat="17.016439960" lon="-96.403683830">
        <ele>1970.600</ele>
        <time>2020-01-21T15:57:54Z</time>
      </trkpt>
      <trkpt lat="17.016441000" lon="-96.403629980">
        <ele>1970.600</ele>
        <time>2020-01-21T15:57:55Z</time>
      </trkpt>
      <trkpt lat="17.016446760" lon="-96.403585370">
        <ele>1971.500</ele>
        <time>2020-01-21T15:57:56Z</time>
      </trkpt>
      <trkpt lat="17.016451290" lon="-96.403526670">
        <ele>1970.900</ele>
        <time>2020-01-21T15:57:57Z</time>
      </trkpt>
      <trkpt lat="17.016463900" lon="-96.403466900">
        <ele>1971.100</ele>
        <time>2020-01-21T15:57:58Z</time>
      </trkpt>
      <trkpt lat="17.016471520" lon="-96.403410330">
        <ele>1971.100</ele>
        <time>2020-01-21T15:57:59Z</time>
      </trkpt>
      <trkpt lat="17.016479260" lon="-96.403349820">
        <ele>1971.200</ele>
        <time>2020-01-21T15:58:00Z</time>
      </trkpt>
      <trkpt lat="17.016486610" lon="-96.403290500">
        <ele>1971.200</ele>
        <time>2020-01-21T15:58:01Z</time>
      </trkpt>
      <trkpt lat="17.016500740" lon="-96.403232010">
        <ele>1971.800</ele>
        <time>2020-01-21T15:58:02Z</time>
      </trkpt>
      <trkpt lat="17.016510390" lon="-96.403187740">
        <ele>1971.100</ele>
        <time>2020-01-21T15:58:03Z</time>
      </trkpt>
      <trkpt lat="17.016527300" lon="-96.403146320">
        <ele>1971.000</ele>
        <time>2020-01-21T15:58:04Z</time>
      </trkpt>
      <trkpt lat="17.016546940" lon="-96.403114010">
        <ele>1971.200</ele>
        <time>2020-01-21T15:58:05Z</time>
      </trkpt>
      <trkpt lat="17.016574770" lon="-96.403058670">
        <ele>1971.700</ele>
        <time>2020-01-21T15:58:07Z</time>
      </trkpt>
      <trkpt lat="17.016591800" lon="-96.402996280">
        <ele>1971.700</ele>
        <time>2020-01-21T15:58:09Z</time>
      </trkpt>
      <trkpt lat="17.016599130" lon="-96.402930170">
        <ele>1970.600</ele>
        <time>2020-01-21T15:58:11Z</time>
      </trkpt>
      <trkpt lat="17.016586090" lon="-96.402860020">
        <ele>1970.100</ele>
        <time>2020-01-21T15:58:13Z</time>
      </trkpt>
      <trkpt lat="17.016566910" lon="-96.402803350">
        <ele>1970.000</ele>
        <time>2020-01-21T15:58:15Z</time>
      </trkpt>
      <trkpt lat="17.016540960" lon="-96.402746140">
        <ele>1970.300</ele>
        <time>2020-01-21T15:58:17Z</time>
      </trkpt>
      <trkpt lat="17.016503490" lon="-96.402688720">
        <ele>1970.400</ele>
        <time>2020-01-21T15:58:19Z</time>
      </trkpt>
      <trkpt lat="17.016456540" lon="-96.402639310">
        <ele>1970.900</ele>
        <time>2020-01-21T15:58:21Z</time>
      </trkpt>
      <trkpt lat="17.016405490" lon="-96.402602150">
        <ele>1971.800</ele>
        <time>2020-01-21T15:58:23Z</time>
      </trkpt>
      <trkpt lat="17.016360140" lon="-96.402575340">
        <ele>1972.200</ele>
        <time>2020-01-21T15:58:25Z</time>
      </trkpt>
      <trkpt lat="17.016322890" lon="-96.402544420">
        <ele>1973.700</ele>
        <time>2020-01-21T15:58:27Z</time>
      </trkpt>
      <trkpt lat="17.016293000" lon="-96.402505350">
        <ele>1973.800</ele>
        <time>2020-01-21T15:58:30Z</time>
      </trkpt>
      <trkpt lat="17.016288520" lon="-96.402466870">
        <ele>1974.300</ele>
        <time>2020-01-21T15:58:34Z</time>
      </trkpt>
      <trkpt lat="17.016280530" lon="-96.402424340">
        <ele>1973.200</ele>
        <time>2020-01-21T15:58:48Z</time>
      </trkpt>
      <trkpt lat="17.016278800" lon="-96.402375650">
        <ele>1975.400</ele>
        <time>2020-01-21T15:58:51Z</time>
      </trkpt>
      <trkpt lat="17.016283960" lon="-96.402337060">
        <ele>1975.000</ele>
        <time>2020-01-21T15:58:53Z</time>
      </trkpt>
      <trkpt lat="17.016291970" lon="-96.402277400">
        <ele>1975.100</ele>
        <time>2020-01-21T15:58:55Z</time>
      </trkpt>
      <trkpt lat="17.016296090" lon="-96.402239400">
        <ele>1975.600</ele>
        <time>2020-01-21T15:58:56Z</time>
      </trkpt>
      <trkpt lat="17.016298650" lon="-96.402196790">
        <ele>1975.600</ele>
        <time>2020-01-21T15:58:57Z</time>
      </trkpt>
      <trkpt lat="17.016300100" lon="-96.402155490">
        <ele>1975.600</ele>
        <time>2020-01-21T15:58:58Z</time>
      </trkpt>
      <trkpt lat="17.016301180" lon="-96.402113280">
        <ele>1975.800</ele>
        <time>2020-01-21T15:58:59Z</time>
      </trkpt>
      <trkpt lat="17.016297280" lon="-96.402069150">
        <ele>1975.400</ele>
        <time>2020-01-21T15:59:00Z</time>
      </trkpt>
      <trkpt lat="17.016289140" lon="-96.402022350">
        <ele>1975.700</ele>
        <time>2020-01-21T15:59:01Z</time>
      </trkpt>
      <trkpt lat="17.016279630" lon="-96.401972210">
        <ele>1975.700</ele>
        <time>2020-01-21T15:59:02Z</time>
      </trkpt>
      <trkpt lat="17.016266250" lon="-96.401918840">
        <ele>1975.400</ele>
        <time>2020-01-21T15:59:03Z</time>
      </trkpt>
      <trkpt lat="17.016254560" lon="-96.401867340">
        <ele>1975.400</ele>
        <time>2020-01-21T15:59:04Z</time>
      </trkpt>
      <trkpt lat="17.016242070" lon="-96.401815170">
        <ele>1975.800</ele>
        <time>2020-01-21T15:59:05Z</time>
      </trkpt>
      <trkpt lat="17.016234580" lon="-96.401767670">
        <ele>1975.900</ele>
        <time>2020-01-21T15:59:06Z</time>
      </trkpt>
      <trkpt lat="17.016225350" lon="-96.401716380">
        <ele>1976.700</ele>
        <time>2020-01-21T15:59:07Z</time>
      </trkpt>
      <trkpt lat="17.016216530" lon="-96.401671620">
        <ele>1977.000</ele>
        <time>2020-01-21T15:59:08Z</time>
      </trkpt>
      <trkpt lat="17.016210370" lon="-96.401624400">
        <ele>1977.000</ele>
        <time>2020-01-21T15:59:09Z</time>
      </trkpt>
      <trkpt lat="17.016200370" lon="-96.401580780">
        <ele>1977.500</ele>
        <time>2020-01-21T15:59:10Z</time>
      </trkpt>
      <trkpt lat="17.016193240" lon="-96.401530700">
        <ele>1977.500</ele>
        <time>2020-01-21T15:59:11Z</time>
      </trkpt>
      <trkpt lat="17.016182100" lon="-96.401479100">
        <ele>1977.200</ele>
        <time>2020-01-21T15:59:12Z</time>
      </trkpt>
      <trkpt lat="17.016177840" lon="-96.401431730">
        <ele>1977.100</ele>
        <time>2020-01-21T15:59:13Z</time>
      </trkpt>
      <trkpt lat="17.016166730" lon="-96.401387030">
        <ele>1977.600</ele>
        <time>2020-01-21T15:59:14Z</time>
      </trkpt>
      <trkpt lat="17.016158120" lon="-96.401342290">
        <ele>1976.800</ele>
        <time>2020-01-21T15:59:15Z</time>
      </trkpt>
      <trkpt lat="17.016157570" lon="-96.401291350">
        <ele>1978.200</ele>
        <time>2020-01-21T15:59:16Z</time>
      </trkpt>
      <trkpt lat="17.016155890" lon="-96.401242330">
        <ele>1977.900</ele>
        <time>2020-01-21T15:59:17Z</time>
      </trkpt>
      <trkpt lat="17.016145680" lon="-96.401192810">
        <ele>1977.500</ele>
        <time>2020-01-21T15:59:18Z</time>
      </trkpt>
      <trkpt lat="17.016139250" lon="-96.401143500">
        <ele>1977.000</ele>
        <time>2020-01-21T15:59:19Z</time>
      </trkpt>
      <trkpt lat="17.016138820" lon="-96.401098850">
        <ele>1977.000</ele>
        <time>2020-01-21T15:59:20Z</time>
      </trkpt>
      <trkpt lat="17.016134110" lon="-96.401028590">
        <ele>1977.800</ele>
        <time>2020-01-21T15:59:22Z</time>
      </trkpt>
      <trkpt lat="17.016133820" lon="-96.400966640">
        <ele>1977.900</ele>
        <time>2020-01-21T15:59:24Z</time>
      </trkpt>
      <trkpt lat="17.016144950" lon="-96.400902460">
        <ele>1977.100</ele>
        <time>2020-01-21T15:59:26Z</time>
      </trkpt>
      <trkpt lat="17.016165450" lon="-96.400830380">
        <ele>1976.700</ele>
        <time>2020-01-21T15:59:28Z</time>
      </trkpt>
      <trkpt lat="17.016180070" lon="-96.400794000">
        <ele>1976.900</ele>
        <time>2020-01-21T15:59:29Z</time>
      </trkpt>
      <trkpt lat="17.016196790" lon="-96.400759140">
        <ele>1977.100</ele>
        <time>2020-01-21T15:59:30Z</time>
      </trkpt>
      <trkpt lat="17.016216580" lon="-96.400723820">
        <ele>1977.000</ele>
        <time>2020-01-21T15:59:31Z</time>
      </trkpt>
      <trkpt lat="17.016236180" lon="-96.400687750">
        <ele>1977.400</ele>
        <time>2020-01-21T15:59:32Z</time>
      </trkpt>
      <trkpt lat="17.016255070" lon="-96.400648910">
        <ele>1977.400</ele>
        <time>2020-01-21T15:59:33Z</time>
      </trkpt>
      <trkpt lat="17.016270590" lon="-96.400607140">
        <ele>1977.500</ele>
        <time>2020-01-21T15:59:34Z</time>
      </trkpt>
      <trkpt lat="17.016276460" lon="-96.400564440">
        <ele>1977.700</ele>
        <time>2020-01-21T15:59:35Z</time>
      </trkpt>
      <trkpt lat="17.016272390" lon="-96.400522850">
        <ele>1978.400</ele>
        <time>2020-01-21T15:59:36Z</time>
      </trkpt>
      <trkpt lat="17.016258080" lon="-96.400479980">
        <ele>1978.600</ele>
        <time>2020-01-21T15:59:37Z</time>
      </trkpt>
      <trkpt lat="17.016230930" lon="-96.400442330">
        <ele>1978.300</ele>
        <time>2020-01-21T15:59:38Z</time>
      </trkpt>
      <trkpt lat="17.016186680" lon="-96.400411980">
        <ele>1978.500</ele>
        <time>2020-01-21T15:59:39Z</time>
      </trkpt>
      <trkpt lat="17.016147010" lon="-96.400381160">
        <ele>1978.800</ele>
        <time>2020-01-21T15:59:40Z</time>
      </trkpt>
      <trkpt lat="17.016113300" lon="-96.400344820">
        <ele>1978.700</ele>
        <time>2020-01-21T15:59:41Z</time>
      </trkpt>
      <trkpt lat="17.016084330" lon="-96.400310490">
        <ele>1978.900</ele>
        <time>2020-01-21T15:59:42Z</time>
      </trkpt>
      <trkpt lat="17.016058810" lon="-96.400269230">
        <ele>1978.700</ele>
        <time>2020-01-21T15:59:43Z</time>
      </trkpt>
      <trkpt lat="17.016044910" lon="-96.400225780">
        <ele>1978.900</ele>
        <time>2020-01-21T15:59:44Z</time>
      </trkpt>
      <trkpt lat="17.016046510" lon="-96.400182210">
        <ele>1979.100</ele>
        <time>2020-01-21T15:59:45Z</time>
      </trkpt>
      <trkpt lat="17.016064010" lon="-96.400142670">
        <ele>1979.500</ele>
        <time>2020-01-21T15:59:46Z</time>
      </trkpt>
      <trkpt lat="17.016095070" lon="-96.400106750">
        <ele>1979.700</ele>
        <time>2020-01-21T15:59:47Z</time>
      </trkpt>
      <trkpt lat="17.016131920" lon="-96.400077110">
        <ele>1980.900</ele>
        <time>2020-01-21T15:59:48Z</time>
      </trkpt>
      <trkpt lat="17.016171940" lon="-96.400039800">
        <ele>1981.300</ele>
        <time>2020-01-21T15:59:49Z</time>
      </trkpt>
      <trkpt lat="17.016214170" lon="-96.399998630">
        <ele>1981.700</ele>
        <time>2020-01-21T15:59:50Z</time>
      </trkpt>
      <trkpt lat="17.016261560" lon="-96.399952740">
        <ele>1982.100</ele>
        <time>2020-01-21T15:59:51Z</time>
      </trkpt>
      <trkpt lat="17.016303430" lon="-96.399907700">
        <ele>1982.100</ele>
        <time>2020-01-21T15:59:52Z</time>
      </trkpt>
      <trkpt lat="17.016342810" lon="-96.399859090">
        <ele>1981.700</ele>
        <time>2020-01-21T15:59:53Z</time>
      </trkpt>
      <trkpt lat="17.016379620" lon="-96.399807200">
        <ele>1981.300</ele>
        <time>2020-01-21T15:59:54Z</time>
      </trkpt>
      <trkpt lat="17.016406280" lon="-96.399756810">
        <ele>1981.600</ele>
        <time>2020-01-21T15:59:55Z</time>
      </trkpt>
      <trkpt lat="17.016424790" lon="-96.399707240">
        <ele>1982.100</ele>
        <time>2020-01-21T15:59:56Z</time>
      </trkpt>
      <trkpt lat="17.016441950" lon="-96.399663640">
        <ele>1982.600</ele>
        <time>2020-01-21T15:59:57Z</time>
      </trkpt>
      <trkpt lat="17.016458430" lon="-96.399613180">
        <ele>1982.400</ele>
        <time>2020-01-21T15:59:58Z</time>
      </trkpt>
      <trkpt lat="17.016473440" lon="-96.399568700">
        <ele>1983.000</ele>
        <time>2020-01-21T15:59:59Z</time>
      </trkpt>
      <trkpt lat="17.016487490" lon="-96.399523160">
        <ele>1983.600</ele>
        <time>2020-01-21T16:00:00Z</time>
      </trkpt>
      <trkpt lat="17.016499550" lon="-96.399482370">
        <ele>1983.800</ele>
        <time>2020-01-21T16:00:01Z</time>
      </trkpt>
      <trkpt lat="17.016511860" lon="-96.399412510">
        <ele>1986.600</ele>
        <time>2020-01-21T16:00:03Z</time>
      </trkpt>
      <trkpt lat="17.016515300" lon="-96.399346720">
        <ele>1986.700</ele>
        <time>2020-01-21T16:00:05Z</time>
      </trkpt>
      <trkpt lat="17.016525210" lon="-96.399301630">
        <ele>1986.400</ele>
        <time>2020-01-21T16:00:07Z</time>
      </trkpt>
      <trkpt lat="17.016550630" lon="-96.399263630">
        <ele>1987.900</ele>
        <time>2020-01-21T16:00:09Z</time>
      </trkpt>
      <trkpt lat="17.016597250" lon="-96.399217220">
        <ele>1988.900</ele>
        <time>2020-01-21T16:00:11Z</time>
      </trkpt>
      <trkpt lat="17.016626080" lon="-96.399188130">
        <ele>1989.400</ele>
        <time>2020-01-21T16:00:12Z</time>
      </trkpt>
      <trkpt lat="17.016656510" lon="-96.399154770">
        <ele>1989.500</ele>
        <time>2020-01-21T16:00:13Z</time>
      </trkpt>
      <trkpt lat="17.016695000" lon="-96.399111830">
        <ele>1989.900</ele>
        <time>2020-01-21T16:00:14Z</time>
      </trkpt>
      <trkpt lat="17.016730670" lon="-96.399068160">
        <ele>1990.400</ele>
        <time>2020-01-21T16:00:15Z</time>
      </trkpt>
      <trkpt lat="17.016768900" lon="-96.399020280">
        <ele>1990.700</ele>
        <time>2020-01-21T16:00:16Z</time>
      </trkpt>
      <trkpt lat="17.016814120" lon="-96.398967970">
        <ele>1991.600</ele>
        <time>2020-01-21T16:00:17Z</time>
      </trkpt>
      <trkpt lat="17.016850980" lon="-96.398911070">
        <ele>1991.200</ele>
        <time>2020-01-21T16:00:18Z</time>
      </trkpt>
      <trkpt lat="17.016889600" lon="-96.398855500">
        <ele>1990.600</ele>
        <time>2020-01-21T16:00:19Z</time>
      </trkpt>
      <trkpt lat="17.016929150" lon="-96.398805630">
        <ele>1990.800</ele>
        <time>2020-01-21T16:00:20Z</time>
      </trkpt>
      <trkpt lat="17.016969230" lon="-96.398761830">
        <ele>1991.800</ele>
        <time>2020-01-21T16:00:21Z</time>
      </trkpt>
      <trkpt lat="17.017014300" lon="-96.398723520">
        <ele>1992.600</ele>
        <time>2020-01-21T16:00:22Z</time>
      </trkpt>
      <trkpt lat="17.017053420" lon="-96.398679420">
        <ele>1993.400</ele>
        <time>2020-01-21T16:00:23Z</time>
      </trkpt>
      <trkpt lat="17.017076040" lon="-96.398636860">
        <ele>1992.200</ele>
        <time>2020-01-21T16:00:24Z</time>
      </trkpt>
      <trkpt lat="17.017101520" lon="-96.398582250">
        <ele>1992.700</ele>
        <time>2020-01-21T16:00:25Z</time>
      </trkpt>
      <trkpt lat="17.017120150" lon="-96.398521310">
        <ele>1992.700</ele>
        <time>2020-01-21T16:00:26Z</time>
      </trkpt>
      <trkpt lat="17.017137440" lon="-96.398459640">
        <ele>1993.200</ele>
        <time>2020-01-21T16:00:27Z</time>
      </trkpt>
      <trkpt lat="17.017157220" lon="-96.398397160">
        <ele>1994.400</ele>
        <time>2020-01-21T16:00:28Z</time>
      </trkpt>
      <trkpt lat="17.017183500" lon="-96.398341850">
        <ele>1994.800</ele>
        <time>2020-01-21T16:00:29Z</time>
      </trkpt>
      <trkpt lat="17.017208930" lon="-96.398279270">
        <ele>1995.000</ele>
        <time>2020-01-21T16:00:30Z</time>
      </trkpt>
      <trkpt lat="17.017237140" lon="-96.398219260">
        <ele>1995.600</ele>
        <time>2020-01-21T16:00:31Z</time>
      </trkpt>
      <trkpt lat="17.017259820" lon="-96.398162890">
        <ele>1996.200</ele>
        <time>2020-01-21T16:00:32Z</time>
      </trkpt>
      <trkpt lat="17.017277370" lon="-96.398106520">
        <ele>1996.400</ele>
        <time>2020-01-21T16:00:33Z</time>
      </trkpt>
      <trkpt lat="17.017292580" lon="-96.398055240">
        <ele>1996.700</ele>
        <time>2020-01-21T16:00:34Z</time>
      </trkpt>
      <trkpt lat="17.017305710" lon="-96.398004460">
        <ele>1996.400</ele>
        <time>2020-01-21T16:00:35Z</time>
      </trkpt>
      <trkpt lat="17.017328460" lon="-96.397953380">
        <ele>1996.200</ele>
        <time>2020-01-21T16:00:36Z</time>
      </trkpt>
      <trkpt lat="17.017358120" lon="-96.397900470">
        <ele>1997.000</ele>
        <time>2020-01-21T16:00:37Z</time>
      </trkpt>
      <trkpt lat="17.017396580" lon="-96.397852970">
        <ele>1997.500</ele>
        <time>2020-01-21T16:00:38Z</time>
      </trkpt>
      <trkpt lat="17.017437380" lon="-96.397808790">
        <ele>1998.200</ele>
        <time>2020-01-21T16:00:39Z</time>
      </trkpt>
      <trkpt lat="17.017462450" lon="-96.397763310">
        <ele>1998.800</ele>
        <time>2020-01-21T16:00:40Z</time>
      </trkpt>
      <trkpt lat="17.017481550" lon="-96.397712570">
        <ele>2000.200</ele>
        <time>2020-01-21T16:00:41Z</time>
      </trkpt>
      <trkpt lat="17.017490930" lon="-96.397650760">
        <ele>2000.500</ele>
        <time>2020-01-21T16:00:42Z</time>
      </trkpt>
      <trkpt lat="17.017497720" lon="-96.397593710">
        <ele>2000.500</ele>
        <time>2020-01-21T16:00:43Z</time>
      </trkpt>
      <trkpt lat="17.017498540" lon="-96.397532860">
        <ele>2000.600</ele>
        <time>2020-01-21T16:00:44Z</time>
      </trkpt>
      <trkpt lat="17.017500680" lon="-96.397474420">
        <ele>2000.800</ele>
        <time>2020-01-21T16:00:45Z</time>
      </trkpt>
      <trkpt lat="17.017501700" lon="-96.397418500">
        <ele>2001.000</ele>
        <time>2020-01-21T16:00:46Z</time>
      </trkpt>
      <trkpt lat="17.017506930" lon="-96.397359810">
        <ele>2001.000</ele>
        <time>2020-01-21T16:00:47Z</time>
      </trkpt>
      <trkpt lat="17.017525630" lon="-96.397303730">
        <ele>2001.600</ele>
        <time>2020-01-21T16:00:48Z</time>
      </trkpt>
      <trkpt lat="17.017543520" lon="-96.397251040">
        <ele>2001.800</ele>
        <time>2020-01-21T16:00:49Z</time>
      </trkpt>
      <trkpt lat="17.017568250" lon="-96.397201260">
        <ele>2003.300</ele>
        <time>2020-01-21T16:00:50Z</time>
      </trkpt>
      <trkpt lat="17.017586430" lon="-96.397147430">
        <ele>2003.000</ele>
        <time>2020-01-21T16:00:51Z</time>
      </trkpt>
      <trkpt lat="17.017600720" lon="-96.397093770">
        <ele>2003.300</ele>
        <time>2020-01-21T16:00:52Z</time>
      </trkpt>
      <trkpt lat="17.017601710" lon="-96.397043000">
        <ele>2003.800</ele>
        <time>2020-01-21T16:00:53Z</time>
      </trkpt>
      <trkpt lat="17.017611940" lon="-96.396987730">
        <ele>2003.600</ele>
        <time>2020-01-21T16:00:54Z</time>
      </trkpt>
      <trkpt lat="17.017625490" lon="-96.396923300">
        <ele>2003.700</ele>
        <time>2020-01-21T16:00:55Z</time>
      </trkpt>
      <trkpt lat="17.017644390" lon="-96.396868230">
        <ele>2004.400</ele>
        <time>2020-01-21T16:00:56Z</time>
      </trkpt>
      <trkpt lat="17.017663990" lon="-96.396813280">
        <ele>2004.900</ele>
        <time>2020-01-21T16:00:57Z</time>
      </trkpt>
      <trkpt lat="17.017680450" lon="-96.396761410">
        <ele>2005.400</ele>
        <time>2020-01-21T16:00:58Z</time>
      </trkpt>
      <trkpt lat="17.017694990" lon="-96.396711960">
        <ele>2006.200</ele>
        <time>2020-01-21T16:00:59Z</time>
      </trkpt>
      <trkpt lat="17.017705670" lon="-96.396654030">
        <ele>2005.400</ele>
        <time>2020-01-21T16:01:00Z</time>
      </trkpt>
      <trkpt lat="17.017713160" lon="-96.396598910">
        <ele>2005.600</ele>
        <time>2020-01-21T16:01:01Z</time>
      </trkpt>
      <trkpt lat="17.017715630" lon="-96.396542650">
        <ele>2006.000</ele>
        <time>2020-01-21T16:01:02Z</time>
      </trkpt>
      <trkpt lat="17.017718430" lon="-96.396486650">
        <ele>2005.700</ele>
        <time>2020-01-21T16:01:03Z</time>
      </trkpt>
      <trkpt lat="17.017719400" lon="-96.396425850">
        <ele>2006.700</ele>
        <time>2020-01-21T16:01:04Z</time>
      </trkpt>
      <trkpt lat="17.017718580" lon="-96.396370740">
        <ele>2006.600</ele>
        <time>2020-01-21T16:01:05Z</time>
      </trkpt>
      <trkpt lat="17.017727460" lon="-96.396315120">
        <ele>2007.400</ele>
        <time>2020-01-21T16:01:06Z</time>
      </trkpt>
      <trkpt lat="17.017741940" lon="-96.396262630">
        <ele>2008.800</ele>
        <time>2020-01-21T16:01:07Z</time>
      </trkpt>
      <trkpt lat="17.017756480" lon="-96.396210950">
        <ele>2009.000</ele>
        <time>2020-01-21T16:01:08Z</time>
      </trkpt>
      <trkpt lat="17.017771240" lon="-96.396167560">
        <ele>2009.500</ele>
        <time>2020-01-21T16:01:09Z</time>
      </trkpt>
      <trkpt lat="17.017795610" lon="-96.396113440">
        <ele>2011.100</ele>
        <time>2020-01-21T16:01:11Z</time>
      </trkpt>
      <trkpt lat="17.017832440" lon="-96.396065130">
        <ele>2012.300</ele>
        <time>2020-01-21T16:01:13Z</time>
      </trkpt>
      <trkpt lat="17.017853590" lon="-96.396034200">
        <ele>2013.500</ele>
        <time>2020-01-21T16:01:14Z</time>
      </trkpt>
      <trkpt lat="17.017877970" lon="-96.396003450">
        <ele>2014.600</ele>
        <time>2020-01-21T16:01:15Z</time>
      </trkpt>
      <trkpt lat="17.017903790" lon="-96.395971470">
        <ele>2015.300</ele>
        <time>2020-01-21T16:01:16Z</time>
      </trkpt>
      <trkpt lat="17.017930820" lon="-96.395937280">
        <ele>2015.700</ele>
        <time>2020-01-21T16:01:17Z</time>
      </trkpt>
      <trkpt lat="17.017955070" lon="-96.395902630">
        <ele>2016.500</ele>
        <time>2020-01-21T16:01:18Z</time>
      </trkpt>
      <trkpt lat="17.017977400" lon="-96.395869270">
        <ele>2017.000</ele>
        <time>2020-01-21T16:01:19Z</time>
      </trkpt>
      <trkpt lat="17.017999680" lon="-96.395835970">
        <ele>2017.900</ele>
        <time>2020-01-21T16:01:20Z</time>
      </trkpt>
      <trkpt lat="17.018022170" lon="-96.395801260">
        <ele>2018.700</ele>
        <time>2020-01-21T16:01:21Z</time>
      </trkpt>
      <trkpt lat="17.018043030" lon="-96.395766070">
        <ele>2019.800</ele>
        <time>2020-01-21T16:01:22Z</time>
      </trkpt>
      <trkpt lat="17.018062460" lon="-96.395728040">
        <ele>2020.300</ele>
        <time>2020-01-21T16:01:23Z</time>
      </trkpt>
      <trkpt lat="17.018080790" lon="-96.395687870">
        <ele>2020.800</ele>
        <time>2020-01-21T16:01:24Z</time>
      </trkpt>
      <trkpt lat="17.018096610" lon="-96.395646160">
        <ele>2021.900</ele>
        <time>2020-01-21T16:01:25Z</time>
      </trkpt>
      <trkpt lat="17.018108140" lon="-96.395603360">
        <ele>2022.100</ele>
        <time>2020-01-21T16:01:26Z</time>
      </trkpt>
      <trkpt lat="17.018114860" lon="-96.395559800">
        <ele>2022.800</ele>
        <time>2020-01-21T16:01:27Z</time>
      </trkpt>
      <trkpt lat="17.018118630" lon="-96.395516750">
        <ele>2023.100</ele>
        <time>2020-01-21T16:01:28Z</time>
      </trkpt>
      <trkpt lat="17.018119400" lon="-96.395476040">
        <ele>2023.600</ele>
        <time>2020-01-21T16:01:29Z</time>
      </trkpt>
      <trkpt lat="17.018119580" lon="-96.395438240">
        <ele>2023.800</ele>
        <time>2020-01-21T16:01:30Z</time>
      </trkpt>
      <trkpt lat="17.018117060" lon="-96.395363520">
        <ele>2024.900</ele>
        <time>2020-01-21T16:01:32Z</time>
      </trkpt>
      <trkpt lat="17.018113350" lon="-96.395323230">
        <ele>2025.300</ele>
        <time>2020-01-21T16:01:33Z</time>
      </trkpt>
      <trkpt lat="17.018108870" lon="-96.395283330">
        <ele>2025.200</ele>
        <time>2020-01-21T16:01:34Z</time>
      </trkpt>
      <trkpt lat="17.018102580" lon="-96.395243210">
        <ele>2026.500</ele>
        <time>2020-01-21T16:01:35Z</time>
      </trkpt>
      <trkpt lat="17.018094840" lon="-96.395202390">
        <ele>2027.600</ele>
        <time>2020-01-21T16:01:36Z</time>
      </trkpt>
      <trkpt lat="17.018087550" lon="-96.395161670">
        <ele>2028.300</ele>
        <time>2020-01-21T16:01:37Z</time>
      </trkpt>
      <trkpt lat="17.018078340" lon="-96.395124270">
        <ele>2029.000</ele>
        <time>2020-01-21T16:01:38Z</time>
      </trkpt>
      <trkpt lat="17.018067890" lon="-96.395085560">
        <ele>2029.500</ele>
        <time>2020-01-21T16:01:39Z</time>
      </trkpt>
      <trkpt lat="17.018054990" lon="-96.395045160">
        <ele>2029.700</ele>
        <time>2020-01-21T16:01:40Z</time>
      </trkpt>
      <trkpt lat="17.018042350" lon="-96.395005730">
        <ele>2030.700</ele>
        <time>2020-01-21T16:01:41Z</time>
      </trkpt>
      <trkpt lat="17.018029390" lon="-96.394966600">
        <ele>2031.900</ele>
        <time>2020-01-21T16:01:42Z</time>
      </trkpt>
      <trkpt lat="17.018015610" lon="-96.394927350">
        <ele>2031.700</ele>
        <time>2020-01-21T16:01:43Z</time>
      </trkpt>
      <trkpt lat="17.017999470" lon="-96.394887650">
        <ele>2030.900</ele>
        <time>2020-01-21T16:01:44Z</time>
      </trkpt>
      <trkpt lat="17.017983130" lon="-96.394844000">
        <ele>2032.300</ele>
        <time>2020-01-21T16:01:45Z</time>
      </trkpt>
      <trkpt lat="17.017964630" lon="-96.394802480">
        <ele>2032.400</ele>
        <time>2020-01-21T16:01:46Z</time>
      </trkpt>
      <trkpt lat="17.017944480" lon="-96.394763320">
        <ele>2032.800</ele>
        <time>2020-01-21T16:01:47Z</time>
      </trkpt>
      <trkpt lat="17.017921610" lon="-96.394726110">
        <ele>2033.900</ele>
        <time>2020-01-21T16:01:48Z</time>
      </trkpt>
      <trkpt lat="17.017896080" lon="-96.394690650">
        <ele>2035.200</ele>
        <time>2020-01-21T16:01:49Z</time>
      </trkpt>
      <trkpt lat="17.017869500" lon="-96.394655460">
        <ele>2035.900</ele>
        <time>2020-01-21T16:01:50Z</time>
      </trkpt>
      <trkpt lat="17.017843260" lon="-96.394621040">
        <ele>2036.200</ele>
        <time>2020-01-21T16:01:51Z</time>
      </trkpt>
      <trkpt lat="17.017815770" lon="-96.394585370">
        <ele>2036.600</ele>
        <time>2020-01-21T16:01:52Z</time>
      </trkpt>
      <trkpt lat="17.017789020" lon="-96.394550650">
        <ele>2037.300</ele>
        <time>2020-01-21T16:01:53Z</time>
      </trkpt>
      <trkpt lat="17.017763170" lon="-96.394516800">
        <ele>2037.800</ele>
        <time>2020-01-21T16:01:54Z</time>
      </trkpt>
      <trkpt lat="17.017734830" lon="-96.394482510">
        <ele>2037.600</ele>
        <time>2020-01-21T16:01:55Z</time>
      </trkpt>
      <trkpt lat="17.017703400" lon="-96.394449930">
        <ele>2038.500</ele>
        <time>2020-01-21T16:01:56Z</time>
      </trkpt>
      <trkpt lat="17.017667190" lon="-96.394419850">
        <ele>2040.500</ele>
        <time>2020-01-21T16:01:57Z</time>
      </trkpt>
      <trkpt lat="17.017618490" lon="-96.394403060">
        <ele>2040.600</ele>
        <time>2020-01-21T16:01:58Z</time>
      </trkpt>
      <trkpt lat="17.017576480" lon="-96.394377640">
        <ele>2040.500</ele>
        <time>2020-01-21T16:01:59Z</time>
      </trkpt>
      <trkpt lat="17.017532040" lon="-96.394352650">
        <ele>2041.400</ele>
        <time>2020-01-21T16:02:00Z</time>
      </trkpt>
      <trkpt lat="17.017483060" lon="-96.394327510">
        <ele>2042.000</ele>
        <time>2020-01-21T16:02:01Z</time>
      </trkpt>
      <trkpt lat="17.017438240" lon="-96.394297610">
        <ele>2043.200</ele>
        <time>2020-01-21T16:02:02Z</time>
      </trkpt>
      <trkpt lat="17.017392060" lon="-96.394268970">
        <ele>2044.200</ele>
        <time>2020-01-21T16:02:03Z</time>
      </trkpt>
      <trkpt lat="17.017352430" lon="-96.394234240">
        <ele>2045.100</ele>
        <time>2020-01-21T16:02:04Z</time>
      </trkpt>
      <trkpt lat="17.017316500" lon="-96.394198650">
        <ele>2046.000</ele>
        <time>2020-01-21T16:02:05Z</time>
      </trkpt>
      <trkpt lat="17.017280170" lon="-96.394164710">
        <ele>2046.400</ele>
        <time>2020-01-21T16:02:06Z</time>
      </trkpt>
      <trkpt lat="17.017242880" lon="-96.394127900">
        <ele>2046.700</ele>
        <time>2020-01-21T16:02:07Z</time>
      </trkpt>
      <trkpt lat="17.017208620" lon="-96.394092640">
        <ele>2047.200</ele>
        <time>2020-01-21T16:02:08Z</time>
      </trkpt>
      <trkpt lat="17.017177940" lon="-96.394058490">
        <ele>2047.500</ele>
        <time>2020-01-21T16:02:09Z</time>
      </trkpt>
      <trkpt lat="17.017149070" lon="-96.394029040">
        <ele>2047.300</ele>
        <time>2020-01-21T16:02:10Z</time>
      </trkpt>
      <trkpt lat="17.017125480" lon="-96.393995770">
        <ele>2047.400</ele>
        <time>2020-01-21T16:02:11Z</time>
      </trkpt>
      <trkpt lat="17.017114200" lon="-96.393949860">
        <ele>2048.200</ele>
        <time>2020-01-21T16:02:12Z</time>
      </trkpt>
      <trkpt lat="17.017114470" lon="-96.393909790">
        <ele>2049.500</ele>
        <time>2020-01-21T16:02:13Z</time>
      </trkpt>
      <trkpt lat="17.017128080" lon="-96.393869750">
        <ele>2049.600</ele>
        <time>2020-01-21T16:02:14Z</time>
      </trkpt>
      <trkpt lat="17.017149050" lon="-96.393837900">
        <ele>2050.000</ele>
        <time>2020-01-21T16:02:15Z</time>
      </trkpt>
      <trkpt lat="17.017196540" lon="-96.393795750">
        <ele>2048.200</ele>
        <time>2020-01-21T16:02:17Z</time>
      </trkpt>
      <trkpt lat="17.017253030" lon="-96.393750810">
        <ele>2050.500</ele>
        <time>2020-01-21T16:02:19Z</time>
      </trkpt>
      <trkpt lat="17.017284760" lon="-96.393725220">
        <ele>2051.500</ele>
        <time>2020-01-21T16:02:20Z</time>
      </trkpt>
      <trkpt lat="17.017317710" lon="-96.393699870">
        <ele>2052.800</ele>
        <time>2020-01-21T16:02:21Z</time>
      </trkpt>
      <trkpt lat="17.017350750" lon="-96.393673110">
        <ele>2053.600</ele>
        <time>2020-01-21T16:02:22Z</time>
      </trkpt>
      <trkpt lat="17.017381600" lon="-96.393644790">
        <ele>2054.800</ele>
        <time>2020-01-21T16:02:23Z</time>
      </trkpt>
      <trkpt lat="17.017410820" lon="-96.393615160">
        <ele>2055.000</ele>
        <time>2020-01-21T16:02:24Z</time>
      </trkpt>
      <trkpt lat="17.017439990" lon="-96.393585420">
        <ele>2056.400</ele>
        <time>2020-01-21T16:02:25Z</time>
      </trkpt>
      <trkpt lat="17.017469740" lon="-96.393554750">
        <ele>2057.300</ele>
        <time>2020-01-21T16:02:26Z</time>
      </trkpt>
      <trkpt lat="17.017501050" lon="-96.393525290">
        <ele>2057.700</ele>
        <time>2020-01-21T16:02:27Z</time>
      </trkpt>
      <trkpt lat="17.017532990" lon="-96.393495710">
        <ele>2058.000</ele>
        <time>2020-01-21T16:02:28Z</time>
      </trkpt>
      <trkpt lat="17.017568900" lon="-96.393471720">
        <ele>2058.500</ele>
        <time>2020-01-21T16:02:29Z</time>
      </trkpt>
      <trkpt lat="17.017610010" lon="-96.393442710">
        <ele>2059.200</ele>
        <time>2020-01-21T16:02:30Z</time>
      </trkpt>
      <trkpt lat="17.017650940" lon="-96.393424100">
        <ele>2060.100</ele>
        <time>2020-01-21T16:02:31Z</time>
      </trkpt>
      <trkpt lat="17.017696330" lon="-96.393402240">
        <ele>2060.900</ele>
        <time>2020-01-21T16:02:32Z</time>
      </trkpt>
      <trkpt lat="17.017746670" lon="-96.393391200">
        <ele>2061.500</ele>
        <time>2020-01-21T16:02:33Z</time>
      </trkpt>
      <trkpt lat="17.017795810" lon="-96.393384510">
        <ele>2062.200</ele>
        <time>2020-01-21T16:02:34Z</time>
      </trkpt>
      <trkpt lat="17.017844050" lon="-96.393350590">
        <ele>2063.500</ele>
        <time>2020-01-21T16:02:35Z</time>
      </trkpt>
      <trkpt lat="17.017889350" lon="-96.393323630">
        <ele>2063.800</ele>
        <time>2020-01-21T16:02:36Z</time>
      </trkpt>
      <trkpt lat="17.017930990" lon="-96.393323760">
        <ele>2063.800</ele>
        <time>2020-01-21T16:02:37Z</time>
      </trkpt>
      <trkpt lat="17.017979310" lon="-96.393322270">
        <ele>2065.700</ele>
        <time>2020-01-21T16:02:38Z</time>
      </trkpt>
      <trkpt lat="17.018023190" lon="-96.393307150">
        <ele>2066.600</ele>
        <time>2020-01-21T16:02:39Z</time>
      </trkpt>
      <trkpt lat="17.018060070" lon="-96.393291690">
        <ele>2066.900</ele>
        <time>2020-01-21T16:02:40Z</time>
      </trkpt>
      <trkpt lat="17.018104340" lon="-96.393281820">
        <ele>2066.600</ele>
        <time>2020-01-21T16:02:41Z</time>
      </trkpt>
      <trkpt lat="17.018138970" lon="-96.393269160">
        <ele>2066.700</ele>
        <time>2020-01-21T16:02:42Z</time>
      </trkpt>
      <trkpt lat="17.018181420" lon="-96.393267900">
        <ele>2067.000</ele>
        <time>2020-01-21T16:02:43Z</time>
      </trkpt>
      <trkpt lat="17.018219600" lon="-96.393256650">
        <ele>2067.600</ele>
        <time>2020-01-21T16:02:44Z</time>
      </trkpt>
      <trkpt lat="17.018253290" lon="-96.393241290">
        <ele>2068.200</ele>
        <time>2020-01-21T16:02:45Z</time>
      </trkpt>
      <trkpt lat="17.018305350" lon="-96.393195950">
        <ele>2068.700</ele>
        <time>2020-01-21T16:02:47Z</time>
      </trkpt>
      <trkpt lat="17.018343430" lon="-96.393182780">
        <ele>2069.400</ele>
        <time>2020-01-21T16:02:48Z</time>
      </trkpt>
      <trkpt lat="17.018380240" lon="-96.393165890">
        <ele>2070.500</ele>
        <time>2020-01-21T16:02:49Z</time>
      </trkpt>
      <trkpt lat="17.018414820" lon="-96.393145400">
        <ele>2070.600</ele>
        <time>2020-01-21T16:02:50Z</time>
      </trkpt>
      <trkpt lat="17.018449840" lon="-96.393123210">
        <ele>2070.900</ele>
        <time>2020-01-21T16:02:51Z</time>
      </trkpt>
      <trkpt lat="17.018480620" lon="-96.393102040">
        <ele>2071.900</ele>
        <time>2020-01-21T16:02:52Z</time>
      </trkpt>
      <trkpt lat="17.018508970" lon="-96.393077020">
        <ele>2073.100</ele>
        <time>2020-01-21T16:02:53Z</time>
      </trkpt>
      <trkpt lat="17.018554610" lon="-96.393019910">
        <ele>2076.400</ele>
        <time>2020-01-21T16:02:55Z</time>
      </trkpt>
      <trkpt lat="17.018569930" lon="-96.392984200">
        <ele>2075.900</ele>
        <time>2020-01-21T16:02:56Z</time>
      </trkpt>
      <trkpt lat="17.018581680" lon="-96.392948030">
        <ele>2076.600</ele>
        <time>2020-01-21T16:02:57Z</time>
      </trkpt>
      <trkpt lat="17.018592490" lon="-96.392908220">
        <ele>2077.300</ele>
        <time>2020-01-21T16:02:58Z</time>
      </trkpt>
      <trkpt lat="17.018598800" lon="-96.392867920">
        <ele>2078.100</ele>
        <time>2020-01-21T16:02:59Z</time>
      </trkpt>
      <trkpt lat="17.018599570" lon="-96.392828860">
        <ele>2077.900</ele>
        <time>2020-01-21T16:03:00Z</time>
      </trkpt>
      <trkpt lat="17.018595710" lon="-96.392789370">
        <ele>2077.100</ele>
        <time>2020-01-21T16:03:01Z</time>
      </trkpt>
      <trkpt lat="17.018589670" lon="-96.392746230">
        <ele>2077.000</ele>
        <time>2020-01-21T16:03:02Z</time>
      </trkpt>
      <trkpt lat="17.018585590" lon="-96.392700690">
        <ele>2077.800</ele>
        <time>2020-01-21T16:03:03Z</time>
      </trkpt>
      <trkpt lat="17.018587130" lon="-96.392661070">
        <ele>2076.900</ele>
        <time>2020-01-21T16:03:04Z</time>
      </trkpt>
      <trkpt lat="17.018592070" lon="-96.392620960">
        <ele>2077.500</ele>
        <time>2020-01-21T16:03:05Z</time>
      </trkpt>
      <trkpt lat="17.018617840" lon="-96.392548830">
        <ele>2079.400</ele>
        <time>2020-01-21T16:03:07Z</time>
      </trkpt>
      <trkpt lat="17.018632490" lon="-96.392511570">
        <ele>2080.100</ele>
        <time>2020-01-21T16:03:08Z</time>
      </trkpt>
      <trkpt lat="17.018644100" lon="-96.392474390">
        <ele>2080.700</ele>
        <time>2020-01-21T16:03:09Z</time>
      </trkpt>
      <trkpt lat="17.018652490" lon="-96.392433570">
        <ele>2081.300</ele>
        <time>2020-01-21T16:03:10Z</time>
      </trkpt>
      <trkpt lat="17.018655160" lon="-96.392392100">
        <ele>2081.500</ele>
        <time>2020-01-21T16:03:11Z</time>
      </trkpt>
      <trkpt lat="17.018655160" lon="-96.392353080">
        <ele>2082.100</ele>
        <time>2020-01-21T16:03:12Z</time>
      </trkpt>
      <trkpt lat="17.018651840" lon="-96.392312220">
        <ele>2082.500</ele>
        <time>2020-01-21T16:03:13Z</time>
      </trkpt>
      <trkpt lat="17.018642460" lon="-96.392272630">
        <ele>2082.800</ele>
        <time>2020-01-21T16:03:14Z</time>
      </trkpt>
      <trkpt lat="17.018629860" lon="-96.392232910">
        <ele>2083.400</ele>
        <time>2020-01-21T16:03:15Z</time>
      </trkpt>
      <trkpt lat="17.018615780" lon="-96.392193880">
        <ele>2083.900</ele>
        <time>2020-01-21T16:03:16Z</time>
      </trkpt>
      <trkpt lat="17.018601470" lon="-96.392155110">
        <ele>2084.400</ele>
        <time>2020-01-21T16:03:17Z</time>
      </trkpt>
      <trkpt lat="17.018589320" lon="-96.392115190">
        <ele>2085.400</ele>
        <time>2020-01-21T16:03:18Z</time>
      </trkpt>
      <trkpt lat="17.018576430" lon="-96.392073540">
        <ele>2086.400</ele>
        <time>2020-01-21T16:03:19Z</time>
      </trkpt>
      <trkpt lat="17.018565890" lon="-96.392034850">
        <ele>2087.500</ele>
        <time>2020-01-21T16:03:20Z</time>
      </trkpt>
      <trkpt lat="17.018553530" lon="-96.391999110">
        <ele>2088.400</ele>
        <time>2020-01-21T16:03:21Z</time>
      </trkpt>
      <trkpt lat="17.018530040" lon="-96.391928650">
        <ele>2090.200</ele>
        <time>2020-01-21T16:03:23Z</time>
      </trkpt>
      <trkpt lat="17.018507140" lon="-96.391858640">
        <ele>2091.900</ele>
        <time>2020-01-21T16:03:25Z</time>
      </trkpt>
      <trkpt lat="17.018480950" lon="-96.391792670">
        <ele>2093.600</ele>
        <time>2020-01-21T16:03:27Z</time>
      </trkpt>
      <trkpt lat="17.018451740" lon="-96.391725350">
        <ele>2095.400</ele>
        <time>2020-01-21T16:03:29Z</time>
      </trkpt>
      <trkpt lat="17.018418890" lon="-96.391656670">
        <ele>2096.600</ele>
        <time>2020-01-21T16:03:31Z</time>
      </trkpt>
      <trkpt lat="17.018400850" lon="-96.391620350">
        <ele>2097.200</ele>
        <time>2020-01-21T16:03:32Z</time>
      </trkpt>
      <trkpt lat="17.018383780" lon="-96.391583530">
        <ele>2097.600</ele>
        <time>2020-01-21T16:03:33Z</time>
      </trkpt>
      <trkpt lat="17.018365210" lon="-96.391545590">
        <ele>2098.000</ele>
        <time>2020-01-21T16:03:34Z</time>
      </trkpt>
      <trkpt lat="17.018350580" lon="-96.391507050">
        <ele>2099.000</ele>
        <time>2020-01-21T16:03:35Z</time>
      </trkpt>
      <trkpt lat="17.018341520" lon="-96.391469360">
        <ele>2100.100</ele>
        <time>2020-01-21T16:03:36Z</time>
      </trkpt>
      <trkpt lat="17.018339470" lon="-96.391426870">
        <ele>2100.700</ele>
        <time>2020-01-21T16:03:37Z</time>
      </trkpt>
      <trkpt lat="17.018351820" lon="-96.391384620">
        <ele>2101.200</ele>
        <time>2020-01-21T16:03:38Z</time>
      </trkpt>
      <trkpt lat="17.018364520" lon="-96.391345450">
        <ele>2096.400</ele>
        <time>2020-01-21T16:03:39Z</time>
      </trkpt>
      <trkpt lat="17.018380750" lon="-96.391271430">
        <ele>2099.200</ele>
        <time>2020-01-21T16:03:41Z</time>
      </trkpt>
      <trkpt lat="17.018398410" lon="-96.391233950">
        <ele>2100.400</ele>
        <time>2020-01-21T16:03:42Z</time>
      </trkpt>
      <trkpt lat="17.018422920" lon="-96.391198160">
        <ele>2101.300</ele>
        <time>2020-01-21T16:03:43Z</time>
      </trkpt>
      <trkpt lat="17.018470370" lon="-96.391167380">
        <ele>2101.000</ele>
        <time>2020-01-21T16:03:44Z</time>
      </trkpt>
      <trkpt lat="17.018538610" lon="-96.391126360">
        <ele>2101.900</ele>
        <time>2020-01-21T16:03:45Z</time>
      </trkpt>
      <trkpt lat="17.018581350" lon="-96.391073300">
        <ele>2102.300</ele>
        <time>2020-01-21T16:03:47Z</time>
      </trkpt>
      <trkpt lat="17.018611920" lon="-96.391047060">
        <ele>2105.700</ele>
        <time>2020-01-21T16:03:48Z</time>
      </trkpt>
      <trkpt lat="17.018645440" lon="-96.391015160">
        <ele>2106.400</ele>
        <time>2020-01-21T16:03:49Z</time>
      </trkpt>
      <trkpt lat="17.018669750" lon="-96.390973450">
        <ele>2107.600</ele>
        <time>2020-01-21T16:03:50Z</time>
      </trkpt>
      <trkpt lat="17.018688310" lon="-96.390939670">
        <ele>2108.500</ele>
        <time>2020-01-21T16:03:51Z</time>
      </trkpt>
      <trkpt lat="17.018706430" lon="-96.390902210">
        <ele>2108.300</ele>
        <time>2020-01-21T16:03:52Z</time>
      </trkpt>
      <trkpt lat="17.018723720" lon="-96.390866630">
        <ele>2109.100</ele>
        <time>2020-01-21T16:03:53Z</time>
      </trkpt>
      <trkpt lat="17.018739730" lon="-96.390829240">
        <ele>2109.500</ele>
        <time>2020-01-21T16:03:54Z</time>
      </trkpt>
      <trkpt lat="17.018745090" lon="-96.390786400">
        <ele>2109.600</ele>
        <time>2020-01-21T16:03:55Z</time>
      </trkpt>
      <trkpt lat="17.018741380" lon="-96.390744160">
        <ele>2110.100</ele>
        <time>2020-01-21T16:03:56Z</time>
      </trkpt>
      <trkpt lat="17.018739420" lon="-96.390701280">
        <ele>2110.300</ele>
        <time>2020-01-21T16:03:57Z</time>
      </trkpt>
      <trkpt lat="17.018741050" lon="-96.390658350">
        <ele>2110.300</ele>
        <time>2020-01-21T16:03:58Z</time>
      </trkpt>
      <trkpt lat="17.018741590" lon="-96.390616920">
        <ele>2110.500</ele>
        <time>2020-01-21T16:03:59Z</time>
      </trkpt>
      <trkpt lat="17.018736610" lon="-96.390575520">
        <ele>2111.100</ele>
        <time>2020-01-21T16:04:00Z</time>
      </trkpt>
      <trkpt lat="17.018729340" lon="-96.390532160">
        <ele>2112.000</ele>
        <time>2020-01-21T16:04:01Z</time>
      </trkpt>
      <trkpt lat="17.018715690" lon="-96.390487580">
        <ele>2112.500</ele>
        <time>2020-01-21T16:04:02Z</time>
      </trkpt>
      <trkpt lat="17.018711380" lon="-96.390442640">
        <ele>2112.900</ele>
        <time>2020-01-21T16:04:03Z</time>
      </trkpt>
      <trkpt lat="17.018699950" lon="-96.390396010">
        <ele>2113.000</ele>
        <time>2020-01-21T16:04:04Z</time>
      </trkpt>
      <trkpt lat="17.018699680" lon="-96.390348620">
        <ele>2113.800</ele>
        <time>2020-01-21T16:04:05Z</time>
      </trkpt>
      <trkpt lat="17.018693910" lon="-96.390305120">
        <ele>2114.300</ele>
        <time>2020-01-21T16:04:06Z</time>
      </trkpt>
      <trkpt lat="17.018682590" lon="-96.390262660">
        <ele>2114.700</ele>
        <time>2020-01-21T16:04:07Z</time>
      </trkpt>
      <trkpt lat="17.018667800" lon="-96.390222040">
        <ele>2115.000</ele>
        <time>2020-01-21T16:04:08Z</time>
      </trkpt>
      <trkpt lat="17.018652650" lon="-96.390182970">
        <ele>2115.300</ele>
        <time>2020-01-21T16:04:09Z</time>
      </trkpt>
      <trkpt lat="17.018635920" lon="-96.390147840">
        <ele>2115.800</ele>
        <time>2020-01-21T16:04:10Z</time>
      </trkpt>
      <trkpt lat="17.018615320" lon="-96.390108300">
        <ele>2115.600</ele>
        <time>2020-01-21T16:04:11Z</time>
      </trkpt>
      <trkpt lat="17.018597370" lon="-96.390071110">
        <ele>2116.300</ele>
        <time>2020-01-21T16:04:12Z</time>
      </trkpt>
      <trkpt lat="17.018577270" lon="-96.389997610">
        <ele>2117.900</ele>
        <time>2020-01-21T16:04:14Z</time>
      </trkpt>
      <trkpt lat="17.018571150" lon="-96.389955780">
        <ele>2117.900</ele>
        <time>2020-01-21T16:04:15Z</time>
      </trkpt>
      <trkpt lat="17.018618120" lon="-96.389902340">
        <ele>2118.400</ele>
        <time>2020-01-21T16:04:16Z</time>
      </trkpt>
      <trkpt lat="17.018633440" lon="-96.389854250">
        <ele>2119.100</ele>
        <time>2020-01-21T16:04:17Z</time>
      </trkpt>
      <trkpt lat="17.018649010" lon="-96.389806110">
        <ele>2119.600</ele>
        <time>2020-01-21T16:04:18Z</time>
      </trkpt>
      <trkpt lat="17.018657380" lon="-96.389757350">
        <ele>2119.700</ele>
        <time>2020-01-21T16:04:19Z</time>
      </trkpt>
      <trkpt lat="17.018664510" lon="-96.389710080">
        <ele>2120.400</ele>
        <time>2020-01-21T16:04:20Z</time>
      </trkpt>
      <trkpt lat="17.018681520" lon="-96.389661160">
        <ele>2120.800</ele>
        <time>2020-01-21T16:04:21Z</time>
      </trkpt>
      <trkpt lat="17.018686780" lon="-96.389601360">
        <ele>2122.500</ele>
        <time>2020-01-21T16:04:22Z</time>
      </trkpt>
      <trkpt lat="17.018701640" lon="-96.389558740">
        <ele>2122.200</ele>
        <time>2020-01-21T16:04:23Z</time>
      </trkpt>
      <trkpt lat="17.018718100" lon="-96.389513770">
        <ele>2122.900</ele>
        <time>2020-01-21T16:04:24Z</time>
      </trkpt>
      <trkpt lat="17.018734150" lon="-96.389470280">
        <ele>2124.100</ele>
        <time>2020-01-21T16:04:25Z</time>
      </trkpt>
      <trkpt lat="17.018757490" lon="-96.389427910">
        <ele>2124.600</ele>
        <time>2020-01-21T16:04:26Z</time>
      </trkpt>
      <trkpt lat="17.018776430" lon="-96.389387410">
        <ele>2125.000</ele>
        <time>2020-01-21T16:04:27Z</time>
      </trkpt>
      <trkpt lat="17.018785310" lon="-96.389347240">
        <ele>2124.600</ele>
        <time>2020-01-21T16:04:28Z</time>
      </trkpt>
      <trkpt lat="17.018793280" lon="-96.389310140">
        <ele>2125.100</ele>
        <time>2020-01-21T16:04:29Z</time>
      </trkpt>
      <trkpt lat="17.018797450" lon="-96.389232880">
        <ele>2126.900</ele>
        <time>2020-01-21T16:04:31Z</time>
      </trkpt>
      <trkpt lat="17.018791730" lon="-96.389191810">
        <ele>2127.400</ele>
        <time>2020-01-21T16:04:32Z</time>
      </trkpt>
      <trkpt lat="17.018786080" lon="-96.389145520">
        <ele>2128.000</ele>
        <time>2020-01-21T16:04:33Z</time>
      </trkpt>
      <trkpt lat="17.018770310" lon="-96.389098530">
        <ele>2128.500</ele>
        <time>2020-01-21T16:04:34Z</time>
      </trkpt>
      <trkpt lat="17.018760700" lon="-96.389051360">
        <ele>2129.100</ele>
        <time>2020-01-21T16:04:35Z</time>
      </trkpt>
      <trkpt lat="17.018757650" lon="-96.389006620">
        <ele>2130.000</ele>
        <time>2020-01-21T16:04:36Z</time>
      </trkpt>
      <trkpt lat="17.018760680" lon="-96.388961100">
        <ele>2131.100</ele>
        <time>2020-01-21T16:04:37Z</time>
      </trkpt>
      <trkpt lat="17.018763080" lon="-96.388920320">
        <ele>2131.700</ele>
        <time>2020-01-21T16:04:38Z</time>
      </trkpt>
      <trkpt lat="17.018771290" lon="-96.388881740">
        <ele>2132.600</ele>
        <time>2020-01-21T16:04:39Z</time>
      </trkpt>
      <trkpt lat="17.018769260" lon="-96.388811670">
        <ele>2133.100</ele>
        <time>2020-01-21T16:04:41Z</time>
      </trkpt>
      <trkpt lat="17.018777940" lon="-96.388743800">
        <ele>2125.700</ele>
        <time>2020-01-21T16:04:43Z</time>
      </trkpt>
      <trkpt lat="17.018797630" lon="-96.388677750">
        <ele>2131.400</ele>
        <time>2020-01-21T16:04:45Z</time>
      </trkpt>
      <trkpt lat="17.018804030" lon="-96.388609650">
        <ele>2136.100</ele>
        <time>2020-01-21T16:04:47Z</time>
      </trkpt>
      <trkpt lat="17.018794260" lon="-96.388546010">
        <ele>2138.200</ele>
        <time>2020-01-21T16:04:49Z</time>
      </trkpt>
      <trkpt lat="17.018774140" lon="-96.388482590">
        <ele>2138.400</ele>
        <time>2020-01-21T16:04:51Z</time>
      </trkpt>
      <trkpt lat="17.018763880" lon="-96.388446290">
        <ele>2139.700</ele>
        <time>2020-01-21T16:04:52Z</time>
      </trkpt>
      <trkpt lat="17.018751960" lon="-96.388371850">
        <ele>2140.900</ele>
        <time>2020-01-21T16:04:54Z</time>
      </trkpt>
      <trkpt lat="17.018736400" lon="-96.388301870">
        <ele>2142.300</ele>
        <time>2020-01-21T16:04:56Z</time>
      </trkpt>
      <trkpt lat="17.018727300" lon="-96.388265450">
        <ele>2143.100</ele>
        <time>2020-01-21T16:04:57Z</time>
      </trkpt>
      <trkpt lat="17.018708480" lon="-96.388197100">
        <ele>2144.000</ele>
        <time>2020-01-21T16:04:59Z</time>
      </trkpt>
      <trkpt lat="17.018698380" lon="-96.388138080">
        <ele>2145.000</ele>
        <time>2020-01-21T16:05:01Z</time>
      </trkpt>
      <trkpt lat="17.018707200" lon="-96.388080580">
        <ele>2146.900</ele>
        <time>2020-01-21T16:05:03Z</time>
      </trkpt>
      <trkpt lat="17.018742810" lon="-96.388027190">
        <ele>2147.900</ele>
        <time>2020-01-21T16:05:05Z</time>
      </trkpt>
      <trkpt lat="17.018787080" lon="-96.387978970">
        <ele>2148.900</ele>
        <time>2020-01-21T16:05:07Z</time>
      </trkpt>
      <trkpt lat="17.018826870" lon="-96.387934060">
        <ele>2149.800</ele>
        <time>2020-01-21T16:05:09Z</time>
      </trkpt>
      <trkpt lat="17.018867170" lon="-96.387891630">
        <ele>2150.500</ele>
        <time>2020-01-21T16:05:11Z</time>
      </trkpt>
      <trkpt lat="17.018910630" lon="-96.387847610">
        <ele>2149.900</ele>
        <time>2020-01-21T16:05:13Z</time>
      </trkpt>
      <trkpt lat="17.018967720" lon="-96.387812420">
        <ele>2149.200</ele>
        <time>2020-01-21T16:05:15Z</time>
      </trkpt>
      <trkpt lat="17.019023780" lon="-96.387777920">
        <ele>2151.600</ele>
        <time>2020-01-21T16:05:17Z</time>
      </trkpt>
      <trkpt lat="17.019071960" lon="-96.387749100">
        <ele>2152.400</ele>
        <time>2020-01-21T16:05:19Z</time>
      </trkpt>
      <trkpt lat="17.019110380" lon="-96.387720140">
        <ele>2152.200</ele>
        <time>2020-01-21T16:05:21Z</time>
      </trkpt>
      <trkpt lat="17.019152620" lon="-96.387683910">
        <ele>2152.300</ele>
        <time>2020-01-21T16:05:23Z</time>
      </trkpt>
      <trkpt lat="17.019189920" lon="-96.387645980">
        <ele>2153.500</ele>
        <time>2020-01-21T16:05:25Z</time>
      </trkpt>
      <trkpt lat="17.019225770" lon="-96.387591760">
        <ele>2154.200</ele>
        <time>2020-01-21T16:05:27Z</time>
      </trkpt>
      <trkpt lat="17.019258390" lon="-96.387525300">
        <ele>2155.400</ele>
        <time>2020-01-21T16:05:29Z</time>
      </trkpt>
      <trkpt lat="17.019271570" lon="-96.387490210">
        <ele>2156.700</ele>
        <time>2020-01-21T16:05:30Z</time>
      </trkpt>
      <trkpt lat="17.019287680" lon="-96.387419040">
        <ele>2157.000</ele>
        <time>2020-01-21T16:05:32Z</time>
      </trkpt>
      <trkpt lat="17.019298530" lon="-96.387381710">
        <ele>2156.900</ele>
        <time>2020-01-21T16:05:33Z</time>
      </trkpt>
      <trkpt lat="17.019305230" lon="-96.387343250">
        <ele>2157.100</ele>
        <time>2020-01-21T16:05:34Z</time>
      </trkpt>
      <trkpt lat="17.019310200" lon="-96.387301260">
        <ele>2158.700</ele>
        <time>2020-01-21T16:05:35Z</time>
      </trkpt>
      <trkpt lat="17.019316490" lon="-96.387260550">
        <ele>2159.400</ele>
        <time>2020-01-21T16:05:36Z</time>
      </trkpt>
      <trkpt lat="17.019324650" lon="-96.387222600">
        <ele>2159.600</ele>
        <time>2020-01-21T16:05:37Z</time>
      </trkpt>
      <trkpt lat="17.019336200" lon="-96.387185590">
        <ele>2159.900</ele>
        <time>2020-01-21T16:05:38Z</time>
      </trkpt>
      <trkpt lat="17.019350770" lon="-96.387149130">
        <ele>2160.600</ele>
        <time>2020-01-21T16:05:39Z</time>
      </trkpt>
      <trkpt lat="17.019365930" lon="-96.387112380">
        <ele>2161.400</ele>
        <time>2020-01-21T16:05:40Z</time>
      </trkpt>
      <trkpt lat="17.019379600" lon="-96.387073860">
        <ele>2162.100</ele>
        <time>2020-01-21T16:05:41Z</time>
      </trkpt>
      <trkpt lat="17.019393100" lon="-96.387034120">
        <ele>2163.600</ele>
        <time>2020-01-21T16:05:42Z</time>
      </trkpt>
      <trkpt lat="17.019403590" lon="-96.386994650">
        <ele>2164.200</ele>
        <time>2020-01-21T16:05:43Z</time>
      </trkpt>
      <trkpt lat="17.019409790" lon="-96.386955110">
        <ele>2165.300</ele>
        <time>2020-01-21T16:05:44Z</time>
      </trkpt>
      <trkpt lat="17.019413180" lon="-96.386913930">
        <ele>2166.200</ele>
        <time>2020-01-21T16:05:45Z</time>
      </trkpt>
      <trkpt lat="17.019414180" lon="-96.386871200">
        <ele>2166.600</ele>
        <time>2020-01-21T16:05:46Z</time>
      </trkpt>
      <trkpt lat="17.019414260" lon="-96.386829570">
        <ele>2167.000</ele>
        <time>2020-01-21T16:05:47Z</time>
      </trkpt>
      <trkpt lat="17.019416930" lon="-96.386758150">
        <ele>2166.500</ele>
        <time>2020-01-21T16:05:49Z</time>
      </trkpt>
      <trkpt lat="17.019427310" lon="-96.386696630">
        <ele>2169.000</ele>
        <time>2020-01-21T16:05:51Z</time>
      </trkpt>
      <trkpt lat="17.019447980" lon="-96.386640480">
        <ele>2170.000</ele>
        <time>2020-01-21T16:05:53Z</time>
      </trkpt>
      <trkpt lat="17.019482100" lon="-96.386591230">
        <ele>2170.900</ele>
        <time>2020-01-21T16:05:55Z</time>
      </trkpt>
      <trkpt lat="17.019534780" lon="-96.386548630">
        <ele>2171.800</ele>
        <time>2020-01-21T16:05:57Z</time>
      </trkpt>
      <trkpt lat="17.019593870" lon="-96.386512900">
        <ele>2172.000</ele>
        <time>2020-01-21T16:05:59Z</time>
      </trkpt>
      <trkpt lat="17.019651910" lon="-96.386471410">
        <ele>2172.600</ele>
        <time>2020-01-21T16:06:01Z</time>
      </trkpt>
      <trkpt lat="17.019711830" lon="-96.386441100">
        <ele>2172.900</ele>
        <time>2020-01-21T16:06:03Z</time>
      </trkpt>
      <trkpt lat="17.019757520" lon="-96.386395610">
        <ele>2174.100</ele>
        <time>2020-01-21T16:06:05Z</time>
      </trkpt>
      <trkpt lat="17.019774670" lon="-96.386361090">
        <ele>2175.100</ele>
        <time>2020-01-21T16:06:06Z</time>
      </trkpt>
      <trkpt lat="17.019788840" lon="-96.386322950">
        <ele>2175.400</ele>
        <time>2020-01-21T16:06:07Z</time>
      </trkpt>
      <trkpt lat="17.019803210" lon="-96.386279740">
        <ele>2176.300</ele>
        <time>2020-01-21T16:06:08Z</time>
      </trkpt>
      <trkpt lat="17.019815960" lon="-96.386233380">
        <ele>2176.000</ele>
        <time>2020-01-21T16:06:09Z</time>
      </trkpt>
      <trkpt lat="17.019827260" lon="-96.386186360">
        <ele>2176.000</ele>
        <time>2020-01-21T16:06:10Z</time>
      </trkpt>
      <trkpt lat="17.019839760" lon="-96.386141940">
        <ele>2176.600</ele>
        <time>2020-01-21T16:06:11Z</time>
      </trkpt>
      <trkpt lat="17.019849500" lon="-96.386103100">
        <ele>2176.700</ele>
        <time>2020-01-21T16:06:12Z</time>
      </trkpt>
      <trkpt lat="17.019858970" lon="-96.386065900">
        <ele>2176.400</ele>
        <time>2020-01-21T16:06:13Z</time>
      </trkpt>
      <trkpt lat="17.019871740" lon="-96.386030190">
        <ele>2176.600</ele>
        <time>2020-01-21T16:06:14Z</time>
      </trkpt>
      <trkpt lat="17.019900580" lon="-96.385983900">
        <ele>2176.900</ele>
        <time>2020-01-21T16:06:16Z</time>
      </trkpt>
      <trkpt lat="17.019967990" lon="-96.385974680">
        <ele>2177.800</ele>
        <time>2020-01-21T16:06:18Z</time>
      </trkpt>
      <trkpt lat="17.020012430" lon="-96.385993940">
        <ele>2177.900</ele>
        <time>2020-01-21T16:06:19Z</time>
      </trkpt>
      <trkpt lat="17.020050600" lon="-96.386019080">
        <ele>2178.700</ele>
        <time>2020-01-21T16:06:20Z</time>
      </trkpt>
      <trkpt lat="17.020084780" lon="-96.386047280">
        <ele>2179.500</ele>
        <time>2020-01-21T16:06:21Z</time>
      </trkpt>
      <trkpt lat="17.020115700" lon="-96.386074120">
        <ele>2180.500</ele>
        <time>2020-01-21T16:06:22Z</time>
      </trkpt>
      <trkpt lat="17.020145080" lon="-96.386099100">
        <ele>2180.800</ele>
        <time>2020-01-21T16:06:23Z</time>
      </trkpt>
      <trkpt lat="17.020176010" lon="-96.386121150">
        <ele>2181.700</ele>
        <time>2020-01-21T16:06:24Z</time>
      </trkpt>
      <trkpt lat="17.020209190" lon="-96.386139400">
        <ele>2181.700</ele>
        <time>2020-01-21T16:06:25Z</time>
      </trkpt>
      <trkpt lat="17.020244780" lon="-96.386153370">
        <ele>2182.200</ele>
        <time>2020-01-21T16:06:26Z</time>
      </trkpt>
      <trkpt lat="17.020281730" lon="-96.386161680">
        <ele>2183.400</ele>
        <time>2020-01-21T16:06:27Z</time>
      </trkpt>
      <trkpt lat="17.020325520" lon="-96.386166230">
        <ele>2183.400</ele>
        <time>2020-01-21T16:06:28Z</time>
      </trkpt>
      <trkpt lat="17.020372360" lon="-96.386162930">
        <ele>2183.100</ele>
        <time>2020-01-21T16:06:29Z</time>
      </trkpt>
      <trkpt lat="17.020433810" lon="-96.386125350">
        <ele>2183.100</ele>
        <time>2020-01-21T16:06:30Z</time>
      </trkpt>
      <trkpt lat="17.020479070" lon="-96.386116110">
        <ele>2183.700</ele>
        <time>2020-01-21T16:06:31Z</time>
      </trkpt>
      <trkpt lat="17.020525570" lon="-96.386103190">
        <ele>2184.000</ele>
        <time>2020-01-21T16:06:32Z</time>
      </trkpt>
      <trkpt lat="17.020574610" lon="-96.386091180">
        <ele>2184.600</ele>
        <time>2020-01-21T16:06:33Z</time>
      </trkpt>
      <trkpt lat="17.020617640" lon="-96.386078040">
        <ele>2184.700</ele>
        <time>2020-01-21T16:06:34Z</time>
      </trkpt>
      <trkpt lat="17.020660080" lon="-96.386061900">
        <ele>2185.000</ele>
        <time>2020-01-21T16:06:35Z</time>
      </trkpt>
      <trkpt lat="17.020703680" lon="-96.386046650">
        <ele>2185.500</ele>
        <time>2020-01-21T16:06:36Z</time>
      </trkpt>
      <trkpt lat="17.020741230" lon="-96.386028920">
        <ele>2180.300</ele>
        <time>2020-01-21T16:06:37Z</time>
      </trkpt>
      <trkpt lat="17.020798170" lon="-96.385996350">
        <ele>2184.700</ele>
        <time>2020-01-21T16:06:39Z</time>
      </trkpt>
      <trkpt lat="17.020844750" lon="-96.385957890">
        <ele>2186.500</ele>
        <time>2020-01-21T16:06:41Z</time>
      </trkpt>
      <trkpt lat="17.020882360" lon="-96.385913410">
        <ele>2188.000</ele>
        <time>2020-01-21T16:06:43Z</time>
      </trkpt>
      <trkpt lat="17.020910330" lon="-96.385863810">
        <ele>2189.100</ele>
        <time>2020-01-21T16:06:45Z</time>
      </trkpt>
      <trkpt lat="17.020931830" lon="-96.385804790">
        <ele>2189.900</ele>
        <time>2020-01-21T16:06:47Z</time>
      </trkpt>
      <trkpt lat="17.020947430" lon="-96.385731900">
        <ele>2189.500</ele>
        <time>2020-01-21T16:06:49Z</time>
      </trkpt>
      <trkpt lat="17.020954430" lon="-96.385692490">
        <ele>2190.200</ele>
        <time>2020-01-21T16:06:50Z</time>
      </trkpt>
      <trkpt lat="17.020962450" lon="-96.385651170">
        <ele>2190.700</ele>
        <time>2020-01-21T16:06:51Z</time>
      </trkpt>
      <trkpt lat="17.020971060" lon="-96.385608880">
        <ele>2191.500</ele>
        <time>2020-01-21T16:06:52Z</time>
      </trkpt>
      <trkpt lat="17.020980770" lon="-96.385566610">
        <ele>2192.300</ele>
        <time>2020-01-21T16:06:53Z</time>
      </trkpt>
      <trkpt lat="17.020990610" lon="-96.385524780">
        <ele>2192.800</ele>
        <time>2020-01-21T16:06:54Z</time>
      </trkpt>
      <trkpt lat="17.021000790" lon="-96.385482500">
        <ele>2193.500</ele>
        <time>2020-01-21T16:06:55Z</time>
      </trkpt>
      <trkpt lat="17.021010570" lon="-96.385442350">
        <ele>2193.600</ele>
        <time>2020-01-21T16:06:56Z</time>
      </trkpt>
      <trkpt lat="17.021021250" lon="-96.385404300">
        <ele>2194.100</ele>
        <time>2020-01-21T16:06:57Z</time>
      </trkpt>
      <trkpt lat="17.021041460" lon="-96.385334130">
        <ele>2194.300</ele>
        <time>2020-01-21T16:06:59Z</time>
      </trkpt>
      <trkpt lat="17.021054350" lon="-96.385298350">
        <ele>2194.600</ele>
        <time>2020-01-21T16:07:00Z</time>
      </trkpt>
      <trkpt lat="17.021080030" lon="-96.385229940">
        <ele>2195.100</ele>
        <time>2020-01-21T16:07:02Z</time>
      </trkpt>
      <trkpt lat="17.021105740" lon="-96.385164040">
        <ele>2196.100</ele>
        <time>2020-01-21T16:07:04Z</time>
      </trkpt>
      <trkpt lat="17.021138040" lon="-96.385104900">
        <ele>2197.300</ele>
        <time>2020-01-21T16:07:06Z</time>
      </trkpt>
      <trkpt lat="17.021172890" lon="-96.385062410">
        <ele>2198.200</ele>
        <time>2020-01-21T16:07:08Z</time>
      </trkpt>
      <trkpt lat="17.021212250" lon="-96.385027430">
        <ele>2198.800</ele>
        <time>2020-01-21T16:07:10Z</time>
      </trkpt>
      <trkpt lat="17.021255010" lon="-96.384983520">
        <ele>2199.900</ele>
        <time>2020-01-21T16:07:12Z</time>
      </trkpt>
      <trkpt lat="17.021290890" lon="-96.384933390">
        <ele>2201.300</ele>
        <time>2020-01-21T16:07:14Z</time>
      </trkpt>
      <trkpt lat="17.021318550" lon="-96.384880840">
        <ele>2202.300</ele>
        <time>2020-01-21T16:07:16Z</time>
      </trkpt>
      <trkpt lat="17.021342280" lon="-96.384821000">
        <ele>2203.400</ele>
        <time>2020-01-21T16:07:18Z</time>
      </trkpt>
      <trkpt lat="17.021363190" lon="-96.384758870">
        <ele>2204.100</ele>
        <time>2020-01-21T16:07:20Z</time>
      </trkpt>
      <trkpt lat="17.021380570" lon="-96.384699120">
        <ele>2204.900</ele>
        <time>2020-01-21T16:07:22Z</time>
      </trkpt>
      <trkpt lat="17.021396300" lon="-96.384638260">
        <ele>2205.700</ele>
        <time>2020-01-21T16:07:24Z</time>
      </trkpt>
      <trkpt lat="17.021413740" lon="-96.384571380">
        <ele>2206.700</ele>
        <time>2020-01-21T16:07:26Z</time>
      </trkpt>
      <trkpt lat="17.021434000" lon="-96.384499260">
        <ele>2207.800</ele>
        <time>2020-01-21T16:07:28Z</time>
      </trkpt>
      <trkpt lat="17.021456750" lon="-96.384427670">
        <ele>2208.900</ele>
        <time>2020-01-21T16:07:30Z</time>
      </trkpt>
      <trkpt lat="17.021482520" lon="-96.384359820">
        <ele>2208.900</ele>
        <time>2020-01-21T16:07:32Z</time>
      </trkpt>
      <trkpt lat="17.021510130" lon="-96.384297220">
        <ele>2209.800</ele>
        <time>2020-01-21T16:07:34Z</time>
      </trkpt>
      <trkpt lat="17.021544740" lon="-96.384235890">
        <ele>2210.900</ele>
        <time>2020-01-21T16:07:36Z</time>
      </trkpt>
      <trkpt lat="17.021586110" lon="-96.384175430">
        <ele>2212.100</ele>
        <time>2020-01-21T16:07:38Z</time>
      </trkpt>
      <trkpt lat="17.021630810" lon="-96.384117810">
        <ele>2213.600</ele>
        <time>2020-01-21T16:07:40Z</time>
      </trkpt>
      <trkpt lat="17.021654090" lon="-96.384087420">
        <ele>2214.100</ele>
        <time>2020-01-21T16:07:41Z</time>
      </trkpt>
      <trkpt lat="17.021678440" lon="-96.384056420">
        <ele>2214.500</ele>
        <time>2020-01-21T16:07:42Z</time>
      </trkpt>
      <trkpt lat="17.021702920" lon="-96.384027680">
        <ele>2215.200</ele>
        <time>2020-01-21T16:07:43Z</time>
      </trkpt>
      <trkpt lat="17.021751740" lon="-96.383973170">
        <ele>2215.900</ele>
        <time>2020-01-21T16:07:45Z</time>
      </trkpt>
      <trkpt lat="17.021777840" lon="-96.383945460">
        <ele>2216.100</ele>
        <time>2020-01-21T16:07:46Z</time>
      </trkpt>
      <trkpt lat="17.021805960" lon="-96.383917560">
        <ele>2216.600</ele>
        <time>2020-01-21T16:07:47Z</time>
      </trkpt>
      <trkpt lat="17.021835420" lon="-96.383888670">
        <ele>2216.900</ele>
        <time>2020-01-21T16:07:48Z</time>
      </trkpt>
      <trkpt lat="17.021866770" lon="-96.383860000">
        <ele>2217.600</ele>
        <time>2020-01-21T16:07:49Z</time>
      </trkpt>
      <trkpt lat="17.021897840" lon="-96.383831840">
        <ele>2218.100</ele>
        <time>2020-01-21T16:07:50Z</time>
      </trkpt>
      <trkpt lat="17.021928870" lon="-96.383802930">
        <ele>2218.600</ele>
        <time>2020-01-21T16:07:51Z</time>
      </trkpt>
      <trkpt lat="17.021960910" lon="-96.383774570">
        <ele>2219.000</ele>
        <time>2020-01-21T16:07:52Z</time>
      </trkpt>
      <trkpt lat="17.021992350" lon="-96.383747320">
        <ele>2219.700</ele>
        <time>2020-01-21T16:07:53Z</time>
      </trkpt>
      <trkpt lat="17.022023150" lon="-96.383720090">
        <ele>2220.300</ele>
        <time>2020-01-21T16:07:54Z</time>
      </trkpt>
      <trkpt lat="17.022053800" lon="-96.383691870">
        <ele>2220.800</ele>
        <time>2020-01-21T16:07:55Z</time>
      </trkpt>
      <trkpt lat="17.022082890" lon="-96.383663830">
        <ele>2221.400</ele>
        <time>2020-01-21T16:07:56Z</time>
      </trkpt>
      <trkpt lat="17.022110450" lon="-96.383634850">
        <ele>2222.100</ele>
        <time>2020-01-21T16:07:57Z</time>
      </trkpt>
      <trkpt lat="17.022138120" lon="-96.383604370">
        <ele>2222.500</ele>
        <time>2020-01-21T16:07:58Z</time>
      </trkpt>
      <trkpt lat="17.022165010" lon="-96.383573290">
        <ele>2222.800</ele>
        <time>2020-01-21T16:07:59Z</time>
      </trkpt>
      <trkpt lat="17.022190520" lon="-96.383540860">
        <ele>2222.900</ele>
        <time>2020-01-21T16:08:00Z</time>
      </trkpt>
      <trkpt lat="17.022214680" lon="-96.383508030">
        <ele>2223.500</ele>
        <time>2020-01-21T16:08:01Z</time>
      </trkpt>
      <trkpt lat="17.022238440" lon="-96.383475540">
        <ele>2223.900</ele>
        <time>2020-01-21T16:08:02Z</time>
      </trkpt>
      <trkpt lat="17.022263750" lon="-96.383445930">
        <ele>2224.000</ele>
        <time>2020-01-21T16:08:03Z</time>
      </trkpt>
      <trkpt lat="17.022278120" lon="-96.383409170">
        <ele>2224.100</ele>
        <time>2020-01-21T16:08:04Z</time>
      </trkpt>
      <trkpt lat="17.022296950" lon="-96.383375740">
        <ele>2223.800</ele>
        <time>2020-01-21T16:08:05Z</time>
      </trkpt>
      <trkpt lat="17.022306710" lon="-96.383336050">
        <ele>2223.800</ele>
        <time>2020-01-21T16:08:06Z</time>
      </trkpt>
      <trkpt lat="17.022311050" lon="-96.383294500">
        <ele>2223.800</ele>
        <time>2020-01-21T16:08:07Z</time>
      </trkpt>
      <trkpt lat="17.022304590" lon="-96.383253030">
        <ele>2224.100</ele>
        <time>2020-01-21T16:08:08Z</time>
      </trkpt>
      <trkpt lat="17.022293320" lon="-96.383174730">
        <ele>2224.000</ele>
        <time>2020-01-21T16:08:10Z</time>
      </trkpt>
      <trkpt lat="17.022291580" lon="-96.383129080">
        <ele>2224.600</ele>
        <time>2020-01-21T16:08:11Z</time>
      </trkpt>
      <trkpt lat="17.022282210" lon="-96.383088490">
        <ele>2224.600</ele>
        <time>2020-01-21T16:08:12Z</time>
      </trkpt>
      <trkpt lat="17.022269570" lon="-96.383046560">
        <ele>2224.600</ele>
        <time>2020-01-21T16:08:13Z</time>
      </trkpt>
      <trkpt lat="17.022256470" lon="-96.383003290">
        <ele>2224.800</ele>
        <time>2020-01-21T16:08:14Z</time>
      </trkpt>
      <trkpt lat="17.022245690" lon="-96.382961550">
        <ele>2224.200</ele>
        <time>2020-01-21T16:08:15Z</time>
      </trkpt>
      <trkpt lat="17.022237420" lon="-96.382917900">
        <ele>2224.600</ele>
        <time>2020-01-21T16:08:16Z</time>
      </trkpt>
      <trkpt lat="17.022229970" lon="-96.382874240">
        <ele>2224.200</ele>
        <time>2020-01-21T16:08:17Z</time>
      </trkpt>
      <trkpt lat="17.022225500" lon="-96.382831050">
        <ele>2206.600</ele>
        <time>2020-01-21T16:08:18Z</time>
      </trkpt>
      <trkpt lat="17.022220320" lon="-96.382787390">
        <ele>2213.000</ele>
        <time>2020-01-21T16:08:19Z</time>
      </trkpt>
      <trkpt lat="17.022209610" lon="-96.382745160">
        <ele>2216.200</ele>
        <time>2020-01-21T16:08:20Z</time>
      </trkpt>
      <trkpt lat="17.022194400" lon="-96.382703830">
        <ele>2217.800</ele>
        <time>2020-01-21T16:08:21Z</time>
      </trkpt>
      <trkpt lat="17.022168020" lon="-96.382657330">
        <ele>2219.100</ele>
        <time>2020-01-21T16:08:22Z</time>
      </trkpt>
      <trkpt lat="17.022111020" lon="-96.382600050">
        <ele>2220.200</ele>
        <time>2020-01-21T16:08:24Z</time>
      </trkpt>
      <trkpt lat="17.022080610" lon="-96.382574100">
        <ele>2220.800</ele>
        <time>2020-01-21T16:08:25Z</time>
      </trkpt>
      <trkpt lat="17.022053300" lon="-96.382547660">
        <ele>2221.500</ele>
        <time>2020-01-21T16:08:26Z</time>
      </trkpt>
      <trkpt lat="17.022020710" lon="-96.382519260">
        <ele>2222.100</ele>
        <time>2020-01-21T16:08:27Z</time>
      </trkpt>
      <trkpt lat="17.021987660" lon="-96.382490520">
        <ele>2223.100</ele>
        <time>2020-01-21T16:08:28Z</time>
      </trkpt>
      <trkpt lat="17.021960570" lon="-96.382462720">
        <ele>2223.700</ele>
        <time>2020-01-21T16:08:29Z</time>
      </trkpt>
      <trkpt lat="17.021934350" lon="-96.382430580">
        <ele>2222.800</ele>
        <time>2020-01-21T16:08:30Z</time>
      </trkpt>
      <trkpt lat="17.021910680" lon="-96.382396700">
        <ele>2222.400</ele>
        <time>2020-01-21T16:08:31Z</time>
      </trkpt>
      <trkpt lat="17.021889960" lon="-96.382360420">
        <ele>2223.900</ele>
        <time>2020-01-21T16:08:32Z</time>
      </trkpt>
      <trkpt lat="17.021869240" lon="-96.382315670">
        <ele>2221.600</ele>
        <time>2020-01-21T16:08:33Z</time>
      </trkpt>
      <trkpt lat="17.021851820" lon="-96.382275890">
        <ele>2222.500</ele>
        <time>2020-01-21T16:08:34Z</time>
      </trkpt>
      <trkpt lat="17.021839010" lon="-96.382239020">
        <ele>2222.700</ele>
        <time>2020-01-21T16:08:35Z</time>
      </trkpt>
      <trkpt lat="17.021830100" lon="-96.382201340">
        <ele>2222.000</ele>
        <time>2020-01-21T16:08:36Z</time>
      </trkpt>
      <trkpt lat="17.021827650" lon="-96.382163420">
        <ele>2221.100</ele>
        <time>2020-01-21T16:08:37Z</time>
      </trkpt>
      <trkpt lat="17.021840610" lon="-96.382091640">
        <ele>2221.600</ele>
        <time>2020-01-21T16:08:39Z</time>
      </trkpt>
      <trkpt lat="17.021860350" lon="-96.382056440">
        <ele>2220.900</ele>
        <time>2020-01-21T16:08:40Z</time>
      </trkpt>
      <trkpt lat="17.021886500" lon="-96.382025180">
        <ele>2220.900</ele>
        <time>2020-01-21T16:08:41Z</time>
      </trkpt>
      <trkpt lat="17.021931950" lon="-96.382002240">
        <ele>2220.500</ele>
        <time>2020-01-21T16:08:42Z</time>
      </trkpt>
      <trkpt lat="17.021972890" lon="-96.381990640">
        <ele>2220.900</ele>
        <time>2020-01-21T16:08:43Z</time>
      </trkpt>
      <trkpt lat="17.022013390" lon="-96.381985080">
        <ele>2221.400</ele>
        <time>2020-01-21T16:08:44Z</time>
      </trkpt>
      <trkpt lat="17.022055830" lon="-96.381986140">
        <ele>2221.800</ele>
        <time>2020-01-21T16:08:45Z</time>
      </trkpt>
      <trkpt lat="17.022100190" lon="-96.381982170">
        <ele>2222.500</ele>
        <time>2020-01-21T16:08:46Z</time>
      </trkpt>
      <trkpt lat="17.022179280" lon="-96.381996410">
        <ele>2223.100</ele>
        <time>2020-01-21T16:08:48Z</time>
      </trkpt>
      <trkpt lat="17.022225090" lon="-96.382007460">
        <ele>2223.900</ele>
        <time>2020-01-21T16:08:49Z</time>
      </trkpt>
      <trkpt lat="17.022275570" lon="-96.382003520">
        <ele>2223.400</ele>
        <time>2020-01-21T16:08:50Z</time>
      </trkpt>
      <trkpt lat="17.022317280" lon="-96.382024940">
        <ele>2223.500</ele>
        <time>2020-01-21T16:08:51Z</time>
      </trkpt>
      <trkpt lat="17.022356520" lon="-96.382030900">
        <ele>2224.300</ele>
        <time>2020-01-21T16:08:52Z</time>
      </trkpt>
      <trkpt lat="17.022422260" lon="-96.382033300">
        <ele>2227.100</ele>
        <time>2020-01-21T16:08:54Z</time>
      </trkpt>
      <trkpt lat="17.022484220" lon="-96.382047010">
        <ele>2226.400</ele>
        <time>2020-01-21T16:08:56Z</time>
      </trkpt>
      <trkpt lat="17.022554100" lon="-96.382059400">
        <ele>2227.900</ele>
        <time>2020-01-21T16:08:58Z</time>
      </trkpt>
      <trkpt lat="17.022592900" lon="-96.382066130">
        <ele>2228.400</ele>
        <time>2020-01-21T16:08:59Z</time>
      </trkpt>
      <trkpt lat="17.022630670" lon="-96.382072700">
        <ele>2229.200</ele>
        <time>2020-01-21T16:09:00Z</time>
      </trkpt>
      <trkpt lat="17.022671110" lon="-96.382075500">
        <ele>2229.300</ele>
        <time>2020-01-21T16:09:01Z</time>
      </trkpt>
      <trkpt lat="17.022708300" lon="-96.382076910">
        <ele>2229.100</ele>
        <time>2020-01-21T16:09:02Z</time>
      </trkpt>
      <trkpt lat="17.022774760" lon="-96.382060270">
        <ele>2229.200</ele>
        <time>2020-01-21T16:09:04Z</time>
      </trkpt>
      <trkpt lat="17.022830750" lon="-96.382012510">
        <ele>2231.200</ele>
        <time>2020-01-21T16:09:06Z</time>
      </trkpt>
      <trkpt lat="17.022849780" lon="-96.381975680">
        <ele>2232.500</ele>
        <time>2020-01-21T16:09:07Z</time>
      </trkpt>
      <trkpt lat="17.022863340" lon="-96.381940290">
        <ele>2232.400</ele>
        <time>2020-01-21T16:09:08Z</time>
      </trkpt>
      <trkpt lat="17.022872360" lon="-96.381903290">
        <ele>2231.100</ele>
        <time>2020-01-21T16:09:09Z</time>
      </trkpt>
      <trkpt lat="17.022880090" lon="-96.381862670">
        <ele>2231.700</ele>
        <time>2020-01-21T16:09:10Z</time>
      </trkpt>
      <trkpt lat="17.022886130" lon="-96.381824500">
        <ele>2232.700</ele>
        <time>2020-01-21T16:09:11Z</time>
      </trkpt>
      <trkpt lat="17.022899670" lon="-96.381752100">
        <ele>2233.900</ele>
        <time>2020-01-21T16:09:13Z</time>
      </trkpt>
      <trkpt lat="17.022904230" lon="-96.381713970">
        <ele>2234.900</ele>
        <time>2020-01-21T16:09:14Z</time>
      </trkpt>
      <trkpt lat="17.022913090" lon="-96.381673310">
        <ele>2236.200</ele>
        <time>2020-01-21T16:09:15Z</time>
      </trkpt>
      <trkpt lat="17.022921970" lon="-96.381636840">
        <ele>2236.500</ele>
        <time>2020-01-21T16:09:16Z</time>
      </trkpt>
      <trkpt lat="17.022963980" lon="-96.381586120">
        <ele>2235.300</ele>
        <time>2020-01-21T16:09:18Z</time>
      </trkpt>
      <trkpt lat="17.023010320" lon="-96.381538850">
        <ele>2234.000</ele>
        <time>2020-01-21T16:09:20Z</time>
      </trkpt>
      <trkpt lat="17.023036330" lon="-96.381510480">
        <ele>2235.100</ele>
        <time>2020-01-21T16:09:21Z</time>
      </trkpt>
      <trkpt lat="17.023062470" lon="-96.381483480">
        <ele>2235.200</ele>
        <time>2020-01-21T16:09:22Z</time>
      </trkpt>
      <trkpt lat="17.023096400" lon="-96.381413050">
        <ele>2236.400</ele>
        <time>2020-01-21T16:09:24Z</time>
      </trkpt>
      <trkpt lat="17.023104940" lon="-96.381374880">
        <ele>2237.100</ele>
        <time>2020-01-21T16:09:25Z</time>
      </trkpt>
      <trkpt lat="17.023112850" lon="-96.381337400">
        <ele>2238.400</ele>
        <time>2020-01-21T16:09:26Z</time>
      </trkpt>
      <trkpt lat="17.023117720" lon="-96.381299190">
        <ele>2239.900</ele>
        <time>2020-01-21T16:09:27Z</time>
      </trkpt>
      <trkpt lat="17.023120600" lon="-96.381259560">
        <ele>2241.700</ele>
        <time>2020-01-21T16:09:28Z</time>
      </trkpt>
      <trkpt lat="17.023125190" lon="-96.381219550">
        <ele>2240.400</ele>
        <time>2020-01-21T16:09:29Z</time>
      </trkpt>
      <trkpt lat="17.023133540" lon="-96.381178130">
        <ele>2241.700</ele>
        <time>2020-01-21T16:09:30Z</time>
      </trkpt>
      <trkpt lat="17.023161890" lon="-96.381116090">
        <ele>2241.600</ele>
        <time>2020-01-21T16:09:32Z</time>
      </trkpt>
      <trkpt lat="17.023225660" lon="-96.381072510">
        <ele>2242.300</ele>
        <time>2020-01-21T16:09:34Z</time>
      </trkpt>
      <trkpt lat="17.023269240" lon="-96.381063790">
        <ele>2243.000</ele>
        <time>2020-01-21T16:09:35Z</time>
      </trkpt>
      <trkpt lat="17.023311360" lon="-96.381060230">
        <ele>2243.500</ele>
        <time>2020-01-21T16:09:36Z</time>
      </trkpt>
      <trkpt lat="17.023353360" lon="-96.381061010">
        <ele>2243.300</ele>
        <time>2020-01-21T16:09:37Z</time>
      </trkpt>
      <trkpt lat="17.023393740" lon="-96.381069510">
        <ele>2243.600</ele>
        <time>2020-01-21T16:09:38Z</time>
      </trkpt>
      <trkpt lat="17.023429630" lon="-96.381083710">
        <ele>2242.500</ele>
        <time>2020-01-21T16:09:39Z</time>
      </trkpt>
      <trkpt lat="17.023465150" lon="-96.381100150">
        <ele>2243.400</ele>
        <time>2020-01-21T16:09:40Z</time>
      </trkpt>
      <trkpt lat="17.023498220" lon="-96.381125850">
        <ele>2242.600</ele>
        <time>2020-01-21T16:09:41Z</time>
      </trkpt>
      <trkpt lat="17.023535040" lon="-96.381151200">
        <ele>2243.300</ele>
        <time>2020-01-21T16:09:42Z</time>
      </trkpt>
      <trkpt lat="17.023578910" lon="-96.381188120">
        <ele>2245.200</ele>
        <time>2020-01-21T16:09:43Z</time>
      </trkpt>
      <trkpt lat="17.023617350" lon="-96.381217860">
        <ele>2244.700</ele>
        <time>2020-01-21T16:09:44Z</time>
      </trkpt>
      <trkpt lat="17.023654050" lon="-96.381250700">
        <ele>2246.300</ele>
        <time>2020-01-21T16:09:45Z</time>
      </trkpt>
      <trkpt lat="17.023694170" lon="-96.381285540">
        <ele>2247.100</ele>
        <time>2020-01-21T16:09:46Z</time>
      </trkpt>
      <trkpt lat="17.023724070" lon="-96.381313920">
        <ele>2247.200</ele>
        <time>2020-01-21T16:09:47Z</time>
      </trkpt>
      <trkpt lat="17.023761420" lon="-96.381346370">
        <ele>2247.900</ele>
        <time>2020-01-21T16:09:48Z</time>
      </trkpt>
      <trkpt lat="17.023787820" lon="-96.381374180">
        <ele>2247.700</ele>
        <time>2020-01-21T16:09:49Z</time>
      </trkpt>
      <trkpt lat="17.023816830" lon="-96.381399860">
        <ele>2249.500</ele>
        <time>2020-01-21T16:09:50Z</time>
      </trkpt>
      <trkpt lat="17.023848060" lon="-96.381428000">
        <ele>2248.800</ele>
        <time>2020-01-21T16:09:51Z</time>
      </trkpt>
      <trkpt lat="17.023877980" lon="-96.381456980">
        <ele>2249.300</ele>
        <time>2020-01-21T16:09:52Z</time>
      </trkpt>
      <trkpt lat="17.023908960" lon="-96.381481660">
        <ele>2251.600</ele>
        <time>2020-01-21T16:09:53Z</time>
      </trkpt>
      <trkpt lat="17.023943030" lon="-96.381506960">
        <ele>2252.800</ele>
        <time>2020-01-21T16:09:54Z</time>
      </trkpt>
      <trkpt lat="17.023979850" lon="-96.381528670">
        <ele>2252.500</ele>
        <time>2020-01-21T16:09:55Z</time>
      </trkpt>
      <trkpt lat="17.024026000" lon="-96.381539780">
        <ele>2253.400</ele>
        <time>2020-01-21T16:09:56Z</time>
      </trkpt>
      <trkpt lat="17.024067810" lon="-96.381544650">
        <ele>2253.400</ele>
        <time>2020-01-21T16:09:57Z</time>
      </trkpt>
      <trkpt lat="17.024127540" lon="-96.381511200">
        <ele>2256.400</ele>
        <time>2020-01-21T16:09:59Z</time>
      </trkpt>
      <trkpt lat="17.024161490" lon="-96.381485870">
        <ele>2256.700</ele>
        <time>2020-01-21T16:10:00Z</time>
      </trkpt>
      <trkpt lat="17.024199460" lon="-96.381428480">
        <ele>2258.100</ele>
        <time>2020-01-21T16:10:02Z</time>
      </trkpt>
      <trkpt lat="17.024210080" lon="-96.381387610">
        <ele>2258.600</ele>
        <time>2020-01-21T16:10:03Z</time>
      </trkpt>
      <trkpt lat="17.024202060" lon="-96.381345230">
        <ele>2258.300</ele>
        <time>2020-01-21T16:10:04Z</time>
      </trkpt>
      <trkpt lat="17.024189540" lon="-96.381305530">
        <ele>2258.500</ele>
        <time>2020-01-21T16:10:05Z</time>
      </trkpt>
      <trkpt lat="17.024173810" lon="-96.381270110">
        <ele>2258.800</ele>
        <time>2020-01-21T16:10:06Z</time>
      </trkpt>
      <trkpt lat="17.024144110" lon="-96.381211070">
        <ele>2260.400</ele>
        <time>2020-01-21T16:10:08Z</time>
      </trkpt>
      <trkpt lat="17.024119750" lon="-96.381178360">
        <ele>2260.000</ele>
        <time>2020-01-21T16:10:09Z</time>
      </trkpt>
      <trkpt lat="17.024061660" lon="-96.381155280">
        <ele>2261.400</ele>
        <time>2020-01-21T16:10:10Z</time>
      </trkpt>
      <trkpt lat="17.024021100" lon="-96.381139750">
        <ele>2261.500</ele>
        <time>2020-01-21T16:10:11Z</time>
      </trkpt>
      <trkpt lat="17.023972190" lon="-96.381120680">
        <ele>2262.000</ele>
        <time>2020-01-21T16:10:12Z</time>
      </trkpt>
      <trkpt lat="17.023928500" lon="-96.381094420">
        <ele>2262.200</ele>
        <time>2020-01-21T16:10:13Z</time>
      </trkpt>
      <trkpt lat="17.023877380" lon="-96.381066530">
        <ele>2262.100</ele>
        <time>2020-01-21T16:10:14Z</time>
      </trkpt>
      <trkpt lat="17.023836550" lon="-96.381047890">
        <ele>2261.100</ele>
        <time>2020-01-21T16:10:15Z</time>
      </trkpt>
      <trkpt lat="17.023806590" lon="-96.381019030">
        <ele>2262.000</ele>
        <time>2020-01-21T16:10:16Z</time>
      </trkpt>
      <trkpt lat="17.023785280" lon="-96.380968630">
        <ele>2263.100</ele>
        <time>2020-01-21T16:10:17Z</time>
      </trkpt>
      <trkpt lat="17.023764330" lon="-96.380911040">
        <ele>2264.600</ele>
        <time>2020-01-21T16:10:18Z</time>
      </trkpt>
      <trkpt lat="17.023757850" lon="-96.380850240">
        <ele>2264.800</ele>
        <time>2020-01-21T16:10:19Z</time>
      </trkpt>
      <trkpt lat="17.023756780" lon="-96.380799860">
        <ele>2264.800</ele>
        <time>2020-01-21T16:10:20Z</time>
      </trkpt>
      <trkpt lat="17.023757430" lon="-96.380738810">
        <ele>2264.700</ele>
        <time>2020-01-21T16:10:21Z</time>
      </trkpt>
      <trkpt lat="17.023762150" lon="-96.380689210">
        <ele>2265.900</ele>
        <time>2020-01-21T16:10:22Z</time>
      </trkpt>
      <trkpt lat="17.023758390" lon="-96.380639140">
        <ele>2264.900</ele>
        <time>2020-01-21T16:10:23Z</time>
      </trkpt>
      <trkpt lat="17.023755300" lon="-96.380596990">
        <ele>2266.600</ele>
        <time>2020-01-21T16:10:24Z</time>
      </trkpt>
      <trkpt lat="17.023746250" lon="-96.380546180">
        <ele>2267.100</ele>
        <time>2020-01-21T16:10:25Z</time>
      </trkpt>
      <trkpt lat="17.023746410" lon="-96.380508120">
        <ele>2268.300</ele>
        <time>2020-01-21T16:10:26Z</time>
      </trkpt>
      <trkpt lat="17.023734040" lon="-96.380425250">
        <ele>2270.400</ele>
        <time>2020-01-21T16:10:28Z</time>
      </trkpt>
      <trkpt lat="17.023737250" lon="-96.380353770">
        <ele>2273.000</ele>
        <time>2020-01-21T16:10:30Z</time>
      </trkpt>
      <trkpt lat="17.023764420" lon="-96.380324090">
        <ele>2274.200</ele>
        <time>2020-01-21T16:10:31Z</time>
      </trkpt>
      <trkpt lat="17.023821270" lon="-96.380290020">
        <ele>2275.400</ele>
        <time>2020-01-21T16:10:33Z</time>
      </trkpt>
      <trkpt lat="17.023890240" lon="-96.380298140">
        <ele>2275.700</ele>
        <time>2020-01-21T16:10:35Z</time>
      </trkpt>
      <trkpt lat="17.023937700" lon="-96.380339290">
        <ele>2275.200</ele>
        <time>2020-01-21T16:10:36Z</time>
      </trkpt>
      <trkpt lat="17.023977360" lon="-96.380359110">
        <ele>2275.400</ele>
        <time>2020-01-21T16:10:37Z</time>
      </trkpt>
      <trkpt lat="17.024016130" lon="-96.380420910">
        <ele>2276.700</ele>
        <time>2020-01-21T16:10:39Z</time>
      </trkpt>
      <trkpt lat="17.024027840" lon="-96.380471980">
        <ele>2276.200</ele>
        <time>2020-01-21T16:10:40Z</time>
      </trkpt>
      <trkpt lat="17.024042210" lon="-96.380507970">
        <ele>2276.300</ele>
        <time>2020-01-21T16:10:41Z</time>
      </trkpt>
      <trkpt lat="17.024078180" lon="-96.380558480">
        <ele>2277.200</ele>
        <time>2020-01-21T16:10:43Z</time>
      </trkpt>
      <trkpt lat="17.024121420" lon="-96.380607460">
        <ele>2279.300</ele>
        <time>2020-01-21T16:10:45Z</time>
      </trkpt>
      <trkpt lat="17.024182780" lon="-96.380649070">
        <ele>2282.100</ele>
        <time>2020-01-21T16:10:47Z</time>
      </trkpt>
      <trkpt lat="17.024219570" lon="-96.380671330">
        <ele>2282.600</ele>
        <time>2020-01-21T16:10:48Z</time>
      </trkpt>
      <trkpt lat="17.024254700" lon="-96.380691070">
        <ele>2284.700</ele>
        <time>2020-01-21T16:10:49Z</time>
      </trkpt>
      <trkpt lat="17.024286930" lon="-96.380711110">
        <ele>2287.000</ele>
        <time>2020-01-21T16:10:50Z</time>
      </trkpt>
      <trkpt lat="17.024322980" lon="-96.380726790">
        <ele>2288.700</ele>
        <time>2020-01-21T16:10:51Z</time>
      </trkpt>
      <trkpt lat="17.024362440" lon="-96.380738620">
        <ele>2288.900</ele>
        <time>2020-01-21T16:10:52Z</time>
      </trkpt>
      <trkpt lat="17.024401460" lon="-96.380751210">
        <ele>2289.100</ele>
        <time>2020-01-21T16:10:53Z</time>
      </trkpt>
      <trkpt lat="17.024441720" lon="-96.380762270">
        <ele>2288.600</ele>
        <time>2020-01-21T16:10:54Z</time>
      </trkpt>
      <trkpt lat="17.024480600" lon="-96.380774160">
        <ele>2290.300</ele>
        <time>2020-01-21T16:10:55Z</time>
      </trkpt>
      <trkpt lat="17.024514770" lon="-96.380786490">
        <ele>2291.200</ele>
        <time>2020-01-21T16:10:56Z</time>
      </trkpt>
      <trkpt lat="17.024577600" lon="-96.380817650">
        <ele>2291.700</ele>
        <time>2020-01-21T16:10:58Z</time>
      </trkpt>
      <trkpt lat="17.024611540" lon="-96.380833020">
        <ele>2292.500</ele>
        <time>2020-01-21T16:10:59Z</time>
      </trkpt>
      <trkpt lat="17.024673380" lon="-96.380858250">
        <ele>2292.800</ele>
        <time>2020-01-21T16:11:01Z</time>
      </trkpt>
      <trkpt lat="17.024717580" lon="-96.380875000">
        <ele>2293.900</ele>
        <time>2020-01-21T16:11:03Z</time>
      </trkpt>
      <trkpt lat="17.024744790" lon="-96.380911480">
        <ele>2294.200</ele>
        <time>2020-01-21T16:11:50Z</time>
      </trkpt>
      <trkpt lat="17.024791560" lon="-96.380917250">
        <ele>2295.700</ele>
        <time>2020-01-21T16:11:52Z</time>
      </trkpt>
      <trkpt lat="17.024852930" lon="-96.380934330">
        <ele>2297.300</ele>
        <time>2020-01-21T16:11:54Z</time>
      </trkpt>
      <trkpt lat="17.024890000" lon="-96.380938730">
        <ele>2297.900</ele>
        <time>2020-01-21T16:11:55Z</time>
      </trkpt>
      <trkpt lat="17.024930930" lon="-96.380942990">
        <ele>2298.600</ele>
        <time>2020-01-21T16:11:56Z</time>
      </trkpt>
      <trkpt lat="17.024970570" lon="-96.380950150">
        <ele>2298.800</ele>
        <time>2020-01-21T16:11:57Z</time>
      </trkpt>
      <trkpt lat="17.025012680" lon="-96.380960480">
        <ele>2298.800</ele>
        <time>2020-01-21T16:11:58Z</time>
      </trkpt>
      <trkpt lat="17.025057350" lon="-96.380968010">
        <ele>2299.400</ele>
        <time>2020-01-21T16:11:59Z</time>
      </trkpt>
      <trkpt lat="17.025110190" lon="-96.380954850">
        <ele>2300.600</ele>
        <time>2020-01-21T16:12:00Z</time>
      </trkpt>
      <trkpt lat="17.025160260" lon="-96.380967620">
        <ele>2301.800</ele>
        <time>2020-01-21T16:12:01Z</time>
      </trkpt>
      <trkpt lat="17.025202770" lon="-96.380980770">
        <ele>2302.200</ele>
        <time>2020-01-21T16:12:02Z</time>
      </trkpt>
      <trkpt lat="17.025245850" lon="-96.380991290">
        <ele>2302.600</ele>
        <time>2020-01-21T16:12:03Z</time>
      </trkpt>
      <trkpt lat="17.025290140" lon="-96.381001810">
        <ele>2303.000</ele>
        <time>2020-01-21T16:12:04Z</time>
      </trkpt>
      <trkpt lat="17.025329540" lon="-96.381010710">
        <ele>2304.200</ele>
        <time>2020-01-21T16:12:05Z</time>
      </trkpt>
      <trkpt lat="17.025376470" lon="-96.381026000">
        <ele>2304.600</ele>
        <time>2020-01-21T16:12:06Z</time>
      </trkpt>
      <trkpt lat="17.025407580" lon="-96.381053250">
        <ele>2305.700</ele>
        <time>2020-01-21T16:12:07Z</time>
      </trkpt>
      <trkpt lat="17.025447090" lon="-96.381097210">
        <ele>2306.800</ele>
        <time>2020-01-21T16:12:09Z</time>
      </trkpt>
      <trkpt lat="17.025561360" lon="-96.381080840">
        <ele>2308.200</ele>
        <time>2020-01-21T16:12:10Z</time>
      </trkpt>
      <trkpt lat="17.025599830" lon="-96.381095370">
        <ele>2309.200</ele>
        <time>2020-01-21T16:12:11Z</time>
      </trkpt>
      <trkpt lat="17.025636630" lon="-96.381106280">
        <ele>2310.400</ele>
        <time>2020-01-21T16:12:12Z</time>
      </trkpt>
      <trkpt lat="17.025679930" lon="-96.381118150">
        <ele>2311.200</ele>
        <time>2020-01-21T16:12:13Z</time>
      </trkpt>
      <trkpt lat="17.025722200" lon="-96.381129990">
        <ele>2312.300</ele>
        <time>2020-01-21T16:12:14Z</time>
      </trkpt>
      <trkpt lat="17.025765730" lon="-96.381141390">
        <ele>2313.200</ele>
        <time>2020-01-21T16:12:15Z</time>
      </trkpt>
      <trkpt lat="17.025803900" lon="-96.381151710">
        <ele>2314.400</ele>
        <time>2020-01-21T16:12:16Z</time>
      </trkpt>
      <trkpt lat="17.025840960" lon="-96.381170210">
        <ele>2315.400</ele>
        <time>2020-01-21T16:12:17Z</time>
      </trkpt>
      <trkpt lat="17.025879150" lon="-96.381189180">
        <ele>2315.800</ele>
        <time>2020-01-21T16:12:18Z</time>
      </trkpt>
      <trkpt lat="17.025916170" lon="-96.381208890">
        <ele>2315.900</ele>
        <time>2020-01-21T16:12:19Z</time>
      </trkpt>
      <trkpt lat="17.025954230" lon="-96.381221830">
        <ele>2316.800</ele>
        <time>2020-01-21T16:12:20Z</time>
      </trkpt>
      <trkpt lat="17.025994960" lon="-96.381234280">
        <ele>2317.200</ele>
        <time>2020-01-21T16:12:21Z</time>
      </trkpt>
      <trkpt lat="17.026035860" lon="-96.381241810">
        <ele>2317.300</ele>
        <time>2020-01-21T16:12:22Z</time>
      </trkpt>
      <trkpt lat="17.026077480" lon="-96.381243330">
        <ele>2317.700</ele>
        <time>2020-01-21T16:12:23Z</time>
      </trkpt>
      <trkpt lat="17.026116380" lon="-96.381239110">
        <ele>2317.800</ele>
        <time>2020-01-21T16:12:24Z</time>
      </trkpt>
      <trkpt lat="17.026153430" lon="-96.381230610">
        <ele>2319.200</ele>
        <time>2020-01-21T16:12:25Z</time>
      </trkpt>
      <trkpt lat="17.026191310" lon="-96.381214980">
        <ele>2319.900</ele>
        <time>2020-01-21T16:12:26Z</time>
      </trkpt>
      <trkpt lat="17.026227820" lon="-96.381195080">
        <ele>2320.300</ele>
        <time>2020-01-21T16:12:27Z</time>
      </trkpt>
      <trkpt lat="17.026263080" lon="-96.381172650">
        <ele>2320.700</ele>
        <time>2020-01-21T16:12:28Z</time>
      </trkpt>
      <trkpt lat="17.026298040" lon="-96.381149120">
        <ele>2320.800</ele>
        <time>2020-01-21T16:12:29Z</time>
      </trkpt>
      <trkpt lat="17.026331400" lon="-96.381123960">
        <ele>2321.100</ele>
        <time>2020-01-21T16:12:30Z</time>
      </trkpt>
      <trkpt lat="17.026363680" lon="-96.381100220">
        <ele>2322.400</ele>
        <time>2020-01-21T16:12:31Z</time>
      </trkpt>
      <trkpt lat="17.026395180" lon="-96.381079880">
        <ele>2323.300</ele>
        <time>2020-01-21T16:12:32Z</time>
      </trkpt>
      <trkpt lat="17.026430480" lon="-96.381062440">
        <ele>2323.500</ele>
        <time>2020-01-21T16:12:33Z</time>
      </trkpt>
      <trkpt lat="17.026497050" lon="-96.381041390">
        <ele>2324.400</ele>
        <time>2020-01-21T16:12:35Z</time>
      </trkpt>
      <trkpt lat="17.026533530" lon="-96.381037540">
        <ele>2325.200</ele>
        <time>2020-01-21T16:12:36Z</time>
      </trkpt>
      <trkpt lat="17.026571950" lon="-96.381036860">
        <ele>2325.600</ele>
        <time>2020-01-21T16:12:37Z</time>
      </trkpt>
      <trkpt lat="17.026611430" lon="-96.381039140">
        <ele>2326.300</ele>
        <time>2020-01-21T16:12:38Z</time>
      </trkpt>
      <trkpt lat="17.026650540" lon="-96.381042950">
        <ele>2326.800</ele>
        <time>2020-01-21T16:12:39Z</time>
      </trkpt>
      <trkpt lat="17.026690030" lon="-96.381045080">
        <ele>2326.900</ele>
        <time>2020-01-21T16:12:40Z</time>
      </trkpt>
      <trkpt lat="17.026728160" lon="-96.381043310">
        <ele>2327.700</ele>
        <time>2020-01-21T16:12:41Z</time>
      </trkpt>
      <trkpt lat="17.026765080" lon="-96.381037820">
        <ele>2327.900</ele>
        <time>2020-01-21T16:12:42Z</time>
      </trkpt>
      <trkpt lat="17.026800360" lon="-96.381027750">
        <ele>2328.800</ele>
        <time>2020-01-21T16:12:43Z</time>
      </trkpt>
      <trkpt lat="17.026865820" lon="-96.380993090">
        <ele>2329.900</ele>
        <time>2020-01-21T16:12:45Z</time>
      </trkpt>
      <trkpt lat="17.026896330" lon="-96.380970660">
        <ele>2330.700</ele>
        <time>2020-01-21T16:12:46Z</time>
      </trkpt>
      <trkpt lat="17.026951590" lon="-96.380920820">
        <ele>2332.200</ele>
        <time>2020-01-21T16:12:48Z</time>
      </trkpt>
      <trkpt lat="17.026973590" lon="-96.380889100">
        <ele>2332.600</ele>
        <time>2020-01-21T16:12:49Z</time>
      </trkpt>
      <trkpt lat="17.026991060" lon="-96.380820770">
        <ele>2333.300</ele>
        <time>2020-01-21T16:12:51Z</time>
      </trkpt>
      <trkpt lat="17.026967330" lon="-96.380751060">
        <ele>2334.800</ele>
        <time>2020-01-21T16:12:53Z</time>
      </trkpt>
      <trkpt lat="17.026940320" lon="-96.380719310">
        <ele>2334.800</ele>
        <time>2020-01-21T16:12:54Z</time>
      </trkpt>
      <trkpt lat="17.026904230" lon="-96.380693860">
        <ele>2335.600</ele>
        <time>2020-01-21T16:12:55Z</time>
      </trkpt>
      <trkpt lat="17.026862310" lon="-96.380672700">
        <ele>2336.200</ele>
        <time>2020-01-21T16:12:56Z</time>
      </trkpt>
      <trkpt lat="17.026820010" lon="-96.380655640">
        <ele>2336.500</ele>
        <time>2020-01-21T16:12:57Z</time>
      </trkpt>
      <trkpt lat="17.026774300" lon="-96.380643130">
        <ele>2337.900</ele>
        <time>2020-01-21T16:12:58Z</time>
      </trkpt>
      <trkpt lat="17.026728340" lon="-96.380634460">
        <ele>2338.600</ele>
        <time>2020-01-21T16:12:59Z</time>
      </trkpt>
      <trkpt lat="17.026680560" lon="-96.380627690">
        <ele>2339.300</ele>
        <time>2020-01-21T16:13:00Z</time>
      </trkpt>
      <trkpt lat="17.026634130" lon="-96.380622800">
        <ele>2340.000</ele>
        <time>2020-01-21T16:13:01Z</time>
      </trkpt>
      <trkpt lat="17.026587170" lon="-96.380620120">
        <ele>2340.100</ele>
        <time>2020-01-21T16:13:02Z</time>
      </trkpt>
      <trkpt lat="17.026538610" lon="-96.380614760">
        <ele>2341.100</ele>
        <time>2020-01-21T16:13:03Z</time>
      </trkpt>
      <trkpt lat="17.026491090" lon="-96.380606660">
        <ele>2342.100</ele>
        <time>2020-01-21T16:13:04Z</time>
      </trkpt>
      <trkpt lat="17.026444280" lon="-96.380597440">
        <ele>2342.600</ele>
        <time>2020-01-21T16:13:05Z</time>
      </trkpt>
      <trkpt lat="17.026397930" lon="-96.380587850">
        <ele>2343.500</ele>
        <time>2020-01-21T16:13:06Z</time>
      </trkpt>
      <trkpt lat="17.026351250" lon="-96.380578840">
        <ele>2343.700</ele>
        <time>2020-01-21T16:13:07Z</time>
      </trkpt>
      <trkpt lat="17.026306900" lon="-96.380570810">
        <ele>2344.500</ele>
        <time>2020-01-21T16:13:08Z</time>
      </trkpt>
      <trkpt lat="17.026263100" lon="-96.380562970">
        <ele>2345.000</ele>
        <time>2020-01-21T16:13:09Z</time>
      </trkpt>
      <trkpt lat="17.026224380" lon="-96.380551350">
        <ele>2345.500</ele>
        <time>2020-01-21T16:13:10Z</time>
      </trkpt>
      <trkpt lat="17.026175170" lon="-96.380513030">
        <ele>2346.500</ele>
        <time>2020-01-21T16:13:12Z</time>
      </trkpt>
      <trkpt lat="17.026168660" lon="-96.380456700">
        <ele>2347.400</ele>
        <time>2020-01-21T16:13:14Z</time>
      </trkpt>
      <trkpt lat="17.026195170" lon="-96.380398040">
        <ele>2348.200</ele>
        <time>2020-01-21T16:13:16Z</time>
      </trkpt>
      <trkpt lat="17.026247270" lon="-96.380347430">
        <ele>2348.300</ele>
        <time>2020-01-21T16:13:18Z</time>
      </trkpt>
      <trkpt lat="17.026283440" lon="-96.380326910">
        <ele>2348.600</ele>
        <time>2020-01-21T16:13:19Z</time>
      </trkpt>
      <trkpt lat="17.026322560" lon="-96.380311050">
        <ele>2348.200</ele>
        <time>2020-01-21T16:13:20Z</time>
      </trkpt>
      <trkpt lat="17.026365630" lon="-96.380301920">
        <ele>2348.500</ele>
        <time>2020-01-21T16:13:21Z</time>
      </trkpt>
      <trkpt lat="17.026409720" lon="-96.380298940">
        <ele>2349.100</ele>
        <time>2020-01-21T16:13:22Z</time>
      </trkpt>
      <trkpt lat="17.026507520" lon="-96.380389830">
        <ele>2349.700</ele>
        <time>2020-01-21T16:13:23Z</time>
      </trkpt>
      <trkpt lat="17.026555860" lon="-96.380403530">
        <ele>2350.300</ele>
        <time>2020-01-21T16:13:24Z</time>
      </trkpt>
      <trkpt lat="17.026597530" lon="-96.380420430">
        <ele>2351.200</ele>
        <time>2020-01-21T16:13:25Z</time>
      </trkpt>
      <trkpt lat="17.026652470" lon="-96.380431040">
        <ele>2351.200</ele>
        <time>2020-01-21T16:13:26Z</time>
      </trkpt>
      <trkpt lat="17.026697930" lon="-96.380451650">
        <ele>2351.300</ele>
        <time>2020-01-21T16:13:27Z</time>
      </trkpt>
      <trkpt lat="17.026742330" lon="-96.380464020">
        <ele>2351.500</ele>
        <time>2020-01-21T16:13:28Z</time>
      </trkpt>
      <trkpt lat="17.026787720" lon="-96.380479540">
        <ele>2352.100</ele>
        <time>2020-01-21T16:13:29Z</time>
      </trkpt>
      <trkpt lat="17.026832710" lon="-96.380491890">
        <ele>2352.600</ele>
        <time>2020-01-21T16:13:30Z</time>
      </trkpt>
      <trkpt lat="17.026871890" lon="-96.380495860">
        <ele>2353.000</ele>
        <time>2020-01-21T16:13:31Z</time>
      </trkpt>
      <trkpt lat="17.026910340" lon="-96.380490930">
        <ele>2353.600</ele>
        <time>2020-01-21T16:13:32Z</time>
      </trkpt>
      <trkpt lat="17.026948220" lon="-96.380472870">
        <ele>2354.700</ele>
        <time>2020-01-21T16:13:33Z</time>
      </trkpt>
      <trkpt lat="17.026978830" lon="-96.380449540">
        <ele>2354.700</ele>
        <time>2020-01-21T16:13:34Z</time>
      </trkpt>
      <trkpt lat="17.027002760" lon="-96.380420030">
        <ele>2355.300</ele>
        <time>2020-01-21T16:13:35Z</time>
      </trkpt>
      <trkpt lat="17.027029310" lon="-96.380393280">
        <ele>2355.900</ele>
        <time>2020-01-21T16:13:36Z</time>
      </trkpt>
      <trkpt lat="17.027050090" lon="-96.380361760">
        <ele>2356.300</ele>
        <time>2020-01-21T16:13:37Z</time>
      </trkpt>
      <trkpt lat="17.027062100" lon="-96.380325990">
        <ele>2357.400</ele>
        <time>2020-01-21T16:13:38Z</time>
      </trkpt>
      <trkpt lat="17.027066840" lon="-96.380285980">
        <ele>2357.900</ele>
        <time>2020-01-21T16:13:39Z</time>
      </trkpt>
      <trkpt lat="17.027063470" lon="-96.380247230">
        <ele>2358.900</ele>
        <time>2020-01-21T16:13:40Z</time>
      </trkpt>
      <trkpt lat="17.027053500" lon="-96.380207330">
        <ele>2360.300</ele>
        <time>2020-01-21T16:13:41Z</time>
      </trkpt>
      <trkpt lat="17.027037220" lon="-96.380167070">
        <ele>2360.900</ele>
        <time>2020-01-21T16:13:42Z</time>
      </trkpt>
      <trkpt lat="17.027018190" lon="-96.380125080">
        <ele>2361.100</ele>
        <time>2020-01-21T16:13:43Z</time>
      </trkpt>
      <trkpt lat="17.026990560" lon="-96.380085810">
        <ele>2361.000</ele>
        <time>2020-01-21T16:13:44Z</time>
      </trkpt>
      <trkpt lat="17.026916950" lon="-96.380057240">
        <ele>2361.000</ele>
        <time>2020-01-21T16:13:45Z</time>
      </trkpt>
      <trkpt lat="17.026877120" lon="-96.380032150">
        <ele>2361.000</ele>
        <time>2020-01-21T16:13:46Z</time>
      </trkpt>
      <trkpt lat="17.026835490" lon="-96.379998210">
        <ele>2360.500</ele>
        <time>2020-01-21T16:13:47Z</time>
      </trkpt>
      <trkpt lat="17.026794510" lon="-96.379978650">
        <ele>2360.500</ele>
        <time>2020-01-21T16:13:48Z</time>
      </trkpt>
      <trkpt lat="17.026742100" lon="-96.379967850">
        <ele>2361.400</ele>
        <time>2020-01-21T16:13:49Z</time>
      </trkpt>
      <trkpt lat="17.026690850" lon="-96.379957830">
        <ele>2362.300</ele>
        <time>2020-01-21T16:13:50Z</time>
      </trkpt>
      <trkpt lat="17.026637180" lon="-96.379957290">
        <ele>2363.000</ele>
        <time>2020-01-21T16:13:51Z</time>
      </trkpt>
      <trkpt lat="17.026603890" lon="-96.379997690">
        <ele>2361.700</ele>
        <time>2020-01-21T16:13:52Z</time>
      </trkpt>
      <trkpt lat="17.026553770" lon="-96.380037040">
        <ele>2363.100</ele>
        <time>2020-01-21T16:13:53Z</time>
      </trkpt>
      <trkpt lat="17.026501420" lon="-96.380046640">
        <ele>2363.400</ele>
        <time>2020-01-21T16:13:54Z</time>
      </trkpt>
      <trkpt lat="17.026457040" lon="-96.380045130">
        <ele>2363.400</ele>
        <time>2020-01-21T16:13:55Z</time>
      </trkpt>
      <trkpt lat="17.026404320" lon="-96.380053240">
        <ele>2365.100</ele>
        <time>2020-01-21T16:13:56Z</time>
      </trkpt>
      <trkpt lat="17.026357300" lon="-96.380052660">
        <ele>2366.300</ele>
        <time>2020-01-21T16:13:57Z</time>
      </trkpt>
      <trkpt lat="17.026309000" lon="-96.380057410">
        <ele>2367.300</ele>
        <time>2020-01-21T16:13:58Z</time>
      </trkpt>
      <trkpt lat="17.026259270" lon="-96.380062970">
        <ele>2352.900</ele>
        <time>2020-01-21T16:13:59Z</time>
      </trkpt>
      <trkpt lat="17.026209770" lon="-96.380072500">
        <ele>2360.100</ele>
        <time>2020-01-21T16:14:00Z</time>
      </trkpt>
      <trkpt lat="17.026160470" lon="-96.380080050">
        <ele>2364.400</ele>
        <time>2020-01-21T16:14:01Z</time>
      </trkpt>
      <trkpt lat="17.026111210" lon="-96.380088150">
        <ele>2367.000</ele>
        <time>2020-01-21T16:14:02Z</time>
      </trkpt>
      <trkpt lat="17.026067950" lon="-96.380090450">
        <ele>2368.800</ele>
        <time>2020-01-21T16:14:03Z</time>
      </trkpt>
      <trkpt lat="17.026023650" lon="-96.380095660">
        <ele>2370.700</ele>
        <time>2020-01-21T16:14:04Z</time>
      </trkpt>
      <trkpt lat="17.025982710" lon="-96.380094320">
        <ele>2371.500</ele>
        <time>2020-01-21T16:14:05Z</time>
      </trkpt>
      <trkpt lat="17.025943340" lon="-96.380088750">
        <ele>2372.700</ele>
        <time>2020-01-21T16:14:06Z</time>
      </trkpt>
      <trkpt lat="17.025902800" lon="-96.380073140">
        <ele>2373.800</ele>
        <time>2020-01-21T16:14:07Z</time>
      </trkpt>
      <trkpt lat="17.025867600" lon="-96.380063140">
        <ele>2374.800</ele>
        <time>2020-01-21T16:14:08Z</time>
      </trkpt>
      <trkpt lat="17.025801670" lon="-96.380031310">
        <ele>2376.500</ele>
        <time>2020-01-21T16:14:10Z</time>
      </trkpt>
      <trkpt lat="17.025771640" lon="-96.380007450">
        <ele>2377.500</ele>
        <time>2020-01-21T16:14:11Z</time>
      </trkpt>
      <trkpt lat="17.025743410" lon="-96.379980280">
        <ele>2378.700</ele>
        <time>2020-01-21T16:14:12Z</time>
      </trkpt>
      <trkpt lat="17.025717800" lon="-96.379951080">
        <ele>2379.600</ele>
        <time>2020-01-21T16:14:13Z</time>
      </trkpt>
      <trkpt lat="17.025692660" lon="-96.379921530">
        <ele>2380.600</ele>
        <time>2020-01-21T16:14:14Z</time>
      </trkpt>
      <trkpt lat="17.025667590" lon="-96.379893060">
        <ele>2381.600</ele>
        <time>2020-01-21T16:14:15Z</time>
      </trkpt>
      <trkpt lat="17.025617150" lon="-96.379841550">
        <ele>2383.100</ele>
        <time>2020-01-21T16:14:17Z</time>
      </trkpt>
      <trkpt lat="17.025567850" lon="-96.379795560">
        <ele>2384.400</ele>
        <time>2020-01-21T16:14:19Z</time>
      </trkpt>
      <trkpt lat="17.025520840" lon="-96.379756030">
        <ele>2385.900</ele>
        <time>2020-01-21T16:14:21Z</time>
      </trkpt>
      <trkpt lat="17.025471280" lon="-96.379720090">
        <ele>2387.000</ele>
        <time>2020-01-21T16:14:23Z</time>
      </trkpt>
      <trkpt lat="17.025410590" lon="-96.379688840">
        <ele>2388.300</ele>
        <time>2020-01-21T16:14:25Z</time>
      </trkpt>
      <trkpt lat="17.025376220" lon="-96.379672150">
        <ele>2388.800</ele>
        <time>2020-01-21T16:14:26Z</time>
      </trkpt>
      <trkpt lat="17.025341280" lon="-96.379655270">
        <ele>2389.800</ele>
        <time>2020-01-21T16:14:27Z</time>
      </trkpt>
      <trkpt lat="17.025303930" lon="-96.379638870">
        <ele>2390.300</ele>
        <time>2020-01-21T16:14:28Z</time>
      </trkpt>
      <trkpt lat="17.025266120" lon="-96.379621110">
        <ele>2391.400</ele>
        <time>2020-01-21T16:14:29Z</time>
      </trkpt>
      <trkpt lat="17.025228420" lon="-96.379599360">
        <ele>2392.300</ele>
        <time>2020-01-21T16:14:30Z</time>
      </trkpt>
      <trkpt lat="17.025192320" lon="-96.379575860">
        <ele>2393.200</ele>
        <time>2020-01-21T16:14:31Z</time>
      </trkpt>
      <trkpt lat="17.025157100" lon="-96.379550640">
        <ele>2394.500</ele>
        <time>2020-01-21T16:14:32Z</time>
      </trkpt>
      <trkpt lat="17.025123340" lon="-96.379525040">
        <ele>2395.200</ele>
        <time>2020-01-21T16:14:33Z</time>
      </trkpt>
      <trkpt lat="17.025092880" lon="-96.379497010">
        <ele>2396.700</ele>
        <time>2020-01-21T16:14:34Z</time>
      </trkpt>
      <trkpt lat="17.025064420" lon="-96.379467940">
        <ele>2397.700</ele>
        <time>2020-01-21T16:14:35Z</time>
      </trkpt>
      <trkpt lat="17.025037650" lon="-96.379438570">
        <ele>2398.900</ele>
        <time>2020-01-21T16:14:36Z</time>
      </trkpt>
      <trkpt lat="17.025012990" lon="-96.379409750">
        <ele>2399.400</ele>
        <time>2020-01-21T16:14:37Z</time>
      </trkpt>
      <trkpt lat="17.024987960" lon="-96.379380810">
        <ele>2400.400</ele>
        <time>2020-01-21T16:14:38Z</time>
      </trkpt>
      <trkpt lat="17.024962480" lon="-96.379352060">
        <ele>2401.400</ele>
        <time>2020-01-21T16:14:39Z</time>
      </trkpt>
      <trkpt lat="17.024935810" lon="-96.379324710">
        <ele>2401.700</ele>
        <time>2020-01-21T16:14:40Z</time>
      </trkpt>
      <trkpt lat="17.024909910" lon="-96.379296830">
        <ele>2402.400</ele>
        <time>2020-01-21T16:14:41Z</time>
      </trkpt>
      <trkpt lat="17.024884480" lon="-96.379267700">
        <ele>2402.800</ele>
        <time>2020-01-21T16:14:42Z</time>
      </trkpt>
      <trkpt lat="17.024857180" lon="-96.379237830">
        <ele>2403.300</ele>
        <time>2020-01-21T16:14:43Z</time>
      </trkpt>
      <trkpt lat="17.024829770" lon="-96.379206120">
        <ele>2404.000</ele>
        <time>2020-01-21T16:14:44Z</time>
      </trkpt>
      <trkpt lat="17.024815020" lon="-96.379032970">
        <ele>2405.300</ele>
        <time>2020-01-21T16:14:45Z</time>
      </trkpt>
      <trkpt lat="17.024799540" lon="-96.378990060">
        <ele>2405.700</ele>
        <time>2020-01-21T16:14:46Z</time>
      </trkpt>
      <trkpt lat="17.024790960" lon="-96.378946070">
        <ele>2406.000</ele>
        <time>2020-01-21T16:14:47Z</time>
      </trkpt>
      <trkpt lat="17.024785780" lon="-96.378898490">
        <ele>2406.600</ele>
        <time>2020-01-21T16:14:48Z</time>
      </trkpt>
      <trkpt lat="17.024784870" lon="-96.378851020">
        <ele>2407.700</ele>
        <time>2020-01-21T16:14:49Z</time>
      </trkpt>
      <trkpt lat="17.024784460" lon="-96.378805670">
        <ele>2409.100</ele>
        <time>2020-01-21T16:14:50Z</time>
      </trkpt>
      <trkpt lat="17.024791610" lon="-96.378759170">
        <ele>2409.900</ele>
        <time>2020-01-21T16:14:51Z</time>
      </trkpt>
      <trkpt lat="17.024802120" lon="-96.378712400">
        <ele>2410.100</ele>
        <time>2020-01-21T16:14:52Z</time>
      </trkpt>
      <trkpt lat="17.024813000" lon="-96.378664390">
        <ele>2410.700</ele>
        <time>2020-01-21T16:14:53Z</time>
      </trkpt>
      <trkpt lat="17.024820520" lon="-96.378618580">
        <ele>2411.400</ele>
        <time>2020-01-21T16:14:54Z</time>
      </trkpt>
      <trkpt lat="17.024832570" lon="-96.378573370">
        <ele>2412.000</ele>
        <time>2020-01-21T16:14:55Z</time>
      </trkpt>
      <trkpt lat="17.024847300" lon="-96.378525210">
        <ele>2412.400</ele>
        <time>2020-01-21T16:14:56Z</time>
      </trkpt>
      <trkpt lat="17.024864480" lon="-96.378476880">
        <ele>2413.600</ele>
        <time>2020-01-21T16:14:57Z</time>
      </trkpt>
      <trkpt lat="17.024880980" lon="-96.378427400">
        <ele>2414.400</ele>
        <time>2020-01-21T16:14:58Z</time>
      </trkpt>
      <trkpt lat="17.024901570" lon="-96.378381290">
        <ele>2414.800</ele>
        <time>2020-01-21T16:14:59Z</time>
      </trkpt>
      <trkpt lat="17.024920860" lon="-96.378338100">
        <ele>2415.300</ele>
        <time>2020-01-21T16:15:00Z</time>
      </trkpt>
      <trkpt lat="17.024942460" lon="-96.378294930">
        <ele>2416.400</ele>
        <time>2020-01-21T16:15:01Z</time>
      </trkpt>
      <trkpt lat="17.024959190" lon="-96.378251460">
        <ele>2416.600</ele>
        <time>2020-01-21T16:15:02Z</time>
      </trkpt>
      <trkpt lat="17.024983330" lon="-96.378211370">
        <ele>2416.700</ele>
        <time>2020-01-21T16:15:03Z</time>
      </trkpt>
      <trkpt lat="17.025002400" lon="-96.378166880">
        <ele>2418.100</ele>
        <time>2020-01-21T16:15:04Z</time>
      </trkpt>
      <trkpt lat="17.025025560" lon="-96.378120600">
        <ele>2418.900</ele>
        <time>2020-01-21T16:15:05Z</time>
      </trkpt>
      <trkpt lat="17.025052150" lon="-96.378079730">
        <ele>2418.700</ele>
        <time>2020-01-21T16:15:06Z</time>
      </trkpt>
      <trkpt lat="17.025075390" lon="-96.378044330">
        <ele>2418.600</ele>
        <time>2020-01-21T16:15:07Z</time>
      </trkpt>
      <trkpt lat="17.025092930" lon="-96.378010090">
        <ele>2418.500</ele>
        <time>2020-01-21T16:15:08Z</time>
      </trkpt>
      <trkpt lat="17.025108260" lon="-96.377944530">
        <ele>2418.800</ele>
        <time>2020-01-21T16:15:09Z</time>
      </trkpt>
      <trkpt lat="17.025129140" lon="-96.377900300">
        <ele>2419.500</ele>
        <time>2020-01-21T16:15:10Z</time>
      </trkpt>
      <trkpt lat="17.025147530" lon="-96.377846560">
        <ele>2419.500</ele>
        <time>2020-01-21T16:15:11Z</time>
      </trkpt>
      <trkpt lat="17.025161960" lon="-96.377800570">
        <ele>2420.100</ele>
        <time>2020-01-21T16:15:12Z</time>
      </trkpt>
      <trkpt lat="17.025173920" lon="-96.377754080">
        <ele>2421.000</ele>
        <time>2020-01-21T16:15:13Z</time>
      </trkpt>
      <trkpt lat="17.025190460" lon="-96.377717120">
        <ele>2421.400</ele>
        <time>2020-01-21T16:15:14Z</time>
      </trkpt>
      <trkpt lat="17.025204220" lon="-96.377677150">
        <ele>2421.900</ele>
        <time>2020-01-21T16:15:15Z</time>
      </trkpt>
      <trkpt lat="17.025215630" lon="-96.377633820">
        <ele>2422.500</ele>
        <time>2020-01-21T16:15:16Z</time>
      </trkpt>
      <trkpt lat="17.025237320" lon="-96.377586300">
        <ele>2423.100</ele>
        <time>2020-01-21T16:15:17Z</time>
      </trkpt>
      <trkpt lat="17.025246600" lon="-96.377536580">
        <ele>2424.800</ele>
        <time>2020-01-21T16:15:18Z</time>
      </trkpt>
      <trkpt lat="17.025263110" lon="-96.377487950">
        <ele>2425.100</ele>
        <time>2020-01-21T16:15:19Z</time>
      </trkpt>
      <trkpt lat="17.025276820" lon="-96.377427610">
        <ele>2423.900</ele>
        <time>2020-01-21T16:15:20Z</time>
      </trkpt>
      <trkpt lat="17.025284570" lon="-96.377372480">
        <ele>2423.600</ele>
        <time>2020-01-21T16:15:21Z</time>
      </trkpt>
      <trkpt lat="17.025287320" lon="-96.377323340">
        <ele>2425.000</ele>
        <time>2020-01-21T16:15:22Z</time>
      </trkpt>
      <trkpt lat="17.025293890" lon="-96.377273730">
        <ele>2425.600</ele>
        <time>2020-01-21T16:15:23Z</time>
      </trkpt>
      <trkpt lat="17.025291770" lon="-96.377227190">
        <ele>2425.100</ele>
        <time>2020-01-21T16:15:24Z</time>
      </trkpt>
      <trkpt lat="17.025290630" lon="-96.377188900">
        <ele>2425.600</ele>
        <time>2020-01-21T16:15:25Z</time>
      </trkpt>
      <trkpt lat="17.025287890" lon="-96.377147400">
        <ele>2425.600</ele>
        <time>2020-01-21T16:15:26Z</time>
      </trkpt>
      <trkpt lat="17.025263610" lon="-96.377081990">
        <ele>2425.600</ele>
        <time>2020-01-21T16:15:28Z</time>
      </trkpt>
      <trkpt lat="17.025236650" lon="-96.377047560">
        <ele>2426.100</ele>
        <time>2020-01-21T16:15:29Z</time>
      </trkpt>
      <trkpt lat="17.025205200" lon="-96.377020180">
        <ele>2425.800</ele>
        <time>2020-01-21T16:15:30Z</time>
      </trkpt>
      <trkpt lat="17.025159310" lon="-96.376993150">
        <ele>2427.700</ele>
        <time>2020-01-21T16:15:31Z</time>
      </trkpt>
      <trkpt lat="17.025125200" lon="-96.376963590">
        <ele>2427.400</ele>
        <time>2020-01-21T16:15:32Z</time>
      </trkpt>
      <trkpt lat="17.025079290" lon="-96.376947570">
        <ele>2428.400</ele>
        <time>2020-01-21T16:15:33Z</time>
      </trkpt>
      <trkpt lat="17.025032870" lon="-96.376935050">
        <ele>2428.800</ele>
        <time>2020-01-21T16:15:34Z</time>
      </trkpt>
      <trkpt lat="17.024986270" lon="-96.376931640">
        <ele>2429.800</ele>
        <time>2020-01-21T16:15:35Z</time>
      </trkpt>
      <trkpt lat="17.024938810" lon="-96.376932560">
        <ele>2430.200</ele>
        <time>2020-01-21T16:15:36Z</time>
      </trkpt>
      <trkpt lat="17.024883430" lon="-96.376938650">
        <ele>2431.000</ele>
        <time>2020-01-21T16:15:37Z</time>
      </trkpt>
      <trkpt lat="17.024840380" lon="-96.376945840">
        <ele>2431.300</ele>
        <time>2020-01-21T16:15:38Z</time>
      </trkpt>
      <trkpt lat="17.024798600" lon="-96.376961580">
        <ele>2432.100</ele>
        <time>2020-01-21T16:15:39Z</time>
      </trkpt>
      <trkpt lat="17.024759860" lon="-96.376981880">
        <ele>2432.800</ele>
        <time>2020-01-21T16:15:40Z</time>
      </trkpt>
      <trkpt lat="17.024721760" lon="-96.377001990">
        <ele>2433.300</ele>
        <time>2020-01-21T16:15:41Z</time>
      </trkpt>
      <trkpt lat="17.024658280" lon="-96.377046120">
        <ele>2433.100</ele>
        <time>2020-01-21T16:15:43Z</time>
      </trkpt>
      <trkpt lat="17.024620760" lon="-96.377067500">
        <ele>2433.600</ele>
        <time>2020-01-21T16:15:44Z</time>
      </trkpt>
      <trkpt lat="17.024584260" lon="-96.377078150">
        <ele>2434.100</ele>
        <time>2020-01-21T16:15:45Z</time>
      </trkpt>
      <trkpt lat="17.024543740" lon="-96.377080320">
        <ele>2434.600</ele>
        <time>2020-01-21T16:15:46Z</time>
      </trkpt>
      <trkpt lat="17.024502630" lon="-96.377070880">
        <ele>2436.100</ele>
        <time>2020-01-21T16:15:47Z</time>
      </trkpt>
      <trkpt lat="17.024467870" lon="-96.377051650">
        <ele>2436.800</ele>
        <time>2020-01-21T16:15:48Z</time>
      </trkpt>
      <trkpt lat="17.024436270" lon="-96.377023660">
        <ele>2437.300</ele>
        <time>2020-01-21T16:15:49Z</time>
      </trkpt>
      <trkpt lat="17.024410010" lon="-96.376989510">
        <ele>2437.700</ele>
        <time>2020-01-21T16:15:50Z</time>
      </trkpt>
      <trkpt lat="17.024392840" lon="-96.376946280">
        <ele>2438.000</ele>
        <time>2020-01-21T16:15:51Z</time>
      </trkpt>
      <trkpt lat="17.024377670" lon="-96.376906200">
        <ele>2438.600</ele>
        <time>2020-01-21T16:15:52Z</time>
      </trkpt>
      <trkpt lat="17.024357480" lon="-96.376864070">
        <ele>2438.900</ele>
        <time>2020-01-21T16:15:53Z</time>
      </trkpt>
      <trkpt lat="17.024344860" lon="-96.376823390">
        <ele>2439.200</ele>
        <time>2020-01-21T16:15:54Z</time>
      </trkpt>
      <trkpt lat="17.024330250" lon="-96.376783140">
        <ele>2440.100</ele>
        <time>2020-01-21T16:15:55Z</time>
      </trkpt>
      <trkpt lat="17.024320660" lon="-96.376729850">
        <ele>2441.100</ele>
        <time>2020-01-21T16:15:57Z</time>
      </trkpt>
      <trkpt lat="17.024305210" lon="-96.376670360">
        <ele>2441.600</ele>
        <time>2020-01-21T16:15:59Z</time>
      </trkpt>
      <trkpt lat="17.024287860" lon="-96.376601350">
        <ele>2441.800</ele>
        <time>2020-01-21T16:16:01Z</time>
      </trkpt>
      <trkpt lat="17.024270120" lon="-96.376532450">
        <ele>2442.600</ele>
        <time>2020-01-21T16:16:03Z</time>
      </trkpt>
      <trkpt lat="17.024261150" lon="-96.376495050">
        <ele>2443.900</ele>
        <time>2020-01-21T16:16:04Z</time>
      </trkpt>
      <trkpt lat="17.024252220" lon="-96.376457710">
        <ele>2444.800</ele>
        <time>2020-01-21T16:16:05Z</time>
      </trkpt>
      <trkpt lat="17.024243490" lon="-96.376421210">
        <ele>2444.800</ele>
        <time>2020-01-21T16:16:06Z</time>
      </trkpt>
      <trkpt lat="17.024233420" lon="-96.376383950">
        <ele>2445.200</ele>
        <time>2020-01-21T16:16:07Z</time>
      </trkpt>
      <trkpt lat="17.024223730" lon="-96.376345710">
        <ele>2446.100</ele>
        <time>2020-01-21T16:16:08Z</time>
      </trkpt>
      <trkpt lat="17.024214450" lon="-96.376307090">
        <ele>2446.400</ele>
        <time>2020-01-21T16:16:09Z</time>
      </trkpt>
      <trkpt lat="17.024206950" lon="-96.376234060">
        <ele>2448.800</ele>
        <time>2020-01-21T16:16:11Z</time>
      </trkpt>
      <trkpt lat="17.024213010" lon="-96.376194380">
        <ele>2449.100</ele>
        <time>2020-01-21T16:16:12Z</time>
      </trkpt>
      <trkpt lat="17.024238570" lon="-96.376127600">
        <ele>2449.800</ele>
        <time>2020-01-21T16:16:14Z</time>
      </trkpt>
      <trkpt lat="17.024284890" lon="-96.376073720">
        <ele>2450.600</ele>
        <time>2020-01-21T16:16:16Z</time>
      </trkpt>
      <trkpt lat="17.024345510" lon="-96.376041800">
        <ele>2451.800</ele>
        <time>2020-01-21T16:16:18Z</time>
      </trkpt>
      <trkpt lat="17.024381610" lon="-96.376034450">
        <ele>2452.000</ele>
        <time>2020-01-21T16:16:19Z</time>
      </trkpt>
      <trkpt lat="17.024445460" lon="-96.376061290">
        <ele>2455.100</ele>
        <time>2020-01-21T16:16:21Z</time>
      </trkpt>
      <trkpt lat="17.024479370" lon="-96.376079780">
        <ele>2455.300</ele>
        <time>2020-01-21T16:16:22Z</time>
      </trkpt>
      <trkpt lat="17.024513920" lon="-96.376102010">
        <ele>2455.200</ele>
        <time>2020-01-21T16:16:23Z</time>
      </trkpt>
      <trkpt lat="17.024552470" lon="-96.376124590">
        <ele>2454.800</ele>
        <time>2020-01-21T16:16:24Z</time>
      </trkpt>
      <trkpt lat="17.024589980" lon="-96.376143370">
        <ele>2454.500</ele>
        <time>2020-01-21T16:16:25Z</time>
      </trkpt>
      <trkpt lat="17.024627230" lon="-96.376158410">
        <ele>2455.000</ele>
        <time>2020-01-21T16:16:26Z</time>
      </trkpt>
      <trkpt lat="17.024661930" lon="-96.376169760">
        <ele>2455.900</ele>
        <time>2020-01-21T16:16:27Z</time>
      </trkpt>
      <trkpt lat="17.024699560" lon="-96.376172650">
        <ele>2456.700</ele>
        <time>2020-01-21T16:16:28Z</time>
      </trkpt>
      <trkpt lat="17.024764430" lon="-96.376156110">
        <ele>2456.400</ele>
        <time>2020-01-21T16:16:30Z</time>
      </trkpt>
      <trkpt lat="17.024795340" lon="-96.376134400">
        <ele>2457.400</ele>
        <time>2020-01-21T16:16:31Z</time>
      </trkpt>
      <trkpt lat="17.024839460" lon="-96.376075060">
        <ele>2459.500</ele>
        <time>2020-01-21T16:16:33Z</time>
      </trkpt>
      <trkpt lat="17.024854800" lon="-96.376040800">
        <ele>2459.600</ele>
        <time>2020-01-21T16:16:34Z</time>
      </trkpt>
      <trkpt lat="17.024867540" lon="-96.376003550">
        <ele>2459.900</ele>
        <time>2020-01-21T16:16:35Z</time>
      </trkpt>
      <trkpt lat="17.024879420" lon="-96.375963860">
        <ele>2459.700</ele>
        <time>2020-01-21T16:16:36Z</time>
      </trkpt>
      <trkpt lat="17.024890590" lon="-96.375920970">
        <ele>2459.300</ele>
        <time>2020-01-21T16:16:37Z</time>
      </trkpt>
      <trkpt lat="17.024897070" lon="-96.375873940">
        <ele>2459.500</ele>
        <time>2020-01-21T16:16:38Z</time>
      </trkpt>
      <trkpt lat="17.024900350" lon="-96.375825480">
        <ele>2459.100</ele>
        <time>2020-01-21T16:16:39Z</time>
      </trkpt>
      <trkpt lat="17.024922300" lon="-96.375773690">
        <ele>2461.600</ele>
        <time>2020-01-21T16:16:40Z</time>
      </trkpt>
      <trkpt lat="17.024930180" lon="-96.375730210">
        <ele>2462.600</ele>
        <time>2020-01-21T16:16:41Z</time>
      </trkpt>
      <trkpt lat="17.024939540" lon="-96.375687720">
        <ele>2464.100</ele>
        <time>2020-01-21T16:16:42Z</time>
      </trkpt>
      <trkpt lat="17.024955000" lon="-96.375643760">
        <ele>2464.200</ele>
        <time>2020-01-21T16:16:43Z</time>
      </trkpt>
      <trkpt lat="17.024973550" lon="-96.375604680">
        <ele>2464.500</ele>
        <time>2020-01-21T16:16:44Z</time>
      </trkpt>
      <trkpt lat="17.024990800" lon="-96.375565820">
        <ele>2464.800</ele>
        <time>2020-01-21T16:16:45Z</time>
      </trkpt>
      <trkpt lat="17.025041290" lon="-96.375514270">
        <ele>2466.900</ele>
        <time>2020-01-21T16:16:47Z</time>
      </trkpt>
      <trkpt lat="17.025081730" lon="-96.375504670">
        <ele>2467.500</ele>
        <time>2020-01-21T16:16:48Z</time>
      </trkpt>
      <trkpt lat="17.025126450" lon="-96.375503430">
        <ele>2467.700</ele>
        <time>2020-01-21T16:16:49Z</time>
      </trkpt>
      <trkpt lat="17.025186530" lon="-96.375519940">
        <ele>2469.000</ele>
        <time>2020-01-21T16:16:50Z</time>
      </trkpt>
      <trkpt lat="17.025236030" lon="-96.375541350">
        <ele>2470.500</ele>
        <time>2020-01-21T16:16:51Z</time>
      </trkpt>
      <trkpt lat="17.025266350" lon="-96.375562790">
        <ele>2470.800</ele>
        <time>2020-01-21T16:16:52Z</time>
      </trkpt>
      <trkpt lat="17.025307190" lon="-96.375588120">
        <ele>2471.200</ele>
        <time>2020-01-21T16:16:53Z</time>
      </trkpt>
      <trkpt lat="17.025345100" lon="-96.375617410">
        <ele>2472.500</ele>
        <time>2020-01-21T16:16:54Z</time>
      </trkpt>
      <trkpt lat="17.025384160" lon="-96.375647780">
        <ele>2472.300</ele>
        <time>2020-01-21T16:16:55Z</time>
      </trkpt>
      <trkpt lat="17.025423730" lon="-96.375674770">
        <ele>2472.400</ele>
        <time>2020-01-21T16:16:56Z</time>
      </trkpt>
      <trkpt lat="17.025455680" lon="-96.375705720">
        <ele>2471.600</ele>
        <time>2020-01-21T16:16:57Z</time>
      </trkpt>
      <trkpt lat="17.025488100" lon="-96.375734850">
        <ele>2471.600</ele>
        <time>2020-01-21T16:16:58Z</time>
      </trkpt>
      <trkpt lat="17.025521230" lon="-96.375764540">
        <ele>2472.500</ele>
        <time>2020-01-21T16:16:59Z</time>
      </trkpt>
      <trkpt lat="17.025554900" lon="-96.375793400">
        <ele>2473.100</ele>
        <time>2020-01-21T16:17:00Z</time>
      </trkpt>
      <trkpt lat="17.025587150" lon="-96.375818020">
        <ele>2472.500</ele>
        <time>2020-01-21T16:17:01Z</time>
      </trkpt>
      <trkpt lat="17.025615440" lon="-96.375846620">
        <ele>2476.400</ele>
        <time>2020-01-21T16:17:02Z</time>
      </trkpt>
      <trkpt lat="17.025644900" lon="-96.375870270">
        <ele>2477.200</ele>
        <time>2020-01-21T16:17:03Z</time>
      </trkpt>
      <trkpt lat="17.025678280" lon="-96.375893130">
        <ele>2477.700</ele>
        <time>2020-01-21T16:17:04Z</time>
      </trkpt>
      <trkpt lat="17.025712430" lon="-96.375916760">
        <ele>2477.800</ele>
        <time>2020-01-21T16:17:05Z</time>
      </trkpt>
      <trkpt lat="17.025746170" lon="-96.375938520">
        <ele>2478.500</ele>
        <time>2020-01-21T16:17:06Z</time>
      </trkpt>
      <trkpt lat="17.025781480" lon="-96.375961080">
        <ele>2479.000</ele>
        <time>2020-01-21T16:17:07Z</time>
      </trkpt>
      <trkpt lat="17.025816830" lon="-96.375982080">
        <ele>2479.400</ele>
        <time>2020-01-21T16:17:08Z</time>
      </trkpt>
      <trkpt lat="17.025854030" lon="-96.376000930">
        <ele>2479.700</ele>
        <time>2020-01-21T16:17:09Z</time>
      </trkpt>
      <trkpt lat="17.025891120" lon="-96.376015530">
        <ele>2479.100</ele>
        <time>2020-01-21T16:17:10Z</time>
      </trkpt>
      <trkpt lat="17.025930500" lon="-96.376033800">
        <ele>2480.700</ele>
        <time>2020-01-21T16:17:11Z</time>
      </trkpt>
      <trkpt lat="17.025971530" lon="-96.376053170">
        <ele>2481.500</ele>
        <time>2020-01-21T16:17:12Z</time>
      </trkpt>
      <trkpt lat="17.026015550" lon="-96.376071400">
        <ele>2482.000</ele>
        <time>2020-01-21T16:17:13Z</time>
      </trkpt>
      <trkpt lat="17.026061400" lon="-96.376089170">
        <ele>2482.700</ele>
        <time>2020-01-21T16:17:14Z</time>
      </trkpt>
      <trkpt lat="17.026107630" lon="-96.376104510">
        <ele>2483.700</ele>
        <time>2020-01-21T16:17:15Z</time>
      </trkpt>
      <trkpt lat="17.026151600" lon="-96.376117190">
        <ele>2484.300</ele>
        <time>2020-01-21T16:17:16Z</time>
      </trkpt>
      <trkpt lat="17.026195210" lon="-96.376131030">
        <ele>2485.600</ele>
        <time>2020-01-21T16:17:17Z</time>
      </trkpt>
      <trkpt lat="17.026237780" lon="-96.376144430">
        <ele>2485.800</ele>
        <time>2020-01-21T16:17:18Z</time>
      </trkpt>
      <trkpt lat="17.026282400" lon="-96.376152940">
        <ele>2487.100</ele>
        <time>2020-01-21T16:17:19Z</time>
      </trkpt>
      <trkpt lat="17.026326650" lon="-96.376161270">
        <ele>2488.000</ele>
        <time>2020-01-21T16:17:20Z</time>
      </trkpt>
      <trkpt lat="17.026370270" lon="-96.376170720">
        <ele>2488.800</ele>
        <time>2020-01-21T16:17:21Z</time>
      </trkpt>
      <trkpt lat="17.026413230" lon="-96.376183670">
        <ele>2489.800</ele>
        <time>2020-01-21T16:17:22Z</time>
      </trkpt>
      <trkpt lat="17.026456740" lon="-96.376200350">
        <ele>2489.800</ele>
        <time>2020-01-21T16:17:23Z</time>
      </trkpt>
      <trkpt lat="17.026496350" lon="-96.376220760">
        <ele>2490.100</ele>
        <time>2020-01-21T16:17:24Z</time>
      </trkpt>
      <trkpt lat="17.026531890" lon="-96.376243080">
        <ele>2490.300</ele>
        <time>2020-01-21T16:17:25Z</time>
      </trkpt>
      <trkpt lat="17.026561490" lon="-96.376267440">
        <ele>2491.200</ele>
        <time>2020-01-21T16:17:26Z</time>
      </trkpt>
      <trkpt lat="17.026598710" lon="-96.376311280">
        <ele>2492.200</ele>
        <time>2020-01-21T16:17:28Z</time>
      </trkpt>
      <trkpt lat="17.026625440" lon="-96.376342980">
        <ele>2493.400</ele>
        <time>2020-01-21T16:17:30Z</time>
      </trkpt>
      <trkpt lat="17.026650810" lon="-96.376375280">
        <ele>2495.600</ele>
        <time>2020-01-21T16:17:32Z</time>
      </trkpt>
      <trkpt lat="17.026667050" lon="-96.376414520">
        <ele>2495.100</ele>
        <time>2020-01-21T16:17:34Z</time>
      </trkpt>
      <trkpt lat="17.026686930" lon="-96.376456300">
        <ele>2493.400</ele>
        <time>2020-01-21T16:17:36Z</time>
      </trkpt>
      <trkpt lat="17.026677640" lon="-96.376515510">
        <ele>2495.200</ele>
        <time>2020-01-21T16:17:38Z</time>
      </trkpt>
      <trkpt lat="17.026701660" lon="-96.376576090">
        <ele>2493.500</ele>
        <time>2020-01-21T16:17:40Z</time>
      </trkpt>
      <trkpt lat="17.026723110" lon="-96.376637570">
        <ele>2492.700</ele>
        <time>2020-01-21T16:17:42Z</time>
      </trkpt>
      <trkpt lat="17.026735990" lon="-96.376691070">
        <ele>2493.900</ele>
        <time>2020-01-21T16:17:44Z</time>
      </trkpt>
      <trkpt lat="17.026747710" lon="-96.376742810">
        <ele>2494.400</ele>
        <time>2020-01-21T16:17:46Z</time>
      </trkpt>
      <trkpt lat="17.026757330" lon="-96.376802570">
        <ele>2494.300</ele>
        <time>2020-01-21T16:17:48Z</time>
      </trkpt>
      <trkpt lat="17.026769250" lon="-96.376864220">
        <ele>2496.900</ele>
        <time>2020-01-21T16:17:50Z</time>
      </trkpt>
      <trkpt lat="17.026780440" lon="-96.376901990">
        <ele>2497.100</ele>
        <time>2020-01-21T16:17:51Z</time>
      </trkpt>
      <trkpt lat="17.026791960" lon="-96.376945380">
        <ele>2497.500</ele>
        <time>2020-01-21T16:17:52Z</time>
      </trkpt>
      <trkpt lat="17.026799880" lon="-96.376992380">
        <ele>2500.300</ele>
        <time>2020-01-21T16:17:53Z</time>
      </trkpt>
      <trkpt lat="17.026812080" lon="-96.377036330">
        <ele>2499.700</ele>
        <time>2020-01-21T16:17:54Z</time>
      </trkpt>
      <trkpt lat="17.026839650" lon="-96.377077110">
        <ele>2499.700</ele>
        <time>2020-01-21T16:17:55Z</time>
      </trkpt>
      <trkpt lat="17.026854700" lon="-96.377131440">
        <ele>2499.600</ele>
        <time>2020-01-21T16:17:56Z</time>
      </trkpt>
      <trkpt lat="17.026871520" lon="-96.377173860">
        <ele>2500.200</ele>
        <time>2020-01-21T16:17:57Z</time>
      </trkpt>
      <trkpt lat="17.026887000" lon="-96.377211870">
        <ele>2501.300</ele>
        <time>2020-01-21T16:17:58Z</time>
      </trkpt>
      <trkpt lat="17.026900990" lon="-96.377249360">
        <ele>2501.600</ele>
        <time>2020-01-21T16:17:59Z</time>
      </trkpt>
      <trkpt lat="17.026924400" lon="-96.377319260">
        <ele>2503.500</ele>
        <time>2020-01-21T16:18:01Z</time>
      </trkpt>
      <trkpt lat="17.026939850" lon="-96.377357130">
        <ele>2504.100</ele>
        <time>2020-01-21T16:18:02Z</time>
      </trkpt>
      <trkpt lat="17.026953470" lon="-96.377394830">
        <ele>2504.500</ele>
        <time>2020-01-21T16:18:03Z</time>
      </trkpt>
      <trkpt lat="17.026967870" lon="-96.377431470">
        <ele>2504.900</ele>
        <time>2020-01-21T16:18:04Z</time>
      </trkpt>
      <trkpt lat="17.026980610" lon="-96.377469570">
        <ele>2506.000</ele>
        <time>2020-01-21T16:18:05Z</time>
      </trkpt>
      <trkpt lat="17.026995980" lon="-96.377507660">
        <ele>2507.100</ele>
        <time>2020-01-21T16:18:06Z</time>
      </trkpt>
      <trkpt lat="17.027012440" lon="-96.377546440">
        <ele>2507.500</ele>
        <time>2020-01-21T16:18:07Z</time>
      </trkpt>
      <trkpt lat="17.027026730" lon="-96.377586870">
        <ele>2508.200</ele>
        <time>2020-01-21T16:18:08Z</time>
      </trkpt>
      <trkpt lat="17.027040900" lon="-96.377627180">
        <ele>2508.200</ele>
        <time>2020-01-21T16:18:09Z</time>
      </trkpt>
      <trkpt lat="17.027054230" lon="-96.377673270">
        <ele>2509.100</ele>
        <time>2020-01-21T16:18:10Z</time>
      </trkpt>
      <trkpt lat="17.027059340" lon="-96.377720220">
        <ele>2509.600</ele>
        <time>2020-01-21T16:18:11Z</time>
      </trkpt>
      <trkpt lat="17.027058060" lon="-96.377769090">
        <ele>2510.900</ele>
        <time>2020-01-21T16:18:12Z</time>
      </trkpt>
      <trkpt lat="17.027059280" lon="-96.377814350">
        <ele>2511.200</ele>
        <time>2020-01-21T16:18:13Z</time>
      </trkpt>
      <trkpt lat="17.027052720" lon="-96.377858980">
        <ele>2513.400</ele>
        <time>2020-01-21T16:18:14Z</time>
      </trkpt>
      <trkpt lat="17.027068440" lon="-96.377938600">
        <ele>2514.300</ele>
        <time>2020-01-21T16:18:16Z</time>
      </trkpt>
      <trkpt lat="17.027072740" lon="-96.377979100">
        <ele>2444.800</ele>
        <time>2020-01-21T16:18:17Z</time>
      </trkpt>
      <trkpt lat="17.027083690" lon="-96.378016160">
        <ele>2467.800</ele>
        <time>2020-01-21T16:18:18Z</time>
      </trkpt>
      <trkpt lat="17.027100910" lon="-96.378052400">
        <ele>2483.300</ele>
        <time>2020-01-21T16:18:19Z</time>
      </trkpt>
      <trkpt lat="17.027118320" lon="-96.378090200">
        <ele>2495.200</ele>
        <time>2020-01-21T16:18:20Z</time>
      </trkpt>
      <trkpt lat="17.027134770" lon="-96.378126350">
        <ele>2501.500</ele>
        <time>2020-01-21T16:18:21Z</time>
      </trkpt>
      <trkpt lat="17.027153290" lon="-96.378162970">
        <ele>2505.800</ele>
        <time>2020-01-21T16:18:22Z</time>
      </trkpt>
      <trkpt lat="17.027175540" lon="-96.378200020">
        <ele>2509.100</ele>
        <time>2020-01-21T16:18:23Z</time>
      </trkpt>
      <trkpt lat="17.027198650" lon="-96.378240950">
        <ele>2510.100</ele>
        <time>2020-01-21T16:18:24Z</time>
      </trkpt>
      <trkpt lat="17.027222230" lon="-96.378279290">
        <ele>2511.100</ele>
        <time>2020-01-21T16:18:25Z</time>
      </trkpt>
      <trkpt lat="17.027253590" lon="-96.378313730">
        <ele>2512.300</ele>
        <time>2020-01-21T16:18:26Z</time>
      </trkpt>
      <trkpt lat="17.027290410" lon="-96.378345050">
        <ele>2515.500</ele>
        <time>2020-01-21T16:18:27Z</time>
      </trkpt>
      <trkpt lat="17.027325540" lon="-96.378372460">
        <ele>2517.500</ele>
        <time>2020-01-21T16:18:28Z</time>
      </trkpt>
      <trkpt lat="17.027357990" lon="-96.378399910">
        <ele>2518.300</ele>
        <time>2020-01-21T16:18:29Z</time>
      </trkpt>
      <trkpt lat="17.027387620" lon="-96.378427870">
        <ele>2518.900</ele>
        <time>2020-01-21T16:18:30Z</time>
      </trkpt>
      <trkpt lat="17.027418390" lon="-96.378457090">
        <ele>2519.700</ele>
        <time>2020-01-21T16:18:31Z</time>
      </trkpt>
      <trkpt lat="17.027453370" lon="-96.378480180">
        <ele>2520.500</ele>
        <time>2020-01-21T16:18:32Z</time>
      </trkpt>
      <trkpt lat="17.027487800" lon="-96.378495290">
        <ele>2520.400</ele>
        <time>2020-01-21T16:18:33Z</time>
      </trkpt>
      <trkpt lat="17.027527960" lon="-96.378506280">
        <ele>2522.400</ele>
        <time>2020-01-21T16:18:34Z</time>
      </trkpt>
      <trkpt lat="17.027569680" lon="-96.378510020">
        <ele>2523.000</ele>
        <time>2020-01-21T16:18:35Z</time>
      </trkpt>
      <trkpt lat="17.027611400" lon="-96.378509350">
        <ele>2523.500</ele>
        <time>2020-01-21T16:18:36Z</time>
      </trkpt>
      <trkpt lat="17.027666380" lon="-96.378493060">
        <ele>2524.200</ele>
        <time>2020-01-21T16:18:37Z</time>
      </trkpt>
      <trkpt lat="17.027709210" lon="-96.378497660">
        <ele>2525.000</ele>
        <time>2020-01-21T16:18:38Z</time>
      </trkpt>
      <trkpt lat="17.027750050" lon="-96.378495300">
        <ele>2525.200</ele>
        <time>2020-01-21T16:18:39Z</time>
      </trkpt>
      <trkpt lat="17.027803770" lon="-96.378477190">
        <ele>2525.000</ele>
        <time>2020-01-21T16:18:40Z</time>
      </trkpt>
      <trkpt lat="17.027879580" lon="-96.378446700">
        <ele>2527.200</ele>
        <time>2020-01-21T16:18:42Z</time>
      </trkpt>
      <trkpt lat="17.027917300" lon="-96.378434390">
        <ele>2527.800</ele>
        <time>2020-01-21T16:18:43Z</time>
      </trkpt>
      <trkpt lat="17.027956250" lon="-96.378417870">
        <ele>2528.000</ele>
        <time>2020-01-21T16:18:44Z</time>
      </trkpt>
      <trkpt lat="17.027991780" lon="-96.378396990">
        <ele>2529.800</ele>
        <time>2020-01-21T16:18:45Z</time>
      </trkpt>
      <trkpt lat="17.028024990" lon="-96.378371750">
        <ele>2529.900</ele>
        <time>2020-01-21T16:18:46Z</time>
      </trkpt>
      <trkpt lat="17.028050300" lon="-96.378344190">
        <ele>2530.000</ele>
        <time>2020-01-21T16:18:47Z</time>
      </trkpt>
      <trkpt lat="17.028063000" lon="-96.378302780">
        <ele>2530.500</ele>
        <time>2020-01-21T16:18:48Z</time>
      </trkpt>
      <trkpt lat="17.028072060" lon="-96.378258860">
        <ele>2531.800</ele>
        <time>2020-01-21T16:18:49Z</time>
      </trkpt>
      <trkpt lat="17.028077450" lon="-96.378219430">
        <ele>2533.300</ele>
        <time>2020-01-21T16:18:50Z</time>
      </trkpt>
      <trkpt lat="17.028075800" lon="-96.378179630">
        <ele>2533.700</ele>
        <time>2020-01-21T16:18:51Z</time>
      </trkpt>
      <trkpt lat="17.028071480" lon="-96.378140280">
        <ele>2533.900</ele>
        <time>2020-01-21T16:18:52Z</time>
      </trkpt>
      <trkpt lat="17.028067020" lon="-96.378101450">
        <ele>2534.000</ele>
        <time>2020-01-21T16:18:53Z</time>
      </trkpt>
      <trkpt lat="17.028055830" lon="-96.378032090">
        <ele>2535.400</ele>
        <time>2020-01-21T16:18:55Z</time>
      </trkpt>
      <trkpt lat="17.028048610" lon="-96.377994540">
        <ele>2537.100</ele>
        <time>2020-01-21T16:18:56Z</time>
      </trkpt>
      <trkpt lat="17.028040140" lon="-96.377956770">
        <ele>2536.700</ele>
        <time>2020-01-21T16:18:57Z</time>
      </trkpt>
      <trkpt lat="17.028030150" lon="-96.377918570">
        <ele>2537.200</ele>
        <time>2020-01-21T16:18:58Z</time>
      </trkpt>
      <trkpt lat="17.028024510" lon="-96.377878870">
        <ele>2537.500</ele>
        <time>2020-01-21T16:18:59Z</time>
      </trkpt>
      <trkpt lat="17.028016480" lon="-96.377842010">
        <ele>2538.400</ele>
        <time>2020-01-21T16:19:00Z</time>
      </trkpt>
      <trkpt lat="17.028000720" lon="-96.377776000">
        <ele>2538.600</ele>
        <time>2020-01-21T16:19:02Z</time>
      </trkpt>
      <trkpt lat="17.027989620" lon="-96.377708670">
        <ele>2540.400</ele>
        <time>2020-01-21T16:19:04Z</time>
      </trkpt>
      <trkpt lat="17.027986760" lon="-96.377667050">
        <ele>2540.500</ele>
        <time>2020-01-21T16:19:05Z</time>
      </trkpt>
      <trkpt lat="17.027985040" lon="-96.377624750">
        <ele>2541.600</ele>
        <time>2020-01-21T16:19:06Z</time>
      </trkpt>
      <trkpt lat="17.027982860" lon="-96.377579560">
        <ele>2540.900</ele>
        <time>2020-01-21T16:19:07Z</time>
      </trkpt>
      <trkpt lat="17.027982500" lon="-96.377528140">
        <ele>2541.900</ele>
        <time>2020-01-21T16:19:08Z</time>
      </trkpt>
      <trkpt lat="17.027981530" lon="-96.377471950">
        <ele>2542.500</ele>
        <time>2020-01-21T16:19:09Z</time>
      </trkpt>
      <trkpt lat="17.027979300" lon="-96.377420210">
        <ele>2542.700</ele>
        <time>2020-01-21T16:19:10Z</time>
      </trkpt>
      <trkpt lat="17.027971370" lon="-96.377366350">
        <ele>2543.000</ele>
        <time>2020-01-21T16:19:11Z</time>
      </trkpt>
      <trkpt lat="17.027961900" lon="-96.377314020">
        <ele>2543.600</ele>
        <time>2020-01-21T16:19:12Z</time>
      </trkpt>
      <trkpt lat="17.027957470" lon="-96.377259520">
        <ele>2543.700</ele>
        <time>2020-01-21T16:19:13Z</time>
      </trkpt>
      <trkpt lat="17.027953850" lon="-96.377204410">
        <ele>2544.000</ele>
        <time>2020-01-21T16:19:14Z</time>
      </trkpt>
      <trkpt lat="17.027948080" lon="-96.377153370">
        <ele>2544.000</ele>
        <time>2020-01-21T16:19:15Z</time>
      </trkpt>
      <trkpt lat="17.027936770" lon="-96.377099500">
        <ele>2544.100</ele>
        <time>2020-01-21T16:19:16Z</time>
      </trkpt>
      <trkpt lat="17.027935480" lon="-96.377051090">
        <ele>2544.400</ele>
        <time>2020-01-21T16:19:17Z</time>
      </trkpt>
      <trkpt lat="17.027935100" lon="-96.377005400">
        <ele>2544.500</ele>
        <time>2020-01-21T16:19:18Z</time>
      </trkpt>
      <trkpt lat="17.027920020" lon="-96.376953030">
        <ele>2545.700</ele>
        <time>2020-01-21T16:19:19Z</time>
      </trkpt>
      <trkpt lat="17.027909620" lon="-96.376903310">
        <ele>2546.900</ele>
        <time>2020-01-21T16:19:20Z</time>
      </trkpt>
      <trkpt lat="17.027894730" lon="-96.376854100">
        <ele>2547.200</ele>
        <time>2020-01-21T16:19:21Z</time>
      </trkpt>
      <trkpt lat="17.027878830" lon="-96.376810000">
        <ele>2548.400</ele>
        <time>2020-01-21T16:19:22Z</time>
      </trkpt>
      <trkpt lat="17.027864060" lon="-96.376764650">
        <ele>2547.400</ele>
        <time>2020-01-21T16:19:23Z</time>
      </trkpt>
      <trkpt lat="17.027847620" lon="-96.376718450">
        <ele>2546.900</ele>
        <time>2020-01-21T16:19:24Z</time>
      </trkpt>
      <trkpt lat="17.027835360" lon="-96.376678130">
        <ele>2546.200</ele>
        <time>2020-01-21T16:19:25Z</time>
      </trkpt>
      <trkpt lat="17.027825000" lon="-96.376638920">
        <ele>2545.800</ele>
        <time>2020-01-21T16:19:26Z</time>
      </trkpt>
      <trkpt lat="17.027818490" lon="-96.376595730">
        <ele>2545.800</ele>
        <time>2020-01-21T16:19:27Z</time>
      </trkpt>
      <trkpt lat="17.027818840" lon="-96.376549530">
        <ele>2546.100</ele>
        <time>2020-01-21T16:19:28Z</time>
      </trkpt>
      <trkpt lat="17.027823570" lon="-96.376504300">
        <ele>2546.800</ele>
        <time>2020-01-21T16:19:29Z</time>
      </trkpt>
      <trkpt lat="17.027837280" lon="-96.376454410">
        <ele>2548.000</ele>
        <time>2020-01-21T16:19:30Z</time>
      </trkpt>
      <trkpt lat="17.027850970" lon="-96.376403850">
        <ele>2548.600</ele>
        <time>2020-01-21T16:19:31Z</time>
      </trkpt>
      <trkpt lat="17.027869890" lon="-96.376355650">
        <ele>2548.900</ele>
        <time>2020-01-21T16:19:32Z</time>
      </trkpt>
      <trkpt lat="17.027892160" lon="-96.376306690">
        <ele>2549.600</ele>
        <time>2020-01-21T16:19:33Z</time>
      </trkpt>
      <trkpt lat="17.027911730" lon="-96.376267280">
        <ele>2550.300</ele>
        <time>2020-01-21T16:19:34Z</time>
      </trkpt>
      <trkpt lat="17.027937360" lon="-96.376228930">
        <ele>2550.800</ele>
        <time>2020-01-21T16:19:35Z</time>
      </trkpt>
      <trkpt lat="17.027965880" lon="-96.376189890">
        <ele>2551.200</ele>
        <time>2020-01-21T16:19:36Z</time>
      </trkpt>
      <trkpt lat="17.028000720" lon="-96.376156010">
        <ele>2551.800</ele>
        <time>2020-01-21T16:19:37Z</time>
      </trkpt>
      <trkpt lat="17.028035740" lon="-96.376119270">
        <ele>2552.200</ele>
        <time>2020-01-21T16:19:38Z</time>
      </trkpt>
      <trkpt lat="17.028073010" lon="-96.376086800">
        <ele>2552.100</ele>
        <time>2020-01-21T16:19:39Z</time>
      </trkpt>
      <trkpt lat="17.028121010" lon="-96.376058400">
        <ele>2552.700</ele>
        <time>2020-01-21T16:19:40Z</time>
      </trkpt>
      <trkpt lat="17.028175030" lon="-96.376035850">
        <ele>2553.300</ele>
        <time>2020-01-21T16:19:41Z</time>
      </trkpt>
      <trkpt lat="17.028226380" lon="-96.376023060">
        <ele>2553.500</ele>
        <time>2020-01-21T16:19:42Z</time>
      </trkpt>
      <trkpt lat="17.028276000" lon="-96.376017100">
        <ele>2554.100</ele>
        <time>2020-01-21T16:19:43Z</time>
      </trkpt>
      <trkpt lat="17.028337870" lon="-96.376010060">
        <ele>2554.300</ele>
        <time>2020-01-21T16:19:44Z</time>
      </trkpt>
      <trkpt lat="17.028397360" lon="-96.376008020">
        <ele>2554.200</ele>
        <time>2020-01-21T16:19:45Z</time>
      </trkpt>
      <trkpt lat="17.028438430" lon="-96.376009810">
        <ele>2554.400</ele>
        <time>2020-01-21T16:19:46Z</time>
      </trkpt>
      <trkpt lat="17.028485980" lon="-96.376004590">
        <ele>2554.700</ele>
        <time>2020-01-21T16:19:47Z</time>
      </trkpt>
      <trkpt lat="17.028547390" lon="-96.375998000">
        <ele>2555.100</ele>
        <time>2020-01-21T16:19:49Z</time>
      </trkpt>
      <trkpt lat="17.028588140" lon="-96.375998870">
        <ele>2555.300</ele>
        <time>2020-01-21T16:19:51Z</time>
      </trkpt>
      <trkpt lat="17.028624790" lon="-96.375992000">
        <ele>2554.100</ele>
        <time>2020-01-21T16:19:56Z</time>
      </trkpt>
      <trkpt lat="17.028657270" lon="-96.375971030">
        <ele>2553.000</ele>
        <time>2020-01-21T16:20:07Z</time>
      </trkpt>
      <trkpt lat="17.028696430" lon="-96.375943720">
        <ele>2553.700</ele>
        <time>2020-01-21T16:20:09Z</time>
      </trkpt>
      <trkpt lat="17.028743510" lon="-96.375879030">
        <ele>2554.000</ele>
        <time>2020-01-21T16:20:11Z</time>
      </trkpt>
      <trkpt lat="17.028760410" lon="-96.375837570">
        <ele>2553.900</ele>
        <time>2020-01-21T16:20:12Z</time>
      </trkpt>
      <trkpt lat="17.028728510" lon="-96.375760660">
        <ele>2554.200</ele>
        <time>2020-01-21T16:20:13Z</time>
      </trkpt>
      <trkpt lat="17.028722930" lon="-96.375709760">
        <ele>2553.600</ele>
        <time>2020-01-21T16:20:14Z</time>
      </trkpt>
      <trkpt lat="17.028720440" lon="-96.375658180">
        <ele>2553.900</ele>
        <time>2020-01-21T16:20:15Z</time>
      </trkpt>
      <trkpt lat="17.028716400" lon="-96.375609120">
        <ele>2554.700</ele>
        <time>2020-01-21T16:20:16Z</time>
      </trkpt>
      <trkpt lat="17.028705130" lon="-96.375561870">
        <ele>2555.200</ele>
        <time>2020-01-21T16:20:17Z</time>
      </trkpt>
      <trkpt lat="17.028703480" lon="-96.375509220">
        <ele>2555.700</ele>
        <time>2020-01-21T16:20:18Z</time>
      </trkpt>
      <trkpt lat="17.028716090" lon="-96.375464070">
        <ele>2556.100</ele>
        <time>2020-01-21T16:20:19Z</time>
      </trkpt>
      <trkpt lat="17.028729400" lon="-96.375427200">
        <ele>2555.500</ele>
        <time>2020-01-21T16:20:20Z</time>
      </trkpt>
      <trkpt lat="17.028751570" lon="-96.375390290">
        <ele>2555.100</ele>
        <time>2020-01-21T16:20:21Z</time>
      </trkpt>
      <trkpt lat="17.028787190" lon="-96.375361670">
        <ele>2554.800</ele>
        <time>2020-01-21T16:20:22Z</time>
      </trkpt>
      <trkpt lat="17.028828660" lon="-96.375338130">
        <ele>2554.700</ele>
        <time>2020-01-21T16:20:23Z</time>
      </trkpt>
      <trkpt lat="17.028873670" lon="-96.375321090">
        <ele>2554.500</ele>
        <time>2020-01-21T16:20:24Z</time>
      </trkpt>
      <trkpt lat="17.028918230" lon="-96.375301980">
        <ele>2553.600</ele>
        <time>2020-01-21T16:20:25Z</time>
      </trkpt>
      <trkpt lat="17.028963680" lon="-96.375285820">
        <ele>2553.200</ele>
        <time>2020-01-21T16:20:26Z</time>
      </trkpt>
      <trkpt lat="17.029008550" lon="-96.375261910">
        <ele>2553.500</ele>
        <time>2020-01-21T16:20:27Z</time>
      </trkpt>
      <trkpt lat="17.029044550" lon="-96.375227290">
        <ele>2553.300</ele>
        <time>2020-01-21T16:20:28Z</time>
      </trkpt>
      <trkpt lat="17.029078640" lon="-96.375180460">
        <ele>2553.000</ele>
        <time>2020-01-21T16:20:29Z</time>
      </trkpt>
      <trkpt lat="17.029096760" lon="-96.375133730">
        <ele>2553.600</ele>
        <time>2020-01-21T16:20:30Z</time>
      </trkpt>
      <trkpt lat="17.029116960" lon="-96.375082660">
        <ele>2553.400</ele>
        <time>2020-01-21T16:20:31Z</time>
      </trkpt>
      <trkpt lat="17.029139850" lon="-96.375033770">
        <ele>2553.500</ele>
        <time>2020-01-21T16:20:32Z</time>
      </trkpt>
      <trkpt lat="17.029160090" lon="-96.374982700">
        <ele>2553.200</ele>
        <time>2020-01-21T16:20:33Z</time>
      </trkpt>
      <trkpt lat="17.029184670" lon="-96.374936920">
        <ele>2553.200</ele>
        <time>2020-01-21T16:20:34Z</time>
      </trkpt>
      <trkpt lat="17.029214420" lon="-96.374888860">
        <ele>2553.100</ele>
        <time>2020-01-21T16:20:35Z</time>
      </trkpt>
      <trkpt lat="17.029248000" lon="-96.374841550">
        <ele>2552.800</ele>
        <time>2020-01-21T16:20:36Z</time>
      </trkpt>
      <trkpt lat="17.029276410" lon="-96.374795920">
        <ele>2552.900</ele>
        <time>2020-01-21T16:20:37Z</time>
      </trkpt>
      <trkpt lat="17.029305690" lon="-96.374750280">
        <ele>2552.500</ele>
        <time>2020-01-21T16:20:38Z</time>
      </trkpt>
      <trkpt lat="17.029330290" lon="-96.374699580">
        <ele>2552.500</ele>
        <time>2020-01-21T16:20:39Z</time>
      </trkpt>
      <trkpt lat="17.029354340" lon="-96.374652130">
        <ele>2552.400</ele>
        <time>2020-01-21T16:20:40Z</time>
      </trkpt>
      <trkpt lat="17.029384160" lon="-96.374612470">
        <ele>2552.500</ele>
        <time>2020-01-21T16:20:41Z</time>
      </trkpt>
      <trkpt lat="17.029407710" lon="-96.374566060">
        <ele>2552.400</ele>
        <time>2020-01-21T16:20:42Z</time>
      </trkpt>
      <trkpt lat="17.029425450" lon="-96.374519920">
        <ele>2551.900</ele>
        <time>2020-01-21T16:20:43Z</time>
      </trkpt>
      <trkpt lat="17.029442690" lon="-96.374475060">
        <ele>2550.400</ele>
        <time>2020-01-21T16:20:44Z</time>
      </trkpt>
      <trkpt lat="17.029464880" lon="-96.374427960">
        <ele>2550.000</ele>
        <time>2020-01-21T16:20:45Z</time>
      </trkpt>
      <trkpt lat="17.029494340" lon="-96.374389840">
        <ele>2551.000</ele>
        <time>2020-01-21T16:20:46Z</time>
      </trkpt>
      <trkpt lat="17.029526940" lon="-96.374345800">
        <ele>2550.800</ele>
        <time>2020-01-21T16:20:47Z</time>
      </trkpt>
      <trkpt lat="17.029563300" lon="-96.374309620">
        <ele>2550.700</ele>
        <time>2020-01-21T16:20:48Z</time>
      </trkpt>
      <trkpt lat="17.029601170" lon="-96.374253630">
        <ele>2550.800</ele>
        <time>2020-01-21T16:20:49Z</time>
      </trkpt>
      <trkpt lat="17.029649410" lon="-96.374208910">
        <ele>2551.400</ele>
        <time>2020-01-21T16:20:50Z</time>
      </trkpt>
      <trkpt lat="17.029682770" lon="-96.374161810">
        <ele>2550.600</ele>
        <time>2020-01-21T16:20:51Z</time>
      </trkpt>
      <trkpt lat="17.029710510" lon="-96.374111850">
        <ele>2550.500</ele>
        <time>2020-01-21T16:20:52Z</time>
      </trkpt>
      <trkpt lat="17.029739040" lon="-96.374062260">
        <ele>2549.600</ele>
        <time>2020-01-21T16:20:53Z</time>
      </trkpt>
      <trkpt lat="17.029759150" lon="-96.374008810">
        <ele>2549.000</ele>
        <time>2020-01-21T16:20:54Z</time>
      </trkpt>
      <trkpt lat="17.029776490" lon="-96.373954190">
        <ele>2548.500</ele>
        <time>2020-01-21T16:20:55Z</time>
      </trkpt>
      <trkpt lat="17.029785380" lon="-96.373897890">
        <ele>2547.800</ele>
        <time>2020-01-21T16:20:56Z</time>
      </trkpt>
      <trkpt lat="17.029808810" lon="-96.373846380">
        <ele>2547.100</ele>
        <time>2020-01-21T16:20:57Z</time>
      </trkpt>
      <trkpt lat="17.029813350" lon="-96.373792160">
        <ele>2546.900</ele>
        <time>2020-01-21T16:20:58Z</time>
      </trkpt>
      <trkpt lat="17.029827590" lon="-96.373750590">
        <ele>2546.700</ele>
        <time>2020-01-21T16:20:59Z</time>
      </trkpt>
      <trkpt lat="17.029833080" lon="-96.373705040">
        <ele>2545.900</ele>
        <time>2020-01-21T16:21:00Z</time>
      </trkpt>
      <trkpt lat="17.029835570" lon="-96.373649400">
        <ele>2546.900</ele>
        <time>2020-01-21T16:21:01Z</time>
      </trkpt>
      <trkpt lat="17.029828540" lon="-96.373606680">
        <ele>2546.700</ele>
        <time>2020-01-21T16:21:02Z</time>
      </trkpt>
      <trkpt lat="17.029829600" lon="-96.373558360">
        <ele>2546.700</ele>
        <time>2020-01-21T16:21:03Z</time>
      </trkpt>
      <trkpt lat="17.029809340" lon="-96.373513560">
        <ele>2546.600</ele>
        <time>2020-01-21T16:21:04Z</time>
      </trkpt>
      <trkpt lat="17.029796280" lon="-96.373476140">
        <ele>2546.800</ele>
        <time>2020-01-21T16:21:05Z</time>
      </trkpt>
      <trkpt lat="17.029777480" lon="-96.373425010">
        <ele>2546.600</ele>
        <time>2020-01-21T16:21:06Z</time>
      </trkpt>
      <trkpt lat="17.029764730" lon="-96.373381470">
        <ele>2546.600</ele>
        <time>2020-01-21T16:21:07Z</time>
      </trkpt>
      <trkpt lat="17.029764730" lon="-96.373336800">
        <ele>2547.400</ele>
        <time>2020-01-21T16:21:08Z</time>
      </trkpt>
      <trkpt lat="17.029763660" lon="-96.373291600">
        <ele>2548.200</ele>
        <time>2020-01-21T16:21:09Z</time>
      </trkpt>
      <trkpt lat="17.029774190" lon="-96.373251340">
        <ele>2548.300</ele>
        <time>2020-01-21T16:21:10Z</time>
      </trkpt>
      <trkpt lat="17.029831180" lon="-96.373188400">
        <ele>2549.200</ele>
        <time>2020-01-21T16:21:12Z</time>
      </trkpt>
      <trkpt lat="17.029873690" lon="-96.373175490">
        <ele>2549.600</ele>
        <time>2020-01-21T16:21:13Z</time>
      </trkpt>
      <trkpt lat="17.029914770" lon="-96.373151510">
        <ele>2550.400</ele>
        <time>2020-01-21T16:21:14Z</time>
      </trkpt>
      <trkpt lat="17.029963800" lon="-96.373107550">
        <ele>2550.400</ele>
        <time>2020-01-21T16:21:16Z</time>
      </trkpt>
      <trkpt lat="17.030004310" lon="-96.373080170">
        <ele>2552.600</ele>
        <time>2020-01-21T16:21:18Z</time>
      </trkpt>
      <trkpt lat="17.030046370" lon="-96.373038120">
        <ele>2553.700</ele>
        <time>2020-01-21T16:21:20Z</time>
      </trkpt>
      <trkpt lat="17.030092580" lon="-96.372983010">
        <ele>2551.900</ele>
        <time>2020-01-21T16:21:22Z</time>
      </trkpt>
      <trkpt lat="17.030122570" lon="-96.372942010">
        <ele>2551.700</ele>
        <time>2020-01-21T16:21:23Z</time>
      </trkpt>
      <trkpt lat="17.030153080" lon="-96.372905490">
        <ele>2552.800</ele>
        <time>2020-01-21T16:21:24Z</time>
      </trkpt>
      <trkpt lat="17.030179510" lon="-96.372866120">
        <ele>2552.800</ele>
        <time>2020-01-21T16:21:25Z</time>
      </trkpt>
      <trkpt lat="17.030207630" lon="-96.372830310">
        <ele>2552.700</ele>
        <time>2020-01-21T16:21:26Z</time>
      </trkpt>
      <trkpt lat="17.030233210" lon="-96.372797270">
        <ele>2552.900</ele>
        <time>2020-01-21T16:21:27Z</time>
      </trkpt>
      <trkpt lat="17.030254940" lon="-96.372761610">
        <ele>2553.600</ele>
        <time>2020-01-21T16:21:28Z</time>
      </trkpt>
      <trkpt lat="17.030283520" lon="-96.372723680">
        <ele>2553.800</ele>
        <time>2020-01-21T16:21:29Z</time>
      </trkpt>
      <trkpt lat="17.030307250" lon="-96.372690060">
        <ele>2553.900</ele>
        <time>2020-01-21T16:21:30Z</time>
      </trkpt>
      <trkpt lat="17.030333180" lon="-96.372657110">
        <ele>2554.300</ele>
        <time>2020-01-21T16:21:31Z</time>
      </trkpt>
      <trkpt lat="17.030359650" lon="-96.372627190">
        <ele>2555.400</ele>
        <time>2020-01-21T16:21:32Z</time>
      </trkpt>
      <trkpt lat="17.030379330" lon="-96.372594560">
        <ele>2556.200</ele>
        <time>2020-01-21T16:21:33Z</time>
      </trkpt>
      <trkpt lat="17.030415840" lon="-96.372540090">
        <ele>2555.900</ele>
        <time>2020-01-21T16:21:35Z</time>
      </trkpt>
      <trkpt lat="17.030450720" lon="-96.372488360">
        <ele>2558.400</ele>
        <time>2020-01-21T16:21:37Z</time>
      </trkpt>
      <trkpt lat="17.030501500" lon="-96.372438180">
        <ele>2559.300</ele>
        <time>2020-01-21T16:21:39Z</time>
      </trkpt>
      <trkpt lat="17.030545630" lon="-96.372397910">
        <ele>2559.400</ele>
        <time>2020-01-21T16:21:41Z</time>
      </trkpt>
      <trkpt lat="17.030594860" lon="-96.372339090">
        <ele>2559.400</ele>
        <time>2020-01-21T16:21:43Z</time>
      </trkpt>
      <trkpt lat="17.030611010" lon="-96.372304780">
        <ele>2560.100</ele>
        <time>2020-01-21T16:21:44Z</time>
      </trkpt>
      <trkpt lat="17.030619840" lon="-96.372262990">
        <ele>2560.700</ele>
        <time>2020-01-21T16:21:45Z</time>
      </trkpt>
      <trkpt lat="17.030625630" lon="-96.372218740">
        <ele>2561.800</ele>
        <time>2020-01-21T16:21:46Z</time>
      </trkpt>
      <trkpt lat="17.030631590" lon="-96.372164490">
        <ele>2562.600</ele>
        <time>2020-01-21T16:21:47Z</time>
      </trkpt>
      <trkpt lat="17.030637670" lon="-96.372116740">
        <ele>2561.600</ele>
        <time>2020-01-21T16:21:48Z</time>
      </trkpt>
      <trkpt lat="17.030658350" lon="-96.372070300">
        <ele>2562.000</ele>
        <time>2020-01-21T16:21:49Z</time>
      </trkpt>
      <trkpt lat="17.030675190" lon="-96.371996370">
        <ele>2564.100</ele>
        <time>2020-01-21T16:21:51Z</time>
      </trkpt>
      <trkpt lat="17.030688980" lon="-96.371929260">
        <ele>2564.100</ele>
        <time>2020-01-21T16:21:53Z</time>
      </trkpt>
      <trkpt lat="17.030698240" lon="-96.371890810">
        <ele>2563.700</ele>
        <time>2020-01-21T16:21:54Z</time>
      </trkpt>
      <trkpt lat="17.030719870" lon="-96.371842560">
        <ele>2563.100</ele>
        <time>2020-01-21T16:21:55Z</time>
      </trkpt>
      <trkpt lat="17.030729890" lon="-96.371796800">
        <ele>2420.500</ele>
        <time>2020-01-21T16:21:56Z</time>
      </trkpt>
      <trkpt lat="17.030749870" lon="-96.371745220">
        <ele>2458.900</ele>
        <time>2020-01-21T16:21:57Z</time>
      </trkpt>
      <trkpt lat="17.030754870" lon="-96.371701150">
        <ele>2488.900</ele>
        <time>2020-01-21T16:21:58Z</time>
      </trkpt>
      <trkpt lat="17.030772200" lon="-96.371660170">
        <ele>2500.100</ele>
        <time>2020-01-21T16:21:59Z</time>
      </trkpt>
      <trkpt lat="17.030782960" lon="-96.371619530">
        <ele>2509.800</ele>
        <time>2020-01-21T16:22:00Z</time>
      </trkpt>
      <trkpt lat="17.030802250" lon="-96.371550480">
        <ele>2516.700</ele>
        <time>2020-01-21T16:22:01Z</time>
      </trkpt>
      <trkpt lat="17.030815180" lon="-96.371495240">
        <ele>2526.700</ele>
        <time>2020-01-21T16:22:02Z</time>
      </trkpt>
      <trkpt lat="17.030854080" lon="-96.371441340">
        <ele>2537.200</ele>
        <time>2020-01-21T16:22:03Z</time>
      </trkpt>
      <trkpt lat="17.030863620" lon="-96.371377950">
        <ele>2543.200</ele>
        <time>2020-01-21T16:22:04Z</time>
      </trkpt>
      <trkpt lat="17.030876710" lon="-96.371316090">
        <ele>2547.600</ele>
        <time>2020-01-21T16:22:05Z</time>
      </trkpt>
      <trkpt lat="17.030886350" lon="-96.371256930">
        <ele>2551.300</ele>
        <time>2020-01-21T16:22:06Z</time>
      </trkpt>
      <trkpt lat="17.030903080" lon="-96.371206400">
        <ele>2555.200</ele>
        <time>2020-01-21T16:22:07Z</time>
      </trkpt>
      <trkpt lat="17.030914310" lon="-96.371151670">
        <ele>2557.900</ele>
        <time>2020-01-21T16:22:08Z</time>
      </trkpt>
      <trkpt lat="17.030932860" lon="-96.371102430">
        <ele>2560.600</ele>
        <time>2020-01-21T16:22:09Z</time>
      </trkpt>
      <trkpt lat="17.030947410" lon="-96.371044910">
        <ele>2562.700</ele>
        <time>2020-01-21T16:22:10Z</time>
      </trkpt>
      <trkpt lat="17.030962490" lon="-96.370996910">
        <ele>2563.500</ele>
        <time>2020-01-21T16:22:11Z</time>
      </trkpt>
      <trkpt lat="17.030980970" lon="-96.370950480">
        <ele>2564.900</ele>
        <time>2020-01-21T16:22:12Z</time>
      </trkpt>
      <trkpt lat="17.030994060" lon="-96.370902240">
        <ele>2565.200</ele>
        <time>2020-01-21T16:22:13Z</time>
      </trkpt>
      <trkpt lat="17.031004710" lon="-96.370855800">
        <ele>2565.400</ele>
        <time>2020-01-21T16:22:14Z</time>
      </trkpt>
      <trkpt lat="17.031018400" lon="-96.370807560">
        <ele>2567.300</ele>
        <time>2020-01-21T16:22:15Z</time>
      </trkpt>
      <trkpt lat="17.031030130" lon="-96.370760070">
        <ele>2567.500</ele>
        <time>2020-01-21T16:22:16Z</time>
      </trkpt>
      <trkpt lat="17.031044090" lon="-96.370710890">
        <ele>2567.900</ele>
        <time>2020-01-21T16:22:17Z</time>
      </trkpt>
      <trkpt lat="17.031061860" lon="-96.370659030">
        <ele>2569.000</ele>
        <time>2020-01-21T16:22:18Z</time>
      </trkpt>
      <trkpt lat="17.031077620" lon="-96.370602660">
        <ele>2569.400</ele>
        <time>2020-01-21T16:22:19Z</time>
      </trkpt>
      <trkpt lat="17.031092910" lon="-96.370553150">
        <ele>2569.600</ele>
        <time>2020-01-21T16:22:20Z</time>
      </trkpt>
      <trkpt lat="17.031107210" lon="-96.370501410">
        <ele>2568.900</ele>
        <time>2020-01-21T16:22:21Z</time>
      </trkpt>
      <trkpt lat="17.031123200" lon="-96.370447620">
        <ele>2569.100</ele>
        <time>2020-01-21T16:22:22Z</time>
      </trkpt>
      <trkpt lat="17.031138930" lon="-96.370393670">
        <ele>2568.700</ele>
        <time>2020-01-21T16:22:23Z</time>
      </trkpt>
      <trkpt lat="17.031156350" lon="-96.370341360">
        <ele>2568.800</ele>
        <time>2020-01-21T16:22:24Z</time>
      </trkpt>
      <trkpt lat="17.031172980" lon="-96.370285710">
        <ele>2568.700</ele>
        <time>2020-01-21T16:22:25Z</time>
      </trkpt>
      <trkpt lat="17.031185950" lon="-96.370233030">
        <ele>2569.300</ele>
        <time>2020-01-21T16:22:26Z</time>
      </trkpt>
      <trkpt lat="17.031206010" lon="-96.370173840">
        <ele>2569.000</ele>
        <time>2020-01-21T16:22:27Z</time>
      </trkpt>
      <trkpt lat="17.031221670" lon="-96.370116040">
        <ele>2569.100</ele>
        <time>2020-01-21T16:22:28Z</time>
      </trkpt>
      <trkpt lat="17.031239350" lon="-96.370059830">
        <ele>2569.100</ele>
        <time>2020-01-21T16:22:29Z</time>
      </trkpt>
      <trkpt lat="17.031258810" lon="-96.370001890">
        <ele>2569.800</ele>
        <time>2020-01-21T16:22:30Z</time>
      </trkpt>
      <trkpt lat="17.031273310" lon="-96.369945260">
        <ele>2569.500</ele>
        <time>2020-01-21T16:22:31Z</time>
      </trkpt>
      <trkpt lat="17.031286050" lon="-96.369887910">
        <ele>2569.400</ele>
        <time>2020-01-21T16:22:32Z</time>
      </trkpt>
      <trkpt lat="17.031296410" lon="-96.369840040">
        <ele>2569.300</ele>
        <time>2020-01-21T16:22:33Z</time>
      </trkpt>
      <trkpt lat="17.031303810" lon="-96.369797550">
        <ele>2569.200</ele>
        <time>2020-01-21T16:22:34Z</time>
      </trkpt>
      <trkpt lat="17.031312570" lon="-96.369759960">
        <ele>2569.500</ele>
        <time>2020-01-21T16:22:35Z</time>
      </trkpt>
      <trkpt lat="17.031323180" lon="-96.369722830">
        <ele>2569.300</ele>
        <time>2020-01-21T16:22:36Z</time>
      </trkpt>
      <trkpt lat="17.031334370" lon="-96.369684240">
        <ele>2569.700</ele>
        <time>2020-01-21T16:22:37Z</time>
      </trkpt>
      <trkpt lat="17.031350750" lon="-96.369644470">
        <ele>2569.800</ele>
        <time>2020-01-21T16:22:38Z</time>
      </trkpt>
      <trkpt lat="17.031365040" lon="-96.369596700">
        <ele>2569.800</ele>
        <time>2020-01-21T16:22:39Z</time>
      </trkpt>
      <trkpt lat="17.031379000" lon="-96.369545910">
        <ele>2570.000</ele>
        <time>2020-01-21T16:22:40Z</time>
      </trkpt>
      <trkpt lat="17.031391760" lon="-96.369494410">
        <ele>2570.000</ele>
        <time>2020-01-21T16:22:41Z</time>
      </trkpt>
      <trkpt lat="17.031398540" lon="-96.369432530">
        <ele>2569.500</ele>
        <time>2020-01-21T16:22:42Z</time>
      </trkpt>
      <trkpt lat="17.031407700" lon="-96.369371980">
        <ele>2569.700</ele>
        <time>2020-01-21T16:22:43Z</time>
      </trkpt>
      <trkpt lat="17.031413330" lon="-96.369308110">
        <ele>2569.900</ele>
        <time>2020-01-21T16:22:44Z</time>
      </trkpt>
      <trkpt lat="17.031425450" lon="-96.369239880">
        <ele>2569.200</ele>
        <time>2020-01-21T16:22:45Z</time>
      </trkpt>
      <trkpt lat="17.031436690" lon="-96.369180670">
        <ele>2569.400</ele>
        <time>2020-01-21T16:22:46Z</time>
      </trkpt>
      <trkpt lat="17.031454660" lon="-96.369123870">
        <ele>2470.800</ele>
        <time>2020-01-21T16:22:47Z</time>
      </trkpt>
      <trkpt lat="17.031465920" lon="-96.369079550">
        <ele>2503.100</ele>
        <time>2020-01-21T16:22:48Z</time>
      </trkpt>
      <trkpt lat="17.031479760" lon="-96.369024730">
        <ele>2518.000</ele>
        <time>2020-01-21T16:22:49Z</time>
      </trkpt>
      <trkpt lat="17.031497140" lon="-96.368973750">
        <ele>2527.500</ele>
        <time>2020-01-21T16:22:50Z</time>
      </trkpt>
      <trkpt lat="17.031516420" lon="-96.368926200">
        <ele>2531.600</ele>
        <time>2020-01-21T16:22:51Z</time>
      </trkpt>
      <trkpt lat="17.031533870" lon="-96.368878740">
        <ele>2533.400</ele>
        <time>2020-01-21T16:22:52Z</time>
      </trkpt>
      <trkpt lat="17.031549860" lon="-96.368840760">
        <ele>2538.000</ele>
        <time>2020-01-21T16:22:53Z</time>
      </trkpt>
      <trkpt lat="17.031568850" lon="-96.368802000">
        <ele>2540.800</ele>
        <time>2020-01-21T16:22:54Z</time>
      </trkpt>
      <trkpt lat="17.031598400" lon="-96.368770670">
        <ele>2543.600</ele>
        <time>2020-01-21T16:22:55Z</time>
      </trkpt>
      <trkpt lat="17.031628790" lon="-96.368740470">
        <ele>2550.500</ele>
        <time>2020-01-21T16:22:56Z</time>
      </trkpt>
      <trkpt lat="17.031661940" lon="-96.368712050">
        <ele>2556.500</ele>
        <time>2020-01-21T16:22:57Z</time>
      </trkpt>
      <trkpt lat="17.031697970" lon="-96.368683580">
        <ele>2559.800</ele>
        <time>2020-01-21T16:22:58Z</time>
      </trkpt>
      <trkpt lat="17.031726990" lon="-96.368640180">
        <ele>2561.000</ele>
        <time>2020-01-21T16:22:59Z</time>
      </trkpt>
      <trkpt lat="17.031761090" lon="-96.368614400">
        <ele>2561.900</ele>
        <time>2020-01-21T16:23:00Z</time>
      </trkpt>
      <trkpt lat="17.031798530" lon="-96.368594960">
        <ele>2562.800</ele>
        <time>2020-01-21T16:23:01Z</time>
      </trkpt>
      <trkpt lat="17.031840710" lon="-96.368561620">
        <ele>2564.500</ele>
        <time>2020-01-21T16:23:02Z</time>
      </trkpt>
      <trkpt lat="17.031875620" lon="-96.368538860">
        <ele>2565.200</ele>
        <time>2020-01-21T16:23:03Z</time>
      </trkpt>
      <trkpt lat="17.031915560" lon="-96.368515460">
        <ele>2566.100</ele>
        <time>2020-01-21T16:23:04Z</time>
      </trkpt>
      <trkpt lat="17.031986030" lon="-96.368482740">
        <ele>2566.900</ele>
        <time>2020-01-21T16:23:06Z</time>
      </trkpt>
      <trkpt lat="17.032045940" lon="-96.368445090">
        <ele>2566.300</ele>
        <time>2020-01-21T16:23:08Z</time>
      </trkpt>
      <trkpt lat="17.032078440" lon="-96.368419110">
        <ele>2567.800</ele>
        <time>2020-01-21T16:23:09Z</time>
      </trkpt>
      <trkpt lat="17.032104480" lon="-96.368381360">
        <ele>2571.500</ele>
        <time>2020-01-21T16:23:10Z</time>
      </trkpt>
      <trkpt lat="17.032131860" lon="-96.368317740">
        <ele>2570.800</ele>
        <time>2020-01-21T16:23:12Z</time>
      </trkpt>
      <trkpt lat="17.032138530" lon="-96.368267440">
        <ele>2570.900</ele>
        <time>2020-01-21T16:23:13Z</time>
      </trkpt>
      <trkpt lat="17.032141640" lon="-96.368195790">
        <ele>2571.800</ele>
        <time>2020-01-21T16:23:15Z</time>
      </trkpt>
      <trkpt lat="17.032136600" lon="-96.368121040">
        <ele>2572.700</ele>
        <time>2020-01-21T16:23:17Z</time>
      </trkpt>
      <trkpt lat="17.032126840" lon="-96.368078500">
        <ele>2571.700</ele>
        <time>2020-01-21T16:23:18Z</time>
      </trkpt>
      <trkpt lat="17.032110210" lon="-96.368033000">
        <ele>2572.600</ele>
        <time>2020-01-21T16:23:19Z</time>
      </trkpt>
      <trkpt lat="17.032090840" lon="-96.367983680">
        <ele>2572.800</ele>
        <time>2020-01-21T16:23:20Z</time>
      </trkpt>
      <trkpt lat="17.032068090" lon="-96.367933820">
        <ele>2572.200</ele>
        <time>2020-01-21T16:23:21Z</time>
      </trkpt>
      <trkpt lat="17.032039200" lon="-96.367887100">
        <ele>2571.900</ele>
        <time>2020-01-21T16:23:22Z</time>
      </trkpt>
      <trkpt lat="17.032014360" lon="-96.367836180">
        <ele>2572.400</ele>
        <time>2020-01-21T16:23:23Z</time>
      </trkpt>
      <trkpt lat="17.031992530" lon="-96.367788880">
        <ele>2572.800</ele>
        <time>2020-01-21T16:23:24Z</time>
      </trkpt>
      <trkpt lat="17.031974520" lon="-96.367730830">
        <ele>2572.400</ele>
        <time>2020-01-21T16:23:25Z</time>
      </trkpt>
      <trkpt lat="17.031953760" lon="-96.367677420">
        <ele>2572.300</ele>
        <time>2020-01-21T16:23:26Z</time>
      </trkpt>
      <trkpt lat="17.031932890" lon="-96.367622100">
        <ele>2572.500</ele>
        <time>2020-01-21T16:23:27Z</time>
      </trkpt>
      <trkpt lat="17.031909190" lon="-96.367569190">
        <ele>2572.700</ele>
        <time>2020-01-21T16:23:28Z</time>
      </trkpt>
      <trkpt lat="17.031881190" lon="-96.367518190">
        <ele>2572.600</ele>
        <time>2020-01-21T16:23:29Z</time>
      </trkpt>
      <trkpt lat="17.031847280" lon="-96.367471520">
        <ele>2573.400</ele>
        <time>2020-01-21T16:23:30Z</time>
      </trkpt>
      <trkpt lat="17.031811940" lon="-96.367434610">
        <ele>2572.100</ele>
        <time>2020-01-21T16:23:31Z</time>
      </trkpt>
      <trkpt lat="17.031773940" lon="-96.367401600">
        <ele>2572.500</ele>
        <time>2020-01-21T16:23:32Z</time>
      </trkpt>
      <trkpt lat="17.031729680" lon="-96.367375160">
        <ele>2572.800</ele>
        <time>2020-01-21T16:23:33Z</time>
      </trkpt>
      <trkpt lat="17.031680090" lon="-96.367351060">
        <ele>2572.700</ele>
        <time>2020-01-21T16:23:34Z</time>
      </trkpt>
      <trkpt lat="17.031625000" lon="-96.367328930">
        <ele>2572.500</ele>
        <time>2020-01-21T16:23:35Z</time>
      </trkpt>
      <trkpt lat="17.031567280" lon="-96.367308500">
        <ele>2572.600</ele>
        <time>2020-01-21T16:23:36Z</time>
      </trkpt>
      <trkpt lat="17.031509140" lon="-96.367288220">
        <ele>2572.400</ele>
        <time>2020-01-21T16:23:37Z</time>
      </trkpt>
      <trkpt lat="17.031452870" lon="-96.367266700">
        <ele>2572.300</ele>
        <time>2020-01-21T16:23:38Z</time>
      </trkpt>
      <trkpt lat="17.031399450" lon="-96.367248140">
        <ele>2572.400</ele>
        <time>2020-01-21T16:23:39Z</time>
      </trkpt>
      <trkpt lat="17.031344500" lon="-96.367225520">
        <ele>2572.200</ele>
        <time>2020-01-21T16:23:40Z</time>
      </trkpt>
      <trkpt lat="17.031285510" lon="-96.367206620">
        <ele>2572.100</ele>
        <time>2020-01-21T16:23:41Z</time>
      </trkpt>
      <trkpt lat="17.031243270" lon="-96.367180370">
        <ele>2571.900</ele>
        <time>2020-01-21T16:23:42Z</time>
      </trkpt>
      <trkpt lat="17.031187430" lon="-96.367153070">
        <ele>2570.700</ele>
        <time>2020-01-21T16:23:43Z</time>
      </trkpt>
      <trkpt lat="17.031128750" lon="-96.367128500">
        <ele>2570.200</ele>
        <time>2020-01-21T16:23:44Z</time>
      </trkpt>
      <trkpt lat="17.031069070" lon="-96.367103580">
        <ele>2569.500</ele>
        <time>2020-01-21T16:23:45Z</time>
      </trkpt>
      <trkpt lat="17.031010780" lon="-96.367080400">
        <ele>2569.700</ele>
        <time>2020-01-21T16:23:46Z</time>
      </trkpt>
      <trkpt lat="17.030953820" lon="-96.367058090">
        <ele>2569.900</ele>
        <time>2020-01-21T16:23:47Z</time>
      </trkpt>
      <trkpt lat="17.030902110" lon="-96.367038930">
        <ele>2569.600</ele>
        <time>2020-01-21T16:23:48Z</time>
      </trkpt>
      <trkpt lat="17.030846320" lon="-96.367019470">
        <ele>2569.800</ele>
        <time>2020-01-21T16:23:49Z</time>
      </trkpt>
      <trkpt lat="17.030789700" lon="-96.366999710">
        <ele>2569.900</ele>
        <time>2020-01-21T16:23:50Z</time>
      </trkpt>
      <trkpt lat="17.030734480" lon="-96.366976200">
        <ele>2569.600</ele>
        <time>2020-01-21T16:23:51Z</time>
      </trkpt>
      <trkpt lat="17.030682030" lon="-96.366947150">
        <ele>2568.800</ele>
        <time>2020-01-21T16:23:52Z</time>
      </trkpt>
      <trkpt lat="17.030627940" lon="-96.366933580">
        <ele>2569.200</ele>
        <time>2020-01-21T16:23:53Z</time>
      </trkpt>
      <trkpt lat="17.030574520" lon="-96.366915120">
        <ele>2569.000</ele>
        <time>2020-01-21T16:23:54Z</time>
      </trkpt>
      <trkpt lat="17.030523190" lon="-96.366892590">
        <ele>2567.500</ele>
        <time>2020-01-21T16:23:55Z</time>
      </trkpt>
      <trkpt lat="17.030470780" lon="-96.366878280">
        <ele>2567.700</ele>
        <time>2020-01-21T16:23:56Z</time>
      </trkpt>
      <trkpt lat="17.030420590" lon="-96.366855900">
        <ele>2567.700</ele>
        <time>2020-01-21T16:23:57Z</time>
      </trkpt>
      <trkpt lat="17.030372320" lon="-96.366836870">
        <ele>2568.000</ele>
        <time>2020-01-21T16:23:58Z</time>
      </trkpt>
      <trkpt lat="17.030317300" lon="-96.366815360">
        <ele>2568.500</ele>
        <time>2020-01-21T16:23:59Z</time>
      </trkpt>
      <trkpt lat="17.030267540" lon="-96.366797940">
        <ele>2568.200</ele>
        <time>2020-01-21T16:24:00Z</time>
      </trkpt>
      <trkpt lat="17.030215750" lon="-96.366777260">
        <ele>2568.300</ele>
        <time>2020-01-21T16:24:01Z</time>
      </trkpt>
      <trkpt lat="17.030165220" lon="-96.366752490">
        <ele>2568.100</ele>
        <time>2020-01-21T16:24:02Z</time>
      </trkpt>
      <trkpt lat="17.030116310" lon="-96.366726170">
        <ele>2568.100</ele>
        <time>2020-01-21T16:24:03Z</time>
      </trkpt>
      <trkpt lat="17.030063110" lon="-96.366692770">
        <ele>2568.000</ele>
        <time>2020-01-21T16:24:04Z</time>
      </trkpt>
      <trkpt lat="17.030019090" lon="-96.366658570">
        <ele>2568.400</ele>
        <time>2020-01-21T16:24:05Z</time>
      </trkpt>
      <trkpt lat="17.029978800" lon="-96.366618420">
        <ele>2568.500</ele>
        <time>2020-01-21T16:24:06Z</time>
      </trkpt>
      <trkpt lat="17.029935550" lon="-96.366575210">
        <ele>2568.600</ele>
        <time>2020-01-21T16:24:07Z</time>
      </trkpt>
      <trkpt lat="17.029887850" lon="-96.366530900">
        <ele>2568.000</ele>
        <time>2020-01-21T16:24:08Z</time>
      </trkpt>
      <trkpt lat="17.029845670" lon="-96.366484360">
        <ele>2567.700</ele>
        <time>2020-01-21T16:24:09Z</time>
      </trkpt>
      <trkpt lat="17.029802830" lon="-96.366441320">
        <ele>2567.900</ele>
        <time>2020-01-21T16:24:10Z</time>
      </trkpt>
      <trkpt lat="17.029758330" lon="-96.366396610">
        <ele>2568.000</ele>
        <time>2020-01-21T16:24:11Z</time>
      </trkpt>
      <trkpt lat="17.029721590" lon="-96.366345430">
        <ele>2568.300</ele>
        <time>2020-01-21T16:24:12Z</time>
      </trkpt>
      <trkpt lat="17.029683830" lon="-96.366299770">
        <ele>2568.300</ele>
        <time>2020-01-21T16:24:13Z</time>
      </trkpt>
      <trkpt lat="17.029649890" lon="-96.366259270">
        <ele>2568.200</ele>
        <time>2020-01-21T16:24:14Z</time>
      </trkpt>
      <trkpt lat="17.029625650" lon="-96.366222740">
        <ele>2568.200</ele>
        <time>2020-01-21T16:24:15Z</time>
      </trkpt>
      <trkpt lat="17.029601510" lon="-96.366183180">
        <ele>2568.600</ele>
        <time>2020-01-21T16:24:16Z</time>
      </trkpt>
      <trkpt lat="17.029572640" lon="-96.366136770">
        <ele>2568.300</ele>
        <time>2020-01-21T16:24:17Z</time>
      </trkpt>
      <trkpt lat="17.029542270" lon="-96.366084760">
        <ele>2567.900</ele>
        <time>2020-01-21T16:24:18Z</time>
      </trkpt>
      <trkpt lat="17.029513320" lon="-96.366035060">
        <ele>2568.300</ele>
        <time>2020-01-21T16:24:19Z</time>
      </trkpt>
      <trkpt lat="17.029488550" lon="-96.365985300">
        <ele>2568.100</ele>
        <time>2020-01-21T16:24:20Z</time>
      </trkpt>
      <trkpt lat="17.029471460" lon="-96.365938270">
        <ele>2566.900</ele>
        <time>2020-01-21T16:24:21Z</time>
      </trkpt>
      <trkpt lat="17.029446620" lon="-96.365873030">
        <ele>2567.700</ele>
        <time>2020-01-21T16:24:22Z</time>
      </trkpt>
      <trkpt lat="17.029433020" lon="-96.365809380">
        <ele>2567.600</ele>
        <time>2020-01-21T16:24:23Z</time>
      </trkpt>
      <trkpt lat="17.029416860" lon="-96.365743580">
        <ele>2568.500</ele>
        <time>2020-01-21T16:24:24Z</time>
      </trkpt>
      <trkpt lat="17.029399860" lon="-96.365679430">
        <ele>2568.700</ele>
        <time>2020-01-21T16:24:25Z</time>
      </trkpt>
      <trkpt lat="17.029382520" lon="-96.365613690">
        <ele>2569.000</ele>
        <time>2020-01-21T16:24:26Z</time>
      </trkpt>
      <trkpt lat="17.029368260" lon="-96.365550970">
        <ele>2569.400</ele>
        <time>2020-01-21T16:24:27Z</time>
      </trkpt>
      <trkpt lat="17.029354580" lon="-96.365488590">
        <ele>2569.900</ele>
        <time>2020-01-21T16:24:28Z</time>
      </trkpt>
      <trkpt lat="17.029339980" lon="-96.365429070">
        <ele>2570.600</ele>
        <time>2020-01-21T16:24:29Z</time>
      </trkpt>
      <trkpt lat="17.029326490" lon="-96.365374170">
        <ele>2571.200</ele>
        <time>2020-01-21T16:24:30Z</time>
      </trkpt>
      <trkpt lat="17.029312200" lon="-96.365318390">
        <ele>2571.500</ele>
        <time>2020-01-21T16:24:31Z</time>
      </trkpt>
      <trkpt lat="17.029300720" lon="-96.365261550">
        <ele>2572.000</ele>
        <time>2020-01-21T16:24:32Z</time>
      </trkpt>
      <trkpt lat="17.029290280" lon="-96.365206030">
        <ele>2572.200</ele>
        <time>2020-01-21T16:24:33Z</time>
      </trkpt>
      <trkpt lat="17.029286720" lon="-96.365149790">
        <ele>2572.700</ele>
        <time>2020-01-21T16:24:34Z</time>
      </trkpt>
      <trkpt lat="17.029285020" lon="-96.365094600">
        <ele>2573.200</ele>
        <time>2020-01-21T16:24:35Z</time>
      </trkpt>
      <trkpt lat="17.029291890" lon="-96.365049570">
        <ele>2572.200</ele>
        <time>2020-01-21T16:24:36Z</time>
      </trkpt>
      <trkpt lat="17.029293280" lon="-96.364999710">
        <ele>2573.600</ele>
        <time>2020-01-21T16:24:37Z</time>
      </trkpt>
      <trkpt lat="17.029298330" lon="-96.364956210">
        <ele>2573.200</ele>
        <time>2020-01-21T16:24:38Z</time>
      </trkpt>
      <trkpt lat="17.029303820" lon="-96.364899930">
        <ele>2572.700</ele>
        <time>2020-01-21T16:24:39Z</time>
      </trkpt>
      <trkpt lat="17.029310680" lon="-96.364850620">
        <ele>2573.200</ele>
        <time>2020-01-21T16:24:40Z</time>
      </trkpt>
      <trkpt lat="17.029324170" lon="-96.364800470">
        <ele>2573.800</ele>
        <time>2020-01-21T16:24:41Z</time>
      </trkpt>
      <trkpt lat="17.029341440" lon="-96.364750130">
        <ele>2574.000</ele>
        <time>2020-01-21T16:24:42Z</time>
      </trkpt>
      <trkpt lat="17.029363110" lon="-96.364709090">
        <ele>2573.300</ele>
        <time>2020-01-21T16:24:43Z</time>
      </trkpt>
      <trkpt lat="17.029378680" lon="-96.364663640">
        <ele>2573.600</ele>
        <time>2020-01-21T16:24:44Z</time>
      </trkpt>
      <trkpt lat="17.029398780" lon="-96.364609370">
        <ele>2573.100</ele>
        <time>2020-01-21T16:24:45Z</time>
      </trkpt>
      <trkpt lat="17.029414830" lon="-96.364549440">
        <ele>2573.800</ele>
        <time>2020-01-21T16:24:46Z</time>
      </trkpt>
      <trkpt lat="17.029436450" lon="-96.364500860">
        <ele>2574.400</ele>
        <time>2020-01-21T16:24:47Z</time>
      </trkpt>
      <trkpt lat="17.029453970" lon="-96.364440870">
        <ele>2574.700</ele>
        <time>2020-01-21T16:24:48Z</time>
      </trkpt>
      <trkpt lat="17.029477470" lon="-96.364391570">
        <ele>2574.200</ele>
        <time>2020-01-21T16:24:49Z</time>
      </trkpt>
      <trkpt lat="17.029500690" lon="-96.364339950">
        <ele>2573.600</ele>
        <time>2020-01-21T16:24:50Z</time>
      </trkpt>
      <trkpt lat="17.029525260" lon="-96.364287110">
        <ele>2573.400</ele>
        <time>2020-01-21T16:24:51Z</time>
      </trkpt>
      <trkpt lat="17.029548820" lon="-96.364236700">
        <ele>2573.600</ele>
        <time>2020-01-21T16:24:52Z</time>
      </trkpt>
      <trkpt lat="17.029569840" lon="-96.364182260">
        <ele>2572.900</ele>
        <time>2020-01-21T16:24:53Z</time>
      </trkpt>
      <trkpt lat="17.029593620" lon="-96.364133760">
        <ele>2572.800</ele>
        <time>2020-01-21T16:24:54Z</time>
      </trkpt>
      <trkpt lat="17.029615950" lon="-96.364092930">
        <ele>2571.500</ele>
        <time>2020-01-21T16:24:55Z</time>
      </trkpt>
      <trkpt lat="17.029633100" lon="-96.364042470">
        <ele>2571.300</ele>
        <time>2020-01-21T16:24:56Z</time>
      </trkpt>
      <trkpt lat="17.029650770" lon="-96.363997050">
        <ele>2571.200</ele>
        <time>2020-01-21T16:24:57Z</time>
      </trkpt>
      <trkpt lat="17.029660870" lon="-96.363959260">
        <ele>2571.600</ele>
        <time>2020-01-21T16:24:58Z</time>
      </trkpt>
      <trkpt lat="17.029670630" lon="-96.363918310">
        <ele>2571.500</ele>
        <time>2020-01-21T16:24:59Z</time>
      </trkpt>
      <trkpt lat="17.029680240" lon="-96.363877340">
        <ele>2571.300</ele>
        <time>2020-01-21T16:25:00Z</time>
      </trkpt>
      <trkpt lat="17.029694260" lon="-96.363834780">
        <ele>2570.900</ele>
        <time>2020-01-21T16:25:01Z</time>
      </trkpt>
      <trkpt lat="17.029709060" lon="-96.363789640">
        <ele>2570.500</ele>
        <time>2020-01-21T16:25:02Z</time>
      </trkpt>
      <trkpt lat="17.029724120" lon="-96.363737370">
        <ele>2570.000</ele>
        <time>2020-01-21T16:25:03Z</time>
      </trkpt>
      <trkpt lat="17.029740830" lon="-96.363687480">
        <ele>2569.900</ele>
        <time>2020-01-21T16:25:04Z</time>
      </trkpt>
      <trkpt lat="17.029758300" lon="-96.363641370">
        <ele>2569.300</ele>
        <time>2020-01-21T16:25:05Z</time>
      </trkpt>
      <trkpt lat="17.029778610" lon="-96.363596280">
        <ele>2569.100</ele>
        <time>2020-01-21T16:25:06Z</time>
      </trkpt>
      <trkpt lat="17.029801520" lon="-96.363551870">
        <ele>2568.100</ele>
        <time>2020-01-21T16:25:07Z</time>
      </trkpt>
      <trkpt lat="17.029825120" lon="-96.363506450">
        <ele>2568.000</ele>
        <time>2020-01-21T16:25:08Z</time>
      </trkpt>
      <trkpt lat="17.029851380" lon="-96.363460920">
        <ele>2567.800</ele>
        <time>2020-01-21T16:25:09Z</time>
      </trkpt>
      <trkpt lat="17.029874570" lon="-96.363408070">
        <ele>2567.800</ele>
        <time>2020-01-21T16:25:10Z</time>
      </trkpt>
      <trkpt lat="17.029896690" lon="-96.363357230">
        <ele>2567.300</ele>
        <time>2020-01-21T16:25:11Z</time>
      </trkpt>
      <trkpt lat="17.029911920" lon="-96.363293570">
        <ele>2566.800</ele>
        <time>2020-01-21T16:25:12Z</time>
      </trkpt>
      <trkpt lat="17.029922360" lon="-96.363231480">
        <ele>2567.300</ele>
        <time>2020-01-21T16:25:13Z</time>
      </trkpt>
      <trkpt lat="17.029929650" lon="-96.363165760">
        <ele>2568.200</ele>
        <time>2020-01-21T16:25:14Z</time>
      </trkpt>
      <trkpt lat="17.029939620" lon="-96.363104530">
        <ele>2568.400</ele>
        <time>2020-01-21T16:25:15Z</time>
      </trkpt>
      <trkpt lat="17.029951320" lon="-96.363047770">
        <ele>2569.000</ele>
        <time>2020-01-21T16:25:16Z</time>
      </trkpt>
      <trkpt lat="17.029966370" lon="-96.362987290">
        <ele>2568.600</ele>
        <time>2020-01-21T16:25:17Z</time>
      </trkpt>
      <trkpt lat="17.029979850" lon="-96.362931650">
        <ele>2568.900</ele>
        <time>2020-01-21T16:25:18Z</time>
      </trkpt>
      <trkpt lat="17.029987060" lon="-96.362874600">
        <ele>2569.900</ele>
        <time>2020-01-21T16:25:19Z</time>
      </trkpt>
      <trkpt lat="17.029993120" lon="-96.362818320">
        <ele>2569.700</ele>
        <time>2020-01-21T16:25:20Z</time>
      </trkpt>
      <trkpt lat="17.029998390" lon="-96.362757400">
        <ele>2569.100</ele>
        <time>2020-01-21T16:25:21Z</time>
      </trkpt>
      <trkpt lat="17.030001040" lon="-96.362703830">
        <ele>2568.800</ele>
        <time>2020-01-21T16:25:22Z</time>
      </trkpt>
      <trkpt lat="17.029999660" lon="-96.362650960">
        <ele>2568.900</ele>
        <time>2020-01-21T16:25:23Z</time>
      </trkpt>
      <trkpt lat="17.029999530" lon="-96.362585530">
        <ele>2568.600</ele>
        <time>2020-01-21T16:25:24Z</time>
      </trkpt>
      <trkpt lat="17.030001840" lon="-96.362523990">
        <ele>2568.500</ele>
        <time>2020-01-21T16:25:25Z</time>
      </trkpt>
      <trkpt lat="17.030009090" lon="-96.362461860">
        <ele>2568.600</ele>
        <time>2020-01-21T16:25:26Z</time>
      </trkpt>
      <trkpt lat="17.030018250" lon="-96.362396960">
        <ele>2567.700</ele>
        <time>2020-01-21T16:25:27Z</time>
      </trkpt>
      <trkpt lat="17.030025240" lon="-96.362333720">
        <ele>2566.900</ele>
        <time>2020-01-21T16:25:28Z</time>
      </trkpt>
      <trkpt lat="17.030038350" lon="-96.362272050">
        <ele>2567.000</ele>
        <time>2020-01-21T16:25:29Z</time>
      </trkpt>
      <trkpt lat="17.030053740" lon="-96.362217450">
        <ele>2566.400</ele>
        <time>2020-01-21T16:25:30Z</time>
      </trkpt>
      <trkpt lat="17.030068610" lon="-96.362159390">
        <ele>2566.700</ele>
        <time>2020-01-21T16:25:31Z</time>
      </trkpt>
      <trkpt lat="17.030082800" lon="-96.362103980">
        <ele>2566.800</ele>
        <time>2020-01-21T16:25:32Z</time>
      </trkpt>
      <trkpt lat="17.030095510" lon="-96.362052070">
        <ele>2566.300</ele>
        <time>2020-01-21T16:25:33Z</time>
      </trkpt>
      <trkpt lat="17.030108320" lon="-96.361997370">
        <ele>2566.400</ele>
        <time>2020-01-21T16:25:34Z</time>
      </trkpt>
      <trkpt lat="17.030126340" lon="-96.361952300">
        <ele>2565.400</ele>
        <time>2020-01-21T16:25:35Z</time>
      </trkpt>
      <trkpt lat="17.030141480" lon="-96.361901490">
        <ele>2565.100</ele>
        <time>2020-01-21T16:25:36Z</time>
      </trkpt>
      <trkpt lat="17.030157120" lon="-96.361851910">
        <ele>2564.700</ele>
        <time>2020-01-21T16:25:37Z</time>
      </trkpt>
      <trkpt lat="17.030168080" lon="-96.361801170">
        <ele>2564.200</ele>
        <time>2020-01-21T16:25:38Z</time>
      </trkpt>
      <trkpt lat="17.030177230" lon="-96.361749240">
        <ele>2564.200</ele>
        <time>2020-01-21T16:25:39Z</time>
      </trkpt>
      <trkpt lat="17.030189410" lon="-96.361698930">
        <ele>2564.000</ele>
        <time>2020-01-21T16:25:40Z</time>
      </trkpt>
      <trkpt lat="17.030206300" lon="-96.361646460">
        <ele>2564.000</ele>
        <time>2020-01-21T16:25:41Z</time>
      </trkpt>
      <trkpt lat="17.030217830" lon="-96.361596670">
        <ele>2564.400</ele>
        <time>2020-01-21T16:25:42Z</time>
      </trkpt>
      <trkpt lat="17.030232040" lon="-96.361538390">
        <ele>2564.400</ele>
        <time>2020-01-21T16:25:43Z</time>
      </trkpt>
      <trkpt lat="17.030245560" lon="-96.361480860">
        <ele>2564.200</ele>
        <time>2020-01-21T16:25:44Z</time>
      </trkpt>
      <trkpt lat="17.030261480" lon="-96.361419930">
        <ele>2563.900</ele>
        <time>2020-01-21T16:25:45Z</time>
      </trkpt>
      <trkpt lat="17.030277660" lon="-96.361361160">
        <ele>2563.700</ele>
        <time>2020-01-21T16:25:46Z</time>
      </trkpt>
      <trkpt lat="17.030294320" lon="-96.361300370">
        <ele>2563.400</ele>
        <time>2020-01-21T16:25:47Z</time>
      </trkpt>
      <trkpt lat="17.030308940" lon="-96.361238490">
        <ele>2562.900</ele>
        <time>2020-01-21T16:25:48Z</time>
      </trkpt>
      <trkpt lat="17.030324660" lon="-96.361174420">
        <ele>2562.900</ele>
        <time>2020-01-21T16:25:49Z</time>
      </trkpt>
      <trkpt lat="17.030342170" lon="-96.361109140">
        <ele>2562.300</ele>
        <time>2020-01-21T16:25:50Z</time>
      </trkpt>
      <trkpt lat="17.030360910" lon="-96.361050640">
        <ele>2562.300</ele>
        <time>2020-01-21T16:25:51Z</time>
      </trkpt>
      <trkpt lat="17.030379120" lon="-96.360990600">
        <ele>2562.100</ele>
        <time>2020-01-21T16:25:52Z</time>
      </trkpt>
      <trkpt lat="17.030399790" lon="-96.360932040">
        <ele>2561.900</ele>
        <time>2020-01-21T16:25:53Z</time>
      </trkpt>
      <trkpt lat="17.030416510" lon="-96.360872970">
        <ele>2561.000</ele>
        <time>2020-01-21T16:25:54Z</time>
      </trkpt>
      <trkpt lat="17.030437180" lon="-96.360817960">
        <ele>2560.400</ele>
        <time>2020-01-21T16:25:55Z</time>
      </trkpt>
      <trkpt lat="17.030456200" lon="-96.360761640">
        <ele>2560.300</ele>
        <time>2020-01-21T16:25:56Z</time>
      </trkpt>
      <trkpt lat="17.030476840" lon="-96.360707930">
        <ele>2559.900</ele>
        <time>2020-01-21T16:25:57Z</time>
      </trkpt>
      <trkpt lat="17.030495760" lon="-96.360652290">
        <ele>2559.500</ele>
        <time>2020-01-21T16:25:58Z</time>
      </trkpt>
      <trkpt lat="17.030515460" lon="-96.360597640">
        <ele>2559.400</ele>
        <time>2020-01-21T16:25:59Z</time>
      </trkpt>
      <trkpt lat="17.030533120" lon="-96.360546420">
        <ele>2559.500</ele>
        <time>2020-01-21T16:26:00Z</time>
      </trkpt>
      <trkpt lat="17.030554720" lon="-96.360492710">
        <ele>2559.300</ele>
        <time>2020-01-21T16:26:01Z</time>
      </trkpt>
      <trkpt lat="17.030573610" lon="-96.360439340">
        <ele>2559.000</ele>
        <time>2020-01-21T16:26:02Z</time>
      </trkpt>
      <trkpt lat="17.030593510" lon="-96.360388440">
        <ele>2558.500</ele>
        <time>2020-01-21T16:26:03Z</time>
      </trkpt>
      <trkpt lat="17.030610540" lon="-96.360340110">
        <ele>2558.500</ele>
        <time>2020-01-21T16:26:04Z</time>
      </trkpt>
      <trkpt lat="17.030628500" lon="-96.360290170">
        <ele>2558.100</ele>
        <time>2020-01-21T16:26:05Z</time>
      </trkpt>
      <trkpt lat="17.030645360" lon="-96.360244510">
        <ele>2557.900</ele>
        <time>2020-01-21T16:26:06Z</time>
      </trkpt>
      <trkpt lat="17.030663170" lon="-96.360197500">
        <ele>2557.900</ele>
        <time>2020-01-21T16:26:07Z</time>
      </trkpt>
      <trkpt lat="17.030680700" lon="-96.360151670">
        <ele>2558.000</ele>
        <time>2020-01-21T16:26:08Z</time>
      </trkpt>
      <trkpt lat="17.030700760" lon="-96.360103650">
        <ele>2557.600</ele>
        <time>2020-01-21T16:26:09Z</time>
      </trkpt>
      <trkpt lat="17.030720630" lon="-96.360052720">
        <ele>2557.400</ele>
        <time>2020-01-21T16:26:10Z</time>
      </trkpt>
      <trkpt lat="17.030739230" lon="-96.360006710">
        <ele>2556.600</ele>
        <time>2020-01-21T16:26:11Z</time>
      </trkpt>
      <trkpt lat="17.030755330" lon="-96.359952480">
        <ele>2556.500</ele>
        <time>2020-01-21T16:26:12Z</time>
      </trkpt>
      <trkpt lat="17.030769410" lon="-96.359897820">
        <ele>2556.700</ele>
        <time>2020-01-21T16:26:13Z</time>
      </trkpt>
      <trkpt lat="17.030781350" lon="-96.359840450">
        <ele>2556.700</ele>
        <time>2020-01-21T16:26:14Z</time>
      </trkpt>
      <trkpt lat="17.030786430" lon="-96.359789970">
        <ele>2556.700</ele>
        <time>2020-01-21T16:26:15Z</time>
      </trkpt>
      <trkpt lat="17.030788510" lon="-96.359746140">
        <ele>2556.100</ele>
        <time>2020-01-21T16:26:16Z</time>
      </trkpt>
      <trkpt lat="17.030788570" lon="-96.359703730">
        <ele>2555.600</ele>
        <time>2020-01-21T16:26:17Z</time>
      </trkpt>
      <trkpt lat="17.030787940" lon="-96.359665690">
        <ele>2554.800</ele>
        <time>2020-01-21T16:26:18Z</time>
      </trkpt>
      <trkpt lat="17.030786580" lon="-96.359588710">
        <ele>2554.200</ele>
        <time>2020-01-21T16:26:20Z</time>
      </trkpt>
      <trkpt lat="17.030782210" lon="-96.359509640">
        <ele>2553.900</ele>
        <time>2020-01-21T16:26:22Z</time>
      </trkpt>
      <trkpt lat="17.030777070" lon="-96.359463590">
        <ele>2554.000</ele>
        <time>2020-01-21T16:26:23Z</time>
      </trkpt>
      <trkpt lat="17.030773080" lon="-96.359416950">
        <ele>2554.600</ele>
        <time>2020-01-21T16:26:24Z</time>
      </trkpt>
      <trkpt lat="17.030774710" lon="-96.359370850">
        <ele>2554.500</ele>
        <time>2020-01-21T16:26:25Z</time>
      </trkpt>
      <trkpt lat="17.030778390" lon="-96.359320650">
        <ele>2554.200</ele>
        <time>2020-01-21T16:26:26Z</time>
      </trkpt>
      <trkpt lat="17.030777250" lon="-96.359271330">
        <ele>2553.700</ele>
        <time>2020-01-21T16:26:27Z</time>
      </trkpt>
      <trkpt lat="17.030772080" lon="-96.359219440">
        <ele>2552.900</ele>
        <time>2020-01-21T16:26:28Z</time>
      </trkpt>
      <trkpt lat="17.030767650" lon="-96.359170720">
        <ele>2552.300</ele>
        <time>2020-01-21T16:26:29Z</time>
      </trkpt>
      <trkpt lat="17.030765650" lon="-96.359116950">
        <ele>2551.800</ele>
        <time>2020-01-21T16:26:30Z</time>
      </trkpt>
      <trkpt lat="17.030759080" lon="-96.359069560">
        <ele>2551.400</ele>
        <time>2020-01-21T16:26:31Z</time>
      </trkpt>
      <trkpt lat="17.030753590" lon="-96.359020840">
        <ele>2551.700</ele>
        <time>2020-01-21T16:26:32Z</time>
      </trkpt>
      <trkpt lat="17.030753010" lon="-96.358974700">
        <ele>2551.300</ele>
        <time>2020-01-21T16:26:33Z</time>
      </trkpt>
      <trkpt lat="17.030752550" lon="-96.358932060">
        <ele>2550.800</ele>
        <time>2020-01-21T16:26:34Z</time>
      </trkpt>
      <trkpt lat="17.030753620" lon="-96.358853740">
        <ele>2550.300</ele>
        <time>2020-01-21T16:26:36Z</time>
      </trkpt>
      <trkpt lat="17.030751330" lon="-96.358808520">
        <ele>2549.700</ele>
        <time>2020-01-21T16:26:37Z</time>
      </trkpt>
      <trkpt lat="17.030754540" lon="-96.358764400">
        <ele>2549.100</ele>
        <time>2020-01-21T16:26:38Z</time>
      </trkpt>
      <trkpt lat="17.030752910" lon="-96.358719270">
        <ele>2548.800</ele>
        <time>2020-01-21T16:26:39Z</time>
      </trkpt>
      <trkpt lat="17.030751660" lon="-96.358670670">
        <ele>2548.400</ele>
        <time>2020-01-21T16:26:40Z</time>
      </trkpt>
      <trkpt lat="17.030749060" lon="-96.358620120">
        <ele>2548.400</ele>
        <time>2020-01-21T16:26:41Z</time>
      </trkpt>
      <trkpt lat="17.030750200" lon="-96.358568210">
        <ele>2548.100</ele>
        <time>2020-01-21T16:26:42Z</time>
      </trkpt>
      <trkpt lat="17.030752780" lon="-96.358518210">
        <ele>2547.500</ele>
        <time>2020-01-21T16:26:43Z</time>
      </trkpt>
      <trkpt lat="17.030759570" lon="-96.358467760">
        <ele>2547.500</ele>
        <time>2020-01-21T16:26:44Z</time>
      </trkpt>
      <trkpt lat="17.030771470" lon="-96.358415080">
        <ele>2546.800</ele>
        <time>2020-01-21T16:26:45Z</time>
      </trkpt>
      <trkpt lat="17.030779200" lon="-96.358363600">
        <ele>2546.300</ele>
        <time>2020-01-21T16:26:46Z</time>
      </trkpt>
      <trkpt lat="17.030784220" lon="-96.358311210">
        <ele>2545.600</ele>
        <time>2020-01-21T16:26:47Z</time>
      </trkpt>
      <trkpt lat="17.030790670" lon="-96.358255420">
        <ele>2544.600</ele>
        <time>2020-01-21T16:26:48Z</time>
      </trkpt>
      <trkpt lat="17.030790430" lon="-96.358195730">
        <ele>2544.900</ele>
        <time>2020-01-21T16:26:49Z</time>
      </trkpt>
      <trkpt lat="17.030798740" lon="-96.358141180">
        <ele>2544.300</ele>
        <time>2020-01-21T16:26:50Z</time>
      </trkpt>
      <trkpt lat="17.030806010" lon="-96.358089460">
        <ele>2543.800</ele>
        <time>2020-01-21T16:26:51Z</time>
      </trkpt>
      <trkpt lat="17.030811440" lon="-96.358043720">
        <ele>2544.000</ele>
        <time>2020-01-21T16:26:52Z</time>
      </trkpt>
      <trkpt lat="17.030819260" lon="-96.358003090">
        <ele>2543.700</ele>
        <time>2020-01-21T16:26:53Z</time>
      </trkpt>
      <trkpt lat="17.030826990" lon="-96.357961620">
        <ele>2543.700</ele>
        <time>2020-01-21T16:26:54Z</time>
      </trkpt>
      <trkpt lat="17.030828620" lon="-96.357922060">
        <ele>2543.400</ele>
        <time>2020-01-21T16:26:55Z</time>
      </trkpt>
      <trkpt lat="17.030833380" lon="-96.357880520">
        <ele>2543.100</ele>
        <time>2020-01-21T16:26:56Z</time>
      </trkpt>
      <trkpt lat="17.030838200" lon="-96.357833880">
        <ele>2542.400</ele>
        <time>2020-01-21T16:26:57Z</time>
      </trkpt>
      <trkpt lat="17.030842950" lon="-96.357783800">
        <ele>2542.400</ele>
        <time>2020-01-21T16:26:58Z</time>
      </trkpt>
      <trkpt lat="17.030846940" lon="-96.357730340">
        <ele>2542.600</ele>
        <time>2020-01-21T16:26:59Z</time>
      </trkpt>
      <trkpt lat="17.030853040" lon="-96.357675160">
        <ele>2542.200</ele>
        <time>2020-01-21T16:27:00Z</time>
      </trkpt>
      <trkpt lat="17.030863340" lon="-96.357619470">
        <ele>2542.300</ele>
        <time>2020-01-21T16:27:01Z</time>
      </trkpt>
      <trkpt lat="17.030871040" lon="-96.357563840">
        <ele>2542.000</ele>
        <time>2020-01-21T16:27:02Z</time>
      </trkpt>
      <trkpt lat="17.030877500" lon="-96.357502370">
        <ele>2541.700</ele>
        <time>2020-01-21T16:27:03Z</time>
      </trkpt>
      <trkpt lat="17.030883180" lon="-96.357443680">
        <ele>2541.800</ele>
        <time>2020-01-21T16:27:04Z</time>
      </trkpt>
      <trkpt lat="17.030892020" lon="-96.357380690">
        <ele>2541.900</ele>
        <time>2020-01-21T16:27:05Z</time>
      </trkpt>
      <trkpt lat="17.030902140" lon="-96.357320730">
        <ele>2542.100</ele>
        <time>2020-01-21T16:27:06Z</time>
      </trkpt>
      <trkpt lat="17.030916170" lon="-96.357261150">
        <ele>2542.100</ele>
        <time>2020-01-21T16:27:07Z</time>
      </trkpt>
      <trkpt lat="17.030927150" lon="-96.357196630">
        <ele>2542.700</ele>
        <time>2020-01-21T16:27:08Z</time>
      </trkpt>
      <trkpt lat="17.030938510" lon="-96.357141340">
        <ele>2543.500</ele>
        <time>2020-01-21T16:27:09Z</time>
      </trkpt>
      <trkpt lat="17.030954430" lon="-96.357082990">
        <ele>2543.500</ele>
        <time>2020-01-21T16:27:10Z</time>
      </trkpt>
      <trkpt lat="17.030969330" lon="-96.357021180">
        <ele>2543.300</ele>
        <time>2020-01-21T16:27:11Z</time>
      </trkpt>
      <trkpt lat="17.030984100" lon="-96.356969210">
        <ele>2544.000</ele>
        <time>2020-01-21T16:27:12Z</time>
      </trkpt>
      <trkpt lat="17.031005760" lon="-96.356922610">
        <ele>2544.300</ele>
        <time>2020-01-21T16:27:13Z</time>
      </trkpt>
      <trkpt lat="17.031019040" lon="-96.356873890">
        <ele>2544.700</ele>
        <time>2020-01-21T16:27:14Z</time>
      </trkpt>
      <trkpt lat="17.031033590" lon="-96.356825830">
        <ele>2545.300</ele>
        <time>2020-01-21T16:27:15Z</time>
      </trkpt>
      <trkpt lat="17.031058270" lon="-96.356781200">
        <ele>2545.200</ele>
        <time>2020-01-21T16:27:16Z</time>
      </trkpt>
      <trkpt lat="17.031089120" lon="-96.356739860">
        <ele>2544.800</ele>
        <time>2020-01-21T16:27:17Z</time>
      </trkpt>
      <trkpt lat="17.031125040" lon="-96.356706830">
        <ele>2545.000</ele>
        <time>2020-01-21T16:27:18Z</time>
      </trkpt>
      <trkpt lat="17.031164490" lon="-96.356686070">
        <ele>2545.400</ele>
        <time>2020-01-21T16:27:19Z</time>
      </trkpt>
      <trkpt lat="17.031207180" lon="-96.356676120">
        <ele>2545.000</ele>
        <time>2020-01-21T16:27:20Z</time>
      </trkpt>
      <trkpt lat="17.031250840" lon="-96.356677320">
        <ele>2544.700</ele>
        <time>2020-01-21T16:27:21Z</time>
      </trkpt>
      <trkpt lat="17.031295040" lon="-96.356690800">
        <ele>2543.700</ele>
        <time>2020-01-21T16:27:22Z</time>
      </trkpt>
      <trkpt lat="17.031332050" lon="-96.356707530">
        <ele>2543.500</ele>
        <time>2020-01-21T16:27:23Z</time>
      </trkpt>
      <trkpt lat="17.031375670" lon="-96.356732050">
        <ele>2543.800</ele>
        <time>2020-01-21T16:27:24Z</time>
      </trkpt>
      <trkpt lat="17.031419730" lon="-96.356756480">
        <ele>2544.000</ele>
        <time>2020-01-21T16:27:25Z</time>
      </trkpt>
      <trkpt lat="17.031461120" lon="-96.356788380">
        <ele>2543.700</ele>
        <time>2020-01-21T16:27:26Z</time>
      </trkpt>
      <trkpt lat="17.031503980" lon="-96.356815650">
        <ele>2543.000</ele>
        <time>2020-01-21T16:27:27Z</time>
      </trkpt>
      <trkpt lat="17.031548250" lon="-96.356845980">
        <ele>2542.700</ele>
        <time>2020-01-21T16:27:28Z</time>
      </trkpt>
      <trkpt lat="17.031590410" lon="-96.356873000">
        <ele>2542.600</ele>
        <time>2020-01-21T16:27:29Z</time>
      </trkpt>
      <trkpt lat="17.031634160" lon="-96.356905430">
        <ele>2542.500</ele>
        <time>2020-01-21T16:27:30Z</time>
      </trkpt>
      <trkpt lat="17.031674060" lon="-96.356931340">
        <ele>2542.300</ele>
        <time>2020-01-21T16:27:31Z</time>
      </trkpt>
      <trkpt lat="17.031716630" lon="-96.356961680">
        <ele>2542.200</ele>
        <time>2020-01-21T16:27:32Z</time>
      </trkpt>
      <trkpt lat="17.031762570" lon="-96.356986490">
        <ele>2542.300</ele>
        <time>2020-01-21T16:27:33Z</time>
      </trkpt>
      <trkpt lat="17.031802980" lon="-96.357018100">
        <ele>2542.600</ele>
        <time>2020-01-21T16:27:34Z</time>
      </trkpt>
      <trkpt lat="17.031842300" lon="-96.357044630">
        <ele>2542.400</ele>
        <time>2020-01-21T16:27:35Z</time>
      </trkpt>
      <trkpt lat="17.031881290" lon="-96.357065120">
        <ele>2541.900</ele>
        <time>2020-01-21T16:27:36Z</time>
      </trkpt>
      <trkpt lat="17.031925750" lon="-96.357082730">
        <ele>2541.000</ele>
        <time>2020-01-21T16:27:37Z</time>
      </trkpt>
      <trkpt lat="17.031966250" lon="-96.357109810">
        <ele>2539.800</ele>
        <time>2020-01-21T16:27:38Z</time>
      </trkpt>
      <trkpt lat="17.032004000" lon="-96.357143580">
        <ele>2541.000</ele>
        <time>2020-01-21T16:27:39Z</time>
      </trkpt>
      <trkpt lat="17.032052340" lon="-96.357154330">
        <ele>2542.300</ele>
        <time>2020-01-21T16:27:40Z</time>
      </trkpt>
      <trkpt lat="17.032101440" lon="-96.357145520">
        <ele>2543.300</ele>
        <time>2020-01-21T16:27:41Z</time>
      </trkpt>
      <trkpt lat="17.032148650" lon="-96.357130580">
        <ele>2542.500</ele>
        <time>2020-01-21T16:27:42Z</time>
      </trkpt>
      <trkpt lat="17.032198990" lon="-96.357101110">
        <ele>2542.100</ele>
        <time>2020-01-21T16:27:43Z</time>
      </trkpt>
      <trkpt lat="17.032251340" lon="-96.357085390">
        <ele>2541.900</ele>
        <time>2020-01-21T16:27:44Z</time>
      </trkpt>
      <trkpt lat="17.032289540" lon="-96.357041470">
        <ele>2541.500</ele>
        <time>2020-01-21T16:27:45Z</time>
      </trkpt>
      <trkpt lat="17.032328610" lon="-96.357008580">
        <ele>2540.700</ele>
        <time>2020-01-21T16:27:46Z</time>
      </trkpt>
      <trkpt lat="17.032346310" lon="-96.356964050">
        <ele>2540.200</ele>
        <time>2020-01-21T16:27:47Z</time>
      </trkpt>
      <trkpt lat="17.032364940" lon="-96.356919920">
        <ele>2539.800</ele>
        <time>2020-01-21T16:27:48Z</time>
      </trkpt>
      <trkpt lat="17.032373170" lon="-96.356875640">
        <ele>2539.700</ele>
        <time>2020-01-21T16:27:49Z</time>
      </trkpt>
      <trkpt lat="17.032374660" lon="-96.356824390">
        <ele>2539.300</ele>
        <time>2020-01-21T16:27:50Z</time>
      </trkpt>
      <trkpt lat="17.032372720" lon="-96.356766540">
        <ele>2539.400</ele>
        <time>2020-01-21T16:27:51Z</time>
      </trkpt>
      <trkpt lat="17.032361690" lon="-96.356711430">
        <ele>2539.800</ele>
        <time>2020-01-21T16:27:52Z</time>
      </trkpt>
      <trkpt lat="17.032356320" lon="-96.356649660">
        <ele>2539.700</ele>
        <time>2020-01-21T16:27:53Z</time>
      </trkpt>
      <trkpt lat="17.032355880" lon="-96.356584740">
        <ele>2539.900</ele>
        <time>2020-01-21T16:27:54Z</time>
      </trkpt>
      <trkpt lat="17.032353110" lon="-96.356522170">
        <ele>2539.500</ele>
        <time>2020-01-21T16:27:55Z</time>
      </trkpt>
      <trkpt lat="17.032354430" lon="-96.356458300">
        <ele>2540.000</ele>
        <time>2020-01-21T16:27:56Z</time>
      </trkpt>
      <trkpt lat="17.032353000" lon="-96.356396360">
        <ele>2539.900</ele>
        <time>2020-01-21T16:27:57Z</time>
      </trkpt>
      <trkpt lat="17.032350900" lon="-96.356327070">
        <ele>2541.000</ele>
        <time>2020-01-21T16:27:58Z</time>
      </trkpt>
      <trkpt lat="17.032345160" lon="-96.356269160">
        <ele>2540.800</ele>
        <time>2020-01-21T16:27:59Z</time>
      </trkpt>
      <trkpt lat="17.032343140" lon="-96.356210920">
        <ele>2541.400</ele>
        <time>2020-01-21T16:28:00Z</time>
      </trkpt>
      <trkpt lat="17.032336730" lon="-96.356151670">
        <ele>2542.100</ele>
        <time>2020-01-21T16:28:01Z</time>
      </trkpt>
      <trkpt lat="17.032331410" lon="-96.356094040">
        <ele>2543.000</ele>
        <time>2020-01-21T16:28:02Z</time>
      </trkpt>
      <trkpt lat="17.032310790" lon="-96.356043290">
        <ele>2541.600</ele>
        <time>2020-01-21T16:28:03Z</time>
      </trkpt>
      <trkpt lat="17.032291000" lon="-96.355995860">
        <ele>2541.600</ele>
        <time>2020-01-21T16:28:04Z</time>
      </trkpt>
      <trkpt lat="17.032271000" lon="-96.355949310">
        <ele>2541.800</ele>
        <time>2020-01-21T16:28:05Z</time>
      </trkpt>
      <trkpt lat="17.032244360" lon="-96.355905010">
        <ele>2541.300</ele>
        <time>2020-01-21T16:28:06Z</time>
      </trkpt>
      <trkpt lat="17.032210610" lon="-96.355860270">
        <ele>2541.200</ele>
        <time>2020-01-21T16:28:07Z</time>
      </trkpt>
      <trkpt lat="17.032169550" lon="-96.355819940">
        <ele>2541.700</ele>
        <time>2020-01-21T16:28:08Z</time>
      </trkpt>
      <trkpt lat="17.032128460" lon="-96.355787950">
        <ele>2541.800</ele>
        <time>2020-01-21T16:28:09Z</time>
      </trkpt>
      <trkpt lat="17.032086040" lon="-96.355757140">
        <ele>2541.900</ele>
        <time>2020-01-21T16:28:10Z</time>
      </trkpt>
      <trkpt lat="17.032049600" lon="-96.355728660">
        <ele>2541.900</ele>
        <time>2020-01-21T16:28:11Z</time>
      </trkpt>
      <trkpt lat="17.032015520" lon="-96.355703890">
        <ele>2541.600</ele>
        <time>2020-01-21T16:28:12Z</time>
      </trkpt>
      <trkpt lat="17.031966500" lon="-96.355662740">
        <ele>2541.700</ele>
        <time>2020-01-21T16:28:14Z</time>
      </trkpt>
      <trkpt lat="17.031957950" lon="-96.355617670">
        <ele>2541.000</ele>
        <time>2020-01-21T16:28:16Z</time>
      </trkpt>
      <trkpt lat="17.031982380" lon="-96.355578240">
        <ele>2541.900</ele>
        <time>2020-01-21T16:28:20Z</time>
      </trkpt>
      <trkpt lat="17.032037940" lon="-96.355573580">
        <ele>2542.200</ele>
        <time>2020-01-21T16:28:23Z</time>
      </trkpt>
      <trkpt lat="17.032078720" lon="-96.355595140">
        <ele>2542.600</ele>
        <time>2020-01-21T16:28:25Z</time>
      </trkpt>
      <trkpt lat="17.032119550" lon="-96.355621520">
        <ele>2543.300</ele>
        <time>2020-01-21T16:28:27Z</time>
      </trkpt>
      <trkpt lat="17.032162890" lon="-96.355654680">
        <ele>2544.100</ele>
        <time>2020-01-21T16:28:29Z</time>
      </trkpt>
      <trkpt lat="17.032208780" lon="-96.355689380">
        <ele>2543.500</ele>
        <time>2020-01-21T16:28:31Z</time>
      </trkpt>
      <trkpt lat="17.032285890" lon="-96.355741680">
        <ele>2544.100</ele>
        <time>2020-01-21T16:28:33Z</time>
      </trkpt>
      <trkpt lat="17.032321880" lon="-96.355759560">
        <ele>2544.300</ele>
        <time>2020-01-21T16:28:34Z</time>
      </trkpt>
      <trkpt lat="17.032362850" lon="-96.355786110">
        <ele>2545.300</ele>
        <time>2020-01-21T16:28:35Z</time>
      </trkpt>
      <trkpt lat="17.032397990" lon="-96.355810860">
        <ele>2546.100</ele>
        <time>2020-01-21T16:28:36Z</time>
      </trkpt>
      <trkpt lat="17.032434920" lon="-96.355834120">
        <ele>2546.500</ele>
        <time>2020-01-21T16:28:37Z</time>
      </trkpt>
      <trkpt lat="17.032497280" lon="-96.355868140">
        <ele>2547.500</ele>
        <time>2020-01-21T16:28:39Z</time>
      </trkpt>
      <trkpt lat="17.032551900" lon="-96.355918520">
        <ele>2547.900</ele>
        <time>2020-01-21T16:28:41Z</time>
      </trkpt>
      <trkpt lat="17.032586830" lon="-96.355952960">
        <ele>2549.100</ele>
        <time>2020-01-21T16:28:42Z</time>
      </trkpt>
      <trkpt lat="17.032617030" lon="-96.355992440">
        <ele>2549.700</ele>
        <time>2020-01-21T16:28:43Z</time>
      </trkpt>
      <trkpt lat="17.032644670" lon="-96.356029910">
        <ele>2550.100</ele>
        <time>2020-01-21T16:28:44Z</time>
      </trkpt>
      <trkpt lat="17.032672930" lon="-96.356068780">
        <ele>2550.800</ele>
        <time>2020-01-21T16:28:45Z</time>
      </trkpt>
      <trkpt lat="17.032721780" lon="-96.356129170">
        <ele>2552.100</ele>
        <time>2020-01-21T16:28:47Z</time>
      </trkpt>
      <trkpt lat="17.032745530" lon="-96.356163970">
        <ele>2552.500</ele>
        <time>2020-01-21T16:28:48Z</time>
      </trkpt>
      <trkpt lat="17.032765250" lon="-96.356209260">
        <ele>2553.200</ele>
        <time>2020-01-21T16:28:49Z</time>
      </trkpt>
      <trkpt lat="17.032786130" lon="-96.356255230">
        <ele>2553.300</ele>
        <time>2020-01-21T16:28:50Z</time>
      </trkpt>
      <trkpt lat="17.032806970" lon="-96.356287880">
        <ele>2553.900</ele>
        <time>2020-01-21T16:28:51Z</time>
      </trkpt>
      <trkpt lat="17.032837560" lon="-96.356338430">
        <ele>2555.300</ele>
        <time>2020-01-21T16:28:53Z</time>
      </trkpt>
      <trkpt lat="17.032861540" lon="-96.356374230">
        <ele>2556.200</ele>
        <time>2020-01-21T16:28:55Z</time>
      </trkpt>
      <trkpt lat="17.032877540" lon="-96.356417520">
        <ele>2555.600</ele>
        <time>2020-01-21T16:28:57Z</time>
      </trkpt>
      <trkpt lat="17.032892220" lon="-96.356458930">
        <ele>2557.100</ele>
        <time>2020-01-21T16:28:59Z</time>
      </trkpt>
      <trkpt lat="17.032914520" lon="-96.356507040">
        <ele>2558.200</ele>
        <time>2020-01-21T16:29:01Z</time>
      </trkpt>
      <trkpt lat="17.032944050" lon="-96.356540100">
        <ele>2559.400</ele>
        <time>2020-01-21T16:29:03Z</time>
      </trkpt>
      <trkpt lat="17.032997270" lon="-96.356532480">
        <ele>2559.300</ele>
        <time>2020-01-21T16:29:06Z</time>
      </trkpt>
      <trkpt lat="17.033030160" lon="-96.356501190">
        <ele>2559.100</ele>
        <time>2020-01-21T16:29:08Z</time>
      </trkpt>
      <trkpt lat="17.033051290" lon="-96.356459190">
        <ele>2559.600</ele>
        <time>2020-01-21T16:29:10Z</time>
      </trkpt>
      <trkpt lat="17.033062410" lon="-96.356415940">
        <ele>2562.200</ele>
        <time>2020-01-21T16:29:12Z</time>
      </trkpt>
      <trkpt lat="17.033066730" lon="-96.356366580">
        <ele>2562.600</ele>
        <time>2020-01-21T16:29:14Z</time>
      </trkpt>
      <trkpt lat="17.033078000" lon="-96.356315510">
        <ele>2562.500</ele>
        <time>2020-01-21T16:29:16Z</time>
      </trkpt>
      <trkpt lat="17.033087260" lon="-96.356257410">
        <ele>2563.600</ele>
        <time>2020-01-21T16:29:18Z</time>
      </trkpt>
      <trkpt lat="17.033099220" lon="-96.356195440">
        <ele>2562.900</ele>
        <time>2020-01-21T16:29:20Z</time>
      </trkpt>
      <trkpt lat="17.033106180" lon="-96.356158500">
        <ele>2562.900</ele>
        <time>2020-01-21T16:29:21Z</time>
      </trkpt>
      <trkpt lat="17.033108380" lon="-96.356116500">
        <ele>2563.300</ele>
        <time>2020-01-21T16:29:22Z</time>
      </trkpt>
      <trkpt lat="17.033110270" lon="-96.356071590">
        <ele>2563.200</ele>
        <time>2020-01-21T16:29:23Z</time>
      </trkpt>
      <trkpt lat="17.033108990" lon="-96.356029100">
        <ele>2564.300</ele>
        <time>2020-01-21T16:29:24Z</time>
      </trkpt>
      <trkpt lat="17.033106500" lon="-96.355985980">
        <ele>2565.500</ele>
        <time>2020-01-21T16:29:25Z</time>
      </trkpt>
      <trkpt lat="17.033103230" lon="-96.355923890">
        <ele>2566.500</ele>
        <time>2020-01-21T16:29:27Z</time>
      </trkpt>
      <trkpt lat="17.033106870" lon="-96.355881820">
        <ele>2566.600</ele>
        <time>2020-01-21T16:29:28Z</time>
      </trkpt>
      <trkpt lat="17.033113310" lon="-96.355838950">
        <ele>2565.900</ele>
        <time>2020-01-21T16:29:29Z</time>
      </trkpt>
      <trkpt lat="17.033127440" lon="-96.355768600">
        <ele>2563.700</ele>
        <time>2020-01-21T16:29:30Z</time>
      </trkpt>
      <trkpt lat="17.033135670" lon="-96.355694720">
        <ele>2565.200</ele>
        <time>2020-01-21T16:29:31Z</time>
      </trkpt>
      <trkpt lat="17.033165520" lon="-96.355667120">
        <ele>2565.700</ele>
        <time>2020-01-21T16:29:32Z</time>
      </trkpt>
      <trkpt lat="17.033205590" lon="-96.355638980">
        <ele>2566.200</ele>
        <time>2020-01-21T16:29:33Z</time>
      </trkpt>
      <trkpt lat="17.033247500" lon="-96.355624730">
        <ele>2566.000</ele>
        <time>2020-01-21T16:29:34Z</time>
      </trkpt>
      <trkpt lat="17.033313810" lon="-96.355631940">
        <ele>2567.600</ele>
        <time>2020-01-21T16:29:36Z</time>
      </trkpt>
      <trkpt lat="17.033336810" lon="-96.355671550">
        <ele>2566.800</ele>
        <time>2020-01-21T16:29:37Z</time>
      </trkpt>
      <trkpt lat="17.033401630" lon="-96.355713080">
        <ele>2568.200</ele>
        <time>2020-01-21T16:29:39Z</time>
      </trkpt>
      <trkpt lat="17.033431730" lon="-96.355745920">
        <ele>2569.400</ele>
        <time>2020-01-21T16:29:40Z</time>
      </trkpt>
      <trkpt lat="17.033459750" lon="-96.355774380">
        <ele>2570.300</ele>
        <time>2020-01-21T16:29:41Z</time>
      </trkpt>
      <trkpt lat="17.033485570" lon="-96.355800690">
        <ele>2570.300</ele>
        <time>2020-01-21T16:29:42Z</time>
      </trkpt>
      <trkpt lat="17.033534480" lon="-96.355850640">
        <ele>2570.800</ele>
        <time>2020-01-21T16:29:44Z</time>
      </trkpt>
      <trkpt lat="17.033560580" lon="-96.355878200">
        <ele>2570.700</ele>
        <time>2020-01-21T16:29:45Z</time>
      </trkpt>
      <trkpt lat="17.033587800" lon="-96.355909600">
        <ele>2571.500</ele>
        <time>2020-01-21T16:29:46Z</time>
      </trkpt>
      <trkpt lat="17.033617770" lon="-96.355941040">
        <ele>2571.400</ele>
        <time>2020-01-21T16:29:47Z</time>
      </trkpt>
      <trkpt lat="17.033649850" lon="-96.355971370">
        <ele>2571.100</ele>
        <time>2020-01-21T16:29:48Z</time>
      </trkpt>
      <trkpt lat="17.033684140" lon="-96.356000010">
        <ele>2571.900</ele>
        <time>2020-01-21T16:29:49Z</time>
      </trkpt>
      <trkpt lat="17.033718660" lon="-96.356023430">
        <ele>2573.500</ele>
        <time>2020-01-21T16:29:50Z</time>
      </trkpt>
      <trkpt lat="17.033756110" lon="-96.356043450">
        <ele>2575.600</ele>
        <time>2020-01-21T16:29:51Z</time>
      </trkpt>
      <trkpt lat="17.033796440" lon="-96.356058510">
        <ele>2576.800</ele>
        <time>2020-01-21T16:29:52Z</time>
      </trkpt>
      <trkpt lat="17.033834620" lon="-96.356072120">
        <ele>2578.400</ele>
        <time>2020-01-21T16:29:53Z</time>
      </trkpt>
      <trkpt lat="17.033873420" lon="-96.356082900">
        <ele>2578.600</ele>
        <time>2020-01-21T16:29:54Z</time>
      </trkpt>
      <trkpt lat="17.033911120" lon="-96.356091290">
        <ele>2578.600</ele>
        <time>2020-01-21T16:29:55Z</time>
      </trkpt>
      <trkpt lat="17.033953580" lon="-96.356102370">
        <ele>2577.400</ele>
        <time>2020-01-21T16:29:56Z</time>
      </trkpt>
      <trkpt lat="17.033995390" lon="-96.356114520">
        <ele>2578.100</ele>
        <time>2020-01-21T16:29:57Z</time>
      </trkpt>
      <trkpt lat="17.034033300" lon="-96.356130590">
        <ele>2578.400</ele>
        <time>2020-01-21T16:29:58Z</time>
      </trkpt>
      <trkpt lat="17.034076030" lon="-96.356152040">
        <ele>2578.400</ele>
        <time>2020-01-21T16:29:59Z</time>
      </trkpt>
      <trkpt lat="17.034112370" lon="-96.356180200">
        <ele>2578.600</ele>
        <time>2020-01-21T16:30:00Z</time>
      </trkpt>
      <trkpt lat="17.034157240" lon="-96.356202830">
        <ele>2578.400</ele>
        <time>2020-01-21T16:30:01Z</time>
      </trkpt>
      <trkpt lat="17.034197590" lon="-96.356219690">
        <ele>2580.600</ele>
        <time>2020-01-21T16:30:02Z</time>
      </trkpt>
      <trkpt lat="17.034243420" lon="-96.356247390">
        <ele>2581.600</ele>
        <time>2020-01-21T16:30:03Z</time>
      </trkpt>
      <trkpt lat="17.034280780" lon="-96.356266010">
        <ele>2582.600</ele>
        <time>2020-01-21T16:30:04Z</time>
      </trkpt>
      <trkpt lat="17.034327280" lon="-96.356295470">
        <ele>2582.800</ele>
        <time>2020-01-21T16:30:05Z</time>
      </trkpt>
      <trkpt lat="17.034371280" lon="-96.356338010">
        <ele>2583.200</ele>
        <time>2020-01-21T16:30:06Z</time>
      </trkpt>
      <trkpt lat="17.034408360" lon="-96.356366950">
        <ele>2584.200</ele>
        <time>2020-01-21T16:30:07Z</time>
      </trkpt>
      <trkpt lat="17.034442950" lon="-96.356398250">
        <ele>2586.300</ele>
        <time>2020-01-21T16:30:08Z</time>
      </trkpt>
      <trkpt lat="17.034474540" lon="-96.356429300">
        <ele>2586.600</ele>
        <time>2020-01-21T16:30:09Z</time>
      </trkpt>
      <trkpt lat="17.034506120" lon="-96.356456320">
        <ele>2587.100</ele>
        <time>2020-01-21T16:30:10Z</time>
      </trkpt>
      <trkpt lat="17.034539600" lon="-96.356486910">
        <ele>2588.000</ele>
        <time>2020-01-21T16:30:11Z</time>
      </trkpt>
      <trkpt lat="17.034575150" lon="-96.356516270">
        <ele>2588.100</ele>
        <time>2020-01-21T16:30:12Z</time>
      </trkpt>
      <trkpt lat="17.034607130" lon="-96.356557390">
        <ele>2588.500</ele>
        <time>2020-01-21T16:30:13Z</time>
      </trkpt>
      <trkpt lat="17.034672710" lon="-96.356590610">
        <ele>2589.600</ele>
        <time>2020-01-21T16:30:15Z</time>
      </trkpt>
      <trkpt lat="17.034713640" lon="-96.356607880">
        <ele>2589.600</ele>
        <time>2020-01-21T16:30:16Z</time>
      </trkpt>
      <trkpt lat="17.034763440" lon="-96.356630060">
        <ele>2591.300</ele>
        <time>2020-01-21T16:30:17Z</time>
      </trkpt>
      <trkpt lat="17.034812360" lon="-96.356636200">
        <ele>2591.700</ele>
        <time>2020-01-21T16:30:18Z</time>
      </trkpt>
      <trkpt lat="17.034856970" lon="-96.356637410">
        <ele>2592.100</ele>
        <time>2020-01-21T16:30:19Z</time>
      </trkpt>
      <trkpt lat="17.034897760" lon="-96.356646100">
        <ele>2592.200</ele>
        <time>2020-01-21T16:30:20Z</time>
      </trkpt>
      <trkpt lat="17.034939840" lon="-96.356647770">
        <ele>2592.700</ele>
        <time>2020-01-21T16:30:21Z</time>
      </trkpt>
      <trkpt lat="17.034980470" lon="-96.356655910">
        <ele>2592.700</ele>
        <time>2020-01-21T16:30:22Z</time>
      </trkpt>
      <trkpt lat="17.035022280" lon="-96.356664880">
        <ele>2593.800</ele>
        <time>2020-01-21T16:30:23Z</time>
      </trkpt>
      <trkpt lat="17.035068800" lon="-96.356679210">
        <ele>2592.700</ele>
        <time>2020-01-21T16:30:24Z</time>
      </trkpt>
      <trkpt lat="17.035104860" lon="-96.356683000">
        <ele>2593.000</ele>
        <time>2020-01-21T16:30:25Z</time>
      </trkpt>
      <trkpt lat="17.035155280" lon="-96.356680200">
        <ele>2594.700</ele>
        <time>2020-01-21T16:30:26Z</time>
      </trkpt>
      <trkpt lat="17.035205810" lon="-96.356696380">
        <ele>2593.900</ele>
        <time>2020-01-21T16:30:27Z</time>
      </trkpt>
      <trkpt lat="17.035245080" lon="-96.356707800">
        <ele>2594.400</ele>
        <time>2020-01-21T16:30:28Z</time>
      </trkpt>
      <trkpt lat="17.035286360" lon="-96.356720220">
        <ele>2594.000</ele>
        <time>2020-01-21T16:30:29Z</time>
      </trkpt>
      <trkpt lat="17.035326930" lon="-96.356734830">
        <ele>2593.900</ele>
        <time>2020-01-21T16:30:30Z</time>
      </trkpt>
      <trkpt lat="17.035362630" lon="-96.356752580">
        <ele>2594.000</ele>
        <time>2020-01-21T16:30:31Z</time>
      </trkpt>
      <trkpt lat="17.035396730" lon="-96.356767660">
        <ele>2594.200</ele>
        <time>2020-01-21T16:30:32Z</time>
      </trkpt>
      <trkpt lat="17.035470970" lon="-96.356789750">
        <ele>2594.400</ele>
        <time>2020-01-21T16:30:34Z</time>
      </trkpt>
      <trkpt lat="17.035508590" lon="-96.356811120">
        <ele>2594.500</ele>
        <time>2020-01-21T16:30:35Z</time>
      </trkpt>
      <trkpt lat="17.035545620" lon="-96.356836500">
        <ele>2595.300</ele>
        <time>2020-01-21T16:30:36Z</time>
      </trkpt>
      <trkpt lat="17.035578850" lon="-96.356863590">
        <ele>2595.500</ele>
        <time>2020-01-21T16:30:37Z</time>
      </trkpt>
      <trkpt lat="17.035605820" lon="-96.356892770">
        <ele>2596.200</ele>
        <time>2020-01-21T16:30:38Z</time>
      </trkpt>
      <trkpt lat="17.035628380" lon="-96.356926170">
        <ele>2596.600</ele>
        <time>2020-01-21T16:30:39Z</time>
      </trkpt>
      <trkpt lat="17.035655840" lon="-96.356993920">
        <ele>2597.300</ele>
        <time>2020-01-21T16:30:41Z</time>
      </trkpt>
      <trkpt lat="17.035664420" lon="-96.357065360">
        <ele>2596.600</ele>
        <time>2020-01-21T16:30:43Z</time>
      </trkpt>
      <trkpt lat="17.035668120" lon="-96.357135730">
        <ele>2597.100</ele>
        <time>2020-01-21T16:30:45Z</time>
      </trkpt>
      <trkpt lat="17.035668710" lon="-96.357174940">
        <ele>2596.800</ele>
        <time>2020-01-21T16:30:46Z</time>
      </trkpt>
      <trkpt lat="17.035682980" lon="-96.357226700">
        <ele>2597.500</ele>
        <time>2020-01-21T16:30:48Z</time>
      </trkpt>
      <trkpt lat="17.035681260" lon="-96.357282990">
        <ele>2599.400</ele>
        <time>2020-01-21T16:30:50Z</time>
      </trkpt>
      <trkpt lat="17.035656550" lon="-96.357337030">
        <ele>2599.600</ele>
        <time>2020-01-21T16:30:52Z</time>
      </trkpt>
      <trkpt lat="17.035625080" lon="-96.357397180">
        <ele>2598.900</ele>
        <time>2020-01-21T16:30:54Z</time>
      </trkpt>
      <trkpt lat="17.035600010" lon="-96.357429520">
        <ele>2599.800</ele>
        <time>2020-01-21T16:30:55Z</time>
      </trkpt>
      <trkpt lat="17.035574870" lon="-96.357467870">
        <ele>2599.800</ele>
        <time>2020-01-21T16:30:56Z</time>
      </trkpt>
      <trkpt lat="17.035546280" lon="-96.357516540">
        <ele>2598.800</ele>
        <time>2020-01-21T16:30:57Z</time>
      </trkpt>
      <trkpt lat="17.035524460" lon="-96.357556720">
        <ele>2598.800</ele>
        <time>2020-01-21T16:30:58Z</time>
      </trkpt>
      <trkpt lat="17.035504450" lon="-96.357599420">
        <ele>2599.000</ele>
        <time>2020-01-21T16:30:59Z</time>
      </trkpt>
      <trkpt lat="17.035480370" lon="-96.357636540">
        <ele>2599.900</ele>
        <time>2020-01-21T16:31:00Z</time>
      </trkpt>
      <trkpt lat="17.035466730" lon="-96.357678850">
        <ele>2599.500</ele>
        <time>2020-01-21T16:31:01Z</time>
      </trkpt>
      <trkpt lat="17.035454750" lon="-96.357728930">
        <ele>2598.300</ele>
        <time>2020-01-21T16:31:03Z</time>
      </trkpt>
      <trkpt lat="17.035435130" lon="-96.357778220">
        <ele>2598.600</ele>
        <time>2020-01-21T16:31:05Z</time>
      </trkpt>
      <trkpt lat="17.035429640" lon="-96.357831470">
        <ele>2597.900</ele>
        <time>2020-01-21T16:31:07Z</time>
      </trkpt>
      <trkpt lat="17.035434020" lon="-96.357874460">
        <ele>2597.800</ele>
        <time>2020-01-21T16:31:09Z</time>
      </trkpt>
      <trkpt lat="17.035442280" lon="-96.357911620">
        <ele>2598.300</ele>
        <time>2020-01-21T16:31:10Z</time>
      </trkpt>
      <trkpt lat="17.035457290" lon="-96.357955980">
        <ele>2599.100</ele>
        <time>2020-01-21T16:31:11Z</time>
      </trkpt>
      <trkpt lat="17.035469210" lon="-96.357993280">
        <ele>2598.700</ele>
        <time>2020-01-21T16:31:12Z</time>
      </trkpt>
      <trkpt lat="17.035485260" lon="-96.358031730">
        <ele>2598.600</ele>
        <time>2020-01-21T16:31:13Z</time>
      </trkpt>
      <trkpt lat="17.035516370" lon="-96.358101450">
        <ele>2601.600</ele>
        <time>2020-01-21T16:31:15Z</time>
      </trkpt>
      <trkpt lat="17.035536780" lon="-96.358140180">
        <ele>2601.400</ele>
        <time>2020-01-21T16:31:16Z</time>
      </trkpt>
      <trkpt lat="17.035558250" lon="-96.358178810">
        <ele>2601.700</ele>
        <time>2020-01-21T16:31:17Z</time>
      </trkpt>
      <trkpt lat="17.035604290" lon="-96.358251040">
        <ele>2601.800</ele>
        <time>2020-01-21T16:31:19Z</time>
      </trkpt>
      <trkpt lat="17.035630410" lon="-96.358293920">
        <ele>2601.000</ele>
        <time>2020-01-21T16:31:20Z</time>
      </trkpt>
      <trkpt lat="17.035652580" lon="-96.358330400">
        <ele>2601.400</ele>
        <time>2020-01-21T16:31:21Z</time>
      </trkpt>
      <trkpt lat="17.035683540" lon="-96.358372280">
        <ele>2601.800</ele>
        <time>2020-01-21T16:31:22Z</time>
      </trkpt>
      <trkpt lat="17.035704600" lon="-96.358414110">
        <ele>2601.000</ele>
        <time>2020-01-21T16:31:23Z</time>
      </trkpt>
      <trkpt lat="17.035726430" lon="-96.358459160">
        <ele>2602.000</ele>
        <time>2020-01-21T16:31:24Z</time>
      </trkpt>
      <trkpt lat="17.035757720" lon="-96.358504010">
        <ele>2602.400</ele>
        <time>2020-01-21T16:31:25Z</time>
      </trkpt>
      <trkpt lat="17.035776610" lon="-96.358544940">
        <ele>2602.200</ele>
        <time>2020-01-21T16:31:26Z</time>
      </trkpt>
      <trkpt lat="17.035802600" lon="-96.358583330">
        <ele>2602.700</ele>
        <time>2020-01-21T16:31:27Z</time>
      </trkpt>
      <trkpt lat="17.035827350" lon="-96.358621290">
        <ele>2603.500</ele>
        <time>2020-01-21T16:31:28Z</time>
      </trkpt>
      <trkpt lat="17.035847640" lon="-96.358657850">
        <ele>2603.900</ele>
        <time>2020-01-21T16:31:29Z</time>
      </trkpt>
      <trkpt lat="17.035878270" lon="-96.358689650">
        <ele>2603.000</ele>
        <time>2020-01-21T16:31:30Z</time>
      </trkpt>
      <trkpt lat="17.035904230" lon="-96.358724320">
        <ele>2603.400</ele>
        <time>2020-01-21T16:31:31Z</time>
      </trkpt>
      <trkpt lat="17.035927870" lon="-96.358758040">
        <ele>2604.000</ele>
        <time>2020-01-21T16:31:32Z</time>
      </trkpt>
      <trkpt lat="17.035949220" lon="-96.358789480">
        <ele>2604.200</ele>
        <time>2020-01-21T16:31:33Z</time>
      </trkpt>
      <trkpt lat="17.035989860" lon="-96.358843690">
        <ele>2604.400</ele>
        <time>2020-01-21T16:31:35Z</time>
      </trkpt>
      <trkpt lat="17.036040700" lon="-96.358897910">
        <ele>2603.800</ele>
        <time>2020-01-21T16:31:37Z</time>
      </trkpt>
      <trkpt lat="17.036073830" lon="-96.358929310">
        <ele>2605.000</ele>
        <time>2020-01-21T16:31:38Z</time>
      </trkpt>
      <trkpt lat="17.036111620" lon="-96.358960770">
        <ele>2605.200</ele>
        <time>2020-01-21T16:31:39Z</time>
      </trkpt>
      <trkpt lat="17.036142650" lon="-96.358998810">
        <ele>2606.000</ele>
        <time>2020-01-21T16:31:40Z</time>
      </trkpt>
      <trkpt lat="17.036176680" lon="-96.359034770">
        <ele>2606.000</ele>
        <time>2020-01-21T16:31:41Z</time>
      </trkpt>
      <trkpt lat="17.036209990" lon="-96.359073730">
        <ele>2606.500</ele>
        <time>2020-01-21T16:31:42Z</time>
      </trkpt>
      <trkpt lat="17.036245360" lon="-96.359116130">
        <ele>2606.800</ele>
        <time>2020-01-21T16:31:43Z</time>
      </trkpt>
      <trkpt lat="17.036279320" lon="-96.359157430">
        <ele>2606.800</ele>
        <time>2020-01-21T16:31:44Z</time>
      </trkpt>
      <trkpt lat="17.036312430" lon="-96.359197860">
        <ele>2607.300</ele>
        <time>2020-01-21T16:31:45Z</time>
      </trkpt>
      <trkpt lat="17.036343010" lon="-96.359236870">
        <ele>2607.200</ele>
        <time>2020-01-21T16:31:46Z</time>
      </trkpt>
      <trkpt lat="17.036378130" lon="-96.359283000">
        <ele>2606.600</ele>
        <time>2020-01-21T16:31:47Z</time>
      </trkpt>
      <trkpt lat="17.036408250" lon="-96.359321920">
        <ele>2607.400</ele>
        <time>2020-01-21T16:31:48Z</time>
      </trkpt>
      <trkpt lat="17.036439120" lon="-96.359363580">
        <ele>2608.100</ele>
        <time>2020-01-21T16:31:49Z</time>
      </trkpt>
      <trkpt lat="17.036474830" lon="-96.359404650">
        <ele>2607.600</ele>
        <time>2020-01-21T16:31:50Z</time>
      </trkpt>
      <trkpt lat="17.036502500" lon="-96.359444680">
        <ele>2608.200</ele>
        <time>2020-01-21T16:31:51Z</time>
      </trkpt>
      <trkpt lat="17.036532690" lon="-96.359476770">
        <ele>2607.900</ele>
        <time>2020-01-21T16:31:52Z</time>
      </trkpt>
      <trkpt lat="17.036554570" lon="-96.359511310">
        <ele>2607.800</ele>
        <time>2020-01-21T16:31:53Z</time>
      </trkpt>
      <trkpt lat="17.036578230" lon="-96.359543400">
        <ele>2607.300</ele>
        <time>2020-01-21T16:31:54Z</time>
      </trkpt>
      <trkpt lat="17.036621410" lon="-96.359600660">
        <ele>2607.300</ele>
        <time>2020-01-21T16:31:56Z</time>
      </trkpt>
      <trkpt lat="17.036675320" lon="-96.359653490">
        <ele>2608.700</ele>
        <time>2020-01-21T16:31:58Z</time>
      </trkpt>
      <trkpt lat="17.036706360" lon="-96.359697370">
        <ele>2609.100</ele>
        <time>2020-01-21T16:31:59Z</time>
      </trkpt>
      <trkpt lat="17.036746490" lon="-96.359743310">
        <ele>2608.700</ele>
        <time>2020-01-21T16:32:00Z</time>
      </trkpt>
      <trkpt lat="17.036784570" lon="-96.359785170">
        <ele>2609.100</ele>
        <time>2020-01-21T16:32:01Z</time>
      </trkpt>
      <trkpt lat="17.036821510" lon="-96.359823430">
        <ele>2608.400</ele>
        <time>2020-01-21T16:32:02Z</time>
      </trkpt>
      <trkpt lat="17.036863010" lon="-96.359858650">
        <ele>2609.500</ele>
        <time>2020-01-21T16:32:03Z</time>
      </trkpt>
      <trkpt lat="17.036888730" lon="-96.359899490">
        <ele>2610.300</ele>
        <time>2020-01-21T16:32:04Z</time>
      </trkpt>
      <trkpt lat="17.036908950" lon="-96.359949720">
        <ele>2608.500</ele>
        <time>2020-01-21T16:32:05Z</time>
      </trkpt>
      <trkpt lat="17.036946900" lon="-96.359986360">
        <ele>2608.800</ele>
        <time>2020-01-21T16:32:06Z</time>
      </trkpt>
      <trkpt lat="17.036978080" lon="-96.360020600">
        <ele>2607.900</ele>
        <time>2020-01-21T16:32:07Z</time>
      </trkpt>
      <trkpt lat="17.037005710" lon="-96.360067310">
        <ele>2608.400</ele>
        <time>2020-01-21T16:32:08Z</time>
      </trkpt>
      <trkpt lat="17.037030960" lon="-96.360108300">
        <ele>2608.100</ele>
        <time>2020-01-21T16:32:09Z</time>
      </trkpt>
      <trkpt lat="17.037057960" lon="-96.360144500">
        <ele>2606.400</ele>
        <time>2020-01-21T16:32:10Z</time>
      </trkpt>
      <trkpt lat="17.037084140" lon="-96.360183740">
        <ele>2606.100</ele>
        <time>2020-01-21T16:32:11Z</time>
      </trkpt>
      <trkpt lat="17.037109250" lon="-96.360221110">
        <ele>2606.100</ele>
        <time>2020-01-21T16:32:12Z</time>
      </trkpt>
      <trkpt lat="17.037134390" lon="-96.360260810">
        <ele>2605.800</ele>
        <time>2020-01-21T16:32:13Z</time>
      </trkpt>
      <trkpt lat="17.037160400" lon="-96.360300670">
        <ele>2605.800</ele>
        <time>2020-01-21T16:32:14Z</time>
      </trkpt>
      <trkpt lat="17.037186720" lon="-96.360341440">
        <ele>2605.800</ele>
        <time>2020-01-21T16:32:15Z</time>
      </trkpt>
      <trkpt lat="17.037208890" lon="-96.360379640">
        <ele>2605.700</ele>
        <time>2020-01-21T16:32:16Z</time>
      </trkpt>
      <trkpt lat="17.037226970" lon="-96.360414100">
        <ele>2605.400</ele>
        <time>2020-01-21T16:32:17Z</time>
      </trkpt>
      <trkpt lat="17.037242490" lon="-96.360448550">
        <ele>2605.000</ele>
        <time>2020-01-21T16:32:18Z</time>
      </trkpt>
      <trkpt lat="17.037266980" lon="-96.360504320">
        <ele>2604.800</ele>
        <time>2020-01-21T16:32:20Z</time>
      </trkpt>
      <trkpt lat="17.037299920" lon="-96.360556850">
        <ele>2603.400</ele>
        <time>2020-01-21T16:32:22Z</time>
      </trkpt>
      <trkpt lat="17.037324230" lon="-96.360591420">
        <ele>2603.300</ele>
        <time>2020-01-21T16:32:23Z</time>
      </trkpt>
      <trkpt lat="17.037347860" lon="-96.360627100">
        <ele>2603.500</ele>
        <time>2020-01-21T16:32:24Z</time>
      </trkpt>
      <trkpt lat="17.037370000" lon="-96.360665890">
        <ele>2603.700</ele>
        <time>2020-01-21T16:32:25Z</time>
      </trkpt>
      <trkpt lat="17.037391430" lon="-96.360706740">
        <ele>2603.700</ele>
        <time>2020-01-21T16:32:26Z</time>
      </trkpt>
      <trkpt lat="17.037413540" lon="-96.360749130">
        <ele>2604.400</ele>
        <time>2020-01-21T16:32:27Z</time>
      </trkpt>
      <trkpt lat="17.037433040" lon="-96.360787520">
        <ele>2604.700</ele>
        <time>2020-01-21T16:32:28Z</time>
      </trkpt>
      <trkpt lat="17.037460510" lon="-96.360849640">
        <ele>2603.100</ele>
        <time>2020-01-21T16:32:30Z</time>
      </trkpt>
      <trkpt lat="17.037482640" lon="-96.360903270">
        <ele>2602.600</ele>
        <time>2020-01-21T16:32:32Z</time>
      </trkpt>
      <trkpt lat="17.037501650" lon="-96.360965360">
        <ele>2602.500</ele>
        <time>2020-01-21T16:32:34Z</time>
      </trkpt>
      <trkpt lat="17.037525770" lon="-96.361031860">
        <ele>2603.000</ele>
        <time>2020-01-21T16:32:36Z</time>
      </trkpt>
      <trkpt lat="17.037546330" lon="-96.361094580">
        <ele>2601.700</ele>
        <time>2020-01-21T16:32:38Z</time>
      </trkpt>
      <trkpt lat="17.037562170" lon="-96.361164050">
        <ele>2600.800</ele>
        <time>2020-01-21T16:32:40Z</time>
      </trkpt>
      <trkpt lat="17.037570200" lon="-96.361233740">
        <ele>2602.000</ele>
        <time>2020-01-21T16:32:42Z</time>
      </trkpt>
      <trkpt lat="17.037575090" lon="-96.361274300">
        <ele>2602.600</ele>
        <time>2020-01-21T16:32:43Z</time>
      </trkpt>
      <trkpt lat="17.037578630" lon="-96.361313600">
        <ele>2602.500</ele>
        <time>2020-01-21T16:32:44Z</time>
      </trkpt>
      <trkpt lat="17.037585210" lon="-96.361351500">
        <ele>2602.400</ele>
        <time>2020-01-21T16:32:45Z</time>
      </trkpt>
      <trkpt lat="17.037592370" lon="-96.361394930">
        <ele>2602.200</ele>
        <time>2020-01-21T16:32:46Z</time>
      </trkpt>
      <trkpt lat="17.037603220" lon="-96.361441010">
        <ele>2601.700</ele>
        <time>2020-01-21T16:32:47Z</time>
      </trkpt>
      <trkpt lat="17.037614000" lon="-96.361487450">
        <ele>2602.000</ele>
        <time>2020-01-21T16:32:48Z</time>
      </trkpt>
      <trkpt lat="17.037624160" lon="-96.361533900">
        <ele>2602.000</ele>
        <time>2020-01-21T16:32:49Z</time>
      </trkpt>
      <trkpt lat="17.037634070" lon="-96.361584380">
        <ele>2603.100</ele>
        <time>2020-01-21T16:32:50Z</time>
      </trkpt>
      <trkpt lat="17.037640660" lon="-96.361633160">
        <ele>2602.600</ele>
        <time>2020-01-21T16:32:51Z</time>
      </trkpt>
      <trkpt lat="17.037646210" lon="-96.361674420">
        <ele>2602.500</ele>
        <time>2020-01-21T16:32:52Z</time>
      </trkpt>
      <trkpt lat="17.037650810" lon="-96.361712700">
        <ele>2605.000</ele>
        <time>2020-01-21T16:32:54Z</time>
      </trkpt>
      <trkpt lat="17.037657080" lon="-96.361753760">
        <ele>2605.900</ele>
        <time>2020-01-21T16:33:59Z</time>
      </trkpt>
      <trkpt lat="17.037665470" lon="-96.361795140">
        <ele>2606.800</ele>
        <time>2020-01-21T16:34:03Z</time>
      </trkpt>
      <trkpt lat="17.037684240" lon="-96.361836900">
        <ele>2605.200</ele>
        <time>2020-01-21T16:34:08Z</time>
      </trkpt>
      <trkpt lat="17.037703890" lon="-96.361878870">
        <ele>2605.600</ele>
        <time>2020-01-21T16:34:11Z</time>
      </trkpt>
      <trkpt lat="17.037721420" lon="-96.361931750">
        <ele>2606.800</ele>
        <time>2020-01-21T16:34:14Z</time>
      </trkpt>
      <trkpt lat="17.037732310" lon="-96.361987390">
        <ele>2607.200</ele>
        <time>2020-01-21T16:34:16Z</time>
      </trkpt>
      <trkpt lat="17.037746330" lon="-96.362042140">
        <ele>2606.300</ele>
        <time>2020-01-21T16:34:18Z</time>
      </trkpt>
      <trkpt lat="17.037766690" lon="-96.362105420">
        <ele>2606.500</ele>
        <time>2020-01-21T16:34:20Z</time>
      </trkpt>
      <trkpt lat="17.037785520" lon="-96.362172050">
        <ele>2607.500</ele>
        <time>2020-01-21T16:34:22Z</time>
      </trkpt>
      <trkpt lat="17.037790710" lon="-96.362243600">
        <ele>2607.600</ele>
        <time>2020-01-21T16:34:24Z</time>
      </trkpt>
      <trkpt lat="17.037778760" lon="-96.362316510">
        <ele>2607.800</ele>
        <time>2020-01-21T16:34:26Z</time>
      </trkpt>
      <trkpt lat="17.037759200" lon="-96.362352170">
        <ele>2607.200</ele>
        <time>2020-01-21T16:34:27Z</time>
      </trkpt>
      <trkpt lat="17.037729160" lon="-96.362386480">
        <ele>2607.100</ele>
        <time>2020-01-21T16:34:28Z</time>
      </trkpt>
      <trkpt lat="17.037695250" lon="-96.362420660">
        <ele>2607.900</ele>
        <time>2020-01-21T16:34:29Z</time>
      </trkpt>
      <trkpt lat="17.037661580" lon="-96.362450040">
        <ele>2608.500</ele>
        <time>2020-01-21T16:34:30Z</time>
      </trkpt>
      <trkpt lat="17.037624710" lon="-96.362477860">
        <ele>2609.500</ele>
        <time>2020-01-21T16:34:31Z</time>
      </trkpt>
      <trkpt lat="17.037581130" lon="-96.362508440">
        <ele>2609.600</ele>
        <time>2020-01-21T16:34:32Z</time>
      </trkpt>
      <trkpt lat="17.037537650" lon="-96.362536250">
        <ele>2609.900</ele>
        <time>2020-01-21T16:34:33Z</time>
      </trkpt>
      <trkpt lat="17.037493200" lon="-96.362563350">
        <ele>2610.600</ele>
        <time>2020-01-21T16:34:34Z</time>
      </trkpt>
      <trkpt lat="17.037449650" lon="-96.362584480">
        <ele>2610.700</ele>
        <time>2020-01-21T16:34:35Z</time>
      </trkpt>
      <trkpt lat="17.037405340" lon="-96.362600900">
        <ele>2611.200</ele>
        <time>2020-01-21T16:34:36Z</time>
      </trkpt>
      <trkpt lat="17.037362210" lon="-96.362614510">
        <ele>2611.400</ele>
        <time>2020-01-21T16:34:37Z</time>
      </trkpt>
      <trkpt lat="17.037323260" lon="-96.362627000">
        <ele>2611.800</ele>
        <time>2020-01-21T16:34:38Z</time>
      </trkpt>
      <trkpt lat="17.037279910" lon="-96.362636620">
        <ele>2611.800</ele>
        <time>2020-01-21T16:34:39Z</time>
      </trkpt>
      <trkpt lat="17.037241430" lon="-96.362649890">
        <ele>2611.800</ele>
        <time>2020-01-21T16:34:40Z</time>
      </trkpt>
      <trkpt lat="17.037202100" lon="-96.362667040">
        <ele>2612.400</ele>
        <time>2020-01-21T16:34:41Z</time>
      </trkpt>
      <trkpt lat="17.037162290" lon="-96.362681150">
        <ele>2612.500</ele>
        <time>2020-01-21T16:34:42Z</time>
      </trkpt>
      <trkpt lat="17.037120980" lon="-96.362697010">
        <ele>2612.000</ele>
        <time>2020-01-21T16:34:43Z</time>
      </trkpt>
      <trkpt lat="17.037082740" lon="-96.362711620">
        <ele>2612.700</ele>
        <time>2020-01-21T16:34:44Z</time>
      </trkpt>
      <trkpt lat="17.037027720" lon="-96.362728930">
        <ele>2612.900</ele>
        <time>2020-01-21T16:34:46Z</time>
      </trkpt>
      <trkpt lat="17.036985670" lon="-96.362738490">
        <ele>2612.500</ele>
        <time>2020-01-21T16:34:48Z</time>
      </trkpt>
      <trkpt lat="17.036931850" lon="-96.362755860">
        <ele>2613.500</ele>
        <time>2020-01-21T16:34:50Z</time>
      </trkpt>
      <trkpt lat="17.036871770" lon="-96.362782550">
        <ele>2613.900</ele>
        <time>2020-01-21T16:34:52Z</time>
      </trkpt>
      <trkpt lat="17.036815010" lon="-96.362816720">
        <ele>2615.000</ele>
        <time>2020-01-21T16:34:54Z</time>
      </trkpt>
      <trkpt lat="17.036763100" lon="-96.362849170">
        <ele>2617.800</ele>
        <time>2020-01-21T16:34:56Z</time>
      </trkpt>
      <trkpt lat="17.036717030" lon="-96.362877820">
        <ele>2618.700</ele>
        <time>2020-01-21T16:34:58Z</time>
      </trkpt>
      <trkpt lat="17.036671080" lon="-96.362911950">
        <ele>2619.700</ele>
        <time>2020-01-21T16:35:00Z</time>
      </trkpt>
      <trkpt lat="17.036627350" lon="-96.362939830">
        <ele>2618.500</ele>
        <time>2020-01-21T16:35:02Z</time>
      </trkpt>
      <trkpt lat="17.036588100" lon="-96.362966710">
        <ele>2618.400</ele>
        <time>2020-01-21T16:35:04Z</time>
      </trkpt>
      <trkpt lat="17.036554940" lon="-96.362996910">
        <ele>2618.800</ele>
        <time>2020-01-21T16:35:06Z</time>
      </trkpt>
      <trkpt lat="17.036513170" lon="-96.363027590">
        <ele>2619.300</ele>
        <time>2020-01-21T16:35:08Z</time>
      </trkpt>
      <trkpt lat="17.036461180" lon="-96.363071250">
        <ele>2619.600</ele>
        <time>2020-01-21T16:35:10Z</time>
      </trkpt>
      <trkpt lat="17.036430640" lon="-96.363096670">
        <ele>2619.800</ele>
        <time>2020-01-21T16:35:11Z</time>
      </trkpt>
      <trkpt lat="17.036400780" lon="-96.363123610">
        <ele>2620.000</ele>
        <time>2020-01-21T16:35:12Z</time>
      </trkpt>
      <trkpt lat="17.036371590" lon="-96.363150940">
        <ele>2620.300</ele>
        <time>2020-01-21T16:35:13Z</time>
      </trkpt>
      <trkpt lat="17.036342040" lon="-96.363177710">
        <ele>2620.600</ele>
        <time>2020-01-21T16:35:14Z</time>
      </trkpt>
      <trkpt lat="17.036313770" lon="-96.363204720">
        <ele>2621.200</ele>
        <time>2020-01-21T16:35:15Z</time>
      </trkpt>
      <trkpt lat="17.036286820" lon="-96.363231530">
        <ele>2621.600</ele>
        <time>2020-01-21T16:35:16Z</time>
      </trkpt>
      <trkpt lat="17.036237850" lon="-96.363281900">
        <ele>2622.100</ele>
        <time>2020-01-21T16:35:18Z</time>
      </trkpt>
      <trkpt lat="17.036190520" lon="-96.363329880">
        <ele>2622.400</ele>
        <time>2020-01-21T16:35:20Z</time>
      </trkpt>
      <trkpt lat="17.036147370" lon="-96.363377520">
        <ele>2623.100</ele>
        <time>2020-01-21T16:35:22Z</time>
      </trkpt>
      <trkpt lat="17.036121600" lon="-96.363418170">
        <ele>2623.200</ele>
        <time>2020-01-21T16:35:24Z</time>
      </trkpt>
      <trkpt lat="17.036099470" lon="-96.363460720">
        <ele>2623.700</ele>
        <time>2020-01-21T16:35:26Z</time>
      </trkpt>
      <trkpt lat="17.036073760" lon="-96.363518950">
        <ele>2623.000</ele>
        <time>2020-01-21T16:35:28Z</time>
      </trkpt>
      <trkpt lat="17.036052230" lon="-96.363566390">
        <ele>2622.700</ele>
        <time>2020-01-21T16:35:30Z</time>
      </trkpt>
      <trkpt lat="17.036029310" lon="-96.363628960">
        <ele>2623.600</ele>
        <time>2020-01-21T16:35:32Z</time>
      </trkpt>
      <trkpt lat="17.036001930" lon="-96.363681490">
        <ele>2625.200</ele>
        <time>2020-01-21T16:35:34Z</time>
      </trkpt>
      <trkpt lat="17.035979310" lon="-96.363728840">
        <ele>2626.200</ele>
        <time>2020-01-21T16:35:36Z</time>
      </trkpt>
      <trkpt lat="17.035959310" lon="-96.363771260">
        <ele>2624.600</ele>
        <time>2020-01-21T16:35:38Z</time>
      </trkpt>
      <trkpt lat="17.035937150" lon="-96.363837510">
        <ele>2625.400</ele>
        <time>2020-01-21T16:35:40Z</time>
      </trkpt>
      <trkpt lat="17.035921380" lon="-96.363904870">
        <ele>2625.400</ele>
        <time>2020-01-21T16:35:42Z</time>
      </trkpt>
      <trkpt lat="17.035907630" lon="-96.363966980">
        <ele>2627.700</ele>
        <time>2020-01-21T16:35:44Z</time>
      </trkpt>
      <trkpt lat="17.035893800" lon="-96.364024200">
        <ele>2628.200</ele>
        <time>2020-01-21T16:35:46Z</time>
      </trkpt>
      <trkpt lat="17.035868990" lon="-96.364085550">
        <ele>2628.500</ele>
        <time>2020-01-21T16:35:48Z</time>
      </trkpt>
      <trkpt lat="17.035857350" lon="-96.364123940">
        <ele>2627.800</ele>
        <time>2020-01-21T16:35:49Z</time>
      </trkpt>
      <trkpt lat="17.035847680" lon="-96.364161510">
        <ele>2626.900</ele>
        <time>2020-01-21T16:35:50Z</time>
      </trkpt>
      <trkpt lat="17.035842500" lon="-96.364198990">
        <ele>2625.800</ele>
        <time>2020-01-21T16:35:51Z</time>
      </trkpt>
      <trkpt lat="17.035840260" lon="-96.364239210">
        <ele>2626.100</ele>
        <time>2020-01-21T16:35:52Z</time>
      </trkpt>
      <trkpt lat="17.035836620" lon="-96.364277860">
        <ele>2626.400</ele>
        <time>2020-01-21T16:35:53Z</time>
      </trkpt>
      <trkpt lat="17.035823250" lon="-96.364336640">
        <ele>2626.600</ele>
        <time>2020-01-21T16:35:55Z</time>
      </trkpt>
      <trkpt lat="17.035812570" lon="-96.364389200">
        <ele>2627.200</ele>
        <time>2020-01-21T16:35:57Z</time>
      </trkpt>
      <trkpt lat="17.035806230" lon="-96.364442350">
        <ele>2629.100</ele>
        <time>2020-01-21T16:35:59Z</time>
      </trkpt>
      <trkpt lat="17.035803670" lon="-96.364481920">
        <ele>2630.600</ele>
        <time>2020-01-21T16:36:00Z</time>
      </trkpt>
      <trkpt lat="17.035798510" lon="-96.364521220">
        <ele>2630.900</ele>
        <time>2020-01-21T16:36:01Z</time>
      </trkpt>
      <trkpt lat="17.035790120" lon="-96.364562080">
        <ele>2630.900</ele>
        <time>2020-01-21T16:36:02Z</time>
      </trkpt>
      <trkpt lat="17.035776490" lon="-96.364601120">
        <ele>2631.400</ele>
        <time>2020-01-21T16:36:03Z</time>
      </trkpt>
      <trkpt lat="17.035757390" lon="-96.364638630">
        <ele>2632.300</ele>
        <time>2020-01-21T16:36:04Z</time>
      </trkpt>
      <trkpt lat="17.035735560" lon="-96.364677190">
        <ele>2631.800</ele>
        <time>2020-01-21T16:36:05Z</time>
      </trkpt>
      <trkpt lat="17.035710350" lon="-96.364710960">
        <ele>2631.400</ele>
        <time>2020-01-21T16:36:06Z</time>
      </trkpt>
      <trkpt lat="17.035661940" lon="-96.364765920">
        <ele>2633.800</ele>
        <time>2020-01-21T16:36:08Z</time>
      </trkpt>
      <trkpt lat="17.035635600" lon="-96.364793040">
        <ele>2634.000</ele>
        <time>2020-01-21T16:36:09Z</time>
      </trkpt>
      <trkpt lat="17.035610620" lon="-96.364821040">
        <ele>2634.500</ele>
        <time>2020-01-21T16:36:10Z</time>
      </trkpt>
      <trkpt lat="17.035556860" lon="-96.364865270">
        <ele>2634.800</ele>
        <time>2020-01-21T16:36:12Z</time>
      </trkpt>
      <trkpt lat="17.035514340" lon="-96.364909390">
        <ele>2635.900</ele>
        <time>2020-01-21T16:36:14Z</time>
      </trkpt>
      <trkpt lat="17.035493320" lon="-96.364958130">
        <ele>2636.800</ele>
        <time>2020-01-21T16:36:16Z</time>
      </trkpt>
      <trkpt lat="17.035502130" lon="-96.365008700">
        <ele>2637.100</ele>
        <time>2020-01-21T16:36:18Z</time>
      </trkpt>
      <trkpt lat="17.035531070" lon="-96.365043950">
        <ele>2636.900</ele>
        <time>2020-01-21T16:36:20Z</time>
      </trkpt>
      <trkpt lat="17.035570270" lon="-96.365064200">
        <ele>2638.300</ele>
        <time>2020-01-21T16:36:22Z</time>
      </trkpt>
      <trkpt lat="17.035615870" lon="-96.365079220">
        <ele>2636.700</ele>
        <time>2020-01-21T16:36:24Z</time>
      </trkpt>
      <trkpt lat="17.035664860" lon="-96.365074010">
        <ele>2637.200</ele>
        <time>2020-01-21T16:36:26Z</time>
      </trkpt>
      <trkpt lat="17.035724830" lon="-96.365063340">
        <ele>2637.400</ele>
        <time>2020-01-21T16:36:28Z</time>
      </trkpt>
      <trkpt lat="17.035793970" lon="-96.365050180">
        <ele>2637.400</ele>
        <time>2020-01-21T16:36:30Z</time>
      </trkpt>
      <trkpt lat="17.035861330" lon="-96.365042380">
        <ele>2637.500</ele>
        <time>2020-01-21T16:36:32Z</time>
      </trkpt>
      <trkpt lat="17.035916770" lon="-96.365044110">
        <ele>2639.500</ele>
        <time>2020-01-21T16:36:34Z</time>
      </trkpt>
      <trkpt lat="17.035970690" lon="-96.365040220">
        <ele>2639.800</ele>
        <time>2020-01-21T16:36:36Z</time>
      </trkpt>
      <trkpt lat="17.036022300" lon="-96.365033500">
        <ele>2639.500</ele>
        <time>2020-01-21T16:36:38Z</time>
      </trkpt>
      <trkpt lat="17.036069320" lon="-96.365018540">
        <ele>2639.900</ele>
        <time>2020-01-21T16:36:40Z</time>
      </trkpt>
      <trkpt lat="17.036113490" lon="-96.365014800">
        <ele>2642.000</ele>
        <time>2020-01-21T16:36:42Z</time>
      </trkpt>
      <trkpt lat="17.036165240" lon="-96.365004020">
        <ele>2645.200</ele>
        <time>2020-01-21T16:36:44Z</time>
      </trkpt>
      <trkpt lat="17.036230020" lon="-96.365013100">
        <ele>2643.900</ele>
        <time>2020-01-21T16:36:46Z</time>
      </trkpt>
      <trkpt lat="17.036285060" lon="-96.365021500">
        <ele>2643.300</ele>
        <time>2020-01-21T16:36:48Z</time>
      </trkpt>
      <trkpt lat="17.036359910" lon="-96.365027180">
        <ele>2643.100</ele>
        <time>2020-01-21T16:36:50Z</time>
      </trkpt>
      <trkpt lat="17.036404820" lon="-96.365020090">
        <ele>2643.900</ele>
        <time>2020-01-21T16:36:51Z</time>
      </trkpt>
      <trkpt lat="17.036449010" lon="-96.365014910">
        <ele>2644.000</ele>
        <time>2020-01-21T16:36:52Z</time>
      </trkpt>
      <trkpt lat="17.036491070" lon="-96.365010350">
        <ele>2644.500</ele>
        <time>2020-01-21T16:36:53Z</time>
      </trkpt>
      <trkpt lat="17.036532480" lon="-96.365004350">
        <ele>2645.400</ele>
        <time>2020-01-21T16:36:54Z</time>
      </trkpt>
      <trkpt lat="17.036572150" lon="-96.365000980">
        <ele>2645.900</ele>
        <time>2020-01-21T16:36:55Z</time>
      </trkpt>
      <trkpt lat="17.036609870" lon="-96.365000610">
        <ele>2646.100</ele>
        <time>2020-01-21T16:36:56Z</time>
      </trkpt>
      <trkpt lat="17.036675200" lon="-96.365004230">
        <ele>2646.400</ele>
        <time>2020-01-21T16:36:58Z</time>
      </trkpt>
      <trkpt lat="17.036737370" lon="-96.365006560">
        <ele>2647.800</ele>
        <time>2020-01-21T16:37:00Z</time>
      </trkpt>
      <trkpt lat="17.036774320" lon="-96.365004780">
        <ele>2648.000</ele>
        <time>2020-01-21T16:37:01Z</time>
      </trkpt>
      <trkpt lat="17.036811250" lon="-96.365006010">
        <ele>2647.700</ele>
        <time>2020-01-21T16:37:02Z</time>
      </trkpt>
      <trkpt lat="17.036852220" lon="-96.365010000">
        <ele>2647.800</ele>
        <time>2020-01-21T16:37:03Z</time>
      </trkpt>
      <trkpt lat="17.036892320" lon="-96.365016260">
        <ele>2648.800</ele>
        <time>2020-01-21T16:37:04Z</time>
      </trkpt>
      <trkpt lat="17.036960390" lon="-96.365031000">
        <ele>2651.100</ele>
        <time>2020-01-21T16:37:06Z</time>
      </trkpt>
      <trkpt lat="17.036996200" lon="-96.365041100">
        <ele>2651.100</ele>
        <time>2020-01-21T16:37:07Z</time>
      </trkpt>
      <trkpt lat="17.037031280" lon="-96.365050900">
        <ele>2651.200</ele>
        <time>2020-01-21T16:37:08Z</time>
      </trkpt>
      <trkpt lat="17.037085050" lon="-96.365066900">
        <ele>2652.200</ele>
        <time>2020-01-21T16:37:10Z</time>
      </trkpt>
      <trkpt lat="17.037150050" lon="-96.365081250">
        <ele>2652.300</ele>
        <time>2020-01-21T16:37:12Z</time>
      </trkpt>
      <trkpt lat="17.037177590" lon="-96.365112540">
        <ele>2651.900</ele>
        <time>2020-01-21T16:37:13Z</time>
      </trkpt>
      <trkpt lat="17.037202630" lon="-96.365143720">
        <ele>2652.100</ele>
        <time>2020-01-21T16:37:14Z</time>
      </trkpt>
      <trkpt lat="17.037227880" lon="-96.365176850">
        <ele>2652.600</ele>
        <time>2020-01-21T16:37:15Z</time>
      </trkpt>
      <trkpt lat="17.037247900" lon="-96.365209400">
        <ele>2651.900</ele>
        <time>2020-01-21T16:37:16Z</time>
      </trkpt>
      <trkpt lat="17.037273220" lon="-96.365269760">
        <ele>2651.600</ele>
        <time>2020-01-21T16:37:18Z</time>
      </trkpt>
      <trkpt lat="17.037284220" lon="-96.365328810">
        <ele>2651.900</ele>
        <time>2020-01-21T16:37:20Z</time>
      </trkpt>
      <trkpt lat="17.037300800" lon="-96.365397110">
        <ele>2650.600</ele>
        <time>2020-01-21T16:37:22Z</time>
      </trkpt>
      <trkpt lat="17.037312890" lon="-96.365469830">
        <ele>2648.600</ele>
        <time>2020-01-21T16:37:24Z</time>
      </trkpt>
      <trkpt lat="17.037320530" lon="-96.365511690">
        <ele>2648.300</ele>
        <time>2020-01-21T16:37:25Z</time>
      </trkpt>
      <trkpt lat="17.037331130" lon="-96.365554880">
        <ele>2648.700</ele>
        <time>2020-01-21T16:37:26Z</time>
      </trkpt>
      <trkpt lat="17.037340290" lon="-96.365599790">
        <ele>2648.500</ele>
        <time>2020-01-21T16:37:27Z</time>
      </trkpt>
      <trkpt lat="17.037346500" lon="-96.365644550">
        <ele>2648.400</ele>
        <time>2020-01-21T16:37:28Z</time>
      </trkpt>
      <trkpt lat="17.037351940" lon="-96.365686940">
        <ele>2647.700</ele>
        <time>2020-01-21T16:37:29Z</time>
      </trkpt>
      <trkpt lat="17.037357300" lon="-96.365728940">
        <ele>2647.400</ele>
        <time>2020-01-21T16:37:30Z</time>
      </trkpt>
      <trkpt lat="17.037366820" lon="-96.365766730">
        <ele>2646.900</ele>
        <time>2020-01-21T16:37:31Z</time>
      </trkpt>
      <trkpt lat="17.037385090" lon="-96.365831010">
        <ele>2646.800</ele>
        <time>2020-01-21T16:37:33Z</time>
      </trkpt>
      <trkpt lat="17.037405760" lon="-96.365899760">
        <ele>2647.700</ele>
        <time>2020-01-21T16:37:35Z</time>
      </trkpt>
      <trkpt lat="17.037440630" lon="-96.365960910">
        <ele>2648.700</ele>
        <time>2020-01-21T16:37:37Z</time>
      </trkpt>
      <trkpt lat="17.037466360" lon="-96.365994100">
        <ele>2648.500</ele>
        <time>2020-01-21T16:37:38Z</time>
      </trkpt>
      <trkpt lat="17.037497920" lon="-96.366023850">
        <ele>2648.500</ele>
        <time>2020-01-21T16:37:39Z</time>
      </trkpt>
      <trkpt lat="17.037529040" lon="-96.366048620">
        <ele>2648.700</ele>
        <time>2020-01-21T16:37:40Z</time>
      </trkpt>
      <trkpt lat="17.037561810" lon="-96.366067440">
        <ele>2648.900</ele>
        <time>2020-01-21T16:37:41Z</time>
      </trkpt>
      <trkpt lat="17.037594330" lon="-96.366086210">
        <ele>2646.400</ele>
        <time>2020-01-21T16:37:42Z</time>
      </trkpt>
      <trkpt lat="17.037628190" lon="-96.366107160">
        <ele>2647.300</ele>
        <time>2020-01-21T16:37:43Z</time>
      </trkpt>
      <trkpt lat="17.037662570" lon="-96.366127500">
        <ele>2647.200</ele>
        <time>2020-01-21T16:37:44Z</time>
      </trkpt>
      <trkpt lat="17.037698540" lon="-96.366144780">
        <ele>2646.400</ele>
        <time>2020-01-21T16:37:45Z</time>
      </trkpt>
      <trkpt lat="17.037749250" lon="-96.366171570">
        <ele>2648.300</ele>
        <time>2020-01-21T16:37:47Z</time>
      </trkpt>
      <trkpt lat="17.037789200" lon="-96.366207220">
        <ele>2651.300</ele>
        <time>2020-01-21T16:37:49Z</time>
      </trkpt>
      <trkpt lat="17.037821400" lon="-96.366228320">
        <ele>2651.100</ele>
        <time>2020-01-21T16:37:50Z</time>
      </trkpt>
      <trkpt lat="17.037853240" lon="-96.366248410">
        <ele>2651.500</ele>
        <time>2020-01-21T16:37:51Z</time>
      </trkpt>
      <trkpt lat="17.037881830" lon="-96.366271560">
        <ele>2651.300</ele>
        <time>2020-01-21T16:37:52Z</time>
      </trkpt>
      <trkpt lat="17.037940180" lon="-96.366309930">
        <ele>2651.700</ele>
        <time>2020-01-21T16:37:54Z</time>
      </trkpt>
      <trkpt lat="17.037990730" lon="-96.366360580">
        <ele>2653.500</ele>
        <time>2020-01-21T16:37:56Z</time>
      </trkpt>
      <trkpt lat="17.038019100" lon="-96.366406060">
        <ele>2652.200</ele>
        <time>2020-01-21T16:37:58Z</time>
      </trkpt>
      <trkpt lat="17.038054080" lon="-96.366443770">
        <ele>2653.800</ele>
        <time>2020-01-21T16:38:00Z</time>
      </trkpt>
      <trkpt lat="17.038090640" lon="-96.366476930">
        <ele>2656.000</ele>
        <time>2020-01-21T16:38:02Z</time>
      </trkpt>
      <trkpt lat="17.038134760" lon="-96.366532740">
        <ele>2655.100</ele>
        <time>2020-01-21T16:38:04Z</time>
      </trkpt>
      <trkpt lat="17.038158660" lon="-96.366565570">
        <ele>2655.400</ele>
        <time>2020-01-21T16:38:05Z</time>
      </trkpt>
      <trkpt lat="17.038199380" lon="-96.366628760">
        <ele>2654.800</ele>
        <time>2020-01-21T16:38:07Z</time>
      </trkpt>
      <trkpt lat="17.038233140" lon="-96.366685740">
        <ele>2656.400</ele>
        <time>2020-01-21T16:38:09Z</time>
      </trkpt>
      <trkpt lat="17.038256530" lon="-96.366764160">
        <ele>2655.100</ele>
        <time>2020-01-21T16:38:11Z</time>
      </trkpt>
      <trkpt lat="17.038263710" lon="-96.366806800">
        <ele>2654.400</ele>
        <time>2020-01-21T16:38:12Z</time>
      </trkpt>
      <trkpt lat="17.038269970" lon="-96.366847600">
        <ele>2654.300</ele>
        <time>2020-01-21T16:38:13Z</time>
      </trkpt>
      <trkpt lat="17.038285790" lon="-96.366914740">
        <ele>2653.900</ele>
        <time>2020-01-21T16:38:15Z</time>
      </trkpt>
      <trkpt lat="17.038295290" lon="-96.366962440">
        <ele>2650.900</ele>
        <time>2020-01-21T16:38:17Z</time>
      </trkpt>
      <trkpt lat="17.038301290" lon="-96.367006690">
        <ele>2650.700</ele>
        <time>2020-01-21T16:38:19Z</time>
      </trkpt>
      <trkpt lat="17.038309090" lon="-96.367058820">
        <ele>2648.800</ele>
        <time>2020-01-21T16:38:21Z</time>
      </trkpt>
      <trkpt lat="17.038309750" lon="-96.367127480">
        <ele>2650.400</ele>
        <time>2020-01-21T16:38:23Z</time>
      </trkpt>
      <trkpt lat="17.038308180" lon="-96.367172050">
        <ele>2648.700</ele>
        <time>2020-01-21T16:38:24Z</time>
      </trkpt>
      <trkpt lat="17.038302420" lon="-96.367214850">
        <ele>2648.100</ele>
        <time>2020-01-21T16:38:25Z</time>
      </trkpt>
      <trkpt lat="17.038292010" lon="-96.367253590">
        <ele>2647.800</ele>
        <time>2020-01-21T16:38:26Z</time>
      </trkpt>
      <trkpt lat="17.038264660" lon="-96.367313690">
        <ele>2648.500</ele>
        <time>2020-01-21T16:38:28Z</time>
      </trkpt>
      <trkpt lat="17.038235400" lon="-96.367366060">
        <ele>2646.600</ele>
        <time>2020-01-21T16:38:30Z</time>
      </trkpt>
      <trkpt lat="17.038201490" lon="-96.367406840">
        <ele>2643.900</ele>
        <time>2020-01-21T16:38:32Z</time>
      </trkpt>
      <trkpt lat="17.038143310" lon="-96.367448050">
        <ele>2645.100</ele>
        <time>2020-01-21T16:38:34Z</time>
      </trkpt>
      <trkpt lat="17.038087040" lon="-96.367477840">
        <ele>2645.900</ele>
        <time>2020-01-21T16:38:36Z</time>
      </trkpt>
      <trkpt lat="17.038032490" lon="-96.367491730">
        <ele>2646.600</ele>
        <time>2020-01-21T16:38:38Z</time>
      </trkpt>
      <trkpt lat="17.037984320" lon="-96.367505410">
        <ele>2647.200</ele>
        <time>2020-01-21T16:38:40Z</time>
      </trkpt>
      <trkpt lat="17.037932050" lon="-96.367522360">
        <ele>2647.900</ele>
        <time>2020-01-21T16:38:42Z</time>
      </trkpt>
      <trkpt lat="17.037881080" lon="-96.367545410">
        <ele>2649.300</ele>
        <time>2020-01-21T16:38:44Z</time>
      </trkpt>
      <trkpt lat="17.037833500" lon="-96.367581280">
        <ele>2648.900</ele>
        <time>2020-01-21T16:38:46Z</time>
      </trkpt>
      <trkpt lat="17.037779290" lon="-96.367626910">
        <ele>2648.400</ele>
        <time>2020-01-21T16:38:48Z</time>
      </trkpt>
      <trkpt lat="17.037728310" lon="-96.367666250">
        <ele>2649.100</ele>
        <time>2020-01-21T16:38:50Z</time>
      </trkpt>
      <trkpt lat="17.037684350" lon="-96.367715310">
        <ele>2648.800</ele>
        <time>2020-01-21T16:38:52Z</time>
      </trkpt>
      <trkpt lat="17.037652120" lon="-96.367766950">
        <ele>2648.700</ele>
        <time>2020-01-21T16:38:54Z</time>
      </trkpt>
      <trkpt lat="17.037625670" lon="-96.367818760">
        <ele>2649.900</ele>
        <time>2020-01-21T16:38:56Z</time>
      </trkpt>
      <trkpt lat="17.037613480" lon="-96.367875320">
        <ele>2649.300</ele>
        <time>2020-01-21T16:38:58Z</time>
      </trkpt>
      <trkpt lat="17.037616710" lon="-96.367941680">
        <ele>2646.900</ele>
        <time>2020-01-21T16:39:00Z</time>
      </trkpt>
      <trkpt lat="17.037629580" lon="-96.367982980">
        <ele>2647.900</ele>
        <time>2020-01-21T16:39:02Z</time>
      </trkpt>
      <trkpt lat="17.037642530" lon="-96.368026740">
        <ele>2649.200</ele>
        <time>2020-01-21T16:39:10Z</time>
      </trkpt>
      <trkpt lat="17.037677390" lon="-96.368057560">
        <ele>2649.600</ele>
        <time>2020-01-21T16:39:13Z</time>
      </trkpt>
      <trkpt lat="17.037710630" lon="-96.368095460">
        <ele>2648.700</ele>
        <time>2020-01-21T16:39:16Z</time>
      </trkpt>
      <trkpt lat="17.037721120" lon="-96.368131820">
        <ele>2646.500</ele>
        <time>2020-01-21T16:39:20Z</time>
      </trkpt>
      <trkpt lat="17.037756980" lon="-96.368170250">
        <ele>2645.300</ele>
        <time>2020-01-21T16:39:34Z</time>
      </trkpt>
      <trkpt lat="17.037789110" lon="-96.368197590">
        <ele>2643.700</ele>
        <time>2020-01-21T16:39:37Z</time>
      </trkpt>
      <trkpt lat="17.037821910" lon="-96.368215020">
        <ele>2643.700</ele>
        <time>2020-01-21T16:39:39Z</time>
      </trkpt>
      <trkpt lat="17.037872400" lon="-96.368229140">
        <ele>2645.000</ele>
        <time>2020-01-21T16:39:42Z</time>
      </trkpt>
      <trkpt lat="17.037913310" lon="-96.368222180">
        <ele>2643.800</ele>
        <time>2020-01-21T16:39:44Z</time>
      </trkpt>
      <trkpt lat="17.037954430" lon="-96.368207460">
        <ele>2644.500</ele>
        <time>2020-01-21T16:39:46Z</time>
      </trkpt>
      <trkpt lat="17.037999300" lon="-96.368195180">
        <ele>2643.800</ele>
        <time>2020-01-21T16:39:48Z</time>
      </trkpt>
      <trkpt lat="17.038039010" lon="-96.368173290">
        <ele>2645.000</ele>
        <time>2020-01-21T16:39:50Z</time>
      </trkpt>
      <trkpt lat="17.038098480" lon="-96.368157570">
        <ele>2645.000</ele>
        <time>2020-01-21T16:39:52Z</time>
      </trkpt>
      <trkpt lat="17.038163760" lon="-96.368171520">
        <ele>2645.600</ele>
        <time>2020-01-21T16:39:54Z</time>
      </trkpt>
      <trkpt lat="17.038224130" lon="-96.368182400">
        <ele>2645.600</ele>
        <time>2020-01-21T16:39:56Z</time>
      </trkpt>
      <trkpt lat="17.038279260" lon="-96.368200240">
        <ele>2645.000</ele>
        <time>2020-01-21T16:39:58Z</time>
      </trkpt>
      <trkpt lat="17.038349810" lon="-96.368208210">
        <ele>2648.100</ele>
        <time>2020-01-21T16:40:00Z</time>
      </trkpt>
      <trkpt lat="17.038385870" lon="-96.368211610">
        <ele>2649.400</ele>
        <time>2020-01-21T16:40:01Z</time>
      </trkpt>
      <trkpt lat="17.038453390" lon="-96.368221700">
        <ele>2649.300</ele>
        <time>2020-01-21T16:40:03Z</time>
      </trkpt>
      <trkpt lat="17.038519370" lon="-96.368227660">
        <ele>2649.500</ele>
        <time>2020-01-21T16:40:05Z</time>
      </trkpt>
      <trkpt lat="17.038586050" lon="-96.368237010">
        <ele>2649.600</ele>
        <time>2020-01-21T16:40:07Z</time>
      </trkpt>
      <trkpt lat="17.038652350" lon="-96.368242500">
        <ele>2650.900</ele>
        <time>2020-01-21T16:40:09Z</time>
      </trkpt>
      <trkpt lat="17.038698040" lon="-96.368284440">
        <ele>2648.800</ele>
        <time>2020-01-21T16:40:11Z</time>
      </trkpt>
      <trkpt lat="17.038737880" lon="-96.368329970">
        <ele>2649.000</ele>
        <time>2020-01-21T16:40:13Z</time>
      </trkpt>
      <trkpt lat="17.038764870" lon="-96.368370730">
        <ele>2649.200</ele>
        <time>2020-01-21T16:40:15Z</time>
      </trkpt>
      <trkpt lat="17.038798980" lon="-96.368420270">
        <ele>2648.000</ele>
        <time>2020-01-21T16:40:17Z</time>
      </trkpt>
      <trkpt lat="17.038835290" lon="-96.368481020">
        <ele>2650.100</ele>
        <time>2020-01-21T16:40:19Z</time>
      </trkpt>
      <trkpt lat="17.038869480" lon="-96.368531140">
        <ele>2649.400</ele>
        <time>2020-01-21T16:40:21Z</time>
      </trkpt>
      <trkpt lat="17.038894190" lon="-96.368586090">
        <ele>2649.800</ele>
        <time>2020-01-21T16:40:23Z</time>
      </trkpt>
      <trkpt lat="17.038919050" lon="-96.368631700">
        <ele>2647.700</ele>
        <time>2020-01-21T16:40:25Z</time>
      </trkpt>
      <trkpt lat="17.038947690" lon="-96.368676750">
        <ele>2647.000</ele>
        <time>2020-01-21T16:40:27Z</time>
      </trkpt>
      <trkpt lat="17.038976810" lon="-96.368727010">
        <ele>2646.600</ele>
        <time>2020-01-21T16:40:29Z</time>
      </trkpt>
      <trkpt lat="17.038988390" lon="-96.368785390">
        <ele>2647.000</ele>
        <time>2020-01-21T16:40:31Z</time>
      </trkpt>
      <trkpt lat="17.038992760" lon="-96.368841820">
        <ele>2647.100</ele>
        <time>2020-01-21T16:40:33Z</time>
      </trkpt>
      <trkpt lat="17.038994670" lon="-96.368896990">
        <ele>2646.700</ele>
        <time>2020-01-21T16:40:35Z</time>
      </trkpt>
      <trkpt lat="17.038996840" lon="-96.368958140">
        <ele>2647.200</ele>
        <time>2020-01-21T16:40:37Z</time>
      </trkpt>
      <trkpt lat="17.039021170" lon="-96.369016760">
        <ele>2646.300</ele>
        <time>2020-01-21T16:40:39Z</time>
      </trkpt>
      <trkpt lat="17.039060450" lon="-96.369063750">
        <ele>2647.800</ele>
        <time>2020-01-21T16:40:41Z</time>
      </trkpt>
      <trkpt lat="17.039118830" lon="-96.369088480">
        <ele>2648.200</ele>
        <time>2020-01-21T16:40:43Z</time>
      </trkpt>
      <trkpt lat="17.039176980" lon="-96.369100340">
        <ele>2650.000</ele>
        <time>2020-01-21T16:40:45Z</time>
      </trkpt>
      <trkpt lat="17.039234820" lon="-96.369116370">
        <ele>2651.000</ele>
        <time>2020-01-21T16:40:47Z</time>
      </trkpt>
      <trkpt lat="17.039295460" lon="-96.369127030">
        <ele>2651.400</ele>
        <time>2020-01-21T16:40:49Z</time>
      </trkpt>
      <trkpt lat="17.039361960" lon="-96.369146180">
        <ele>2650.500</ele>
        <time>2020-01-21T16:40:51Z</time>
      </trkpt>
      <trkpt lat="17.039424830" lon="-96.369174520">
        <ele>2652.400</ele>
        <time>2020-01-21T16:40:53Z</time>
      </trkpt>
      <trkpt lat="17.039485510" lon="-96.369205120">
        <ele>2653.700</ele>
        <time>2020-01-21T16:40:55Z</time>
      </trkpt>
      <trkpt lat="17.039537040" lon="-96.369238260">
        <ele>2655.500</ele>
        <time>2020-01-21T16:40:57Z</time>
      </trkpt>
      <trkpt lat="17.039587950" lon="-96.369268460">
        <ele>2655.100</ele>
        <time>2020-01-21T16:40:59Z</time>
      </trkpt>
      <trkpt lat="17.039645910" lon="-96.369311360">
        <ele>2657.100</ele>
        <time>2020-01-21T16:41:01Z</time>
      </trkpt>
      <trkpt lat="17.039671070" lon="-96.369340430">
        <ele>2657.300</ele>
        <time>2020-01-21T16:41:02Z</time>
      </trkpt>
      <trkpt lat="17.039692590" lon="-96.369377810">
        <ele>2656.600</ele>
        <time>2020-01-21T16:41:03Z</time>
      </trkpt>
      <trkpt lat="17.039712710" lon="-96.369416330">
        <ele>2658.000</ele>
        <time>2020-01-21T16:41:04Z</time>
      </trkpt>
      <trkpt lat="17.039733330" lon="-96.369450250">
        <ele>2658.700</ele>
        <time>2020-01-21T16:41:05Z</time>
      </trkpt>
      <trkpt lat="17.039754910" lon="-96.369481460">
        <ele>2658.100</ele>
        <time>2020-01-21T16:41:06Z</time>
      </trkpt>
      <trkpt lat="17.039793190" lon="-96.369532580">
        <ele>2655.300</ele>
        <time>2020-01-21T16:41:08Z</time>
      </trkpt>
      <trkpt lat="17.039816410" lon="-96.369568750">
        <ele>2655.000</ele>
        <time>2020-01-21T16:41:09Z</time>
      </trkpt>
      <trkpt lat="17.039859570" lon="-96.369623110">
        <ele>2656.000</ele>
        <time>2020-01-21T16:41:11Z</time>
      </trkpt>
      <trkpt lat="17.039881940" lon="-96.369677320">
        <ele>2655.600</ele>
        <time>2020-01-21T16:41:13Z</time>
      </trkpt>
      <trkpt lat="17.039905540" lon="-96.369738060">
        <ele>2656.800</ele>
        <time>2020-01-21T16:41:15Z</time>
      </trkpt>
      <trkpt lat="17.039925240" lon="-96.369807740">
        <ele>2656.300</ele>
        <time>2020-01-21T16:41:17Z</time>
      </trkpt>
      <trkpt lat="17.039937400" lon="-96.369876900">
        <ele>2657.000</ele>
        <time>2020-01-21T16:41:19Z</time>
      </trkpt>
      <trkpt lat="17.039944080" lon="-96.369938170">
        <ele>2658.700</ele>
        <time>2020-01-21T16:41:21Z</time>
      </trkpt>
      <trkpt lat="17.039957800" lon="-96.369999400">
        <ele>2657.700</ele>
        <time>2020-01-21T16:41:23Z</time>
      </trkpt>
      <trkpt lat="17.039978960" lon="-96.370059500">
        <ele>2658.700</ele>
        <time>2020-01-21T16:41:25Z</time>
      </trkpt>
      <trkpt lat="17.040005890" lon="-96.370116300">
        <ele>2660.500</ele>
        <time>2020-01-21T16:41:27Z</time>
      </trkpt>
      <trkpt lat="17.040037000" lon="-96.370171050">
        <ele>2660.400</ele>
        <time>2020-01-21T16:41:29Z</time>
      </trkpt>
      <trkpt lat="17.040065900" lon="-96.370225160">
        <ele>2660.400</ele>
        <time>2020-01-21T16:41:31Z</time>
      </trkpt>
      <trkpt lat="17.040092950" lon="-96.370277240">
        <ele>2661.500</ele>
        <time>2020-01-21T16:41:33Z</time>
      </trkpt>
      <trkpt lat="17.040123800" lon="-96.370328780">
        <ele>2661.600</ele>
        <time>2020-01-21T16:41:35Z</time>
      </trkpt>
      <trkpt lat="17.040157850" lon="-96.370386000">
        <ele>2661.900</ele>
        <time>2020-01-21T16:41:37Z</time>
      </trkpt>
      <trkpt lat="17.040179960" lon="-96.370416620">
        <ele>2660.900</ele>
        <time>2020-01-21T16:41:38Z</time>
      </trkpt>
      <trkpt lat="17.040203960" lon="-96.370447860">
        <ele>2660.300</ele>
        <time>2020-01-21T16:41:39Z</time>
      </trkpt>
      <trkpt lat="17.040230450" lon="-96.370479630">
        <ele>2660.200</ele>
        <time>2020-01-21T16:41:40Z</time>
      </trkpt>
      <trkpt lat="17.040255040" lon="-96.370510670">
        <ele>2659.500</ele>
        <time>2020-01-21T16:41:41Z</time>
      </trkpt>
      <trkpt lat="17.040279540" lon="-96.370541400">
        <ele>2660.000</ele>
        <time>2020-01-21T16:41:42Z</time>
      </trkpt>
      <trkpt lat="17.040306320" lon="-96.370572310">
        <ele>2660.300</ele>
        <time>2020-01-21T16:41:43Z</time>
      </trkpt>
      <trkpt lat="17.040335170" lon="-96.370603390">
        <ele>2660.800</ele>
        <time>2020-01-21T16:41:44Z</time>
      </trkpt>
      <trkpt lat="17.040361450" lon="-96.370636820">
        <ele>2660.600</ele>
        <time>2020-01-21T16:41:45Z</time>
      </trkpt>
      <trkpt lat="17.040383320" lon="-96.370667680">
        <ele>2658.800</ele>
        <time>2020-01-21T16:41:46Z</time>
      </trkpt>
      <trkpt lat="17.040416440" lon="-96.370727320">
        <ele>2658.700</ele>
        <time>2020-01-21T16:41:48Z</time>
      </trkpt>
      <trkpt lat="17.040432520" lon="-96.370763680">
        <ele>2658.600</ele>
        <time>2020-01-21T16:41:49Z</time>
      </trkpt>
      <trkpt lat="17.040449240" lon="-96.370800840">
        <ele>2658.900</ele>
        <time>2020-01-21T16:41:50Z</time>
      </trkpt>
      <trkpt lat="17.040465880" lon="-96.370837150">
        <ele>2658.200</ele>
        <time>2020-01-21T16:41:51Z</time>
      </trkpt>
      <trkpt lat="17.040484220" lon="-96.370874620">
        <ele>2658.500</ele>
        <time>2020-01-21T16:41:52Z</time>
      </trkpt>
      <trkpt lat="17.040503950" lon="-96.370915950">
        <ele>2658.300</ele>
        <time>2020-01-21T16:41:53Z</time>
      </trkpt>
      <trkpt lat="17.040520990" lon="-96.370967170">
        <ele>2659.200</ele>
        <time>2020-01-21T16:41:54Z</time>
      </trkpt>
      <trkpt lat="17.040537970" lon="-96.371008920">
        <ele>2660.000</ele>
        <time>2020-01-21T16:41:55Z</time>
      </trkpt>
      <trkpt lat="17.040552200" lon="-96.371054490">
        <ele>2660.900</ele>
        <time>2020-01-21T16:41:56Z</time>
      </trkpt>
      <trkpt lat="17.040564420" lon="-96.371097790">
        <ele>2661.300</ele>
        <time>2020-01-21T16:41:57Z</time>
      </trkpt>
      <trkpt lat="17.040579870" lon="-96.371139140">
        <ele>2661.500</ele>
        <time>2020-01-21T16:41:58Z</time>
      </trkpt>
      <trkpt lat="17.040593930" lon="-96.371185030">
        <ele>2661.800</ele>
        <time>2020-01-21T16:41:59Z</time>
      </trkpt>
      <trkpt lat="17.040607170" lon="-96.371225790">
        <ele>2662.300</ele>
        <time>2020-01-21T16:42:00Z</time>
      </trkpt>
      <trkpt lat="17.040618150" lon="-96.371267210">
        <ele>2662.300</ele>
        <time>2020-01-21T16:42:01Z</time>
      </trkpt>
      <trkpt lat="17.040623650" lon="-96.371312250">
        <ele>2662.900</ele>
        <time>2020-01-21T16:42:02Z</time>
      </trkpt>
      <trkpt lat="17.040628030" lon="-96.371356950">
        <ele>2663.400</ele>
        <time>2020-01-21T16:42:03Z</time>
      </trkpt>
      <trkpt lat="17.040629780" lon="-96.371402350">
        <ele>2663.900</ele>
        <time>2020-01-21T16:42:04Z</time>
      </trkpt>
      <trkpt lat="17.040632790" lon="-96.371448020">
        <ele>2663.900</ele>
        <time>2020-01-21T16:42:05Z</time>
      </trkpt>
      <trkpt lat="17.040635270" lon="-96.371493090">
        <ele>2663.700</ele>
        <time>2020-01-21T16:42:06Z</time>
      </trkpt>
      <trkpt lat="17.040635530" lon="-96.371537820">
        <ele>2663.800</ele>
        <time>2020-01-21T16:42:07Z</time>
      </trkpt>
      <trkpt lat="17.040633920" lon="-96.371579090">
        <ele>2664.200</ele>
        <time>2020-01-21T16:42:08Z</time>
      </trkpt>
      <trkpt lat="17.040634430" lon="-96.371616760">
        <ele>2664.100</ele>
        <time>2020-01-21T16:42:09Z</time>
      </trkpt>
      <trkpt lat="17.040633280" lon="-96.371656810">
        <ele>2664.300</ele>
        <time>2020-01-21T16:42:10Z</time>
      </trkpt>
      <trkpt lat="17.040631710" lon="-96.371698170">
        <ele>2664.400</ele>
        <time>2020-01-21T16:42:11Z</time>
      </trkpt>
      <trkpt lat="17.040634790" lon="-96.371768150">
        <ele>2663.000</ele>
        <time>2020-01-21T16:42:13Z</time>
      </trkpt>
      <trkpt lat="17.040644820" lon="-96.371844370">
        <ele>2663.900</ele>
        <time>2020-01-21T16:42:15Z</time>
      </trkpt>
      <trkpt lat="17.040654710" lon="-96.371881720">
        <ele>2664.000</ele>
        <time>2020-01-21T16:42:16Z</time>
      </trkpt>
      <trkpt lat="17.040666720" lon="-96.371923440">
        <ele>2664.400</ele>
        <time>2020-01-21T16:42:17Z</time>
      </trkpt>
      <trkpt lat="17.040681870" lon="-96.371966060">
        <ele>2664.900</ele>
        <time>2020-01-21T16:42:18Z</time>
      </trkpt>
      <trkpt lat="17.040699320" lon="-96.372004370">
        <ele>2664.900</ele>
        <time>2020-01-21T16:42:19Z</time>
      </trkpt>
      <trkpt lat="17.040717480" lon="-96.372039770">
        <ele>2664.700</ele>
        <time>2020-01-21T16:42:20Z</time>
      </trkpt>
      <trkpt lat="17.040737510" lon="-96.372074630">
        <ele>2665.100</ele>
        <time>2020-01-21T16:42:21Z</time>
      </trkpt>
      <trkpt lat="17.040761850" lon="-96.372109410">
        <ele>2666.200</ele>
        <time>2020-01-21T16:42:22Z</time>
      </trkpt>
      <trkpt lat="17.040787450" lon="-96.372143440">
        <ele>2665.800</ele>
        <time>2020-01-21T16:42:23Z</time>
      </trkpt>
      <trkpt lat="17.040808860" lon="-96.372177090">
        <ele>2665.800</ele>
        <time>2020-01-21T16:42:24Z</time>
      </trkpt>
      <trkpt lat="17.040828300" lon="-96.372209140">
        <ele>2666.000</ele>
        <time>2020-01-21T16:42:25Z</time>
      </trkpt>
      <trkpt lat="17.040854150" lon="-96.372265230">
        <ele>2664.900</ele>
        <time>2020-01-21T16:42:27Z</time>
      </trkpt>
      <trkpt lat="17.040869640" lon="-96.372333900">
        <ele>2664.500</ele>
        <time>2020-01-21T16:42:29Z</time>
      </trkpt>
      <trkpt lat="17.040876840" lon="-96.372373920">
        <ele>2664.400</ele>
        <time>2020-01-21T16:42:30Z</time>
      </trkpt>
      <trkpt lat="17.040885780" lon="-96.372412220">
        <ele>2665.000</ele>
        <time>2020-01-21T16:42:31Z</time>
      </trkpt>
      <trkpt lat="17.040901180" lon="-96.372483270">
        <ele>2667.100</ele>
        <time>2020-01-21T16:42:33Z</time>
      </trkpt>
      <trkpt lat="17.040924410" lon="-96.372544620">
        <ele>2669.100</ele>
        <time>2020-01-21T16:42:35Z</time>
      </trkpt>
      <trkpt lat="17.040944550" lon="-96.372602220">
        <ele>2668.500</ele>
        <time>2020-01-21T16:42:37Z</time>
      </trkpt>
      <trkpt lat="17.040958420" lon="-96.372640730">
        <ele>2668.300</ele>
        <time>2020-01-21T16:42:39Z</time>
      </trkpt>
      <trkpt lat="17.040971930" lon="-96.372693840">
        <ele>2667.200</ele>
        <time>2020-01-21T16:42:42Z</time>
      </trkpt>
      <trkpt lat="17.040980200" lon="-96.372750670">
        <ele>2667.900</ele>
        <time>2020-01-21T16:42:44Z</time>
      </trkpt>
      <trkpt lat="17.040981230" lon="-96.372818760">
        <ele>2668.600</ele>
        <time>2020-01-21T16:42:46Z</time>
      </trkpt>
      <trkpt lat="17.040980960" lon="-96.372890410">
        <ele>2668.800</ele>
        <time>2020-01-21T16:42:48Z</time>
      </trkpt>
      <trkpt lat="17.040979820" lon="-96.372928210">
        <ele>2669.500</ele>
        <time>2020-01-21T16:42:49Z</time>
      </trkpt>
      <trkpt lat="17.040979950" lon="-96.372972250">
        <ele>2669.600</ele>
        <time>2020-01-21T16:42:50Z</time>
      </trkpt>
      <trkpt lat="17.040981470" lon="-96.373018440">
        <ele>2670.700</ele>
        <time>2020-01-21T16:42:51Z</time>
      </trkpt>
      <trkpt lat="17.040981850" lon="-96.373063090">
        <ele>2670.600</ele>
        <time>2020-01-21T16:42:52Z</time>
      </trkpt>
      <trkpt lat="17.040983690" lon="-96.373103720">
        <ele>2671.000</ele>
        <time>2020-01-21T16:42:53Z</time>
      </trkpt>
      <trkpt lat="17.041004740" lon="-96.373166340">
        <ele>2670.400</ele>
        <time>2020-01-21T16:42:55Z</time>
      </trkpt>
      <trkpt lat="17.041041580" lon="-96.373224760">
        <ele>2670.700</ele>
        <time>2020-01-21T16:42:57Z</time>
      </trkpt>
      <trkpt lat="17.041062210" lon="-96.373257280">
        <ele>2668.800</ele>
        <time>2020-01-21T16:42:58Z</time>
      </trkpt>
      <trkpt lat="17.041080640" lon="-96.373292130">
        <ele>2669.500</ele>
        <time>2020-01-21T16:42:59Z</time>
      </trkpt>
      <trkpt lat="17.041100310" lon="-96.373325860">
        <ele>2669.500</ele>
        <time>2020-01-21T16:43:00Z</time>
      </trkpt>
      <trkpt lat="17.041122590" lon="-96.373357400">
        <ele>2669.800</ele>
        <time>2020-01-21T16:43:01Z</time>
      </trkpt>
      <trkpt lat="17.041177190" lon="-96.373404760">
        <ele>2670.500</ele>
        <time>2020-01-21T16:43:03Z</time>
      </trkpt>
      <trkpt lat="17.041210330" lon="-96.373423990">
        <ele>2670.400</ele>
        <time>2020-01-21T16:43:04Z</time>
      </trkpt>
      <trkpt lat="17.041245900" lon="-96.373442560">
        <ele>2671.800</ele>
        <time>2020-01-21T16:43:05Z</time>
      </trkpt>
      <trkpt lat="17.041277710" lon="-96.373464850">
        <ele>2671.100</ele>
        <time>2020-01-21T16:43:06Z</time>
      </trkpt>
      <trkpt lat="17.041311380" lon="-96.373486050">
        <ele>2670.400</ele>
        <time>2020-01-21T16:43:07Z</time>
      </trkpt>
      <trkpt lat="17.041343820" lon="-96.373512100">
        <ele>2671.200</ele>
        <time>2020-01-21T16:43:08Z</time>
      </trkpt>
      <trkpt lat="17.041373230" lon="-96.373539230">
        <ele>2671.300</ele>
        <time>2020-01-21T16:43:09Z</time>
      </trkpt>
      <trkpt lat="17.041415780" lon="-96.373581860">
        <ele>2669.000</ele>
        <time>2020-01-21T16:43:11Z</time>
      </trkpt>
      <trkpt lat="17.041440270" lon="-96.373617110">
        <ele>2669.100</ele>
        <time>2020-01-21T16:43:13Z</time>
      </trkpt>
      <trkpt lat="17.041467460" lon="-96.373661250">
        <ele>2669.600</ele>
        <time>2020-01-21T16:43:15Z</time>
      </trkpt>
      <trkpt lat="17.041492530" lon="-96.373714540">
        <ele>2669.700</ele>
        <time>2020-01-21T16:43:17Z</time>
      </trkpt>
      <trkpt lat="17.041515810" lon="-96.373781270">
        <ele>2669.500</ele>
        <time>2020-01-21T16:43:19Z</time>
      </trkpt>
      <trkpt lat="17.041529020" lon="-96.373816710">
        <ele>2669.100</ele>
        <time>2020-01-21T16:43:20Z</time>
      </trkpt>
      <trkpt lat="17.041543390" lon="-96.373853100">
        <ele>2668.500</ele>
        <time>2020-01-21T16:43:21Z</time>
      </trkpt>
      <trkpt lat="17.041572340" lon="-96.373923510">
        <ele>2668.000</ele>
        <time>2020-01-21T16:43:23Z</time>
      </trkpt>
      <trkpt lat="17.041585860" lon="-96.373960100">
        <ele>2667.800</ele>
        <time>2020-01-21T16:43:24Z</time>
      </trkpt>
      <trkpt lat="17.041611310" lon="-96.374029850">
        <ele>2668.500</ele>
        <time>2020-01-21T16:43:26Z</time>
      </trkpt>
      <trkpt lat="17.041632050" lon="-96.374087190">
        <ele>2668.900</ele>
        <time>2020-01-21T16:43:28Z</time>
      </trkpt>
      <trkpt lat="17.041650250" lon="-96.374137960">
        <ele>2669.600</ele>
        <time>2020-01-21T16:43:30Z</time>
      </trkpt>
      <trkpt lat="17.041667940" lon="-96.374197190">
        <ele>2669.800</ele>
        <time>2020-01-21T16:43:32Z</time>
      </trkpt>
      <trkpt lat="17.041689950" lon="-96.374260690">
        <ele>2669.700</ele>
        <time>2020-01-21T16:43:34Z</time>
      </trkpt>
      <trkpt lat="17.041715810" lon="-96.374329620">
        <ele>2671.100</ele>
        <time>2020-01-21T16:43:36Z</time>
      </trkpt>
      <trkpt lat="17.041730960" lon="-96.374368450">
        <ele>2670.800</ele>
        <time>2020-01-21T16:43:37Z</time>
      </trkpt>
      <trkpt lat="17.041747550" lon="-96.374405640">
        <ele>2670.700</ele>
        <time>2020-01-21T16:43:38Z</time>
      </trkpt>
      <trkpt lat="17.041763710" lon="-96.374439590">
        <ele>2670.900</ele>
        <time>2020-01-21T16:43:39Z</time>
      </trkpt>
      <trkpt lat="17.041778130" lon="-96.374474230">
        <ele>2671.000</ele>
        <time>2020-01-21T16:43:40Z</time>
      </trkpt>
      <trkpt lat="17.041809360" lon="-96.374535080">
        <ele>2671.400</ele>
        <time>2020-01-21T16:43:42Z</time>
      </trkpt>
      <trkpt lat="17.041844010" lon="-96.374590980">
        <ele>2671.500</ele>
        <time>2020-01-21T16:43:44Z</time>
      </trkpt>
      <trkpt lat="17.041877460" lon="-96.374632030">
        <ele>2671.100</ele>
        <time>2020-01-21T16:43:46Z</time>
      </trkpt>
      <trkpt lat="17.041907640" lon="-96.374669860">
        <ele>2671.300</ele>
        <time>2020-01-21T16:43:48Z</time>
      </trkpt>
      <trkpt lat="17.041938390" lon="-96.374708190">
        <ele>2671.000</ele>
        <time>2020-01-21T16:43:50Z</time>
      </trkpt>
      <trkpt lat="17.041969060" lon="-96.374749340">
        <ele>2670.800</ele>
        <time>2020-01-21T16:43:52Z</time>
      </trkpt>
      <trkpt lat="17.041999480" lon="-96.374790360">
        <ele>2671.500</ele>
        <time>2020-01-21T16:43:54Z</time>
      </trkpt>
      <trkpt lat="17.042030960" lon="-96.374828960">
        <ele>2671.900</ele>
        <time>2020-01-21T16:43:56Z</time>
      </trkpt>
      <trkpt lat="17.042061340" lon="-96.374865600">
        <ele>2671.900</ele>
        <time>2020-01-21T16:43:58Z</time>
      </trkpt>
      <trkpt lat="17.042088080" lon="-96.374900200">
        <ele>2672.000</ele>
        <time>2020-01-21T16:44:00Z</time>
      </trkpt>
      <trkpt lat="17.042116230" lon="-96.374934540">
        <ele>2672.100</ele>
        <time>2020-01-21T16:44:02Z</time>
      </trkpt>
      <trkpt lat="17.042144820" lon="-96.374964900">
        <ele>2672.000</ele>
        <time>2020-01-21T16:44:04Z</time>
      </trkpt>
      <trkpt lat="17.042173670" lon="-96.374988800">
        <ele>2672.400</ele>
        <time>2020-01-21T16:44:06Z</time>
      </trkpt>
      <trkpt lat="17.042209800" lon="-96.375022720">
        <ele>2672.300</ele>
        <time>2020-01-21T16:44:09Z</time>
      </trkpt>
      <trkpt lat="17.042241770" lon="-96.375065170">
        <ele>2672.500</ele>
        <time>2020-01-21T16:44:12Z</time>
      </trkpt>
      <trkpt lat="17.042264190" lon="-96.375095240">
        <ele>2672.500</ele>
        <time>2020-01-21T16:44:14Z</time>
      </trkpt>
      <trkpt lat="17.042289860" lon="-96.375132310">
        <ele>2672.900</ele>
        <time>2020-01-21T16:44:17Z</time>
      </trkpt>
      <trkpt lat="17.042317960" lon="-96.375171130">
        <ele>2672.500</ele>
        <time>2020-01-21T16:44:20Z</time>
      </trkpt>
      <trkpt lat="17.042351850" lon="-96.375205720">
        <ele>2672.000</ele>
        <time>2020-01-21T16:44:23Z</time>
      </trkpt>
      <trkpt lat="17.042381140" lon="-96.375233050">
        <ele>2672.400</ele>
        <time>2020-01-21T16:44:26Z</time>
      </trkpt>
      <trkpt lat="17.042406430" lon="-96.375263490">
        <ele>2672.400</ele>
        <time>2020-01-21T16:44:29Z</time>
      </trkpt>
      <trkpt lat="17.042436980" lon="-96.375303770">
        <ele>2672.100</ele>
        <time>2020-01-21T16:44:32Z</time>
      </trkpt>
      <trkpt lat="17.042471510" lon="-96.375341340">
        <ele>2672.100</ele>
        <time>2020-01-21T16:44:35Z</time>
      </trkpt>
      <trkpt lat="17.042497630" lon="-96.375372090">
        <ele>2672.200</ele>
        <time>2020-01-21T16:44:37Z</time>
      </trkpt>
      <trkpt lat="17.042523290" lon="-96.375403660">
        <ele>2672.400</ele>
        <time>2020-01-21T16:44:39Z</time>
      </trkpt>
      <trkpt lat="17.042549440" lon="-96.375435040">
        <ele>2672.800</ele>
        <time>2020-01-21T16:44:41Z</time>
      </trkpt>
      <trkpt lat="17.042578780" lon="-96.375461910">
        <ele>2673.500</ele>
        <time>2020-01-21T16:44:47Z</time>
      </trkpt>
      <trkpt lat="17.042610030" lon="-96.375496890">
        <ele>2673.900</ele>
        <time>2020-01-21T16:44:50Z</time>
      </trkpt>
      <trkpt lat="17.042634180" lon="-96.375525440">
        <ele>2674.100</ele>
        <time>2020-01-21T16:44:52Z</time>
      </trkpt>
      <trkpt lat="17.042668860" lon="-96.375566310">
        <ele>2674.600</ele>
        <time>2020-01-21T16:44:55Z</time>
      </trkpt>
      <trkpt lat="17.042696480" lon="-96.375597580">
        <ele>2674.200</ele>
        <time>2020-01-21T16:44:58Z</time>
      </trkpt>
      <trkpt lat="17.042723920" lon="-96.375623070">
        <ele>2674.800</ele>
        <time>2020-01-21T16:45:01Z</time>
      </trkpt>
      <trkpt lat="17.042759160" lon="-96.375657090">
        <ele>2675.000</ele>
        <time>2020-01-21T16:45:04Z</time>
      </trkpt>
      <trkpt lat="17.042783210" lon="-96.375690860">
        <ele>2675.300</ele>
        <time>2020-01-21T16:45:06Z</time>
      </trkpt>
      <trkpt lat="17.042819160" lon="-96.375734470">
        <ele>2674.900</ele>
        <time>2020-01-21T16:45:09Z</time>
      </trkpt>
      <trkpt lat="17.042844800" lon="-96.375765480">
        <ele>2674.500</ele>
        <time>2020-01-21T16:45:12Z</time>
      </trkpt>
      <trkpt lat="17.042870690" lon="-96.375791890">
        <ele>2674.400</ele>
        <time>2020-01-21T16:45:53Z</time>
      </trkpt>
      <trkpt lat="17.042906140" lon="-96.375836700">
        <ele>2674.700</ele>
        <time>2020-01-21T16:45:55Z</time>
      </trkpt>
      <trkpt lat="17.042947020" lon="-96.375895980">
        <ele>2675.000</ele>
        <time>2020-01-21T16:45:57Z</time>
      </trkpt>
      <trkpt lat="17.042979640" lon="-96.375941880">
        <ele>2675.300</ele>
        <time>2020-01-21T16:45:59Z</time>
      </trkpt>
      <trkpt lat="17.043010150" lon="-96.375982400">
        <ele>2675.300</ele>
        <time>2020-01-21T16:46:01Z</time>
      </trkpt>
      <trkpt lat="17.043038530" lon="-96.376019920">
        <ele>2675.500</ele>
        <time>2020-01-21T16:46:03Z</time>
      </trkpt>
      <trkpt lat="17.043057380" lon="-96.376053020">
        <ele>2674.900</ele>
        <time>2020-01-21T16:46:07Z</time>
      </trkpt>
      <trkpt lat="17.043082010" lon="-96.376094960">
        <ele>2674.900</ele>
        <time>2020-01-21T16:46:10Z</time>
      </trkpt>
      <trkpt lat="17.043107250" lon="-96.376135340">
        <ele>2675.400</ele>
        <time>2020-01-21T16:46:12Z</time>
      </trkpt>
      <trkpt lat="17.043130280" lon="-96.376165240">
        <ele>2675.600</ele>
        <time>2020-01-21T16:46:15Z</time>
      </trkpt>
      <trkpt lat="17.043153020" lon="-96.376198710">
        <ele>2675.200</ele>
        <time>2020-01-21T16:46:19Z</time>
      </trkpt>
      <trkpt lat="17.043184780" lon="-96.376243220">
        <ele>2675.200</ele>
        <time>2020-01-21T16:46:22Z</time>
      </trkpt>
      <trkpt lat="17.043215120" lon="-96.376283400">
        <ele>2675.400</ele>
        <time>2020-01-21T16:46:25Z</time>
      </trkpt>
      <trkpt lat="17.043234120" lon="-96.376316740">
        <ele>2675.400</ele>
        <time>2020-01-21T16:46:27Z</time>
      </trkpt>
      <trkpt lat="17.043266770" lon="-96.376347350">
        <ele>2676.200</ele>
        <time>2020-01-21T16:46:30Z</time>
      </trkpt>
      <trkpt lat="17.043304170" lon="-96.376383670">
        <ele>2678.500</ele>
        <time>2020-01-21T16:46:33Z</time>
      </trkpt>
      <trkpt lat="17.043333750" lon="-96.376406320">
        <ele>2678.800</ele>
        <time>2020-01-21T16:46:36Z</time>
      </trkpt>
      <trkpt lat="17.043368820" lon="-96.376432820">
        <ele>2678.900</ele>
        <time>2020-01-21T16:46:38Z</time>
      </trkpt>
      <trkpt lat="17.043412450" lon="-96.376477060">
        <ele>2678.900</ele>
        <time>2020-01-21T16:46:40Z</time>
      </trkpt>
      <trkpt lat="17.043459860" lon="-96.376530560">
        <ele>2678.800</ele>
        <time>2020-01-21T16:46:42Z</time>
      </trkpt>
      <trkpt lat="17.043513660" lon="-96.376586220">
        <ele>2679.700</ele>
        <time>2020-01-21T16:46:44Z</time>
      </trkpt>
      <trkpt lat="17.043544590" lon="-96.376611680">
        <ele>2681.000</ele>
        <time>2020-01-21T16:46:45Z</time>
      </trkpt>
      <trkpt lat="17.043576070" lon="-96.376635970">
        <ele>2682.500</ele>
        <time>2020-01-21T16:46:46Z</time>
      </trkpt>
      <trkpt lat="17.043608350" lon="-96.376658390">
        <ele>2682.000</ele>
        <time>2020-01-21T16:46:47Z</time>
      </trkpt>
      <trkpt lat="17.043641550" lon="-96.376679250">
        <ele>2680.600</ele>
        <time>2020-01-21T16:46:48Z</time>
      </trkpt>
      <trkpt lat="17.043671930" lon="-96.376701740">
        <ele>2681.800</ele>
        <time>2020-01-21T16:46:49Z</time>
      </trkpt>
      <trkpt lat="17.043727700" lon="-96.376742980">
        <ele>2680.000</ele>
        <time>2020-01-21T16:46:51Z</time>
      </trkpt>
      <trkpt lat="17.043783790" lon="-96.376778050">
        <ele>2680.700</ele>
        <time>2020-01-21T16:46:53Z</time>
      </trkpt>
      <trkpt lat="17.043824670" lon="-96.376803050">
        <ele>2680.400</ele>
        <time>2020-01-21T16:46:55Z</time>
      </trkpt>
      <trkpt lat="17.043838650" lon="-96.376839110">
        <ele>2681.300</ele>
        <time>2020-01-21T16:46:57Z</time>
      </trkpt>
      <trkpt lat="17.043816250" lon="-96.376876110">
        <ele>2681.400</ele>
        <time>2020-01-21T16:46:59Z</time>
      </trkpt>
      <trkpt lat="17.043795860" lon="-96.376913120">
        <ele>2681.600</ele>
        <time>2020-01-21T16:47:01Z</time>
      </trkpt>
      <trkpt lat="17.043787640" lon="-96.376967820">
        <ele>2680.700</ele>
        <time>2020-01-21T16:47:03Z</time>
      </trkpt>
      <trkpt lat="17.043798350" lon="-96.377007800">
        <ele>2680.900</ele>
        <time>2020-01-21T16:47:05Z</time>
      </trkpt>
      <trkpt lat="17.043814220" lon="-96.377054350">
        <ele>2680.900</ele>
        <time>2020-01-21T16:47:08Z</time>
      </trkpt>
      <trkpt lat="17.043841290" lon="-96.377091000">
        <ele>2682.200</ele>
        <time>2020-01-21T16:47:12Z</time>
      </trkpt>
      <trkpt lat="17.043844010" lon="-96.377128520">
        <ele>2682.700</ele>
        <time>2020-01-21T16:47:16Z</time>
      </trkpt>
      <trkpt lat="17.043826830" lon="-96.377165580">
        <ele>2682.600</ele>
        <time>2020-01-21T16:47:19Z</time>
      </trkpt>
      <trkpt lat="17.043798750" lon="-96.377194760">
        <ele>2681.000</ele>
        <time>2020-01-21T16:47:21Z</time>
      </trkpt>
      <trkpt lat="17.043764890" lon="-96.377218550">
        <ele>2681.400</ele>
        <time>2020-01-21T16:47:23Z</time>
      </trkpt>
      <trkpt lat="17.043733690" lon="-96.377243040">
        <ele>2679.700</ele>
        <time>2020-01-21T16:47:25Z</time>
      </trkpt>
      <trkpt lat="17.043705300" lon="-96.377268670">
        <ele>2679.900</ele>
        <time>2020-01-21T16:47:27Z</time>
      </trkpt>
      <trkpt lat="17.043676410" lon="-96.377298790">
        <ele>2679.700</ele>
        <time>2020-01-21T16:47:30Z</time>
      </trkpt>
      <trkpt lat="17.043640020" lon="-96.377313340">
        <ele>2679.500</ele>
        <time>2020-01-21T16:47:32Z</time>
      </trkpt>
      <trkpt lat="17.043601840" lon="-96.377336260">
        <ele>2679.500</ele>
        <time>2020-01-21T16:47:34Z</time>
      </trkpt>
      <trkpt lat="17.043573560" lon="-96.377363060">
        <ele>2679.600</ele>
        <time>2020-01-21T16:47:36Z</time>
      </trkpt>
      <trkpt lat="17.043552650" lon="-96.377394580">
        <ele>2680.100</ele>
        <time>2020-01-21T16:47:38Z</time>
      </trkpt>
      <trkpt lat="17.043530440" lon="-96.377430060">
        <ele>2680.900</ele>
        <time>2020-01-21T16:47:40Z</time>
      </trkpt>
      <trkpt lat="17.043507310" lon="-96.377464490">
        <ele>2681.100</ele>
        <time>2020-01-21T16:47:42Z</time>
      </trkpt>
      <trkpt lat="17.043470420" lon="-96.377509650">
        <ele>2681.100</ele>
        <time>2020-01-21T16:47:45Z</time>
      </trkpt>
      <trkpt lat="17.043439170" lon="-96.377545680">
        <ele>2681.200</ele>
        <time>2020-01-21T16:47:48Z</time>
      </trkpt>
      <trkpt lat="17.043403840" lon="-96.377577210">
        <ele>2678.900</ele>
        <time>2020-01-21T16:47:52Z</time>
      </trkpt>
      <trkpt lat="17.043364760" lon="-96.377619560">
        <ele>2678.900</ele>
        <time>2020-01-21T16:47:54Z</time>
      </trkpt>
      <trkpt lat="17.043331440" lon="-96.377660740">
        <ele>2679.000</ele>
        <time>2020-01-21T16:47:56Z</time>
      </trkpt>
      <trkpt lat="17.043309330" lon="-96.377706650">
        <ele>2680.800</ele>
        <time>2020-01-21T16:47:58Z</time>
      </trkpt>
      <trkpt lat="17.043295130" lon="-96.377749880">
        <ele>2680.000</ele>
        <time>2020-01-21T16:48:00Z</time>
      </trkpt>
      <trkpt lat="17.043287020" lon="-96.377797700">
        <ele>2679.500</ele>
        <time>2020-01-21T16:48:02Z</time>
      </trkpt>
      <trkpt lat="17.043279940" lon="-96.377836860">
        <ele>2677.100</ele>
        <time>2020-01-21T16:48:04Z</time>
      </trkpt>
      <trkpt lat="17.043266590" lon="-96.377873430">
        <ele>2676.900</ele>
        <time>2020-01-21T16:48:06Z</time>
      </trkpt>
      <trkpt lat="17.043253040" lon="-96.377909850">
        <ele>2676.800</ele>
        <time>2020-01-21T16:48:08Z</time>
      </trkpt>
      <trkpt lat="17.043239700" lon="-96.377947340">
        <ele>2676.900</ele>
        <time>2020-01-21T16:48:10Z</time>
      </trkpt>
      <trkpt lat="17.043225530" lon="-96.377989630">
        <ele>2677.500</ele>
        <time>2020-01-21T16:48:12Z</time>
      </trkpt>
      <trkpt lat="17.043208120" lon="-96.378031470">
        <ele>2677.000</ele>
        <time>2020-01-21T16:48:14Z</time>
      </trkpt>
      <trkpt lat="17.043187730" lon="-96.378066170">
        <ele>2677.000</ele>
        <time>2020-01-21T16:48:16Z</time>
      </trkpt>
      <trkpt lat="17.043164350" lon="-96.378108430">
        <ele>2677.600</ele>
        <time>2020-01-21T16:48:19Z</time>
      </trkpt>
      <trkpt lat="17.043150890" lon="-96.378149010">
        <ele>2676.900</ele>
        <time>2020-01-21T16:48:22Z</time>
      </trkpt>
      <trkpt lat="17.043138030" lon="-96.378193730">
        <ele>2676.400</ele>
        <time>2020-01-21T16:48:25Z</time>
      </trkpt>
      <trkpt lat="17.043124450" lon="-96.378239030">
        <ele>2677.200</ele>
        <time>2020-01-21T16:48:28Z</time>
      </trkpt>
      <trkpt lat="17.043110160" lon="-96.378280440">
        <ele>2676.800</ele>
        <time>2020-01-21T16:48:31Z</time>
      </trkpt>
      <trkpt lat="17.043100750" lon="-96.378327560">
        <ele>2677.800</ele>
        <time>2020-01-21T16:48:35Z</time>
      </trkpt>
      <trkpt lat="17.043084020" lon="-96.378375760">
        <ele>2678.000</ele>
        <time>2020-01-21T16:48:38Z</time>
      </trkpt>
      <trkpt lat="17.043054320" lon="-96.378418460">
        <ele>2677.100</ele>
        <time>2020-01-21T16:48:41Z</time>
      </trkpt>
      <trkpt lat="17.043047130" lon="-96.378461090">
        <ele>2677.000</ele>
        <time>2020-01-21T16:48:44Z</time>
      </trkpt>
      <trkpt lat="17.043053020" lon="-96.378499430">
        <ele>2675.400</ele>
        <time>2020-01-21T16:48:47Z</time>
      </trkpt>
      <trkpt lat="17.043073290" lon="-96.378544220">
        <ele>2675.300</ele>
        <time>2020-01-21T16:48:50Z</time>
      </trkpt>
      <trkpt lat="17.043092920" lon="-96.378590720">
        <ele>2673.300</ele>
        <time>2020-01-21T16:48:53Z</time>
      </trkpt>
      <trkpt lat="17.043111750" lon="-96.378639440">
        <ele>2671.500</ele>
        <time>2020-01-21T16:48:56Z</time>
      </trkpt>
      <trkpt lat="17.043125220" lon="-96.378678590">
        <ele>2671.800</ele>
        <time>2020-01-21T16:48:58Z</time>
      </trkpt>
      <trkpt lat="17.043134540" lon="-96.378719780">
        <ele>2671.500</ele>
        <time>2020-01-21T16:49:00Z</time>
      </trkpt>
      <trkpt lat="17.043147400" lon="-96.378766180">
        <ele>2671.900</ele>
        <time>2020-01-21T16:49:02Z</time>
      </trkpt>
      <trkpt lat="17.043162230" lon="-96.378816670">
        <ele>2672.500</ele>
        <time>2020-01-21T16:49:04Z</time>
      </trkpt>
      <trkpt lat="17.043175620" lon="-96.378864550">
        <ele>2672.000</ele>
        <time>2020-01-21T16:49:06Z</time>
      </trkpt>
      <trkpt lat="17.043184330" lon="-96.378910980">
        <ele>2671.400</ele>
        <time>2020-01-21T16:49:08Z</time>
      </trkpt>
      <trkpt lat="17.043196250" lon="-96.378954120">
        <ele>2672.800</ele>
        <time>2020-01-21T16:49:10Z</time>
      </trkpt>
      <trkpt lat="17.043206560" lon="-96.378997200">
        <ele>2674.100</ele>
        <time>2020-01-21T16:49:12Z</time>
      </trkpt>
      <trkpt lat="17.043212020" lon="-96.379041650">
        <ele>2674.500</ele>
        <time>2020-01-21T16:49:14Z</time>
      </trkpt>
      <trkpt lat="17.043225360" lon="-96.379084370">
        <ele>2675.700</ele>
        <time>2020-01-21T16:49:16Z</time>
      </trkpt>
      <trkpt lat="17.043231080" lon="-96.379129710">
        <ele>2675.000</ele>
        <time>2020-01-21T16:49:18Z</time>
      </trkpt>
      <trkpt lat="17.043223810" lon="-96.379174230">
        <ele>2675.100</ele>
        <time>2020-01-21T16:49:20Z</time>
      </trkpt>
      <trkpt lat="17.043226140" lon="-96.379224380">
        <ele>2674.800</ele>
        <time>2020-01-21T16:49:22Z</time>
      </trkpt>
      <trkpt lat="17.043216220" lon="-96.379261720">
        <ele>2674.900</ele>
        <time>2020-01-21T16:49:24Z</time>
      </trkpt>
      <trkpt lat="17.043204890" lon="-96.379306930">
        <ele>2673.200</ele>
        <time>2020-01-21T16:49:28Z</time>
      </trkpt>
      <trkpt lat="17.043191820" lon="-96.379352840">
        <ele>2673.800</ele>
        <time>2020-01-21T16:49:31Z</time>
      </trkpt>
      <trkpt lat="17.043188600" lon="-96.379398390">
        <ele>2673.800</ele>
        <time>2020-01-21T16:49:33Z</time>
      </trkpt>
      <trkpt lat="17.043188550" lon="-96.379441900">
        <ele>2671.700</ele>
        <time>2020-01-21T16:49:35Z</time>
      </trkpt>
      <trkpt lat="17.043182530" lon="-96.379491260">
        <ele>2671.600</ele>
        <time>2020-01-21T16:49:37Z</time>
      </trkpt>
      <trkpt lat="17.043169300" lon="-96.379542380">
        <ele>2671.200</ele>
        <time>2020-01-21T16:49:39Z</time>
      </trkpt>
      <trkpt lat="17.043154030" lon="-96.379597690">
        <ele>2671.100</ele>
        <time>2020-01-21T16:49:41Z</time>
      </trkpt>
      <trkpt lat="17.043147960" lon="-96.379643310">
        <ele>2670.600</ele>
        <time>2020-01-21T16:49:43Z</time>
      </trkpt>
      <trkpt lat="17.043159500" lon="-96.379682480">
        <ele>2668.700</ele>
        <time>2020-01-21T16:49:45Z</time>
      </trkpt>
      <trkpt lat="17.043184560" lon="-96.379722380">
        <ele>2668.000</ele>
        <time>2020-01-21T16:49:47Z</time>
      </trkpt>
      <trkpt lat="17.043211690" lon="-96.379760910">
        <ele>2666.000</ele>
        <time>2020-01-21T16:49:49Z</time>
      </trkpt>
      <trkpt lat="17.043221810" lon="-96.379802900">
        <ele>2665.500</ele>
        <time>2020-01-21T16:49:51Z</time>
      </trkpt>
      <trkpt lat="17.043222300" lon="-96.379856010">
        <ele>2665.500</ele>
        <time>2020-01-21T16:49:53Z</time>
      </trkpt>
      <trkpt lat="17.043217300" lon="-96.379913980">
        <ele>2665.500</ele>
        <time>2020-01-21T16:49:55Z</time>
      </trkpt>
      <trkpt lat="17.043208060" lon="-96.379968630">
        <ele>2666.000</ele>
        <time>2020-01-21T16:49:57Z</time>
      </trkpt>
      <trkpt lat="17.043202780" lon="-96.380025150">
        <ele>2666.100</ele>
        <time>2020-01-21T16:49:59Z</time>
      </trkpt>
      <trkpt lat="17.043201810" lon="-96.380074150">
        <ele>2666.400</ele>
        <time>2020-01-21T16:50:01Z</time>
      </trkpt>
      <trkpt lat="17.043205600" lon="-96.380118990">
        <ele>2666.000</ele>
        <time>2020-01-21T16:50:03Z</time>
      </trkpt>
      <trkpt lat="17.043205370" lon="-96.380161890">
        <ele>2665.600</ele>
        <time>2020-01-21T16:50:05Z</time>
      </trkpt>
      <trkpt lat="17.043202570" lon="-96.380215410">
        <ele>2665.900</ele>
        <time>2020-01-21T16:50:08Z</time>
      </trkpt>
      <trkpt lat="17.043192650" lon="-96.380253790">
        <ele>2665.500</ele>
        <time>2020-01-21T16:50:10Z</time>
      </trkpt>
      <trkpt lat="17.043193340" lon="-96.380305260">
        <ele>2665.900</ele>
        <time>2020-01-21T16:50:13Z</time>
      </trkpt>
      <trkpt lat="17.043223880" lon="-96.380332480">
        <ele>2665.400</ele>
        <time>2020-01-21T16:50:16Z</time>
      </trkpt>
      <trkpt lat="17.043260210" lon="-96.380330700">
        <ele>2663.500</ele>
        <time>2020-01-21T16:50:23Z</time>
      </trkpt>
      <trkpt lat="17.043261490" lon="-96.380335600">
        <ele>2664.000</ele>
        <time>2020-01-21T16:50:29Z</time>
      </trkpt>
    </trkseg>
  </trk>
</gpx>
